Site Date LOGGERID PROGID AIRTEMP_MEAN_150_0_04 AIRTEMP_MEAN_250_0_03 AIRTEMP_MEAN_350_0_02 AIRTEMP_MEAN_450_0_01 AIRTEMP_MEAN_350_0_08 RELHUM_MEAN_150_0_04 RELHUM_MEAN_450_0_01 DEWPT_MEAN_150_0_04 DEWPT_MEAN_450_0_01 SW_IN_MEAN_600_0_01 SW_OUT_MEAN_600_0_01 SOILTEMP_MEAN_0_10_01 SOILTEMP_MEAN_0_20_02 SOILTEMP_MEAN_0_50_03 SOILTEMP_MEAN_0_100_04 BATTERY_INST_0_0_01 AIRTEMP_MAX_150_0_04 AIRTEMP_MAX_250_0_03 AIRTEMP_MAX_350_0_02 AIRTEMP_MAX_450_0_01 AIRTEMP_MAX_350_0_08 DEWPT_MAX_150_0_04 DEWPT_MAX_450_0_01 SW_IN_MAX_600_0_01 SW_OUT_MAX_600_0_01 WSPD_PRO_MAX_1000_0_01 WSPD_SNC_MAX_1000_0_02 AIRTEMP_MIN_150_0_04 AIRTEMP_MIN_250_0_03 AIRTEMP_MIN_350_0_02 AIRTEMP_MIN_450_0_01 AIRTEMP_MIN_350_0_08 DEWPT_MIN_150_0_04 DEWPT_MIN_450_0_01 SNOWDEP_INST_0_0_01 SNOWDEP_MED_0_0_01 SNOWDEP_QUAL SWE_INST_0_0_01 SWE_MED_0_0_01 WSPD_PRO_MEAN_1000_0_01 WDIR_PRO_MEAN_1000_0_01 WDIR_PRO_STDDEV_1000_0_01 WSPD_SNC_MEAN_1000_0_02 WDIR_SNC_MEAN_1000_0_02 WDIR_SNC_STDDEV_1000_0_02 SATVP_MEAN_150_0_04 VAP_MEAN_150_0_04 VPD_MEAN_150_0_04 SATVP_MEAN_450_0_01 VAP_MEAN_450_0_01 VPD_MEAN_450_0_01
WS7MET_125 2015-10-01 00:00:00 125 10426.0 10.850 11.030 11.140 11.180   71.150 70.360 5.846 6.000 0.00 0.00 14.430 14.560 14.710 14.100 12.870 10.940 11.050 11.160 11.250   5.939 6.156 0.00 0.00 0.4900 0.7000 10.800 11.020 11.130 11.070   5.756 5.831 0.00000 0.00 280 0.00 0.00 0.4400 331.60 2.78 0.5800 352.400 4.665 12.996 9.251 3.749 13.284 9.351 3.937
WS7MET_125 2015-09-30 23:55:00 125 10426.0 10.890 11.020 11.130 11.180   71.240 70.930 5.896 6.112 0.00 0.00 14.440 14.560 14.710 14.100 12.870 10.940 11.050 11.150 11.310   5.960 6.249 0.00 0.00 0.6210 0.7000 10.800 10.980 11.090 11.070   5.790 5.988 0.00000 0.00 242 0.00 0.00 0.5030 336.40 6.60 0.5650 348.000 6.804 13.030 9.283 3.748 13.284 9.423 3.862
WS7MET_125 2015-09-30 23:50:00 125 10426.0 10.960 11.020 11.120 11.210   70.440 70.310 5.797 6.015 0.00 0.00 14.450 14.560 14.710 14.100 12.870 11.040 11.090 11.190 11.310   5.944 6.104 0.00 0.00 0.5420 0.7000 10.870 10.980 11.080 11.110   5.660 5.939 0.00000 0.00 272 0.00 0.00 0.4540 332.60 2.35 0.5850 352.300 6.048 13.091 9.220 3.870 13.310 9.360 3.952
WS7MET_125 2015-09-30 23:45:00 125 10426.0 11.020 11.120 11.230 11.330   70.700 70.010 5.917 6.065 0.00 0.00 14.450 14.560 14.710 14.100 12.870 11.110 11.160 11.270 11.450   6.072 6.133 0.00 0.00 0.5360 0.6000 10.940 11.100 11.200 11.250   5.787 5.865 0.00000 0.00 392 0.00 0.00 0.4330 335.60 1.45 0.5500 347.000 5.248 13.144 9.297 3.851 13.417 9.393 4.024
WS7MET_125 2015-09-30 23:40:00 125 10426.0 11.090 11.210 11.330 11.400   70.400 70.100 5.923 6.158 0.00 0.00 14.460 14.560 14.710 14.100 12.870 11.140 11.240 11.350 11.520   6.127 6.344 0.00 0.00 0.4830 0.7000 10.970 11.170 11.290 11.280   5.726 5.987 0.00000 0.00 239 0.00 0.00 0.4120 338.50 1.87 0.5250 352.800 4.467 13.205 9.301 3.909 13.479 9.453 4.030
WS7MET_125 2015-09-30 23:35:00 125 10426.0 11.140 11.260 11.370 11.430   70.100 69.580 5.910 6.079 0.00 0.00 14.460 14.560 14.710 14.090 12.870 11.280 11.290 11.390 11.520   6.018 6.193 0.00 0.00 0.5030 0.6000 11.070 11.240 11.350 11.350   5.793 5.951 0.00000 0.00 402 0.00 0.00 0.4520 336.40 1.05 0.5600 348.200 4.695 13.249 9.292 3.961 13.506 9.402 4.109
WS7MET_125 2015-09-30 23:30:00 125 10426.0 11.140 11.290 11.400 11.420   69.980 69.830 5.880 6.121 0.00 0.00 14.470 14.560 14.710 14.100 12.880 11.250 11.300 11.410 11.520   5.988 6.278 0.00 0.00 0.4700 0.6000 11.040 11.280 11.370 11.350   5.798 6.005 0.00000 0.00 317 0.00 0.00 0.4030 341.90 6.52 0.4850 359.500 8.790 13.249 9.273 3.977 13.497 9.429 4.072
WS7MET_125 2015-09-30 23:25:00 125 10426.0 11.160 11.280 11.390 11.460   69.630 69.080 5.830 5.998 0.00 0.00 14.470 14.560 14.700 14.100 12.880 11.210 11.300 11.430 11.520   5.922 6.136 0.00 0.00 0.5950 0.6000 11.070 11.260 11.350 11.350   5.705 5.899 0.00000 0.00 315 0.00 0.00 0.3990 339.50 2.42 0.4850 351.200 8.840 13.266 9.241 4.029 13.533 9.349 4.184
WS7MET_125 2015-09-30 23:20:00 125 10426.0 11.160 11.310 11.430 11.470   69.270 68.110 5.752 5.809 0.00 0.00 14.480 14.570 14.700 14.100 12.880 11.250 11.320 11.440 11.520   5.875 5.982 0.00 0.00 0.5810 0.7000 11.110 11.300 11.420 11.420   5.623 5.726 0.00000 0.00 388 0.00 0.00 0.4710 335.80 1.91 0.5950 353.100 3.535 13.266 9.191 4.077 13.542 9.228 4.318
WS7MET_125 2015-09-30 23:15:00 125 10426.0 11.180 11.340 11.470 11.550   69.010 68.090 5.719 5.872 0.00 0.00 14.490 14.560 14.710 14.100 12.890 11.280 11.360 11.500 11.590   5.870 6.059 0.00 0.00 0.4700 0.7000 11.040 11.320 11.440 11.420   5.536 5.686 0.00000 0.00 400 0.00 0.00 0.4190 333.60 0.38 0.5400 349.500 2.584 13.284 9.170 4.117 13.614 9.268 4.344
WS7MET_125 2015-09-30 23:10:00 125 10426.0 11.320 11.430 11.560 11.640   68.510 68.000 5.750 5.948 0.00 0.00 14.500 14.540 14.710 14.100 12.890 11.420 11.480 11.620 11.720   5.852 6.114 0.00 0.00 0.5620 0.7000 11.250 11.360 11.500 11.520   5.639 5.804 0.00000 0.00 313 0.00 0.00 0.4040 333.90 1.21 0.5400 345.400 6.304 13.408 9.190 4.222 13.695 9.317 4.382
WS7MET_125 2015-09-30 23:05:00 125 10426.0 11.430 11.540 11.660 11.730   67.340 66.790 5.604 5.775 0.00 0.00 14.500 14.560 14.710 14.100 12.890 11.550 11.600 11.700 11.890   5.816 6.005 0.00 0.00 0.4640 0.6000 11.380 11.480 11.620 11.650   5.441 5.611 0.00000 0.00 319 0.00 0.00 0.3460 340.10 0.43 0.4800 353.100 4.754 13.506 9.097 4.411 13.777 9.206 4.575
WS7MET_125 2015-09-30 23:00:00 125 10426.0 11.520 11.650 11.750 11.800   66.820 66.200 5.579 5.705 0.00 0.00 14.500 14.560 14.710 14.100 12.890 11.620 11.690 11.780 11.890   5.696 5.974 0.00 0.00 0.4770 0.7000 11.420 11.610 11.710 11.720   5.415 5.547 0.00000 0.00 471 0.00 0.00 0.4050 338.80 3.78 0.4900 355.300 8.840 13.587 9.082 4.508 13.841 9.161 4.678
WS7MET_125 2015-09-30 22:55:00 125 10426.0 11.590 11.720 11.800 11.860   66.250 65.950 5.520 5.712 0.00 0.00 14.500 14.560 14.710 14.100 12.890 11.650 11.760 11.860 12.030   5.606 5.897 0.00 0.00 0.5160 0.7000 11.480 11.690 11.780 11.760   5.431 5.539 0.00000 0.00 272 0.00 0.00 0.4730 335.10 3.18 0.5700 348.300 5.538 13.650 9.044 4.607 13.896 9.166 4.731
WS7MET_125 2015-09-30 22:50:00 125 10426.0 11.610 11.770 11.890 11.940   67.580 66.740 5.828 5.960 0.00 0.00 14.510 14.560 14.710 14.100 12.890 11.690 11.770 11.900 12.000   5.987 6.109 0.00 0.00 0.5490 0.8000 11.550 11.760 11.870 11.860   5.556 5.779 0.00000 0.00 307 0.00 0.00 0.5080 334.20 2.83 0.6500 354.200 3.985 13.668 9.240 4.431 13.969 9.325 4.646
WS7MET_125 2015-09-30 22:45:00 125 10426.0 11.670 11.800 11.910 11.980   67.180 66.740 5.797 6.001 0.00 0.00 14.520 14.560 14.710 14.100 12.890 11.760 11.830 11.940 12.060   6.038 6.229 0.00 0.00 0.5550 0.7000 11.590 11.770 11.880 11.890   5.699 5.874 0.00000 0.00 426 0.00 0.00 0.4740 333.20 4.57 0.6250 347.600 9.200 13.722 9.220 4.504 14.006 9.351 4.658
WS7MET_125 2015-09-30 22:40:00 125 10426.0 11.740 11.880 12.000 12.040   67.450 67.490 5.924 6.215 0.00 0.00 14.530 14.560 14.710 14.100 12.890 11.830 11.910 12.030 12.130   6.034 6.404 0.00 0.00 0.5230 0.7000 11.650 11.840 11.960 11.930   5.717 5.965 0.00000 0.00 236 0.00 0.00 0.4640 337.20 0.71 0.5600 354.700 6.298 13.786 9.301 4.487 14.062 9.491 4.571
WS7MET_125 2015-09-30 22:35:00 125 10426.0 11.800 11.950 12.030 12.080   67.010 66.840 5.887 6.114 0.00 0.00 14.530 14.560 14.710 14.100 12.890 11.890 11.970 12.060 12.130   5.956 6.294 0.00 0.00 0.5290 0.7000 11.690 11.910 12.020 12.000   5.771 6.013 0.00000 0.00 247 0.00 0.00 0.4770 339.60 4.56 0.5900 350.600 5.774 13.841 9.278 4.566 14.099 9.425 4.675
WS7MET_125 2015-09-30 22:30:00 125 10426.0 11.820 11.980 12.090 12.110   67.450 67.060 6.002 6.188 0.00 0.00 14.530 14.560 14.710 14.100 12.890 11.890 12.000 12.110 12.200   6.125 6.378 0.00 0.00 0.6010 0.7000 11.760 11.960 12.070 12.000   5.928 6.005 0.00000 0.00 282 0.00 0.00 0.5190 344.70 0.16 0.5800 357.500 6.498 13.859 9.352 4.511 14.127 9.473 4.653
WS7MET_125 2015-09-30 22:25:00 125 10426.0 11.790 11.940 12.030 12.060   66.970 66.570 5.872 6.036 0.00 0.00 14.540 14.560 14.710 14.100 12.900 11.860 11.960 12.070 12.130   6.052 6.305 0.00 0.00 0.5680 0.7000 11.720 11.930 12.030 11.960   5.782 5.916 0.00000 0.00 279 0.00 0.00 0.5400 344.90 0.54 0.5800 355.000 4.495 13.831 9.268 4.569 14.080 9.374 4.707
WS7MET_125 2015-09-30 22:20:00 125 10426.0 11.810 11.940 12.070 12.120   66.580 66.190 5.803 6.009 0.00 0.00 14.550 14.550 14.710 14.100 12.900 11.890 11.960 12.110 12.200   5.893 6.208 0.00 0.00 0.6470 0.6000 11.760 11.910 12.030 12.060   5.726 5.917 0.00000 0.00 353 0.00 0.00 0.4980 346.70 0.38 0.5400 357.800 6.503 13.850 9.224 4.629 14.136 9.356 4.779
WS7MET_125 2015-09-30 22:15:00 125 10426.0 11.900 12.020 12.130 12.150   66.130 65.870 5.789 5.969 0.00 0.00 14.550 14.540 14.710 14.100 12.910 12.030 12.080 12.160 12.230   5.941 6.074 0.00 0.00 0.6600 0.7000 11.760 11.960 12.110 12.030   5.681 5.867 0.00000 0.00 238 0.00 0.00 0.5500 347.40 0.54 0.5550 3.101 5.471 13.932 9.215 4.719 14.164 9.331 4.834
WS7MET_125 2015-09-30 22:10:00 125 10426.0 11.980 12.110 12.220 12.240   66.410 66.000 5.931 6.087 0.00 0.00 14.550 14.540 14.710 14.100 12.910 12.060 12.130 12.230 12.340   6.107 6.295 0.00 0.00 0.6010 0.7000 11.890 12.080 12.170 12.170   5.699 5.894 0.00000 0.00 468 0.00 0.00 0.4970 345.50 3.38 0.5650 3.201 5.632 14.006 9.306 4.705 14.248 9.407 4.844
WS7MET_125 2015-09-30 22:05:00 125 10426.0 12.010 12.170 12.260 12.260   66.660 66.010 6.014 6.101 0.00 0.00 14.550 14.540 14.710 14.100 12.910 12.060 12.180 12.280 12.340   6.189 6.231 0.00 0.00 0.4830 0.7000 11.930 12.140 12.230 12.170   5.821 5.914 0.00000 0.00 235 0.00 0.00 0.4470 342.40 1.87 0.5650 355.000 5.828 14.034 9.360 4.679 14.267 9.416 4.849
WS7MET_125 2015-09-30 22:00:00 125 10426.0 11.990 12.180 12.290 12.300   66.880 66.310 6.041 6.207 0.00 0.00 14.560 14.540 14.710 14.100 12.910 12.060 12.180 12.300 12.370   6.255 6.427 0.00 0.00 0.5290 0.7000 11.930 12.170 12.270 12.230   5.869 6.044 0.00000 0.00 270 0.00 0.00 0.4750 344.30 1.29 0.5450 353.800 5.350 14.015 9.377 4.642 14.304 9.485 4.819
WS7MET_125 2015-09-30 21:55:00 125 10426.0 12.030 12.170 12.300 12.340   66.920 66.270 6.086 6.243 0.00 0.00 14.570 14.540 14.710 14.100 12.910 12.130 12.200 12.320 12.410   6.166 6.383 0.00 0.00 0.5550 0.7000 11.960 12.160 12.270 12.300   6.010 6.157 0.00000 0.00 395 0.00 0.00 0.4870 349.10 0.41 0.5300 1.650 5.660 14.052 9.406 4.648 14.342 9.509 4.838
WS7MET_125 2015-09-30 21:50:00 125 10426.0 12.090 12.200 12.340 12.400   65.890 65.280 5.915 6.078 0.00 0.00 14.570 14.540 14.710 14.100 12.920 12.170 12.210 12.360 12.510   6.128 6.239 0.00 0.00 0.5490 0.6000 12.030 12.200 12.320 12.270   5.781 5.946 0.00000 0.00 506 0.00 0.00 0.4760 349.50 0.06 0.5450 4.313 7.215 14.108 9.296 4.812 14.399 9.401 4.999
WS7MET_125 2015-09-30 21:45:00 125 10426.0 12.130 12.240 12.380 12.460   65.250 64.450 5.818 5.950 0.00 0.00 14.570 14.540 14.710 14.100 12.920 12.200 12.280 12.400 12.510   5.899 6.025 0.00 0.00 0.5550 0.8000 12.030 12.200 12.360 12.410   5.709 5.899 0.00000 0.00 352 0.00 0.00 0.4980 351.10 1.17 0.5400 6.425 7.128 14.145 9.233 4.915 14.456 9.318 5.139
WS7MET_125 2015-09-30 21:40:00 125 10426.0 12.150 12.300 12.420 12.470   65.530 64.760 5.894 6.025 0.00 0.00 14.580 14.530 14.710 14.100 12.920 12.230 12.330 12.440 12.540   6.039 6.087 0.00 0.00 0.6730 0.7000 12.060 12.270 12.400 12.410   5.759 5.960 0.00000 0.00 245 0.00 0.00 0.5740 350.00 0.56 0.5600 3.646 4.972 14.164 9.282 4.882 14.465 9.367 5.097
WS7MET_125 2015-09-30 21:35:00 125 10426.0 12.160 12.280 12.400 12.500   65.080 64.250 5.802 5.942 0.00 0.00 14.580 14.530 14.710 14.100 12.920 12.370 12.290 12.410 12.750   6.071 6.276 0.00 0.00 0.5880 0.7000 12.060 12.260 12.390 12.410   5.569 5.814 0.00000 0.00 320 0.00 0.00 0.5000 350.20 1.16 0.5100 8.040 6.890 14.173 9.223 4.949 14.494 9.313 5.181
WS7MET_125 2015-09-30 21:30:00 125 10426.0 12.210 12.370 12.480 12.550   63.340 62.530 5.460 5.602 0.00 0.00 14.580 14.530 14.710 14.100 12.930 12.300 12.410 12.530 12.610   5.683 5.733 0.00 0.00 0.5680 0.7000 12.130 12.300 12.420 12.440   5.340 5.388 0.00000 0.00 381 0.00 0.00 0.5150 349.40 0.66 0.5150 3.319 8.300 14.220 9.007 5.213 14.541 9.096 5.449
WS7MET_125 2015-09-30 21:25:00 125 10426.0 12.240 12.390 12.510 12.520   62.380 61.120 5.271 5.242 0.00 0.00 14.590 14.530 14.710 14.100 12.930 12.340 12.410 12.520 12.580   5.415 5.388 0.00 0.00 0.6340 0.6000 12.170 12.370 12.490 12.470   5.104 5.171 0.00000 0.00 239 0.00 0.00 0.4710 349.80 2.55 0.5200 6.866 5.828 14.248 8.889 5.360 14.513 8.871 5.643
WS7MET_125 2015-09-30 21:20:00 125 10426.0 12.260 12.420 12.510 12.540   61.440 60.660 5.071 5.153 0.00 0.00 14.590 14.520 14.710 14.100 12.940 12.340 12.450 12.520 12.610   5.327 5.380 0.00 0.00 0.5950 0.7000 12.200 12.390 12.500 12.410   4.865 4.952 0.00000 0.00 314 0.00 0.00 0.4630 343.90 1.33 0.5150 359.800 6.842 14.267 8.766 5.501 14.532 8.816 5.717
WS7MET_125 2015-09-30 21:15:00 125 10426.0 12.280 12.460 12.490 12.500   59.740 59.520 4.686 4.837 0.00 0.00 14.590 14.520 14.710 14.100 12.940 12.340 12.470 12.520 12.580   5.010 5.082 0.00 0.00 0.5620 0.6000 12.200 12.450 12.460 12.440   4.366 4.532 0.00000 0.00 241 0.00 0.00 0.4630 347.20 3.50 0.4950 4.775 8.000 14.286 8.533 5.751 14.494 8.624 5.867
WS7MET_125 2015-09-30 21:10:00 125 10426.0 12.240 12.400 12.470 12.470   58.270 58.020 4.298 4.452 0.00 0.00 14.590 14.520 14.710 14.100 12.940 12.300 12.450 12.500 12.540   4.464 4.704 0.00 0.00 0.5290 0.6000 12.130 12.370 12.440 12.410   4.049 4.196 0.00000 0.00 317 0.00 0.00 0.4370 346.30 2.45 0.5150 1.652 6.884 14.248 8.304 5.946 14.465 8.395 6.072
WS7MET_125 2015-09-30 21:05:00 125 10426.0 12.210 12.350 12.430 12.470   56.090 55.600 3.720 3.841 0.00 0.00 14.590 14.520 14.710 14.100 12.950 12.270 12.380 12.470 12.580   3.923 4.033 0.00 0.00 0.5620 0.7000 12.170 12.330 12.410 12.410   3.506 3.634 0.00000 0.00 358 0.00 0.00 0.4740 341.10 0.95 0.5550 352.300 6.085 14.220 7.973 6.244 14.465 8.042 6.422
WS7MET_125 2015-09-30 21:00:00 125 10426.0 12.250 12.410 12.500 12.520   56.460 55.340 3.851 3.816 0.00 0.00 14.590 14.520 14.710 14.100 12.950 12.300 12.450 12.520 12.610   4.178 4.149 0.00 0.00 0.5490 0.6000 12.170 12.390 12.470 12.470   3.404 3.528 0.00000 0.00 428 0.00 0.00 0.4270 337.50 1.23 0.4950 348.900 4.809 14.257 8.047 6.208 14.513 8.027 6.481
WS7MET_125 2015-09-30 20:55:00 125 10426.0 12.290 12.440 12.520 12.510   55.830 54.640 3.729 3.634 0.00 0.00 14.590 14.520 14.710 14.100 12.950 12.340 12.450 12.530 12.580   4.138 3.895 0.00 0.00 0.6530 0.7000 12.200 12.430 12.510 12.410   3.535 3.505 0.00000 0.00 311 0.00 0.00 0.4550 349.30 5.62 0.5600 6.015 7.364 14.295 7.978 6.314 14.503 7.925 6.579
WS7MET_125 2015-09-30 20:50:00 125 10426.0 12.360 12.490 12.570 12.620   54.800 53.900 3.535 3.538 0.00 0.00 14.600 14.520 14.710 14.100 12.960 12.470 12.530 12.610 12.710   3.624 3.619 0.00 0.00 0.4640 0.7000 12.270 12.450 12.510 12.540   3.426 3.434 0.00000 0.00 238 0.00 0.00 0.4220 336.60 1.45 0.5350 349.300 1.275 14.361 7.870 6.491 14.608 7.872 6.734
WS7MET_125 2015-09-30 20:45:00 125 10426.0 12.460 12.580 12.680 12.720   54.910 53.880 3.657 3.631 0.00 0.00 14.610 14.520 14.710 14.100 12.960 12.510 12.630 12.740 12.810   4.028 3.889 0.00 0.00 0.5420 0.7000 12.370 12.530 12.630 12.610   3.469 3.498 0.00000 0.00 352 0.00 0.00 0.4680 340.30 0.17 0.5800 354.900 5.139 14.456 7.938 6.518 14.704 7.923 6.782
WS7MET_125 2015-09-30 20:40:00 125 10426.0 12.480 12.650 12.750 12.740   55.740 54.700 3.889 3.864 0.00 0.00 14.610 14.520 14.710 14.100 12.960 12.540 12.660 12.760 12.810   4.185 4.185 0.00 0.00 0.5550 0.7000 12.410 12.630 12.740 12.680   3.540 3.709 0.00000 0.00 285 0.00 0.00 0.5210 338.30 0.90 0.6050 353.500 3.341 14.475 8.069 6.406 14.724 8.055 6.670
WS7MET_125 2015-09-30 20:35:00 125 10426.0 12.510 12.650 12.760 12.820   56.780 55.050 4.181 4.023 0.00 0.00 14.610 14.510 14.720 14.100 12.960 12.610 12.670 12.790 12.920   4.502 4.385 0.00 0.00 0.6270 0.7000 12.440 12.640 12.740 12.750   3.930 3.805 0.00000 0.00 396 0.00 0.00 0.5200 338.40 1.48 0.5800 352.300 4.483 14.503 8.236 6.268 14.801 8.145 6.653
WS7MET_125 2015-09-30 20:30:00 125 10426.0 12.540 12.700 12.820 12.860   57.390 55.770 4.361 4.248 0.00 0.00 14.610 14.500 14.720 14.110 12.970 12.610 12.720 12.850 12.950   4.551 4.549 0.00 0.00 0.6270 0.8000 12.440 12.670 12.790 12.780   4.206 4.053 0.00000 0.00 515 0.00 0.00 0.5310 335.70 0.25 0.6400 348.900 4.446 14.532 8.341 6.192 14.840 8.275 6.564
WS7MET_125 2015-09-30 20:25:00 125 10426.0 12.580 12.740 12.870 12.900   56.080 54.540 4.067 3.969 0.00 0.00 14.610 14.490 14.720 14.110 12.980 12.640 12.770 12.900 12.990   4.356 4.219 0.00 0.00 0.5880 0.7000 12.510 12.720 12.850 12.850   3.872 3.770 0.00000 0.00 316 0.00 0.00 0.4900 336.20 0.94 0.5400 349.100 3.422 14.570 8.171 6.399 14.879 8.114 6.764
WS7MET_125 2015-09-30 20:20:00 125 10426.0 12.610 12.750 12.880 12.910   55.510 54.250 3.949 3.907 0.00 0.00 14.610 14.490 14.720 14.110 12.990 12.750 12.760 12.900 12.990   4.104 4.198 0.00 0.00 0.6530 0.7000 12.510 12.740 12.860 12.850   3.760 3.670 0.00000 0.00 285 0.00 0.00 0.5420 343.70 3.53 0.5700 354.300 6.495 14.599 8.103 6.495 14.889 8.079 6.811
WS7MET_125 2015-09-30 20:15:00 125 10426.0 12.700 12.820 12.950 13.000   54.510 51.980 3.777 3.379 0.00 0.00 14.610 14.490 14.720 14.110 12.990 12.810 12.880 13.020 13.120   3.923 3.593 0.00 0.00 0.6340 0.7000 12.610 12.760 12.900 12.920   3.525 3.246 0.00000 0.00 236 0.00 0.00 0.5320 338.20 5.81 0.6050 357.100 6.560 14.685 8.005 6.680 14.976 7.784 7.192
WS7MET_125 2015-09-30 20:10:00 125 10426.0 12.830 12.940 13.080 13.140   53.410 51.660 3.602 3.420 0.00 0.00 14.610 14.490 14.720 14.110 13.000 12.920 12.990 13.120 13.220   3.991 3.856 0.00 0.00 0.5950 0.7000 12.750 12.900 13.020 13.020   3.203 3.165 0.00000 0.00 211 0.00 0.00 0.5230 336.30 1.83 0.6300 347.600 5.387 14.811 7.907 6.900 15.114 7.806 7.306
WS7MET_125 2015-09-30 20:05:00 125 10426.0 12.950 13.090 13.210 13.250   52.060 50.710 3.355 3.265 0.00 0.00 14.610 14.490 14.720 14.110 13.000 13.020 13.160 13.260 13.330   3.555 3.411 0.00 0.00 0.5160 0.6000 12.850 12.990 13.130 13.190   3.177 3.167 0.00000 0.00 275 0.00 0.00 0.4540 346.60 0.72 0.5300 356.700 6.220 14.928 7.770 7.156 15.223 7.721 7.503
WS7MET_125 2015-09-30 20:00:00 125 10426.0 13.030 13.180 13.290 13.320   51.890 50.530 3.381 3.277 0.00 0.00 14.610 14.490 14.720 14.110 13.000 13.090 13.200 13.320 13.460   3.687 3.404 0.00 0.00 0.5100 0.7000 12.950 13.160 13.270 13.190   3.155 3.117 0.00000 0.00 583 0.00 0.00 0.4810 341.30 4.21 0.6200 0.450 4.711 15.006 7.785 7.219 15.293 7.728 7.565
WS7MET_125 2015-09-30 19:55:00 125 10426.0 13.080 13.240 13.360 13.420   52.440 50.570 3.576 3.374 0.00 0.00 14.610 14.490 14.720 14.120 13.010 13.160 13.260 13.400 13.500   3.965 3.845 0.00 0.00 0.5880 0.7000 13.020 13.200 13.320 13.360   3.168 3.265 0.00000 0.00 251 0.00 0.00 0.5160 334.80 2.46 0.6100 354.400 5.666 15.055 7.893 7.160 15.393 7.781 7.609
WS7MET_125 2015-09-30 19:50:00 125 10426.0 13.120 13.270 13.390 13.430   51.980 50.660 3.490 3.415 0.00 0.00 14.610 14.480 14.720 14.120 13.020 13.190 13.280 13.400 13.570   3.705 3.575 0.00 0.00 0.5950 0.7000 13.050 13.260 13.370 13.360   3.266 3.193 0.00000 0.00 237 0.00 0.00 0.4880 342.20 5.68 0.5150 348.800 6.734 15.094 7.845 7.248 15.403 7.803 7.600
WS7MET_125 2015-09-30 19:45:00 125 10426.0 13.170 13.340 13.470 13.540   52.390 50.390 3.650 3.439 0.00 0.00 14.600 14.480 14.720 14.110 13.020 13.290 13.410 13.540 13.630   3.869 3.711 0.00 0.00 0.6730 0.7000 13.050 13.280 13.400 13.390   3.329 3.239 0.00000 0.00 237 0.00 0.00 0.5840 344.10 5.90 0.5750 357.400 5.498 15.144 7.934 7.210 15.514 7.817 7.696
WS7MET_125 2015-09-30 19:40:00 125 10426.0 13.290 13.450 13.610 13.650   51.880 49.720 3.618 3.355 0.00 0.00 14.600 14.470 14.720 14.110 13.020 13.390 13.510 13.660 13.770   3.885 3.556 0.00 0.00 0.6600 0.9000 13.160 13.410 13.540 13.570   3.389 3.189 0.00000 0.00 390 0.00 0.00 0.6050 334.90 3.14 0.6950 347.400 4.552 15.263 7.916 7.345 15.625 7.770 7.856
WS7MET_125 2015-09-30 19:35:00 125 10426.0 13.330 13.540 13.680 13.710   51.190 49.360 3.469 3.306 0.00 0.00 14.600 14.470 14.730 14.110 13.030 13.390 13.560 13.690 13.870   4.009 3.976 0.00 0.00 0.6730 0.7000 13.220 13.510 13.670 13.630   3.166 3.049 0.00000 0.00 240 0.00 0.00 0.5110 344.60 0.34 0.5350 353.000 4.333 15.303 7.833 7.469 15.686 7.743 7.944
WS7MET_125 2015-09-30 19:30:00 125 10426.0 13.260 13.490 13.610 13.620   50.920 49.320 3.327 3.208 0.00 0.00 14.600 14.470 14.730 14.110 13.040 13.360 13.550 13.670 13.740   3.540 3.507 0.00 0.00 0.7450 0.8000 13.190 13.450 13.580 13.530   3.081 2.927 0.00000 0.00 236 0.00 0.00 0.6130 348.80 3.37 0.5900 3.005 6.438 15.233 7.755 7.476 15.595 7.690 7.903
WS7MET_125 2015-09-30 19:25:00 125 10426.0 13.240 13.450 13.550 13.550   52.040 50.120 3.617 3.371 0.00 0.00 14.600 14.470 14.730 14.110 13.050 13.330 13.470 13.580 13.630   4.064 3.547 0.00 0.00 0.6210 0.7000 13.190 13.430 13.540 13.460   3.203 3.108 0.00000 0.00 282 0.00 0.00 0.4730 350.30 5.11 0.5500 2.213 8.640 15.213 7.916 7.296 15.524 7.779 7.743
WS7MET_125 2015-09-30 19:20:00 125 10426.0 13.230 13.430 13.540 13.530   51.000 49.730 3.328 3.240 0.00 0.00 14.600 14.470 14.730 14.110 13.050 13.330 13.450 13.550 13.600   3.668 3.524 0.00 0.00 0.6530 0.7000 13.120 13.410 13.520 13.460   3.088 3.059 0.00000 0.00 237 0.00 0.00 0.5280 349.00 14.42 0.5600 7.363 5.693 15.203 7.756 7.450 15.504 7.707 7.794
WS7MET_125 2015-09-30 19:15:00 125 10426.0 13.170 13.340 13.460 13.480   51.440 50.200 3.385 3.331 0.00 0.00 14.600 14.470 14.730 14.110 13.060 13.260 13.410 13.500 13.600   3.516 3.436 0.00 0.00 0.6790 0.7000 13.020 13.290 13.430 13.390   3.216 3.205 0.00000 0.00 380 0.00 0.00 0.5840 347.20 0.42 0.6000 1.099 5.816 15.144 7.787 7.354 15.453 7.757 7.696
WS7MET_125 2015-09-30 19:10:00 125 10426.0 13.190 13.320 13.420 13.470   52.060 51.210 3.574 3.601 0.00 0.00 14.590 14.470 14.730 14.110 13.060 13.290 13.350 13.440 13.570   3.878 3.891 0.00 0.00 0.6340 0.8000 13.090 13.290 13.400 13.360   3.297 3.385 0.00000 0.00 240 0.00 0.00 0.5760 345.30 2.03 0.6500 357.700 4.231 15.164 7.892 7.269 15.443 7.907 7.535
WS7MET_125 2015-09-30 19:05:00 125 10426.0 13.280 13.380 13.450 13.500   51.730 51.270 3.572 3.652 0.00 0.00 14.590 14.460 14.730 14.110 13.070 13.390 13.430 13.520 13.600   3.694 3.752 0.00 0.00 0.4770 0.6000 13.160 13.320 13.410 13.360   3.417 3.537 0.00000 0.00 280 0.00 0.00 0.4410 347.80 0.84 0.5400 356.700 4.259 15.253 7.890 7.363 15.473 7.935 7.540
WS7MET_125 2015-09-30 19:00:00 125 10426.0 13.340 13.490 13.600 13.650   52.430 51.290 3.817 3.793 0.00 0.00 14.590 14.460 14.730 14.110 13.080 13.430 13.520 13.640 13.740   4.000 3.982 0.00 0.00 0.6140 0.7000 13.260 13.450 13.540 13.530   3.568 3.604 0.00000 0.00 279 0.00 0.00 0.5300 347.90 2.40 0.5800 1.101 6.568 15.313 8.028 7.284 15.625 8.014 7.611
WS7MET_125 2015-09-30 18:55:00 125 10426.0 13.400 13.570 13.660 13.670   52.480 51.470 3.888 3.859 0.00 0.00 14.590 14.460 14.730 14.120 13.080 13.500 13.610 13.690 13.770   3.986 3.966 0.00 0.00 0.5490 0.6000 13.360 13.510 13.640 13.570   3.774 3.771 0.00000 0.00 245 0.00 0.00 0.4680 344.40 2.17 0.5000 355.700 7.187 15.373 8.068 7.305 15.646 8.052 7.593
WS7MET_125 2015-09-30 18:50:00 125 10426.0 13.410 13.600 13.700 13.690   52.670 51.380 3.948 3.859 0.00 0.00 14.590 14.450 14.730 14.120 13.090 13.500 13.620 13.710 13.770   4.425 3.965 0.00 0.00 0.6600 0.7000 13.290 13.570 13.690 13.600   3.774 3.708 0.00000 0.00 583 0.00 0.00 0.5490 345.30 3.42 0.5550 356.200 6.106 15.383 8.102 7.281 15.666 8.052 7.617
WS7MET_125 2015-09-30 18:45:00 125 10426.0 13.370 13.550 13.670 13.650   52.510 51.240 3.866 3.777 0.00 0.00 14.580 14.450 14.740 14.130 13.100 13.430 13.570 13.690 13.740   4.082 3.872 0.00 0.00 0.7060 0.8000 13.290 13.530 13.630 13.570   3.692 3.616 0.00000 0.00 355 0.00 0.00 0.6300 337.20 0.62 0.6950 349.900 5.494 15.343 8.056 7.286 15.625 8.005 7.619
WS7MET_125 2015-09-30 18:40:00 125 10426.0 13.320 13.480 13.610 13.610   52.810 51.100 3.900 3.703 0.00 0.00 14.570 14.450 14.740 14.110 13.110 13.390 13.520 13.630 13.700   4.335 3.999 0.00 0.00 0.6470 0.8000 13.220 13.460 13.580 13.530   3.696 3.521 0.00000 0.00 241 0.00 0.00 0.5910 337.20 1.00 0.6900 346.200 4.294 15.293 8.075 7.217 15.585 7.964 7.621
WS7MET_125 2015-09-30 18:35:00 125 10426.0 13.370 13.480 13.600 13.670   54.100 52.530 4.293 4.151 0.00 0.00 14.570 14.450 14.740 14.120 13.110 13.460 13.510 13.630 13.770   4.635 4.517 0.00 0.00 0.6990 0.9000 13.290 13.460 13.580 13.560   4.013 3.842 0.00000 0.00 248 0.00 0.00 0.6360 338.30 0.35 0.7500 351.300 5.199 15.343 8.301 7.042 15.646 8.219 7.427
WS7MET_125 2015-09-30 18:30:00 125 10426.0 13.410 13.550 13.660 13.700   54.090 52.970 4.325 4.300 0.00 0.00 14.570 14.440 14.740 14.120 13.120 13.500 13.560 13.690 13.800   4.609 4.688 0.00 0.00 0.6860 0.8000 13.330 13.520 13.630 13.630   4.136 4.049 0.00000 0.00 506 0.00 0.00 0.5070 338.00 0.88 0.6050 349.000 4.572 15.383 8.320 7.062 15.676 8.306 7.372
WS7MET_125 2015-09-30 18:25:00 125 10426.0 13.530 13.620 13.730 13.790   53.890 52.950 4.384 4.372 0.00 0.00 14.560 14.450 14.730 14.120 13.130 13.630 13.700 13.800 13.870   4.622 4.724 0.00 0.00 0.7840 0.9000 13.430 13.560 13.670 13.670   4.107 4.104 0.00000 0.00 280 0.00 0.00 0.5670 332.20 3.12 0.6550 346.200 6.177 15.504 8.355 7.149 15.768 8.348 7.419
WS7MET_125 2015-09-30 18:20:00 125 10426.0 13.640 13.750 13.850 13.880   53.600 52.560 4.409 4.353 0.00 0.00 14.550 14.450 14.740 14.120 13.140 13.730 13.770 13.890 13.970   4.654 4.846 0.00 0.00 0.6790 1.0000 13.530 13.710 13.820 13.770   4.166 4.119 0.00000 0.00 238 0.00 0.00 0.5260 333.60 0.91 0.6150 346.300 3.359 15.615 8.369 7.245 15.861 8.336 7.524
WS7MET_125 2015-09-30 18:15:00 125 10426.0 13.720 13.810 13.910 13.940   52.490 51.420 4.189 4.092 0.00 0.00 14.550 14.430 14.740 14.120 13.150 13.830 13.870 13.950 14.000   4.531 4.446 0.00 0.00 0.6010 0.7000 13.630 13.780 13.890 13.870   3.940 3.880 0.00000 0.00 396 0.00 0.00 0.4850 336.70 4.19 0.5850 347.600 6.197 15.697 8.241 7.457 15.923 8.185 7.735
WS7MET_125 2015-09-30 18:10:00 125 10426.0 13.850 13.930 14.020 14.070   51.710 50.640 4.089 3.999 0.00 0.00 14.550 14.430 14.740 14.120 13.160 13.930 13.980 14.080 14.210   4.433 4.195 0.00 0.00 0.7190 0.7000 13.730 13.880 13.970 13.970   3.895 3.886 0.00000 0.00 274 0.00 0.00 0.4730 339.60 10.11 0.5600 354.200 10.300 15.830 8.183 7.644 16.057 8.132 7.926
WS7MET_125 2015-09-30 18:05:00 125 10426.0 14.030 14.080 14.180 14.260   51.350 50.320 4.155 4.088 0.00 0.00 14.530 14.440 14.740 14.120 13.160 14.140 14.160 14.260 14.340   4.369 4.362 0.00 0.00 0.7320 1.0000 13.930 13.990 14.090 14.140   3.945 3.927 0.00000 0.00 352 0.00 0.00 0.4730 334.90 8.29 0.5550 348.400 12.210 16.016 8.221 7.792 16.256 8.183 8.076
WS7MET_125 2015-09-30 18:00:00 125 10426.0 14.250 14.290 14.390 14.490   50.570 49.370 4.140 4.025 0.81 0.00 14.510 14.440 14.740 14.120 13.170 14.380 14.410 14.500 14.580   4.537 4.383 1.34 0.00 0.6660 0.7000 14.100 14.170 14.270 14.340   3.813 3.829 0.00000 0.00 395 0.00 0.00 0.5220 337.20 5.25 0.5900 348.400 8.220 16.246 8.213 8.030 16.500 8.147 8.354
WS7MET_125 2015-09-30 17:55:00 125 10426.0 14.520 14.550 14.650 14.750   49.600 47.960 4.120 3.848 1.54 0.00 14.510 14.440 14.740 14.120 13.190 14.650 14.660 14.760 14.890   4.662 4.124 2.68 0.00 0.4700 0.7000 14.370 14.410 14.510 14.580   3.817 3.666 0.00000 0.00 278 0.00 0.00 0.4260 340.40 2.41 0.5000 349.800 5.981 16.532 8.201 8.332 16.779 8.046 8.732
WS7MET_125 2015-09-30 17:50:00 125 10426.0 14.700 14.740 14.840 14.920   48.300 46.820 3.898 3.659 2.68 0.00 14.510 14.440 14.740 14.120 13.200 14.850 14.810 14.910 15.020   4.652 4.579 2.68 0.00 0.5230 0.6000 14.580 14.660 14.770 14.780   3.411 3.337 0.00000 0.00 246 0.00 0.00 0.4110 338.00 7.04 0.4900 348.100 9.870 16.725 8.074 8.647 16.964 7.939 9.022
WS7MET_125 2015-09-30 17:45:00 125 10426.0 14.880 14.890 14.990 15.130   47.170 46.000 3.732 3.605 3.96 0.00 14.500 14.430 14.730 14.120 13.210 14.990 14.980 15.100 15.260   4.067 4.196 4.03 0.00 0.6080 0.7000 14.780 14.810 14.920 14.990   3.525 3.301 0.00000 0.00 279 0.00 0.00 0.4540 336.50 6.86 0.5650 347.300 8.570 16.921 7.980 8.939 17.195 7.909 9.285
WS7MET_125 2015-09-30 17:40:00 125 10426.0 15.210 15.160 15.270 15.480   48.850 46.450 4.531 4.066 4.03 0.00 14.490 14.420 14.730 14.120 13.230 15.430 15.340 15.460 15.770   4.805 4.326 4.03 0.00 0.5490 0.6000 14.990 15.000 15.110 15.260   4.162 3.785 0.00000 0.00 242 0.00 0.00 0.3930 335.80 6.93 0.5200 348.700 7.270 17.284 8.441 8.841 17.586 8.170 9.417
WS7MET_125 2015-09-30 17:35:00 125 10426.0 15.560 15.570 15.690 15.920   48.580 45.700 4.775 4.230 4.63 0.00 14.490 14.420 14.730 14.130 13.240 15.740 15.740 15.870 16.080   5.112 4.753 5.37 0.00 0.3720 0.6000 15.400 15.370 15.480 15.670   4.283 3.756 0.00000 0.00 275 0.00 0.00 0.2470 331.10 11.53 0.4350 345.000 18.040 17.676 8.587 9.089 18.088 8.265 9.822
WS7MET_125 2015-09-30 17:30:00 125 10426.0 15.830 15.860 15.990 16.190   47.130 42.840 4.586 3.556 5.77 0.00 14.470 14.410 14.730 14.120 13.250 15.940 15.980 16.110 16.320   5.206 4.497 6.71 0.00 0.3920 0.6000 15.740 15.750 15.880 16.010   3.453 2.830 0.00000 0.00 425 0.00 0.00 0.1630 333.70 23.37 0.3600 348.500 32.050 17.985 8.474 9.508 18.403 7.882 10.519
WS7MET_125 2015-09-30 17:25:00 125 10426.0 16.090 16.140 16.280 16.490   47.100 43.000 4.815 3.880 7.38 0.13 14.460 14.410 14.730 14.120 13.270 16.320 16.300 16.450 16.690   5.288 4.612 8.05 1.34 0.3920 0.6000 15.880 15.990 16.110 16.290   4.219 3.066 0.00000 0.00 320 0.00 0.00 0.2120 342.00 16.69 0.3300 355.700 25.070 18.286 8.611 9.673 18.758 8.064 10.692
WS7MET_125 2015-09-30 17:20:00 125 10426.0 16.380 16.460 16.620 16.870   45.150 40.750 4.480 3.456 10.00 1.34 14.450 14.410 14.730 14.120 13.280 16.590 16.620 16.810 17.070   4.950 4.272 12.08 1.34 0.7250 0.8000 16.180 16.320 16.460 16.660   4.070 2.811 0.00000 0.00 360 0.00 0.00 0.3060 357.10 21.17 0.4300 9.940 23.940 18.627 8.411 10.217 19.216 7.826 11.386
WS7MET_125 2015-09-30 17:15:00 125 10426.0 16.630 16.790 16.970 17.160   41.600 37.040 3.528 2.370 13.75 2.21 14.440 14.400 14.730 14.120 13.300 16.730 16.890 17.050 17.240   4.671 3.704 16.10 2.68 0.3790 0.6000 16.490 16.650 16.830 17.070   2.684 1.471 0.00000 0.00 470 0.00 0.00 0.0670 290.40 42.76 0.3000 4.955 54.210 18.926 7.866 11.053 19.573 7.245 12.323
WS7MET_125 2015-09-30 17:10:00 125 10426.0 16.760 16.920 17.090 17.280   38.600 35.230 2.596 1.777 17.17 3.15 14.430 14.400 14.740 14.120 13.310 16.870 16.950 17.130 17.410   3.382 2.269 18.78 4.03 0.6860 0.9000 16.690 16.870 17.040 17.210   1.213 0.943 0.00000 0.00 312 0.00 0.00 0.1490 0.81 39.44 0.3000 34.140 66.220 19.083 7.363 11.717 19.722 6.944 12.774
WS7MET_125 2015-09-30 17:05:00 125 10426.0 16.990 17.060 17.240 17.490   39.160 35.000 3.001 1.874 19.52 4.03 14.410 14.400 14.740 14.120 13.320 17.100 17.210 17.390 17.720   3.885 2.266 20.12 4.03 0.5810 0.8000 16.830 16.950 17.130 17.340   1.963 1.323 0.00000 0.00 271 0.00 0.00 0.2910 355.10 31.61 0.4050 10.520 40.910 19.363 7.578 11.781 19.985 6.993 12.990
WS7MET_125 2015-09-30 17:00:00 125 10426.0 17.300 17.420 17.600 17.830   38.500 34.280 3.029 1.882 21.47 4.03 14.410 14.400 14.740 14.120 13.330 17.480 17.660 17.840 17.990   4.113 2.763 22.81 4.03 0.6470 1.3000 17.070 17.210 17.380 17.650   1.177 1.168 0.00000 0.00 247 0.00 0.00 0.2560 356.30 50.85 0.4900 14.850 60.120 19.747 7.593 12.144 20.418 6.997 13.419
WS7MET_125 2015-09-30 16:55:00 125 10426.0 17.220 17.510 17.720 17.900   33.940 31.770 1.206 0.887 23.41 4.03 14.390 14.400 14.740 14.120 13.340 17.450 17.650 17.810 17.960   2.050 1.267 24.15 4.03 0.5360 0.9000 17.100 17.390 17.610 17.790   0.826 0.617 0.00000 0.00 239 0.00 0.00 0.1770 18.05 75.87 0.4450 294.000 34.760 19.647 6.665 12.979 20.508 6.513 13.993
WS7MET_125 2015-09-30 16:50:00 125 10426.0 17.220 17.470 17.700 17.950   39.120 33.060 3.151 1.481 24.89 4.16 14.390 14.400 14.740 14.120 13.350 17.310 17.580 17.800 18.060   4.600 2.210 25.49 5.37 0.6470 0.7000 17.070 17.330 17.570 17.820   1.044 0.691 0.00000 0.00 380 0.00 0.00 0.1880 330.20 62.29 0.3400 27.330 59.000 19.647 7.659 11.961 20.573 6.798 13.772
WS7MET_125 2015-09-30 16:45:00 125 10426.0 17.280 17.420 17.690 18.020   41.430 34.970 3.990 2.275 26.90 5.37 14.370 14.400 14.740 14.120 13.360 17.380 17.560 17.810 18.090   6.525 4.957 28.17 5.37 1.1170 2.0000 17.140 17.250 17.540 17.920   1.151 0.916 0.00000 0.00 333 0.00 0.00 0.2120 316.40 49.85 0.4750 308.100 85.900 19.722 8.126 11.551 20.664 7.196 13.438
WS7MET_125 2015-09-30 16:40:00 125 10426.0 17.590 17.530 17.810 18.130   44.210 36.360 5.209 2.943 28.91 5.43 14.370 14.400 14.740 14.120 13.370 17.820 17.740 17.980 18.230   6.661 5.126 29.52 6.71 0.6400 1.0000 17.380 17.330 17.660 18.020   1.648 1.346 0.00000 0.00 236 0.00 0.00 0.2530 246.10 73.34 0.4500 247.700 68.390 20.112 8.851 11.220 20.807 7.547 13.242
WS7MET_125 2015-09-30 16:35:00 125 10426.0 17.910 17.770 18.050 18.330   41.160 38.420 4.509 3.891 29.92 6.71 14.350 14.400 14.740 14.120 13.380 18.130 17.910 18.200 18.470   5.936 5.369 30.86 6.71 1.0450 1.6000 17.720 17.660 17.930 18.200   1.706 1.422 0.00000 0.00 236 0.00 0.00 0.1470 198.80 12.16 0.4550 188.900 76.370 20.521 8.428 12.075 21.070 8.070 12.975
WS7MET_125 2015-09-30 16:30:00 125 10426.0 18.370 18.190 18.430 18.730   40.140 35.450 4.582 3.129 33.14 7.45 14.340 14.400 14.740 14.120 13.400 18.570 18.450 18.680 19.080   5.987 5.032 37.57 8.05 1.7710 2.3000 18.090 17.920 18.200 18.430   2.726 1.210 0.00000 0.00 234 0.00 0.00 0.5910 175.30 57.14 0.7600 186.000 52.050 21.123 8.471 12.644 21.604 7.647 13.946
WS7MET_125 2015-09-30 16:25:00 125 10426.0 18.780 18.650 18.890 19.240   36.200 32.940 3.445 2.525 33.81 8.59 14.330 14.400 14.740 14.120 13.410 19.010 18.740 19.000 19.390   5.349 4.982 36.22 9.39 0.4310 0.7000 18.640 18.470 18.700 19.080   1.691 1.526 0.00000 0.00 463 0.00 0.00 0.0670 347.40 56.62 0.2600 61.210 83.300 21.672 7.820 13.827 22.303 7.326 14.956
WS7MET_125 2015-09-30 16:20:00 125 10426.0 19.180 18.890 19.250 19.810   37.470 32.810 4.305 2.991 34.48 9.93 14.320 14.400 14.740 14.120 13.420 19.360 19.060 19.470 20.240   5.864 4.381 34.88 10.73 0.6400 1.0000 18.980 18.740 19.030 19.420   2.504 1.472 0.00000 0.00 211 0.00 0.00 0.2270 100.70 33.50 0.4200 124.800 38.800 22.220 8.308 13.894 23.107 7.572 15.525
WS7MET_125 2015-09-30 16:15:00 125 10426.0 19.370 19.100 19.630 20.410   39.390 32.380 5.214 3.335 41.19 11.40 14.310 14.400 14.740 14.120 13.440 19.460 19.150 19.690 20.520   5.992 4.430 50.98 12.07 0.2870 0.5000 19.290 19.060 19.500 20.210   4.120 2.039 0.00000 0.00 238 0.00 0.00 0.0280 68.74 11.35 0.2500 117.100 43.240 22.484 8.854 13.627 23.980 7.759 16.215
WS7MET_125 2015-09-30 16:10:00 125 10426.0 19.350 19.030 19.620 20.220   36.710 32.600 4.156 3.254 40.58 13.35 14.290 14.400 14.740 14.130 13.450 19.460 19.130 19.700 20.480   6.230 5.447 45.62 14.76 0.6600 0.9000 19.220 18.900 19.510 19.970   2.243 2.164 0.00000 0.00 355 0.00 0.00 0.2570 82.90 28.02 0.4600 108.500 41.770 22.456 8.222 14.212 23.701 7.715 15.974
WS7MET_125 2015-09-30 16:05:00 125 10426.0 18.940 18.880 19.430 20.040   39.310 32.930 4.784 3.256 63.53 15.83 14.280 14.400 14.740 14.130 13.460 19.180 18.940 19.560 20.170   5.982 4.868 88.50 17.44 1.6200 2.1000 18.810 18.850 19.370 19.970   3.288 2.672 0.00000 0.00 244 0.00 0.00 0.3490 101.60 76.95 0.5500 132.000 42.200 21.889 8.592 13.285 23.438 7.716 15.720
WS7MET_125 2015-09-30 16:00:00 125 10426.0 18.810 18.960 19.530 19.980   43.630 35.430 6.185 4.220 265.50 18.38 14.260 14.400 14.740 14.130 13.480 18.880 19.030 19.680 20.140   6.881 5.598 335.40 20.12 0.3330 0.7000 18.740 18.890 19.430 19.830   4.916 2.705 0.00000 0.00 285 0.00 0.00 0.1060 197.30 69.38 0.2850 191.200 35.610 21.713 9.471 12.239 23.351 8.259 15.078
WS7MET_125 2015-09-30 15:55:00 125 10426.0 18.990 19.080 19.450 19.820   43.630 37.660 6.346 4.962 342.80 20.26 14.250 14.400 14.740 14.130 13.500 19.150 19.210 19.570 20.000   7.487 6.519 348.80 21.47 0.9410 1.0000 18.810 18.980 19.340 19.700   5.216 3.105 0.00000 0.00 550 0.00 0.00 0.3900 167.60 48.62 0.5150 208.400 59.360 21.958 9.577 12.378 23.121 8.700 14.414
WS7MET_125 2015-09-30 15:50:00 125 10426.0 19.270 19.240 19.690 20.100   42.410 38.560 6.175 5.515 356.50 21.87 14.240 14.400 14.740 14.130 13.510 19.420 19.360 19.880 20.280   7.608 7.581 363.60 22.81 0.8100 1.0000 19.080 19.150 19.510 19.970   4.471 3.093 0.00000 0.00 272 0.00 0.00 0.3140 93.50 62.26 0.4250 121.100 62.260 22.344 9.464 12.868 23.525 9.041 14.454
WS7MET_125 2015-09-30 15:45:00 125 10426.0 19.580 19.720 20.240 20.620   37.660 32.620 4.740 3.619 360.10 23.41 14.220 14.400 14.740 14.130 13.530 19.700 19.830 20.360 20.750   6.342 5.051 377.00 24.15 0.9340 1.1000 19.420 19.450 19.970 20.310   2.996 2.804 0.00000 0.00 276 0.00 0.00 0.2470 152.90 28.92 0.4500 173.100 56.180 22.779 8.566 14.201 24.293 7.917 16.368
WS7MET_125 2015-09-30 15:40:00 125 10426.0 19.700 19.900 20.340 20.800   38.080 32.610 4.981 3.774 280.10 25.29 14.210 14.400 14.740 14.140 13.550 19.830 20.020 20.460 20.960   6.760 5.714 381.00 26.83 0.6730 1.0000 19.590 19.820 20.250 20.650   3.199 2.884 0.00000 0.00 240 0.00 0.00 0.3520 128.90 36.91 0.4750 142.000 48.120 22.950 8.711 14.210 24.563 8.004 16.553
WS7MET_125 2015-09-30 15:35:00 125 10426.0 19.790 19.990 20.470 21.040   39.180 33.150 5.496 4.222 206.60 27.17 14.200 14.400 14.740 14.130 13.570 20.000 20.120 20.560 21.130   6.887 5.456 233.40 28.17 0.7510 1.0000 19.700 19.880 20.400 20.960   3.504 3.350 0.00000 0.00 318 0.00 0.00 0.3670 198.50 87.60 0.5500 234.700 56.030 23.078 9.029 14.036 24.928 8.260 16.665
WS7MET_125 2015-09-30 15:30:00 125 10426.0 19.840 20.250 20.710 21.150   36.810 32.210 4.612 3.901 149.90 28.98 14.180 14.400 14.740 14.120 13.620 19.970 20.390 20.900 21.370   7.137 5.315 256.30 29.52 1.2810 1.7000 19.730 20.110 20.520 20.990   3.016 2.585 0.00000 0.00 241 0.00 0.00 0.5020 190.50 43.86 0.7000 202.700 35.030 23.150 8.489 14.628 25.097 8.076 17.013
WS7MET_125 2015-09-30 15:25:00 125 10426.0 19.850 20.070 20.370 20.880   38.740 32.770 5.401 3.929 145.00 30.99 14.170 14.400 14.740 14.120 13.710 20.110 20.210 20.590 21.060   6.649 4.616 189.20 32.20 0.9800 1.2000 19.590 19.970 20.220 20.720   4.325 3.307 0.00000 0.00 316 0.00 0.00 0.4660 133.30 28.29 0.5800 154.700 46.230 23.164 8.970 14.190 24.685 8.092 16.595
WS7MET_125 2015-09-30 15:20:00 125 10426.0 20.310 20.450 20.690 21.140   36.520 31.710 4.959 3.679 177.20 33.21 14.160 14.400 14.740 14.130 13.830 20.580 20.610 20.850 21.230   5.701 4.431 289.80 34.88 1.4050 1.9000 20.070 20.280 20.530 21.030   3.696 2.997 0.00000 0.00 209 0.00 0.00 0.7960 130.00 33.26 1.0550 152.400 41.600 23.833 8.698 15.129 25.082 7.950 17.128
WS7MET_125 2015-09-30 15:15:00 125 10426.0 20.590 20.650 20.880 21.260   36.270 31.560 5.106 3.720 379.70 36.02 14.140 14.400 14.750 14.130 13.760 20.690 20.700 20.940 21.330   6.543 4.850 460.20 37.57 1.4700 1.8000 20.450 20.610 20.800 21.100   3.865 3.024 0.00000 0.00 204 0.00 0.00 0.8050 160.80 35.15 0.9050 166.500 33.200 24.248 8.787 15.453 25.267 7.973 17.293
WS7MET_125 2015-09-30 15:10:00 125 10426.0 20.560 20.840 21.020 21.510   37.670 30.690 5.613 3.546 471.90 38.71 14.130 14.400 14.750 14.130 13.720 20.650 21.000 21.250 21.780   6.587 4.403 479.00 40.25 1.2740 1.2000 20.450 20.590 20.770 21.230   2.905 2.584 0.00000 0.00 205 0.00 0.00 0.6170 141.50 44.25 0.6700 158.100 38.160 24.203 9.103 15.086 25.657 7.876 17.783
WS7MET_125 2015-09-30 15:05:00 125 10426.0 20.540 21.020 21.240 21.670   35.360 30.600 4.688 3.623 485.60 42.06 14.110 14.400 14.750 14.130 13.650 20.650 21.150 21.370 21.780   6.309 5.329 492.40 44.27 1.2810 1.6000 20.410 20.940 21.130 21.500   3.012 2.596 0.00000 0.00 393 0.00 0.00 0.7550 175.80 58.78 0.8400 201.500 54.450 24.173 8.534 15.626 25.909 7.919 17.981
WS7MET_125 2015-09-30 15:00:00 125 10426.0 20.400 20.840 21.060 21.530   32.690 29.010 3.462 2.767 499.30 45.55 14.100 14.400 14.750 14.130 13.690 20.620 21.040 21.250 21.740   5.373 3.754 505.80 46.96 1.4630 1.5000 20.310 20.680 20.890 21.400   2.634 2.177 0.00000 0.00 243 0.00 0.00 0.7940 139.10 43.00 0.8050 160.100 43.850 23.965 7.829 16.131 25.688 7.453 18.236
WS7MET_125 2015-09-30 14:55:00 125 10426.0 20.800 21.090 21.200 21.770   32.690 28.060 3.798 2.497 511.70 49.77 14.080 14.400 14.750 14.130 13.750 20.960 21.380 21.460 22.050   5.523 3.080 519.20 52.32 1.4770 1.8000 20.520 20.710 20.890 21.400   2.059 1.847 0.00000 0.00 210 0.00 0.00 0.8470 138.30 23.96 0.9550 146.700 25.460 24.563 8.017 16.534 26.068 7.311 18.753
WS7MET_125 2015-09-30 14:50:00 125 10426.0 20.890 21.230 21.480 21.840   35.920 29.740 5.224 3.361 523.40 54.07 14.070 14.400 14.750 14.130 13.800 20.960 21.310 21.750 21.980   6.663 4.955 528.60 56.35 1.1760 1.8000 20.820 21.130 21.330 21.740   2.996 1.695 0.00000 0.00 243 0.00 0.00 0.6940 150.30 33.57 0.8000 164.300 26.940 24.700 8.860 15.828 26.180 7.774 18.394
WS7MET_125 2015-09-30 14:45:00 125 10426.0 20.720 21.170 21.700 21.730   33.100 29.030 3.919 2.942 535.60 58.36 14.060 14.400 14.750 14.130 13.940 20.960 21.310 21.860 21.950   4.998 4.082 540.70 60.37 1.2350 1.8000 20.520 21.020 21.440 21.500   2.755 2.044 0.00000 0.00 207 0.00 0.00 0.6870 174.20 39.67 0.8200 181.800 42.400 24.443 8.086 16.352 26.004 7.546 18.455
WS7MET_125 2015-09-30 14:40:00 125 10426.0 20.390 20.920 21.110 21.280   36.730 31.220 5.068 3.568 547.10 62.52 14.040 14.400 14.750 14.140 14.130 20.550 21.080 21.470 21.610   7.091 5.136 554.10 64.40 1.0450 1.1000 20.240 20.790 20.940 21.100   2.661 2.366 0.00000 0.00 202 0.00 0.00 0.3020 128.00 32.24 0.5500 160.100 36.060 23.951 8.764 15.154 25.298 7.888 17.400
WS7MET_125 2015-09-30 14:35:00 125 10426.0 20.300 20.750 20.970 21.360   36.610 31.830 4.930 3.909 556.70 66.08 14.030 14.400 14.750 14.140 14.210 20.410 20.850 21.080 21.540   7.124 5.579 560.80 67.08 0.8950 0.8000 20.170 20.550 20.780 21.100   2.561 2.302 0.00000 0.00 238 0.00 0.00 0.3550 150.00 30.69 0.4850 150.700 26.870 23.818 8.680 15.098 25.422 8.080 17.330
WS7MET_125 2015-09-30 14:30:00 125 10426.0 20.310 20.590 20.760 21.140   38.120 32.330 5.566 3.953 566.30 69.03 14.020 14.400 14.750 14.130 14.230 20.450 20.680 20.840 21.270   6.833 4.330 571.50 69.76 1.4830 2.0000 20.170 20.440 20.620 20.960   2.898 2.464 0.00000 0.00 202 0.00 0.00 0.7320 150.00 39.60 0.9150 168.500 38.330 23.833 9.073 14.748 25.082 8.105 16.973
WS7MET_125 2015-09-30 14:25:00 125 10426.0 20.620 20.880 20.980 21.440   36.450 32.060 5.210 4.100 576.30 71.04 14.010 14.410 14.750 14.130 14.210 20.860 21.120 21.240 21.670   6.067 4.553 580.90 72.45 1.2810 1.5000 20.410 20.710 20.850 21.230   3.895 3.442 0.00000 0.00 203 0.00 0.00 0.8090 147.50 42.89 1.0350 162.700 36.690 24.293 8.851 15.438 25.547 8.190 17.357
WS7MET_125 2015-09-30 14:20:00 125 10426.0 21.240 21.250 21.420 21.910   38.930 33.330 6.713 5.062 585.20 73.45 13.990 14.410 14.750 14.130 14.200 21.710 21.690 21.810 22.190   7.971 6.855 589.00 75.13 1.4050 1.5000 20.790 21.040 21.200 21.670   4.554 4.034 0.00000 0.00 206 0.00 0.00 0.9330 151.30 35.63 1.0550 166.300 35.320 25.236 9.822 15.412 26.292 8.760 17.529
WS7MET_125 2015-09-30 14:15:00 125 10426.0 21.960 22.030 22.180 22.270   37.760 34.310 6.906 5.789 523.80 75.94 13.980 14.410 14.750 14.130 14.180 22.320 22.440 22.650 22.530   8.090 6.666 593.00 77.81 1.8030 2.3000 21.640 21.800 21.920 22.150   5.013 4.041 0.00000 0.00 216 0.00 0.00 0.7830 148.30 48.62 1.1850 169.700 57.630 26.372 9.953 16.414 26.874 9.215 17.654
WS7MET_125 2015-09-30 14:10:00 125 10426.0 22.320 22.210 22.490 22.360   35.520 34.190 6.349 5.832 491.00 78.62 13.970 14.420 14.750 14.130 14.170 22.530 22.370 22.650 22.460   7.051 6.301 599.70 79.16 2.5680 3.0000 22.120 22.020 22.310 22.220   5.828 5.464 0.00000 0.00 232 0.00 0.00 0.8400 181.80 39.47 1.1300 205.800 40.780 26.956 9.579 17.381 27.022 9.242 17.783
WS7MET_125 2015-09-30 14:05:00 125 10426.0 22.690 22.270 22.480 22.440   35.040 32.980 6.466 5.382 330.60 80.50 13.960 14.420 14.740 14.130 14.160 22.970 22.480 22.650 22.530   7.634 6.222 587.60 81.80 1.4500 1.3000 22.430 22.050 22.260 22.250   5.584 5.012 0.00000 0.00 209 0.00 0.00 0.7170 173.60 44.12 0.8550 188.000 32.500 27.569 9.657 17.909 27.154 8.958 18.198
WS7MET_125 2015-09-30 14:00:00 125 10426.0 23.230 22.860 22.920 22.650   36.820 34.980 7.654 6.401 169.40 82.40 13.950 14.420 14.740 14.130 14.160 23.450 23.160 23.220 22.800   9.150 8.290 368.90 83.20 1.1240 1.3000 22.970 22.490 22.630 22.430   5.763 5.148 0.00000 0.00 205 0.00 0.00 0.5630 160.60 30.25 0.7000 169.000 23.310 28.484 10.477 17.996 27.502 9.613 17.882
WS7MET_125 2015-09-30 13:55:00 125 10426.0 22.700 22.620 22.740 22.580   35.280 33.510 6.577 5.736 274.80 84.80 13.930 14.420 14.740 14.130 14.170 23.040 22.990 23.220 22.940   7.902 6.933 391.80 85.90 1.3980 1.5000 22.490 22.220 22.280 22.320   5.255 4.832 0.00000 0.00 205 0.00 0.00 0.3950 199.00 31.34 0.5800 191.800 38.680 27.585 9.731 17.853 27.385 9.181 18.208
WS7MET_125 2015-09-30 13:50:00 125 10426.0 22.440 22.230 22.480 22.510   37.450 33.670 7.202 5.742 438.80 87.70 13.920 14.420 14.740 14.130 14.140 22.560 22.430 22.700 22.800   9.190 6.272 625.20 88.50 1.3000 1.1000 22.220 22.050 22.260 22.220   5.584 4.729 0.00000 0.00 309 0.00 0.00 0.4640 156.70 30.90 0.6300 168.500 24.780 27.154 10.158 16.985 27.269 9.185 18.088
WS7MET_125 2015-09-30 13:45:00 125 10426.0 22.470 22.280 22.670 22.790   34.940 32.720 6.209 5.562 644.90 90.50 13.910 14.420 14.740 14.130 13.900 22.600 22.380 22.830 23.010   8.550 6.962 650.70 92.60 1.4240 1.9000 22.360 22.210 22.540 22.600   4.382 4.719 0.00000 0.00 209 0.00 0.00 0.5510 180.70 51.25 0.7950 180.300 53.290 27.203 9.487 17.698 27.736 9.071 18.661
WS7MET_125 2015-09-30 13:40:00 125 10426.0 22.810 22.390 22.890 22.840   36.400 33.230 7.123 5.828 654.40 93.80 13.900 14.420 14.740 14.130 13.780 22.970 22.700 23.180 23.040   8.470 7.659 657.40 95.30 1.1630 1.8000 22.460 22.090 22.700 22.630   5.823 5.108 0.00000 0.00 243 0.00 0.00 0.6990 138.30 54.64 0.8400 152.500 42.370 27.770 10.103 17.662 27.820 9.240 18.576
WS7MET_125 2015-09-30 13:35:00 125 10426.0 22.690 22.520 22.770 22.850   34.340 32.460 6.172 5.515 658.50 96.30 13.890 14.430 14.740 14.140 13.790 22.830 22.650 23.150 23.070   7.737 6.180 662.80 97.90 1.8360 1.2000 22.600 22.430 22.470 22.630   5.191 5.099 0.00000 0.00 214 0.00 0.00 0.4650 200.10 44.53 0.5550 194.000 46.790 27.569 9.462 18.102 27.837 9.041 18.801
WS7MET_125 2015-09-30 13:30:00 125 10426.0 22.980 22.890 22.870 22.690   33.530 32.260 6.083 5.277 666.70 99.20 13.880 14.420 14.740 14.140 13.820 23.110 23.070 23.080 22.800   7.433 6.128 670.80 100.60 1.7180 2.3000 22.770 22.480 22.550 22.600   4.676 4.122 0.00000 0.00 231 0.00 0.00 0.7960 193.70 54.27 1.1350 195.000 44.100 28.057 9.404 18.649 27.569 8.893 18.675
WS7MET_125 2015-09-30 13:25:00 125 10426.0 22.670 22.870 22.770 22.530   35.320 33.010 6.554 5.474 675.40 102.30 13.860 14.430 14.740 14.140 13.920 22.940 23.070 22.920 22.630   8.260 6.037 686.90 104.60 0.7190 0.9000 22.220 22.440 22.450 22.220   4.957 4.823 0.00000 0.00 239 0.00 0.00 0.3400 178.90 40.86 0.5850 187.400 32.470 27.535 9.715 17.810 27.302 9.015 18.290
WS7MET_125 2015-09-30 13:20:00 125 10426.0 22.190 22.030 22.080 22.080   33.060 31.600 5.191 4.458 688.80 106.90 13.850 14.430 14.750 14.120 14.120 22.430 22.370 22.380 22.190   6.781 4.791 703.00 108.70 1.4440 1.4000 22.050 21.820 21.900 21.910   4.256 4.117 0.00000 0.00 236 0.00 0.00 0.6230 133.20 46.45 0.7350 147.100 38.560 26.744 8.840 17.902 26.565 8.398 18.171
WS7MET_125 2015-09-30 13:15:00 125 10426.0 22.200 22.130 22.210 22.070   36.290 33.450 6.528 5.249 679.90 106.70 13.850 14.430 14.750 14.120 14.210 22.490 22.530 22.590 22.290   7.957 6.916 705.70 110.00 1.7640 2.2000 21.950 21.850 21.930 21.950   3.943 3.720 0.00000 0.00 241 0.00 0.00 0.5730 159.10 44.16 0.8050 166.500 31.180 26.760 9.698 17.049 26.549 8.875 17.668
WS7MET_125 2015-09-30 13:10:00 125 10426.0 22.120 21.810 21.920 21.920   36.700 33.230 6.636 5.034 717.60 115.80 13.830 14.440 14.740 14.130 14.230 22.190 21.970 22.140 22.050   7.907 5.782 750.00 123.40 1.0520 1.3000 22.050 21.680 21.770 21.780   5.017 4.673 0.00000 0.00 331 0.00 0.00 0.5420 129.60 46.87 0.6850 147.000 44.180 26.630 9.770 16.857 26.308 8.743 17.566
WS7MET_125 2015-09-30 13:05:00 125 10426.0 22.120 21.930 22.080 22.000   37.000 32.930 6.750 4.973 602.70 100.40 13.830 14.450 14.740 14.130 14.230 22.190 22.070 22.210 22.150   8.210 5.984 743.30 123.40 1.2280 1.4000 22.050 21.820 21.960 21.850   5.357 4.583 0.00000 0.00 203 0.00 0.00 0.5660 148.50 40.67 0.6950 168.600 56.980 26.630 9.847 16.777 26.436 8.706 17.731
WS7MET_125 2015-09-30 13:00:00 125 10426.0 22.220 22.120 22.320 22.320   35.890 32.050 6.399 4.864 645.10 108.60 13.820 14.450 14.740 14.130 14.240 22.360 22.280 22.490 22.490   7.425 5.742 736.60 124.80 0.8490 0.9000 22.080 21.920 22.070 22.080   4.894 4.424 0.00000 0.00 204 0.00 0.00 0.5190 118.20 20.90 0.6300 142.300 30.670 26.793 9.612 17.177 26.956 8.640 18.317
WS7MET_125 2015-09-30 12:55:00 125 10426.0 22.230 22.400 22.660 22.360   36.810 32.810 6.768 5.237 643.20 110.00 13.810 14.430 14.740 14.130 14.250 22.390 22.700 22.960 22.490   7.863 6.049 751.30 128.80 1.0060 1.7000 22.080 22.080 22.340 22.190   4.775 4.429 0.00000 0.00 246 0.00 0.00 0.5330 149.30 38.87 0.6850 168.200 40.740 26.809 9.860 16.941 27.022 8.868 18.156
WS7MET_125 2015-09-30 12:50:00 125 10426.0 22.000 22.480 22.710 22.360   35.290 32.390 5.948 5.047 716.40 125.20 13.810 14.440 14.740 14.130 14.270 22.120 22.580 22.860 22.490   7.642 6.767 719.10 127.50 1.1110 1.1000 21.910 22.360 22.490 22.220   4.688 4.210 0.00000 0.00 210 0.00 0.00 0.3660 183.60 28.72 0.5550 203.900 31.040 26.436 9.317 17.107 27.022 8.751 18.269
WS7MET_125 2015-09-30 12:45:00 125 10426.0 21.890 22.090 22.290 22.070   31.860 30.630 4.412 4.005 701.50 125.60 13.790 14.450 14.740 14.130 14.260 22.020 22.320 22.500 22.220   5.120 4.943 744.60 134.20 1.7250 2.1000 21.780 21.850 22.090 21.910   3.652 3.355 0.00000 0.00 208 0.00 0.00 0.6240 229.40 42.66 0.8750 234.200 40.590 26.259 8.371 17.893 26.549 8.135 18.417
WS7MET_125 2015-09-30 12:40:00 125 10426.0 21.810 21.820 22.160 21.810   36.030 33.090 6.082 4.871 661.20 120.40 13.780 14.450 14.740 14.130 14.270 21.910 21.980 22.290 22.020   7.250 5.665 756.70 136.80 0.8750 1.2000 21.610 21.660 21.970 21.610   4.357 4.160 0.00000 0.00 235 0.00 0.00 0.4830 157.50 49.76 0.6850 185.400 50.580 26.132 9.404 16.716 26.132 8.644 17.485
WS7MET_125 2015-09-30 12:35:00 125 10426.0 21.690 21.660 21.880 21.750   36.350 32.510 6.092 4.568 603.30 109.90 13.780 14.460 14.740 14.130 14.250 21.810 21.860 22.090 21.950   8.190 5.419 762.00 139.50 1.0130 1.3000 21.470 21.380 21.530 21.470   3.909 3.604 0.00000 0.00 235 0.00 0.00 0.5130 184.40 43.60 0.6700 203.000 40.200 25.941 9.410 16.511 26.036 8.463 17.572
WS7MET_125 2015-09-30 12:30:00 125 10426.0 21.820 21.480 21.540 21.440   34.150 31.960 5.308 4.053 688.50 125.00 13.770 14.460 14.740 14.130 14.260 22.020 21.690 21.650 21.640   6.992 4.761 754.00 136.80 1.3070 1.4000 21.670 21.360 21.460 21.270   3.832 3.570 0.00000 0.00 236 0.00 0.00 0.6460 116.20 29.60 0.8050 136.800 24.110 26.148 8.912 17.218 25.547 8.163 17.382
WS7MET_125 2015-09-30 12:25:00 125 10426.0 21.550 21.310 21.350 21.220   40.040 34.810 7.405 5.079 716.90 129.50 13.770 14.470 14.740 14.130 14.270 21.910 21.640 21.580 21.400   8.100 6.887 762.00 138.20 0.8890 1.8000 21.370 21.060 21.190 21.060   6.395 4.152 0.00000 0.00 203 0.00 0.00 0.5150 148.30 16.16 0.6700 168.700 20.420 25.720 10.300 15.422 25.205 8.771 16.431
WS7MET_125 2015-09-30 12:20:00 125 10426.0 21.440 21.340 21.480 21.280   38.300 34.770 6.634 5.115 652.40 117.50 13.770 14.470 14.740 14.130 14.280 21.540 21.490 21.700 21.470   8.600 6.170 794.20 143.60 1.0130 1.0000 21.270 21.180 21.260 21.130   3.922 4.017 0.00000 0.00 236 0.00 0.00 0.5520 140.30 46.13 0.6900 156.100 45.680 25.547 9.769 15.763 25.298 8.793 16.502
WS7MET_125 2015-09-30 12:15:00 125 10426.0 21.270 21.230 21.340 21.160   35.700 32.940 5.475 4.242 558.10 100.20 13.770 14.470 14.740 14.130 14.270 21.400 21.350 21.460 21.300   7.032 5.302 708.40 127.50 0.8040 1.0000 21.030 20.960 21.090 20.820   4.226 3.234 0.00000 0.00 230 0.00 0.00 0.3690 122.60 16.97 0.5150 137.300 37.590 25.283 9.016 16.257 25.113 8.272 16.841
WS7MET_125 2015-09-30 12:10:00 125 10426.0 21.350 21.140 21.190 20.920   36.540 34.340 5.889 4.623 528.50 94.70 13.770 14.470 14.740 14.130 14.240 21.500 21.440 21.380 21.030   6.860 6.085 756.70 135.50 1.2020 1.6000 21.100 20.860 20.960 20.790   4.774 3.491 0.00000 0.00 241 0.00 0.00 0.6930 116.30 28.02 0.8100 134.100 22.690 25.407 9.279 16.123 24.745 8.496 16.248
WS7MET_125 2015-09-30 12:05:00 125 10426.0 21.060 21.150 21.230 21.030   39.420 35.470 6.719 5.183 695.90 124.10 13.750 14.470 14.730 14.130 14.270 21.470 21.530 21.430 21.160   8.300 6.158 737.90 131.50 0.9020 1.1000 20.820 20.820 20.970 20.920   4.652 4.668 0.00000 0.00 208 0.00 0.00 0.4340 162.30 38.82 0.7100 163.100 28.820 24.959 9.826 15.120 24.913 8.835 16.076
WS7MET_125 2015-09-30 12:00:00 125 10426.0 20.910 20.720 20.950 20.700   39.430 36.470 6.581 5.278 690.70 124.80 13.750 14.470 14.740 14.130 14.280 21.060 20.980 21.190 20.990   8.030 6.783 752.70 136.80 1.1240 1.3000 20.820 20.520 20.760 20.450   4.383 4.032 0.00000 0.00 234 0.00 0.00 0.5810 138.30 52.82 0.7250 166.500 40.820 24.730 9.733 14.979 24.413 8.893 15.509
WS7MET_125 2015-09-30 11:55:00 125 10426.0 20.830 20.600 20.760 20.420   40.570 37.940 6.937 5.609 600.30 109.30 13.750 14.480 14.730 14.130 14.280 20.920 20.700 21.020 20.550   8.370 6.995 791.60 146.20 0.7380 0.8000 20.750 20.460 20.540 20.240   5.494 4.903 0.00000 0.00 209 0.00 0.00 0.4170 167.40 25.23 0.5500 169.900 33.320 24.609 9.975 14.625 23.995 9.100 14.891
WS7MET_125 2015-09-30 11:50:00 125 10426.0 20.510 20.320 20.360 20.140   41.330 37.780 6.895 5.296 627.20 116.30 13.750 14.480 14.730 14.130 14.280 20.720 20.630 20.660 20.410   9.230 6.777 787.50 146.20 0.9730 1.3000 20.280 19.940 19.950 19.870   4.908 4.598 0.00000 0.00 237 0.00 0.00 0.5120 148.70 26.46 0.7300 161.600 27.880 24.129 9.946 14.156 23.584 8.905 14.674
WS7MET_125 2015-09-30 11:45:00 125 10426.0 20.420 20.020 20.120 20.050   41.560 38.980 6.938 5.678 573.20 109.00 13.750 14.480 14.740 14.130 14.290 20.550 20.150 20.270 20.170   8.310 6.618 768.80 144.90 0.9470 1.1000 20.340 19.940 19.970 19.940   6.164 5.290 0.00000 0.00 238 0.00 0.00 0.5790 114.20 11.23 0.7300 131.100 17.310 23.995 9.975 14.023 23.453 9.144 14.311
WS7MET_125 2015-09-30 11:40:00 125 10426.0 20.680 20.300 20.430 20.120   41.910 39.480 7.294 5.916 482.00 91.80 13.750 14.490 14.740 14.130 14.270 20.790 20.420 20.620 20.240   8.060 7.223 748.70 143.60 0.6340 1.0000 20.580 20.120 20.210 20.000   6.242 5.155 0.00000 0.00 550 0.00 0.00 0.3930 152.10 15.98 0.5700 171.200 21.620 24.383 10.222 14.164 23.554 9.296 14.255
WS7MET_125 2015-09-30 11:35:00 125 10426.0 20.570 20.260 20.440 20.240   43.230 38.650 7.643 5.710 498.30 95.30 13.750 14.490 14.740 14.130 14.270 20.690 20.370 20.620 20.520   9.100 6.760 756.70 146.20 0.6140 0.9000 20.450 20.170 20.240 20.000   6.489 4.426 0.00000 0.00 201 0.00 0.00 0.3380 171.80 21.02 0.5400 176.800 23.890 24.218 10.469 13.749 23.730 9.164 14.558
WS7MET_125 2015-09-30 11:30:00 125 10426.0 20.520 20.350 20.580 20.460   41.140 37.070 6.869 5.321 544.20 105.10 13.760 14.500 14.740 14.130 14.290 20.620 20.460 20.670 20.550   8.320 5.537 752.70 146.30 0.6470 0.9000 20.410 20.180 20.390 20.310   6.011 4.546 0.00000 0.00 211 0.00 0.00 0.4980 125.30 17.73 0.6200 154.800 18.930 24.143 9.928 14.211 24.054 8.920 15.137
WS7MET_125 2015-09-30 11:25:00 125 10426.0 20.590 20.330 20.490 20.310   42.190 38.400 7.308 5.696 709.80 139.00 13.760 14.510 14.740 14.130 14.290 20.690 20.390 20.570 20.450   8.040 6.360 736.70 144.90 0.9410 1.0000 20.450 20.230 20.340 20.210   6.475 5.036 0.00000 0.00 209 0.00 0.00 0.5810 140.10 18.43 0.6850 158.800 23.070 24.248 10.232 14.018 23.833 9.156 14.681
WS7MET_125 2015-09-30 11:20:00 125 10426.0 20.340 19.960 20.120 20.050   41.680 38.710 6.894 5.581 582.80 115.00 13.770 14.510 14.750 14.130 14.280 20.520 20.270 20.360 20.410   8.140 6.260 767.60 153.00 0.9730 1.7000 20.170 19.720 19.870 19.800   5.447 4.952 0.00000 0.00 211 0.00 0.00 0.3760 136.50 56.55 0.5550 146.200 45.320 23.877 9.945 13.925 23.453 9.083 14.374
WS7MET_125 2015-09-30 11:15:00 125 10426.0 20.330 20.140 20.360 20.220   42.450 37.720 7.156 5.353 510.80 101.00 13.770 14.510 14.750 14.130 14.260 20.450 20.300 20.580 20.380   8.420 6.113 744.80 149.00 1.1110 1.1000 20.240 19.830 19.950 20.000   5.706 4.444 0.00000 0.00 231 0.00 0.00 0.6910 125.40 18.85 0.7200 145.500 17.210 23.862 10.126 13.733 23.701 8.940 14.761
WS7MET_125 2015-09-30 11:10:00 125 10426.0 20.080 20.010 20.290 20.090   39.430 36.670 5.856 4.836 666.50 133.30 13.770 14.510 14.750 14.130 14.300 20.170 20.290 20.660 20.380   7.211 5.542 740.80 149.00 0.8300 1.4000 19.970 19.830 19.990 19.870   4.594 4.004 0.00000 0.00 207 0.00 0.00 0.4240 161.60 30.15 0.6250 172.600 35.620 23.496 9.258 14.232 23.511 8.623 14.889
WS7MET_125 2015-09-30 11:05:00 125 10426.0 20.210 19.970 20.110 19.890   42.120 38.490 6.936 5.348 600.20 119.10 13.770 14.510 14.750 14.130 14.290 20.310 20.140 20.270 19.970   8.110 6.521 716.70 142.30 0.9540 1.4000 20.110 19.850 20.010 19.830   5.420 4.786 0.00000 0.00 233 0.00 0.00 0.6800 124.20 14.12 0.8550 141.900 13.920 23.686 9.974 13.709 23.222 8.937 14.284
WS7MET_125 2015-09-30 11:00:00 125 10426.0 20.090 20.020 20.070 19.830   42.430 40.220 6.931 5.924 600.70 118.80 13.780 14.510 14.750 14.130 14.320 20.310 20.140 20.240 20.000   7.791 6.776 691.20 136.90 0.8950 1.3000 19.830 19.930 19.930 19.700   5.299 4.778 0.00000 0.00 245 0.00 0.00 0.5340 144.20 30.26 0.6200 157.000 25.330 23.511 9.971 13.535 23.135 9.301 13.830
WS7MET_125 2015-09-30 10:55:00 125 10426.0 19.640 19.760 19.860 19.660   42.930 39.480 6.695 5.509 602.40 118.00 13.780 14.520 14.750 14.130 14.300 19.970 20.000 20.090 19.830   7.936 6.469 673.70 132.90 1.2150 1.5000 19.390 19.540 19.650 19.460   5.528 4.822 0.00000 0.00 235 0.00 0.00 0.7330 136.80 32.63 0.8650 146.600 20.560 22.864 9.810 13.049 22.893 9.037 13.855
WS7MET_125 2015-09-30 10:50:00 125 10426.0 19.320 19.300 19.390 19.390   42.860 40.070 6.393 5.484 607.90 117.40 13.790 14.520 14.740 14.130 14.310 19.390 19.510 19.600 19.490   7.724 6.084 676.40 130.20 1.2350 1.6000 19.250 19.150 19.250 19.290   5.644 4.895 0.00000 0.00 238 0.00 0.00 0.6560 100.10 24.43 0.8550 122.300 19.230 22.414 9.608 12.807 22.512 9.022 13.491
WS7MET_125 2015-09-30 10:45:00 125 10426.0 19.330 19.440 19.550 19.370   45.580 42.210 7.261 6.203 641.20 122.70 13.790 14.530 14.740 14.130 14.320 19.490 19.580 19.660 19.530   9.020 7.458 668.30 128.80 1.3920 1.4000 19.150 19.240 19.330 19.250   4.818 4.805 0.00000 0.00 207 0.00 0.00 0.6860 135.60 26.94 0.8500 149.700 24.360 22.428 10.199 12.205 22.484 9.483 12.993
WS7MET_125 2015-09-30 10:40:00 125 10426.0 19.190 19.180 19.310 19.220   48.910 45.260 8.200 7.094 645.20 122.00 13.790 14.540 14.740 14.130 14.330 19.290 19.350 19.450 19.390   9.040 7.760 650.90 123.50 1.0130 1.3000 19.050 18.980 19.170 19.020   6.849 6.127 0.00000 0.00 212 0.00 0.00 0.6240 122.00 15.23 0.7450 140.400 15.210 22.233 10.874 11.359 22.275 10.083 12.193
WS7MET_125 2015-09-30 10:35:00 125 10426.0 19.500 19.090 19.180 19.010   46.810 45.400 7.837 6.947 636.00 118.60 13.800 14.530 14.740 14.130 14.350 19.800 19.170 19.280 19.120   8.750 7.693 640.20 119.40 0.8100 1.2000 19.260 18.960 19.090 18.880   6.799 6.065 0.00000 0.00 243 0.00 0.00 0.5690 139.30 17.41 0.7450 157.700 22.950 22.666 10.608 12.056 21.985 9.982 12.004
WS7MET_125 2015-09-30 10:30:00 125 10426.0 19.560 18.960 18.980 18.930   47.990 47.390 8.270 7.507 620.30 114.70 13.810 14.540 14.740 14.130 14.340 19.730 19.150 19.170 19.050   9.110 8.350 636.10 118.10 0.9020 1.3000 19.360 18.780 18.850 18.850   7.363 6.827 0.00000 0.00 233 0.00 0.00 0.4480 138.00 27.67 0.6200 152.800 25.900 22.751 10.926 11.833 21.876 10.372 11.509
WS7MET_125 2015-09-30 10:25:00 125 10426.0 19.570 18.940 18.920 18.760   47.760 46.610 8.170 7.109 622.00 113.40 13.820 14.540 14.740 14.130 14.250 19.740 19.160 19.180 18.920   9.940 8.140 628.10 115.40 0.8950 1.1000 19.400 18.620 18.640 18.580   6.563 6.479 0.00000 0.00 253 0.00 0.00 0.3850 155.30 26.24 0.5050 165.700 52.860 22.765 10.852 11.892 21.645 10.093 11.556
WS7MET_125 2015-09-30 10:20:00 125 10426.0 19.120 18.920 18.970 18.730   49.300 48.640 8.260 7.704 604.30 107.40 13.820 14.540 14.740 14.130 13.980 19.430 19.010 19.100 18.890   9.270 8.470 617.40 111.40 1.0320 1.2000 18.750 18.780 18.800 18.380   6.993 7.122 0.00000 0.00 208 0.00 0.00 0.3300 127.70 28.70 0.5250 142.400 43.620 22.137 10.918 11.223 21.604 10.513 11.096
WS7MET_125 2015-09-30 10:15:00 125 10426.0 18.360 18.410 18.550 18.420   51.960 49.440 8.330 7.658 604.40 104.90 13.820 14.540 14.740 14.130 13.910 18.680 18.710 18.760 18.580   8.990 8.250 609.30 107.40 0.9410 1.3000 18.070 18.090 18.280 18.310   7.533 7.012 0.00000 0.00 247 0.00 0.00 0.4760 132.60 30.90 0.6800 155.200 23.230 21.110 10.970 10.141 21.189 10.480 10.713
WS7MET_125 2015-09-30 10:10:00 125 10426.0 18.080 18.040 18.190 18.170   52.920 51.720 8.340 8.090 594.50 100.50 13.830 14.550 14.740 14.120 13.970 18.210 18.120 18.320 18.410   9.710 8.640 598.60 102.00 0.8750 1.1000 17.830 17.980 18.090 17.830   7.388 7.188 0.00000 0.00 244 0.00 0.00 0.4410 107.60 21.32 0.6500 125.000 18.260 20.742 10.978 9.765 20.859 10.793 10.071
WS7MET_125 2015-09-30 10:05:00 125 10426.0 17.590 17.620 17.780 17.820   51.990 49.910 7.629 7.237 585.80 97.60 13.840 14.550 14.740 14.110 13.960 17.800 18.000 18.090 18.030   8.610 8.250 590.50 99.30 0.8890 1.2000 17.450 17.450 17.600 17.630   6.695 6.679 0.00000 0.00 241 0.00 0.00 0.2690 201.10 35.15 0.4750 222.900 51.580 20.112 10.459 9.656 20.405 10.182 10.221
WS7MET_125 2015-09-30 10:00:00 125 10426.0 17.500 17.720 17.990 17.980   53.560 50.180 7.976 7.463 575.30 94.10 13.840 14.550 14.740 14.130 13.780 17.730 17.850 18.080 18.070   8.840 8.130 581.10 96.60 0.6140 1.0000 17.280 17.580 17.860 17.860   6.597 6.565 0.00000 0.00 208 0.00 0.00 0.3740 114.30 48.25 0.5900 138.100 49.670 19.998 10.709 9.287 20.612 10.341 10.269
WS7MET_125 2015-09-30 09:55:00 125 10426.0 17.150 17.450 17.800 17.980   50.880 48.260 6.906 6.903 554.70 89.40 13.840 14.550 14.740 14.130 13.530 17.350 17.720 18.000 18.170   7.517 7.622 570.40 92.60 1.3590 1.4000 16.870 17.130 17.520 17.730   6.171 6.313 0.00000 0.00 208 0.00 0.00 0.4460 184.80 68.31 0.6050 207.500 32.030 19.560 9.953 9.608 20.612 9.951 10.665
WS7MET_125 2015-09-30 09:50:00 125 10426.0 16.660 16.830 17.280 17.660   56.400 51.510 7.947 7.555 552.30 87.40 13.860 14.550 14.740 14.130 13.310 16.910 17.130 17.550 17.930   9.110 8.460 558.30 88.60 0.7120 1.0000 16.400 16.520 16.910 17.350   6.758 6.565 0.00000 0.00 207 0.00 0.00 0.2950 177.20 33.54 0.5000 183.900 47.890 18.962 10.688 8.267 20.201 10.406 9.795
WS7MET_125 2015-09-30 09:45:00 125 10426.0 16.270 16.130 16.450 17.120   57.270 53.550 7.818 7.629 543.70 85.30 13.860 14.560 14.730 14.130 13.190 16.430 16.460 16.860 17.350   8.180 8.050 550.30 85.90 0.8040 1.0000 16.060 15.890 16.110 16.980   7.035 7.132 0.00000 0.00 234 0.00 0.00 0.2310 145.70 55.59 0.3700 181.900 41.740 18.497 10.595 7.904 19.523 10.459 9.069
WS7MET_125 2015-09-30 09:40:00 125 10426.0 15.870 15.840 15.870 16.800   58.140 54.590 7.666 7.606 532.50 82.90 13.860 14.560 14.730 14.130 13.130 16.190 16.070 16.160 17.110   8.130 8.100 536.80 84.60 0.7910 1.3000 15.510 15.400 15.460 16.360   7.049 7.232 0.00000 0.00 214 0.00 0.00 0.2130 135.70 26.35 0.4350 152.700 23.100 18.031 10.485 7.548 19.131 10.443 8.687
WS7MET_125 2015-09-30 09:35:00 125 10426.0 15.030 14.900 15.110 16.100   61.000 56.380 7.583 7.428 521.00 81.20 13.880 14.560 14.730 14.130 13.080 15.440 15.350 15.400 16.400   7.981 7.786 526.10 81.90 0.8230 1.1000 14.620 14.610 14.920 15.820   7.124 7.054 0.00000 0.00 351 0.00 0.00 0.4160 136.20 11.78 0.6050 156.600 21.920 17.085 10.426 6.663 18.298 10.316 7.981
WS7MET_125 2015-09-30 09:30:00 125 10426.0 14.400 14.400 14.730 15.460   63.290 58.520 7.523 7.379 508.90 79.72 13.880 14.560 14.730 14.130 13.050 14.620 14.580 14.880 15.710   8.030 7.661 515.40 80.50 1.0520 1.4000 14.210 14.290 14.640 15.310   6.852 7.037 0.00000 0.00 208 0.00 0.00 0.5960 90.10 22.71 0.7550 98.900 37.590 16.404 10.383 6.022 17.563 10.282 7.285
WS7MET_125 2015-09-30 09:25:00 125 10426.0 14.110 14.370 14.830 15.320   65.220 59.120 7.690 7.401 496.90 78.31 13.890 14.570 14.730 14.120 13.030 14.320 14.420 14.920 15.510   8.030 7.592 503.30 79.18 0.7580 0.9000 13.970 14.330 14.740 15.100   7.223 7.178 0.00000 0.00 511 0.00 0.00 0.1990 83.80 41.83 0.3550 114.700 48.480 16.099 10.503 5.599 17.406 10.297 7.116
WS7MET_125 2015-09-30 09:20:00 125 10426.0 13.750 14.100 14.420 14.670   64.150 60.070 7.106 7.019 484.80 76.23 13.890 14.570 14.730 14.130 13.000 14.040 14.340 14.730 15.070   7.643 7.329 491.20 77.84 0.8360 1.0000 13.600 13.910 14.220 14.420   6.595 6.591 0.00000 0.00 238 0.00 0.00 0.2460 115.00 55.16 0.4550 138.700 42.200 15.727 10.091 5.638 16.693 10.031 6.666
WS7MET_125 2015-09-30 09:15:00 125 10426.0 13.400 13.780 14.070 14.290   67.360 62.620 7.492 7.264 472.10 73.68 13.910 14.570 14.730 14.140 12.970 13.630 13.950 14.240 14.520   7.979 7.683 479.10 75.16 0.6340 1.1000 13.190 13.480 13.770 14.110   6.862 6.903 0.00000 0.00 243 0.00 0.00 0.1790 280.20 39.53 0.3850 250.500 65.660 15.373 10.361 5.018 16.288 10.201 6.088
WS7MET_125 2015-09-30 09:10:00 125 10426.0 13.210 13.490 13.830 14.180   67.860 62.650 7.412 7.166 459.20 70.13 13.910 14.580 14.730 14.130 12.950 13.290 13.530 13.890 14.280   7.818 7.404 465.70 72.48 0.5360 0.7000 13.120 13.440 13.760 14.110   7.077 6.847 0.00000 0.00 246 0.00 0.00 0.1810 92.30 38.86 0.4250 105.200 42.490 15.183 10.305 4.880 16.172 10.133 6.040
WS7MET_125 2015-09-30 09:05:00 125 10426.0 13.210 13.460 13.820 14.170   67.640 62.670 7.370 7.171 445.00 65.37 13.920 14.590 14.730 14.130 12.930 13.290 13.590 13.970 14.320   7.630 7.320 451.00 68.45 0.8620 1.1000 13.120 13.380 13.740 14.080   7.115 6.984 0.00000 0.00 544 0.00 0.00 0.2850 103.70 27.73 0.4700 116.100 36.850 15.183 10.275 4.913 16.162 10.136 6.033
WS7MET_125 2015-09-30 09:00:00 125 10426.0 13.000 13.460 13.800 14.050   67.270 62.380 7.083 6.984 430.70 60.00 13.930 14.590 14.730 14.130 12.910 13.260 13.650 14.000 14.180   7.732 7.322 437.60 63.09 0.6270 0.8000 12.780 13.240 13.630 13.910   6.444 6.572 0.00000 0.00 282 0.00 0.00 0.2020 195.20 47.99 0.3500 215.500 71.670 14.976 10.075 4.902 16.037 10.007 6.033
WS7MET_125 2015-09-30 08:55:00 125 10426.0 12.670 13.160 13.570 13.850   68.510 64.100 7.034 7.194 237.00 54.50 13.940 14.590 14.740 14.130 12.900 12.810 13.250 13.680 13.940   7.427 7.374 416.10 57.72 0.9670 1.2000 12.470 13.050 13.500 13.740   6.602 6.877 0.00000 0.00 236 0.00 0.00 0.2650 100.50 24.25 0.4800 120.500 47.650 14.656 10.041 4.615 15.830 10.152 5.683
WS7MET_125 2015-09-30 08:50:00 125 10426.0 12.260 12.890 13.220 13.600   69.730 64.800 6.904 7.108 59.93 48.46 13.950 14.590 14.740 14.130 12.880 12.580 13.200 13.490 13.740   7.357 7.377 87.30 51.01 0.6860 1.1000 11.960 12.540 12.990 13.430   6.631 6.770 0.00000 0.00 283 0.00 0.00 0.2550 146.60 44.37 0.4700 155.100 50.710 14.267 9.952 4.319 15.574 10.093 5.482
WS7MET_125 2015-09-30 08:45:00 125 10426.0 11.870 12.370 12.920 13.390   70.770 64.600 6.747 6.865 53.09 42.08 13.960 14.590 14.740 14.130 12.870 12.000 12.520 12.990 13.500   6.924 7.103 56.38 45.64 0.6010 0.8000 11.720 12.290 12.880 13.290   6.526 6.737 0.00000 0.00 471 0.00 0.00 0.1220 110.10 13.52 0.2900 126.700 50.670 13.905 9.845 4.064 15.363 9.925 5.438
WS7MET_125 2015-09-30 08:40:00 125 10426.0 11.680 12.210 12.700 13.290   71.710 64.890 6.748 6.838 48.66 36.04 13.970 14.600 14.740 14.130 12.860 11.830 12.280 12.870 13.390   7.012 6.941 56.38 38.93 0.7640 1.0000 11.590 12.190 12.630 13.160   6.587 6.678 0.00000 0.00 328 0.00 0.00 0.3170 57.28 25.19 0.4850 76.140 43.990 13.731 9.846 3.885 15.263 9.907 5.359
WS7MET_125 2015-09-30 08:35:00 125 10426.0 11.540 12.180 12.640 13.120   71.490 64.710 6.572 6.640 50.07 30.20 13.970 14.600 14.740 14.130 12.840 11.650 12.200 12.710 13.220   6.816 6.757 59.06 32.22 0.4510 1.1000 11.450 12.150 12.550 13.020   6.388 6.522 0.00000 0.00 504 0.00 0.00 0.1560 72.52 33.50 0.4100 77.390 29.030 13.605 9.727 3.879 15.094 9.773 5.327
WS7MET_125 2015-09-30 08:30:00 125 10426.0 11.420 12.140 12.570 13.380   70.790 62.760 6.318 6.438 80.10 25.30 13.980 14.600 14.740 14.130 12.840 11.520 12.180 12.600 13.530   6.651 6.601 94.00 28.19 0.1960 0.6000 11.310 12.100 12.530 13.160   6.062 6.289 0.00000 0.00 323 0.00 0.00 0.0250 36.22 31.94 0.2250 41.920 57.050 13.497 9.558 3.943 15.353 9.638 5.717
WS7MET_125 2015-09-30 08:25:00 125 10426.0 11.310 11.970 12.570 13.130   70.470 63.130 6.142 6.287 61.28 20.94 13.990 14.610 14.740 14.130 12.830 11.350 12.070 12.610 13.330   6.383 6.414 84.60 22.82 0.4970 0.4000 11.250 11.870 12.500 12.920   5.995 6.114 0.00000 0.00 251 0.00 0.00 0.0420 12.16 48.88 0.2500 331.600 80.400 13.399 9.443 3.957 15.104 9.538 5.569
WS7MET_125 2015-09-30 08:20:00 125 10426.0 11.180 11.900 12.470 12.940   71.250 63.030 6.176 6.079 74.83 17.79 13.990 14.610 14.740 14.130 12.820 11.350 11.940 12.640 13.090   6.404 6.189 94.00 18.79 0.5490 0.9000 11.040 11.830 12.120 12.710   5.732 5.852 0.00000 0.00 275 0.00 0.00 0.1540 120.10 24.04 0.3700 116.000 64.870 13.284 9.465 3.819 14.918 9.402 5.515
WS7MET_125 2015-09-30 08:15:00 125 10426.0 10.970 11.680 11.760 12.180   72.700 66.250 6.269 6.075 129.70 15.30 14.000 14.610 14.740 14.120 12.800 11.110 11.850 12.080 12.680   6.582 6.389 193.30 16.11 0.4570 0.8000 10.770 11.350 11.480 11.650   5.783 5.532 0.00000 0.00 388 0.00 0.00 0.0760 21.83 49.92 0.2900 45.500 62.490 13.100 9.526 3.576 14.192 9.399 4.790
WS7MET_125 2015-09-30 08:10:00 125 10426.0 10.690 11.110 11.260 11.430   73.930 69.540 6.244 6.066 94.70 13.22 14.010 14.610 14.740 14.130 12.790 10.840 11.310 11.420 11.650   6.550 6.312 200.00 14.77 0.3990 0.6000 10.490 10.880 11.040 11.140   5.859 5.783 0.00000 0.00 319 0.00 0.00 0.1030 59.08 10.89 0.3050 78.240 64.670 12.858 9.510 3.352 13.506 9.393 4.114
WS7MET_125 2015-09-30 08:05:00 125 10426.0 10.480 10.760 10.940 11.080   75.360 72.500 6.314 6.335 128.00 11.61 14.020 14.610 14.740 14.130 12.780 10.630 10.870 11.010 11.250   6.621 6.484 212.10 12.08 0.2610 0.6000 10.360 10.640 10.830 10.940   6.148 6.081 0.00000 0.00 431 0.00 0.00 0.0450 281.20 34.79 0.2250 56.580 57.530 12.679 9.556 3.124 13.196 9.570 3.629
WS7MET_125 2015-09-30 08:00:00 125 10426.0 10.280 10.550 10.720 10.830   75.270 72.600 6.108 6.112 201.40 10.07 14.030 14.610 14.740 14.120 12.770 10.460 10.640 10.830 11.010   6.352 6.332 263.10 10.74 0.2550 0.7000 10.120 10.480 10.620 10.700   5.956 5.604 0.00000 0.00 395 0.00 0.00 0.0250 255.00 4.36 0.2650 277.600 33.560 12.511 9.421 3.094 12.979 9.423 3.556
WS7MET_125 2015-09-30 07:55:00 125 10426.0 10.170 10.410 10.530 10.620   74.330 72.480 5.818 5.891 44.36 8.79 14.040 14.610 14.730 14.130 12.760 10.260 10.470 10.610 10.730   6.081 6.022 60.41 9.40 0.0000 0.2000 10.090 10.350 10.470 10.560   5.612 5.748 0.00000 0.00 0 0.00 0.00 0.0000 0.00 0.00 0.1250 1.395 56.670 12.419 9.233 3.188 12.798 9.280 3.522
WS7MET_125 2015-09-30 07:50:00 125 10426.0 10.040 10.300 10.410 10.490   73.640 72.400 5.557 5.742 33.96 7.79 14.040 14.620 14.730 14.130 12.760 10.190 10.350 10.460 10.600   5.870 5.939 36.24 8.05 0.0650 0.4000 9.880 10.240 10.360 10.360   5.380 5.636 0.00000 0.00 355 0.00 0.00 0.0100 52.34 10.92 0.2450 61.090 34.860 12.312 9.068 3.245 12.688 9.185 3.502
WS7MET_125 2015-09-30 07:45:00 125 10426.0 9.990 10.210 10.330 10.400   74.410 72.940 5.656 5.764 32.55 6.64 14.060 14.630 14.720 14.130 12.750 10.050 10.220 10.360 10.490   5.784 5.900 34.90 6.71 0.2870 0.6000 9.880 10.210 10.310 10.320   5.553 5.647 0.00000 0.00 318 0.00 0.00 0.1320 53.13 8.59 0.3850 68.640 13.610 12.271 9.130 3.140 12.612 9.199 3.413
WS7MET_125 2015-09-30 07:40:00 125 10426.0 10.000 10.190 10.280 10.350   73.700 72.020 5.531 5.541 29.33 5.37 14.060 14.630 14.730 14.130 12.750 10.090 10.210 10.310 10.430   5.692 5.667 30.87 5.37 0.4180 0.7000 9.950 10.190 10.270 10.290   5.413 5.396 0.00000 0.00 433 0.00 0.00 0.2400 25.00 11.44 0.4050 42.930 15.860 12.279 9.051 3.229 12.570 9.058 3.517
WS7MET_125 2015-09-30 07:35:00 125 10426.0 9.940 10.150 10.230 10.290   72.150 71.300 5.170 5.332 26.58 4.63 14.080 14.620 14.730 14.130 12.740 10.020 10.190 10.270 10.390   5.432 5.461 28.19 5.37 0.5750 0.7000 9.850 10.090 10.190 10.150   4.949 5.148 0.00000 0.00 395 0.00 0.00 0.2360 24.74 10.99 0.4350 40.520 19.050 12.229 8.827 3.406 12.519 8.927 3.593
WS7MET_125 2015-09-30 07:30:00 125 10426.0 9.830 10.060 10.130 10.120   72.260 71.320 5.080 5.177 23.83 4.03 14.080 14.630 14.730 14.130 12.740 9.910 10.090 10.170 10.220   5.220 5.260 25.50 4.03 0.1570 0.6000 9.710 10.000 10.070 10.020   4.987 5.089 0.00000 0.00 240 0.00 0.00 0.0280 5.17 9.24 0.2800 19.640 33.310 12.140 8.771 3.368 12.378 8.831 3.550
WS7MET_125 2015-09-30 07:25:00 125 10426.0 9.670 9.880 9.940 9.920   72.440 71.850 4.968 5.083 20.67 4.03 14.080 14.630 14.730 14.130 12.740 9.810 10.000 10.070 10.050   5.188 5.183 21.48 4.03 0.1050 0.2000 9.570 9.780 9.820 9.740   4.768 4.999 0.00000 0.00 279 0.00 0.00 0.0070 342.60 0.05 0.1450 312.000 28.680 12.010 8.703 3.310 12.213 8.773 3.438
WS7MET_125 2015-09-30 07:20:00 125 10426.0 9.590 9.740 9.770 9.760   72.560 72.570 4.906 5.076 17.79 2.95 14.100 14.630 14.730 14.130 12.730 9.680 9.780 9.810 9.850   5.063 5.147 18.79 4.03 0.3330 0.5000 9.510 9.710 9.750 9.680   4.770 4.989 0.00000 0.00 312 0.00 0.00 0.0740 341.80 1.24 0.2150 335.900 17.630 11.945 8.666 3.278 12.083 8.769 3.314
WS7MET_125 2015-09-30 07:15:00 125 10426.0 9.520 9.690 9.760 9.790   73.050 72.670 4.944 5.122 15.24 2.68 14.100 14.630 14.730 14.130 12.730 9.610 9.710 9.770 9.880   5.125 5.241 16.11 2.68 0.5230 0.7000 9.440 9.680 9.750 9.680   4.738 5.032 0.00000 0.00 271 0.00 0.00 0.4650 342.30 0.32 0.5250 353.700 6.161 11.889 8.689 3.204 12.107 8.797 3.309
WS7MET_125 2015-09-30 07:10:00 125 10426.0 9.540 9.690 9.790 9.840   72.630 71.920 4.874 5.022 11.75 1.34 14.120 14.640 14.730 14.130 12.730 9.640 9.720 9.830 9.950   4.970 5.253 13.42 1.34 0.5490 0.6000 9.470 9.680 9.770 9.710   4.742 4.900 0.00000 0.00 551 0.00 0.00 0.4580 342.30 0.23 0.5000 354.700 6.963 11.905 8.646 3.258 12.148 8.736 3.411
WS7MET_125 2015-09-30 07:05:00 125 10426.0 9.550 9.720 9.830 9.850   72.360 71.100 4.828 4.869 9.40 1.34 14.120 14.640 14.730 14.130 12.730 9.710 9.730 9.840 9.910   5.109 4.994 9.40 1.34 0.4770 0.6000 9.510 9.720 9.830 9.780   4.686 4.704 0.00000 0.00 509 0.00 0.00 0.4120 342.10 0.16 0.4650 354.200 5.350 11.913 8.618 3.293 12.156 8.643 3.513
WS7MET_125 2015-09-30 07:00:00 125 10426.0 9.520 9.730 9.840 9.890   71.620 70.680 4.655 4.820 8.93 1.01 14.130 14.650 14.730 14.130 12.730 9.570 9.740 9.860 9.980   4.817 4.896 9.40 1.34 0.4640 0.7000 9.400 9.720 9.830 9.810   4.529 4.722 0.00000 0.00 595 0.00 0.00 0.4080 340.60 2.50 0.5150 354.000 6.828 11.889 8.515 3.374 12.189 8.614 3.574
WS7MET_125 2015-09-30 06:55:00 125 10426.0 9.490 9.700 9.830 9.880   71.880 70.900 4.680 4.855 8.05 0.13 14.140 14.650 14.730 14.130 12.730 9.570 9.720 9.850 9.950   4.802 4.912 8.05 1.34 0.4770 0.6000 9.400 9.690 9.810 9.810   4.528 4.789 0.00000 0.00 237 0.00 0.00 0.3770 337.50 0.19 0.4450 349.200 5.903 11.865 8.530 3.337 12.180 8.635 3.544
WS7MET_125 2015-09-30 06:50:00 125 10426.0 9.460 9.690 9.810 9.850   71.510 70.040 4.574 4.653 7.92 0.00 14.140 14.650 14.730 14.130 12.730 9.540 9.690 9.810 9.910   4.701 4.868 8.05 0.00 0.5230 0.7000 9.370 9.670 9.790 9.780   4.387 4.540 0.00000 0.00 317 0.00 0.00 0.4640 337.80 0.07 0.5700 353.000 4.689 11.841 8.467 3.374 12.156 8.514 3.642
WS7MET_125 2015-09-30 06:45:00 125 10426.0 9.450 9.650 9.770 9.780   70.910 69.650 4.448 4.508 6.71 0.00 14.160 14.650 14.720 14.130 12.730 9.540 9.680 9.800 9.910   4.521 4.606 6.71 0.00 0.5490 0.8000 9.370 9.640 9.760 9.710   4.345 4.435 0.00000 0.00 323 0.00 0.00 0.5230 334.80 1.48 0.6350 351.700 4.422 11.833 8.392 3.442 12.099 8.428 3.672
WS7MET_125 2015-09-30 06:40:00 125 10426.0 9.430 9.630 9.740 9.770   70.480 69.520 4.341 4.471 6.51 0.00 14.160 14.650 14.720 14.130 12.730 9.510 9.650 9.770 9.850   4.588 4.591 6.71 0.00 0.5160 0.7000 9.370 9.600 9.730 9.710   4.124 4.360 0.00000 0.00 273 0.00 0.00 0.4740 333.70 2.05 0.6350 343.000 5.449 11.818 8.329 3.489 12.091 8.406 3.685
WS7MET_125 2015-09-30 06:35:00 125 10426.0 9.460 9.610 9.740 9.820   70.110 69.210 4.294 4.459 5.37 0.00 14.170 14.650 14.730 14.130 12.730 9.510 9.650 9.780 9.910   4.442 4.566 5.37 0.00 0.5230 0.6000 9.370 9.590 9.730 9.740   4.124 4.358 0.00000 0.00 465 0.00 0.00 0.4160 338.10 0.27 0.5250 350.100 2.583 11.841 8.302 3.539 12.131 8.399 3.735
WS7MET_125 2015-09-30 06:30:00 125 10426.0 9.500 9.680 9.810 9.870   70.110 69.100 4.330 4.477 4.83 0.00 14.180 14.650 14.730 14.130 12.730 9.610 9.690 9.830 9.980   4.544 4.573 5.37 0.00 0.4440 0.6000 9.400 9.650 9.790 9.740   4.194 4.389 0.00000 0.00 517 0.00 0.00 0.3660 341.60 4.80 0.4700 350.400 4.572 11.873 8.323 3.549 12.172 8.409 3.761
WS7MET_125 2015-09-30 06:25:00 125 10426.0 9.510 9.700 9.850 9.900   69.920 69.020 4.303 4.496 4.03 0.00 14.190 14.650 14.720 14.130 12.740 9.570 9.710 9.860 9.980   4.434 4.606 4.03 0.00 0.4120 0.6000 9.440 9.690 9.820 9.850   4.171 4.375 0.00000 0.00 0 0.00 0.00 0.3590 347.70 0.50 0.3800 357.400 5.180 11.881 8.307 3.574 12.197 8.421 3.779
WS7MET_125 2015-09-30 06:20:00 125 10426.0 9.470 9.690 9.830 9.860   70.360 69.190 4.358 4.487 4.03 0.00 14.200 14.650 14.720 14.130 12.740 9.540 9.690 9.840 9.950   4.516 4.648 4.03 0.00 0.5490 0.7000 9.400 9.670 9.810 9.740   4.136 4.359 0.00000 0.00 242 0.00 0.00 0.4500 344.20 3.49 0.4950 355.200 6.277 11.849 8.339 3.512 12.164 8.415 3.748
WS7MET_125 2015-09-30 06:15:00 125 10426.0 9.460 9.670 9.790 9.820   70.460 69.380 4.363 4.494 3.09 0.00 14.210 14.660 14.720 14.130 12.740 9.510 9.690 9.820 9.910   4.490 4.594 4.03 0.00 0.5750 0.6000 9.370 9.640 9.760 9.740   4.226 4.379 0.00000 0.00 290 0.00 0.00 0.4770 341.60 1.03 0.5100 351.400 5.183 11.841 8.342 3.498 12.131 8.419 3.715
WS7MET_125 2015-09-30 06:10:00 125 10426.0 9.440 9.650 9.770 9.780   70.440 69.420 4.337 4.458 2.62 0.00 14.220 14.670 14.720 14.130 12.750 9.540 9.650 9.770 9.850   4.551 4.547 2.68 0.00 0.5810 0.7000 9.370 9.630 9.760 9.710   4.191 4.360 0.00000 0.00 588 0.00 0.00 0.5240 342.20 0.10 0.6300 359.000 3.013 11.826 8.327 3.496 12.099 8.398 3.700
WS7MET_125 2015-09-30 06:05:00 125 10426.0 9.420 9.610 9.740 9.750   70.600 69.680 4.351 4.480 1.34 0.00 14.230 14.670 14.720 14.130 12.750 9.510 9.630 9.760 9.810   4.526 4.651 1.34 0.00 0.5880 0.8000 9.330 9.590 9.720 9.680   4.216 4.383 0.00000 0.00 290 0.00 0.00 0.5380 338.70 1.09 0.6300 353.600 5.937 11.810 8.335 3.472 12.075 8.411 3.661
WS7MET_125 2015-09-30 06:00:00 125 10426.0 9.370 9.570 9.700 9.650   71.050 70.520 4.397 4.560 0.54 0.00 14.230 14.670 14.720 14.130 12.750 9.470 9.600 9.740 9.740   4.582 4.768 1.34 0.00 0.5880 0.7000 9.300 9.530 9.640 9.570   4.245 4.416 0.00000 0.00 442 0.00 0.00 0.5100 341.30 4.47 0.6100 355.100 5.474 11.770 8.362 3.407 11.994 8.458 3.536
WS7MET_125 2015-09-30 05:55:00 125 10426.0 9.340 9.480 9.590 9.620   70.410 69.990 4.236 4.421 0.00 0.00 14.250 14.670 14.720 14.130 12.760 9.370 9.520 9.630 9.680   4.380 4.495 0.00 0.00 0.5490 0.7000 9.300 9.450 9.560 9.540   4.156 4.357 0.00000 0.00 239 0.00 0.00 0.4690 332.10 0.33 0.6000 348.700 3.109 11.746 8.268 3.476 11.970 8.376 3.592
WS7MET_125 2015-09-30 05:50:00 125 10426.0 9.380 9.520 9.620 9.680   70.660 70.460 4.331 4.578 0.00 0.00 14.250 14.670 14.720 14.130 12.760 9.440 9.540 9.640 9.740   4.544 4.819 0.00 0.00 0.4310 0.6000 9.330 9.470 9.580 9.610   4.188 4.490 0.00000 0.00 276 0.00 0.00 0.3600 342.70 3.34 0.4700 350.800 6.494 11.778 8.324 3.456 12.018 8.469 3.550
WS7MET_125 2015-09-30 05:45:00 125 10426.0 9.440 9.590 9.670 9.700   71.080 70.560 4.470 4.620 0.00 0.00 14.260 14.670 14.720 14.130 12.760 9.540 9.650 9.700 9.780   4.561 4.711 0.00 0.00 0.5750 0.6000 9.370 9.550 9.640 9.610   4.339 4.547 0.00000 0.00 520 0.00 0.00 0.4430 344.40 1.42 0.4900 356.100 7.268 11.826 8.405 3.420 12.034 8.494 3.543
WS7MET_125 2015-09-30 05:40:00 125 10426.0 9.480 9.630 9.690 9.700   70.790 70.660 4.447 4.638 0.00 0.00 14.260 14.670 14.720 14.130 12.760 9.570 9.650 9.720 9.780   4.548 4.777 0.00 0.00 0.4510 0.6000 9.400 9.610 9.660 9.640   4.340 4.551 0.00000 0.00 346 0.00 0.00 0.4140 342.20 0.29 0.4700 350.600 4.956 11.857 8.392 3.464 12.034 8.505 3.531
WS7MET_125 2015-09-30 05:35:00 125 10426.0 9.510 9.670 9.760 9.780   71.000 70.670 4.518 4.714 0.00 0.00 14.270 14.680 14.730 14.130 12.760 9.610 9.680 9.780 9.880   4.701 4.853 0.00 0.00 0.4770 0.7000 9.370 9.630 9.720 9.710   4.290 4.590 0.00000 0.00 352 0.00 0.00 0.4380 342.60 0.77 0.5200 351.200 4.405 11.881 8.433 3.446 12.099 8.550 3.549
WS7MET_125 2015-09-30 05:30:00 125 10426.0 9.550 9.690 9.780 9.790   71.130 70.960 4.587 4.787 0.00 0.00 14.290 14.680 14.720 14.130 12.760 9.610 9.710 9.810 9.880   4.678 4.927 0.00 0.00 0.5100 0.7000 9.510 9.680 9.770 9.710   4.523 4.660 0.00000 0.00 277 0.00 0.00 0.4710 343.10 0.02 0.5850 353.900 4.975 11.913 8.474 3.439 12.107 8.594 3.516
WS7MET_125 2015-09-30 05:25:00 125 10426.0 9.520 9.710 9.840 9.870   72.000 71.340 4.728 4.933 0.00 0.00 14.290 14.680 14.720 14.130 12.770 9.640 9.720 9.850 9.910   4.861 5.023 0.00 0.00 0.5230 0.7000 9.440 9.700 9.810 9.780   4.629 4.846 0.00000 0.00 561 0.00 0.00 0.4910 343.30 0.01 0.5700 350.700 2.117 11.889 8.558 3.329 12.172 8.682 3.489
WS7MET_125 2015-09-30 05:20:00 125 10426.0 9.520 9.720 9.850 9.880   72.360 71.800 4.804 5.042 0.00 0.00 14.300 14.680 14.720 14.130 12.770 9.610 9.720 9.860 9.950   4.897 5.132 0.00 0.00 0.5290 0.7000 9.440 9.710 9.830 9.810   4.736 4.949 0.00000 0.00 309 0.00 0.00 0.4920 343.60 0.24 0.5550 352.700 4.821 11.889 8.604 3.286 12.180 8.748 3.435
WS7MET_125 2015-09-30 05:15:00 125 10426.0 9.550 9.720 9.820 9.860   72.540 71.910 4.867 5.040 0.00 0.00 14.310 14.680 14.720 14.130 12.770 9.610 9.720 9.830 9.950   4.957 5.258 0.00 0.00 0.5160 0.7000 9.510 9.700 9.800 9.810   4.763 4.928 0.00000 0.00 459 0.00 0.00 0.4500 341.40 2.10 0.5550 353.700 4.380 11.913 8.642 3.271 12.164 8.747 3.417
WS7MET_125 2015-09-30 05:10:00 125 10426.0 9.580 9.730 9.820 9.880   72.530 72.210 4.892 5.121 0.00 0.00 14.320 14.690 14.720 14.120 12.770 9.640 9.750 9.830 9.950   4.990 5.293 0.00 0.00 0.5810 0.8000 9.510 9.720 9.810 9.810   4.810 4.968 0.00000 0.00 469 0.00 0.00 0.4820 339.30 0.34 0.5750 350.000 4.175 11.937 8.657 3.279 12.180 8.797 3.385
WS7MET_125 2015-09-30 05:05:00 125 10426.0 9.610 9.750 9.870 9.940   71.830 71.190 4.784 4.971 0.00 0.00 14.330 14.690 14.720 14.120 12.780 9.680 9.760 9.890 10.020   4.955 5.087 0.00 0.00 0.4900 0.6000 9.570 9.740 9.840 9.880   4.714 4.872 0.00000 0.00 286 0.00 0.00 0.3730 340.40 0.66 0.5000 349.100 5.212 11.962 8.592 3.370 12.229 8.705 3.523
WS7MET_125 2015-09-30 05:00:00 125 10426.0 9.610 9.780 9.910 9.990   71.370 70.620 4.693 4.911 0.00 0.00 14.330 14.690 14.730 14.130 12.780 9.680 9.780 9.930 10.090   4.867 5.034 0.00 0.00 0.4770 0.6000 9.540 9.760 9.880 9.910   4.590 4.804 0.00000 0.00 330 0.00 0.00 0.4080 347.30 3.07 0.4600 355.900 6.420 11.962 8.537 3.425 12.271 8.669 3.605
WS7MET_125 2015-09-30 04:55:00 125 10426.0 9.680 9.830 9.970 10.070   70.870 70.110 4.658 4.879 0.00 0.00 14.340 14.690 14.730 14.130 12.780 9.780 9.880 10.010 10.150   4.749 4.998 0.00 0.00 0.4770 0.6000 9.610 9.780 9.930 9.950   4.575 4.771 0.00000 0.00 439 0.00 0.00 0.3420 338.10 8.05 0.4450 356.300 6.018 12.018 8.517 3.501 12.336 8.649 3.687
WS7MET_125 2015-09-30 04:50:00 125 10426.0 9.770 9.930 10.070 10.190   70.250 69.560 4.620 4.878 0.00 0.00 14.350 14.690 14.730 14.130 12.780 9.880 9.970 10.120 10.290   4.872 5.127 0.00 0.00 0.4440 0.6000 9.680 9.880 10.020 10.090   4.507 4.757 0.00000 0.00 279 0.00 0.00 0.3450 336.00 3.27 0.4750 340.200 10.750 12.091 8.494 3.597 12.436 8.649 3.785
WS7MET_125 2015-09-30 04:45:00 125 10426.0 9.860 10.010 10.150 10.250   69.990 69.240 4.657 4.874 0.00 0.00 14.360 14.690 14.730 14.130 12.790 9.950 10.050 10.200 10.320   4.798 5.066 0.00 0.00 0.4180 0.5000 9.780 9.970 10.120 10.190   4.488 4.698 0.00000 0.00 433 0.00 0.00 0.3540 342.60 0.15 0.3600 359.500 2.331 12.164 8.516 3.650 12.486 8.646 3.841
WS7MET_125 2015-09-30 04:40:00 125 10426.0 9.920 10.120 10.250 10.270   69.350 68.580 4.576 4.755 0.00 0.00 14.370 14.690 14.730 14.130 12.790 9.980 10.160 10.270 10.360   4.694 4.838 0.00 0.00 0.4310 0.5000 9.810 10.070 10.210 10.220   4.409 4.659 0.00000 0.00 297 0.00 0.00 0.3910 341.40 0.88 0.4300 356.100 6.073 12.213 8.468 3.743 12.503 8.575 3.928
WS7MET_125 2015-09-30 04:35:00 125 10426.0 9.970 10.160 10.270 10.300   69.730 68.820 4.701 4.830 0.00 0.00 14.370 14.690 14.730 14.130 12.780 10.050 10.170 10.280 10.360   4.897 4.956 0.00 0.00 0.5360 0.6000 9.910 10.160 10.270 10.220   4.570 4.734 0.00000 0.00 464 0.00 0.00 0.4100 339.70 1.03 0.5000 353.300 5.987 12.254 8.542 3.709 12.528 8.620 3.906
WS7MET_125 2015-09-30 04:30:00 125 10426.0 9.940 10.140 10.240 10.250   69.480 68.630 4.626 4.742 0.00 0.00 14.380 14.690 14.730 14.130 12.790 10.020 10.160 10.270 10.320   4.734 4.977 0.00 0.00 0.4310 0.6000 9.850 10.120 10.210 10.190   4.467 4.626 0.00000 0.00 474 0.00 0.00 0.3650 338.50 0.07 0.4800 349.300 3.331 12.229 8.498 3.732 12.486 8.567 3.917
WS7MET_125 2015-09-30 04:25:00 125 10426.0 9.860 10.060 10.160 10.180   69.170 68.300 4.483 4.611 0.00 0.00 14.400 14.690 14.730 14.140 12.790 9.980 10.120 10.210 10.220   4.641 4.687 0.00 0.00 0.4900 0.7000 9.780 10.020 10.130 10.090   4.324 4.521 0.00000 0.00 434 0.00 0.00 0.4120 338.50 0.28 0.5550 350.700 3.642 12.164 8.413 3.750 12.428 8.489 3.940
WS7MET_125 2015-09-30 04:20:00 125 10426.0 9.810 10.020 10.120 10.140   69.100 68.220 4.428 4.554 0.00 0.00 14.400 14.690 14.730 14.130 12.800 9.880 10.030 10.150 10.260   4.582 4.649 0.00 0.00 0.5160 0.7000 9.740 10.010 10.110 10.050   4.287 4.497 0.00000 0.00 549 0.00 0.00 0.4790 338.50 0.58 0.5950 351.900 5.682 12.123 8.380 3.746 12.394 8.455 3.939
WS7MET_125 2015-09-30 04:15:00 125 10426.0 9.840 10.040 10.160 10.210   69.510 68.620 4.534 4.705 0.00 0.00 14.410 14.690 14.730 14.130 12.800 9.950 10.050 10.190 10.290   4.680 4.874 0.00 0.00 0.4570 0.7000 9.780 10.030 10.150 10.120   4.369 4.612 0.00000 0.00 551 0.00 0.00 0.4120 338.00 0.25 0.5650 351.500 3.657 12.148 8.443 3.704 12.453 8.545 3.908
WS7MET_125 2015-09-30 04:10:00 125 10426.0 9.850 10.060 10.190 10.230   69.360 69.000 4.511 4.804 0.00 0.00 14.420 14.700 14.720 14.130 12.800 9.880 10.070 10.210 10.290   4.720 5.057 0.00 0.00 0.4700 0.7000 9.780 10.050 10.190 10.150   4.366 4.626 0.00000 0.00 474 0.00 0.00 0.4100 338.00 0.45 0.5650 347.800 3.517 12.156 8.429 3.725 12.469 8.604 3.865
WS7MET_125 2015-09-30 04:05:00 125 10426.0 9.840 10.050 10.190 10.280   68.980 67.890 4.432 4.624 0.00 0.00 14.430 14.700 14.720 14.130 12.800 9.910 10.050 10.210 10.360   4.535 4.750 0.00 0.00 0.4970 0.7000 9.780 10.030 10.180 10.220   4.249 4.483 0.00000 0.00 393 0.00 0.00 0.4490 344.20 1.32 0.5650 356.900 7.173 12.148 8.383 3.768 12.511 8.496 4.017
WS7MET_125 2015-09-30 04:00:00 125 10426.0 9.860 10.070 10.210 10.290   68.840 67.540 4.419 4.555 0.00 0.00 14.440 14.690 14.720 14.130 12.800 9.950 10.100 10.250 10.390   4.509 4.894 0.00 0.00 0.5420 0.6000 9.780 10.050 10.190 10.220   4.277 4.378 0.00000 0.00 245 0.00 0.00 0.4720 343.40 0.94 0.4900 355.600 5.497 12.164 8.375 3.790 12.519 8.455 4.064
WS7MET_125 2015-09-30 03:55:00 125 10426.0 9.950 10.110 10.250 10.330   68.240 68.230 4.375 4.737 0.00 0.00 14.440 14.700 14.720 14.130 12.800 10.020 10.130 10.260 10.430   4.563 4.896 0.00 0.00 0.4830 0.6000 9.850 10.100 10.240 10.220   4.278 4.602 0.00000 0.00 357 0.00 0.00 0.4040 342.60 0.11 0.4800 355.700 6.321 12.238 8.349 3.887 12.553 8.564 3.988
WS7MET_125 2015-09-30 03:50:00 125 10426.0 9.950 10.130 10.250 10.290   68.030 67.320 4.334 4.508 0.00 0.00 14.460 14.700 14.720 14.130 12.800 10.020 10.150 10.270 10.360   4.593 4.821 0.00 0.00 0.4700 0.6000 9.880 10.130 10.240 10.220   4.132 4.298 0.00000 0.00 281 0.00 0.00 0.4200 342.70 0.34 0.4650 356.000 7.145 12.238 8.325 3.912 12.519 8.428 4.091
WS7MET_125 2015-09-30 03:45:00 125 10426.0 9.960 10.140 10.260 10.290   67.630 66.470 4.261 4.329 0.00 0.00 14.460 14.700 14.720 14.130 12.800 10.050 10.150 10.280 10.360   4.423 4.425 0.00 0.00 0.5160 0.6000 9.880 10.140 10.240 10.190   4.110 4.253 0.00000 0.00 581 0.00 0.00 0.4540 342.30 0.12 0.5000 356.400 7.732 12.246 8.283 3.964 12.519 8.322 4.198
WS7MET_125 2015-09-30 03:40:00 125 10426.0 9.980 10.160 10.280 10.320   67.240 65.830 4.192 4.219 0.00 0.00 14.470 14.710 14.720 14.130 12.810 10.050 10.180 10.310 10.390   4.384 4.468 0.00 0.00 0.4900 0.6000 9.880 10.160 10.250 10.220   3.972 4.070 0.00000 0.00 549 0.00 0.00 0.4630 342.30 0.09 0.5550 350.100 0.990 12.262 8.243 4.017 12.545 8.258 4.286
WS7MET_125 2015-09-30 03:35:00 125 10426.0 9.990 10.150 10.290 10.330   67.580 66.810 4.277 4.440 0.00 0.00 14.480 14.710 14.730 14.130 12.800 10.090 10.170 10.310 10.460   4.446 4.660 0.00 0.00 0.4770 0.6000 9.880 10.130 10.270 10.260   4.095 4.294 0.00000 0.00 281 0.00 0.00 0.4560 342.50 0.12 0.5300 352.900 5.711 12.271 8.292 3.978 12.553 8.388 4.166
WS7MET_125 2015-09-30 03:30:00 125 10426.0 9.990 10.150 10.300 10.340   67.720 66.690 4.303 4.420 0.00 0.00 14.480 14.710 14.730 14.130 12.810 10.050 10.160 10.310 10.430   4.503 4.639 0.00 0.00 0.5420 0.6000 9.910 10.140 10.280 10.260   4.142 4.172 0.00000 0.00 240 0.00 0.00 0.4630 341.70 0.17 0.5150 354.100 7.091 12.271 8.307 3.961 12.561 8.376 4.184
WS7MET_125 2015-09-30 03:25:00 125 10426.0 9.950 10.130 10.270 10.300   67.040 65.990 4.128 4.237 0.00 0.00 14.500 14.710 14.720 14.140 12.810 10.020 10.160 10.290 10.390   4.280 4.336 0.00 0.00 0.5030 0.7000 9.880 10.100 10.250 10.220   3.990 4.129 0.00000 0.00 305 0.00 0.00 0.4680 342.00 0.18 0.5500 351.700 4.057 12.238 8.206 4.034 12.528 8.269 4.261
WS7MET_125 2015-09-30 03:20:00 125 10426.0 9.900 10.070 10.220 10.260   67.950 67.060 4.272 4.424 0.00 0.00 14.500 14.720 14.720 14.140 12.810 9.980 10.100 10.250 10.320   4.387 4.548 0.00 0.00 0.5420 0.8000 9.810 10.050 10.190 10.190   4.131 4.345 0.00000 0.00 426 0.00 0.00 0.5060 340.50 0.92 0.6350 355.000 3.922 12.197 8.289 3.909 12.494 8.378 4.116
WS7MET_125 2015-09-30 03:15:00 125 10426.0 9.890 10.070 10.200 10.240   67.950 67.180 4.264 4.429 0.00 0.00 14.510 14.720 14.730 14.130 12.810 10.020 10.100 10.230 10.360   4.416 4.584 0.00 0.00 0.5490 0.8000 9.850 10.050 10.190 10.150   4.128 4.320 0.00000 0.00 344 0.00 0.00 0.5130 339.60 0.33 0.6300 353.100 4.373 12.189 8.285 3.906 12.478 8.381 4.095
WS7MET_125 2015-09-30 03:10:00 125 10426.0 9.860 10.080 10.220 10.250   69.360 68.520 4.522 4.726 0.00 0.00 14.520 14.720 14.730 14.130 12.820 9.950 10.100 10.250 10.360   4.685 4.916 0.00 0.00 0.5420 0.7000 9.740 10.050 10.210 10.190   4.342 4.476 0.00000 0.00 425 0.00 0.00 0.5130 340.20 0.02 0.6500 356.000 4.269 12.164 8.436 3.727 12.486 8.557 3.931
WS7MET_125 2015-09-30 03:05:00 125 10426.0 9.840 10.050 10.190 10.210   70.140 69.050 4.667 4.797 0.00 0.00 14.520 14.720 14.730 14.140 12.820 9.910 10.050 10.200 10.290   4.794 4.923 0.00 0.00 0.5100 0.7000 9.740 10.050 10.190 10.120   4.570 4.615 0.00000 0.00 474 0.00 0.00 0.4470 340.20 0.08 0.5600 354.700 4.672 12.148 8.522 3.627 12.453 8.600 3.854
WS7MET_125 2015-09-30 03:00:00 125 10426.0 9.850 10.050 10.180 10.220   70.170 69.060 4.681 4.808 0.00 0.00 14.540 14.720 14.720 14.140 12.820 9.950 10.050 10.190 10.320   4.834 4.970 0.00 0.00 0.5230 0.7000 9.740 10.030 10.140 10.150   4.545 4.626 0.00000 0.00 306 0.00 0.00 0.4760 338.40 0.47 0.5950 354.500 3.596 12.156 8.530 3.626 12.461 8.606 3.855
WS7MET_125 2015-09-30 02:55:00 125 10426.0 9.890 10.040 10.160 10.240   69.680 68.880 4.616 4.785 0.00 0.00 14.540 14.720 14.730 14.140 12.820 9.980 10.090 10.210 10.320   4.796 4.871 0.00 0.00 0.5100 0.7000 9.780 10.010 10.140 10.120   4.498 4.625 0.00000 0.00 249 0.00 0.00 0.4710 338.20 0.37 0.5800 350.800 3.579 12.189 8.492 3.696 12.478 8.593 3.883
WS7MET_125 2015-09-30 02:50:00 125 10426.0 9.970 10.150 10.280 10.360   69.420 68.530 4.642 4.833 0.00 0.00 14.560 14.710 14.730 14.140 12.820 10.050 10.200 10.330 10.490   4.772 5.094 0.00 0.00 0.5360 0.6000 9.910 10.090 10.220 10.220   4.500 4.725 0.00000 0.00 269 0.00 0.00 0.4000 338.30 1.28 0.5300 353.600 6.214 12.254 8.507 3.747 12.578 8.621 3.958
WS7MET_125 2015-09-30 02:45:00 125 10426.0 10.090 10.260 10.370 10.440   68.800 68.490 4.624 4.902 0.00 0.00 14.560 14.710 14.730 14.140 12.820 10.150 10.300 10.410 10.490   4.806 5.002 0.00 0.00 0.4440 0.6000 9.980 10.210 10.330 10.390   4.456 4.733 0.00000 0.00 246 0.00 0.00 0.3730 337.20 1.80 0.4750 349.400 5.879 12.353 8.496 3.854 12.645 8.663 3.985
WS7MET_125 2015-09-30 02:40:00 125 10426.0 10.090 10.280 10.400 10.460   68.720 67.730 4.614 4.761 0.00 0.00 14.560 14.720 14.730 14.140 12.820 10.150 10.300 10.420 10.560   4.729 4.942 0.00 0.00 0.4900 0.6000 10.020 10.280 10.390 10.360   4.485 4.646 0.00000 0.00 240 0.00 0.00 0.4350 340.00 0.14 0.4700 351.500 4.927 12.353 8.490 3.864 12.662 8.578 4.086
WS7MET_125 2015-09-30 02:35:00 125 10426.0 10.180 10.270 10.380 10.460   67.780 67.310 4.499 4.670 0.00 0.00 14.570 14.720 14.730 14.140 12.820 10.260 10.290 10.410 10.560   4.683 4.845 0.00 0.00 0.5160 0.6000 10.090 10.260 10.350 10.360   4.203 4.445 0.00000 0.00 280 0.00 0.00 0.4370 338.90 0.73 0.5100 350.900 5.011 12.428 8.422 4.004 12.662 8.524 4.139
WS7MET_125 2015-09-30 02:30:00 125 10426.0 10.250 10.330 10.430 10.530   66.570 66.130 4.311 4.482 0.00 0.00 14.580 14.710 14.730 14.140 12.820 10.430 10.400 10.510 10.670   4.689 4.787 0.00 0.00 0.4830 0.6000 10.120 10.260 10.350 10.360   4.143 4.296 0.00000 0.00 501 0.00 0.00 0.3940 340.50 1.58 0.4800 351.500 5.844 12.486 8.312 4.174 12.722 8.412 4.309
WS7MET_125 2015-09-30 02:25:00 125 10426.0 10.350 10.450 10.560 10.640   66.440 66.040 4.379 4.573 0.00 0.00 14.590 14.710 14.720 14.140 12.830 10.430 10.500 10.610 10.730   4.486 4.775 0.00 0.00 0.5290 0.7000 10.260 10.400 10.520 10.560   4.216 4.417 0.00000 0.00 313 0.00 0.00 0.4230 339.80 1.00 0.4900 352.900 6.258 12.570 8.352 4.218 12.815 8.466 4.352
WS7MET_125 2015-09-30 02:20:00 125 10426.0 10.430 10.530 10.630 10.690   66.520 65.840 4.472 4.569 0.00 0.00 14.600 14.710 14.730 14.140 12.830 10.530 10.560 10.650 10.770   4.565 4.687 0.00 0.00 0.5160 0.5000 10.320 10.500 10.610 10.600   4.339 4.464 0.00000 0.00 309 0.00 0.00 0.4090 338.80 0.75 0.4600 350.700 4.737 12.637 8.406 4.231 12.858 8.464 4.392
WS7MET_125 2015-09-30 02:15:00 125 10426.0 10.510 10.600 10.690 10.730   65.690 65.570 4.370 4.556 0.00 0.00 14.600 14.710 14.730 14.140 12.830 10.560 10.640 10.730 10.840   4.498 4.669 0.00 0.00 0.5420 0.7000 10.430 10.570 10.650 10.670   4.260 4.447 0.00000 0.00 314 0.00 0.00 0.4120 339.10 0.08 0.5200 349.900 3.364 12.705 8.346 4.359 12.892 8.456 4.439
WS7MET_125 2015-09-30 02:10:00 125 10426.0 10.560 10.690 10.790 10.870   66.280 65.760 4.540 4.723 0.00 0.00 14.610 14.710 14.730 14.140 12.830 10.670 10.740 10.850 10.940   4.765 4.816 0.00 0.00 0.5550 0.7000 10.460 10.640 10.730 10.800   4.448 4.629 0.00000 0.00 274 0.00 0.00 0.4130 339.00 0.61 0.5400 351.200 3.702 12.747 8.447 4.298 13.013 8.555 4.456
WS7MET_125 2015-09-30 02:05:00 125 10426.0 10.600 10.750 10.880 10.910   66.500 65.490 4.629 4.709 0.00 0.00 14.620 14.710 14.730 14.140 12.830 10.670 10.760 10.890 10.970   4.740 4.801 0.00 0.00 0.5230 0.6000 10.560 10.740 10.850 10.840   4.513 4.595 0.00000 0.00 390 0.00 0.00 0.3840 342.10 4.06 0.4600 356.000 7.556 12.781 8.499 4.282 13.048 8.547 4.503
WS7MET_125 2015-09-30 02:00:00 125 10426.0 10.600 10.750 10.880 10.940   66.280 65.710 4.586 4.780 0.00 0.00 14.630 14.710 14.730 14.140 12.830 10.700 10.760 10.890 11.010   4.714 4.874 0.00 0.00 0.5160 0.7000 10.530 10.740 10.870 10.870   4.495 4.647 0.00000 0.00 390 0.00 0.00 0.4570 341.00 0.25 0.5600 354.200 5.193 12.781 8.474 4.310 13.074 8.590 4.483
WS7MET_125 2015-09-30 01:55:00 125 10426.0 10.630 10.800 10.920 10.980   66.120 65.360 4.575 4.747 0.00 0.00 14.630 14.710 14.730 14.140 12.840 10.700 10.840 10.960 11.070   4.768 4.991 0.00 0.00 0.5160 0.7000 10.560 10.760 10.890 10.870   4.397 4.537 0.00000 0.00 273 0.00 0.00 0.4540 341.10 0.12 0.5750 356.400 4.972 12.807 8.467 4.339 13.109 8.570 4.541
WS7MET_125 2015-09-30 01:50:00 125 10426.0 10.730 10.860 10.970 11.010   66.400 65.720 4.728 4.853 0.00 0.00 14.640 14.710 14.730 14.140 12.840 10.840 10.880 10.990 11.070   4.990 5.023 0.00 0.00 0.5810 0.7000 10.630 10.840 10.950 10.940   4.423 4.627 0.00000 0.00 415 0.00 0.00 0.4650 337.50 3.87 0.5800 353.900 5.646 12.892 8.558 4.332 13.135 8.634 4.503
WS7MET_125 2015-09-30 01:45:00 125 10426.0 10.750 10.900 11.030 11.060   65.170 64.550 4.485 4.646 0.00 0.00 14.650 14.710 14.730 14.140 12.840 10.840 10.930 11.070 11.140   4.669 4.822 0.00 0.00 0.5810 0.8000 10.630 10.880 10.990 11.010   4.355 4.564 0.00000 0.00 252 0.00 0.00 0.4410 335.60 5.14 0.5750 343.600 5.703 12.910 8.414 4.496 13.179 8.509 4.672
WS7MET_125 2015-09-30 01:40:00 125 10426.0 10.800 10.940 11.080 11.120   65.360 64.460 4.570 4.677 0.00 0.00 14.650 14.710 14.730 14.140 12.840 10.900 10.980 11.110 11.180   4.704 4.797 0.00 0.00 0.4700 0.6000 10.670 10.920 11.070 11.070   4.383 4.604 0.00000 0.00 279 0.00 0.00 0.3970 341.50 0.07 0.4950 351.200 5.273 12.953 8.464 4.487 13.231 8.528 4.702
WS7MET_125 2015-09-30 01:35:00 125 10426.0 10.860 11.020 11.140 11.190   64.770 63.890 4.498 4.621 0.00 0.00 14.660 14.710 14.730 14.140 12.840 10.940 11.050 11.170 11.310   4.707 4.760 0.00 0.00 0.4570 0.6000 10.800 10.980 11.110 11.110   4.420 4.539 0.00000 0.00 239 0.00 0.00 0.4090 341.70 0.05 0.5300 353.800 6.176 13.004 8.422 4.581 13.293 8.495 4.800
WS7MET_125 2015-09-30 01:30:00 125 10426.0 10.940 11.090 11.210 11.310   64.780 63.810 4.581 4.714 0.00 0.00 14.670 14.710 14.730 14.140 12.840 11.010 11.100 11.250 11.420   4.720 4.827 0.00 0.00 0.4510 0.7000 10.900 11.060 11.170 11.180   4.497 4.605 0.00000 0.00 282 0.00 0.00 0.3940 341.50 0.24 0.5150 358.000 7.186 13.074 8.471 4.605 13.399 8.550 4.849
WS7MET_125 2015-09-30 01:25:00 125 10426.0 11.020 11.170 11.320 11.410   65.250 64.680 4.762 5.008 0.00 0.00 14.680 14.710 14.730 14.140 12.840 11.110 11.220 11.360 11.550   4.961 5.217 0.00 0.00 0.4970 0.6000 10.940 11.120 11.270 11.310   4.552 4.747 0.00000 0.00 349 0.00 0.00 0.4210 341.20 0.43 0.5000 354.400 6.870 13.144 8.579 4.567 13.488 8.728 4.764
WS7MET_125 2015-09-30 01:20:00 125 10426.0 11.090 11.260 11.390 11.470   64.820 63.880 4.729 4.880 0.00 0.00 14.680 14.710 14.730 14.140 12.850 11.180 11.280 11.410 11.550   4.994 5.106 0.00 0.00 0.4830 0.7000 11.010 11.240 11.370 11.420   4.562 4.713 0.00000 0.00 247 0.00 0.00 0.4110 340.30 0.06 0.5450 352.000 4.037 13.205 8.559 4.645 13.542 8.650 4.891
WS7MET_125 2015-09-30 01:15:00 125 10426.0 11.130 11.290 11.440 11.510   65.280 64.050 4.869 4.957 0.00 0.00 14.690 14.710 14.730 14.130 12.850 11.210 11.300 11.460 11.620   5.116 5.179 0.00 0.00 0.5550 0.7000 11.040 11.270 11.410 11.420   4.649 4.744 0.00000 0.00 458 0.00 0.00 0.4820 340.20 0.30 0.6150 356.500 5.833 13.240 8.643 4.597 13.578 8.696 4.881
WS7MET_125 2015-09-30 01:10:00 125 10426.0 11.160 11.350 11.480 11.550   65.050 64.220 4.849 5.036 0.00 0.00 14.700 14.710 14.730 14.130 12.850 11.250 11.380 11.530 11.620   4.987 5.153 0.00 0.00 0.5550 0.8000 11.110 11.300 11.440 11.480   4.644 4.929 0.00000 0.00 285 0.00 0.00 0.4360 339.70 0.63 0.5450 352.300 4.939 13.266 8.631 4.637 13.614 8.745 4.871
WS7MET_125 2015-09-30 01:05:00 125 10426.0 11.210 11.420 11.560 11.590   65.020 64.030 4.885 5.033 0.00 0.00 14.710 14.710 14.730 14.130 12.850 11.280 11.430 11.580 11.720   5.067 5.193 0.00 0.00 0.5680 0.7000 11.140 11.380 11.530 11.520   4.722 4.818 0.00000 0.00 316 0.00 0.00 0.4950 339.50 0.28 0.6150 354.700 6.899 13.310 8.653 4.656 13.650 8.743 4.910
WS7MET_125 2015-09-30 01:00:00 125 10426.0 11.250 11.420 11.580 11.600   65.020 63.930 4.925 5.016 0.00 0.00 14.710 14.710 14.730 14.130 12.850 11.350 11.430 11.580 11.690   5.139 5.246 0.00 0.00 0.5230 0.7000 11.140 11.400 11.570 11.480   4.706 4.778 0.00000 0.00 432 0.00 0.00 0.4700 339.30 0.48 0.6000 353.400 4.259 13.346 8.677 4.668 13.659 8.732 4.927
WS7MET_125 2015-09-30 00:55:00 125 10426.0 11.230 11.390 11.530 11.580   64.750 63.690 4.851 4.946 0.00 0.00 14.720 14.710 14.730 14.130 12.850 11.280 11.400 11.560 11.650   4.995 5.115 0.00 0.00 0.5360 0.7000 11.180 11.360 11.520 11.520   4.565 4.758 0.00000 0.00 244 0.00 0.00 0.4960 339.60 1.47 0.6300 356.200 4.633 13.328 8.632 4.698 13.641 8.690 4.953
WS7MET_125 2015-09-30 00:50:00 125 10426.0 11.220 11.380 11.510 11.590   63.930 63.260 4.658 4.854 0.00 0.00 14.730 14.700 14.730 14.130 12.850 11.310 11.400 11.540 11.690   4.800 5.034 0.00 0.00 0.5550 0.7000 11.110 11.360 11.480 11.520   4.550 4.718 0.00000 0.00 241 0.00 0.00 0.4900 339.50 1.77 0.5800 355.300 5.302 13.319 8.517 4.804 13.650 8.634 5.015
WS7MET_125 2015-09-30 00:45:00 125 10426.0 11.280 11.450 11.580 11.670   64.390 63.510 4.818 4.989 0.00 0.00 14.730 14.700 14.730 14.130 12.850 11.350 11.460 11.600 11.760   4.944 5.126 0.00 0.00 0.5290 0.7000 11.210 11.400 11.550 11.590   4.691 4.855 0.00000 0.00 237 0.00 0.00 0.4390 338.10 0.31 0.5750 353.000 4.442 13.372 8.612 4.762 13.722 8.716 5.007
WS7MET_125 2015-09-30 00:40:00 125 10426.0 11.330 11.510 11.650 11.700   63.680 63.050 4.709 4.913 0.00 0.00 14.740 14.700 14.730 14.130 12.860 11.420 11.550 11.690 11.760   4.972 5.103 0.00 0.00 0.4700 0.7000 11.250 11.460 11.610 11.650   4.505 4.683 0.00000 0.00 314 0.00 0.00 0.4010 340.00 0.97 0.5350 351.000 3.746 13.417 8.547 4.873 13.749 8.670 5.080
WS7MET_125 2015-09-30 00:35:00 125 10426.0 11.370 11.540 11.670 11.720   63.640 62.470 4.733 4.798 0.00 0.00 14.750 14.700 14.730 14.140 12.850 11.480 11.550 11.690 11.760   4.855 4.950 0.00 0.00 0.5490 0.7000 11.280 11.530 11.670 11.650   4.639 4.660 0.00000 0.00 321 0.00 0.00 0.4690 340.30 0.40 0.5900 354.200 5.848 13.452 8.561 4.891 13.768 8.600 5.167
WS7MET_125 2015-09-30 00:30:00 125 10426.0 11.420 11.590 11.700 11.760   63.290 62.350 4.700 4.805 0.00 0.00 14.750 14.700 14.730 14.130 12.860 11.480 11.620 11.720 11.860   4.794 4.960 0.00 0.00 0.5750 0.7000 11.350 11.550 11.670 11.620   4.509 4.540 0.00000 0.00 274 0.00 0.00 0.4750 341.30 0.16 0.5550 356.400 5.968 13.497 8.542 4.955 13.804 8.605 5.197
WS7MET_125 2015-09-30 00:25:00 125 10426.0 11.480 11.610 11.710 11.740   61.950 61.340 4.453 4.560 0.00 0.00 14.760 14.700 14.730 14.130 12.860 11.550 11.630 11.730 11.830   4.725 4.837 0.00 0.00 0.4700 0.7000 11.420 11.610 11.690 11.650   4.316 4.438 0.00000 0.00 319 0.00 0.00 0.4370 339.20 0.57 0.5500 352.300 4.098 13.551 8.395 5.156 13.786 8.458 5.330
WS7MET_125 2015-09-30 00:20:00 125 10426.0 11.470 11.610 11.730 11.770   62.690 61.790 4.613 4.692 0.00 0.00 14.760 14.690 14.730 14.120 12.860 11.520 11.620 11.750 11.860   4.732 4.971 0.00 0.00 0.6010 0.8000 11.420 11.600 11.730 11.690   4.483 4.551 0.00000 0.00 305 0.00 0.00 0.5410 339.30 0.53 0.6600 357.800 3.631 13.542 8.490 5.052 13.813 8.537 5.278
WS7MET_125 2015-09-30 00:15:00 125 10426.0 11.530 11.660 11.780 11.820   62.190 61.320 4.552 4.626 0.00 0.00 14.770 14.690 14.730 14.140 12.860 11.590 11.680 11.810 11.890   4.728 4.797 0.00 0.00 0.5950 0.8000 11.450 11.620 11.740 11.760   4.387 4.519 0.00000 0.00 389 0.00 0.00 0.5240 341.00 3.72 0.6650 358.700 6.803 13.596 8.454 5.141 13.859 8.498 5.361
WS7MET_125 2015-09-30 00:10:00 125 10426.0 11.570 11.710 11.830 11.860   61.190 60.310 4.361 4.431 0.00 0.00 14.780 14.690 14.730 14.140 12.870 11.650 11.750 11.870 11.930   4.437 4.543 0.00 0.00 0.5950 0.8000 11.450 11.680 11.800 11.790   4.237 4.253 0.00000 0.00 236 0.00 0.00 0.5170 337.70 1.20 0.6550 357.200 4.332 13.632 8.341 5.290 13.896 8.382 5.515
WS7MET_125 2015-09-30 00:05:00 125 10426.0 11.650 11.780 11.900 11.940   60.590 59.880 4.299 4.398 0.00 0.00 14.790 14.690 14.720 14.140 12.870 11.790 11.810 11.940 12.060   4.533 4.503 0.00 0.00 0.5490 0.8000 11.550 11.750 11.870 11.860   4.117 4.275 0.00000 0.00 318 0.00 0.00 0.4770 335.40 0.81 0.6250 350.400 4.214 13.704 8.305 5.401 13.969 8.363 5.604
WS7MET_125 2015-09-30 00:00:00 125 10426.0 11.700 11.840 11.970 12.020   60.950 59.870 4.430 4.479 0.00 0.00 14.790 14.690 14.720 14.140 12.870 11.790 11.880 12.010 12.100   4.574 4.824 0.00 0.00 0.4970 0.7000 11.620 11.810 11.940 11.960   4.294 4.283 0.00000 0.00 241 0.00 0.00 0.4280 334.30 0.93 0.5750 351.900 4.662 13.749 8.382 5.369 14.043 8.410 5.635
WS7MET_125 2015-09-29 23:55:00 125 10426.0 11.790 11.940 12.040 12.110   61.340 60.270 4.605 4.658 0.00 0.00 14.800 14.690 14.720 14.140 12.870 11.860 11.970 12.070 12.230   4.735 4.970 0.00 0.00 0.4640 0.6000 11.720 11.880 12.010 12.030   4.446 4.534 0.00000 0.00 248 0.00 0.00 0.3610 337.10 0.25 0.5150 350.600 4.001 13.831 8.485 5.347 14.127 8.517 5.612
WS7MET_125 2015-09-29 23:50:00 125 10426.0 11.910 12.000 12.110 12.180   61.360 60.440 4.719 4.764 0.00 0.00 14.800 14.690 14.720 14.140 12.870 12.030 12.070 12.170 12.270   4.878 4.873 0.00 0.00 0.5620 0.6000 11.790 11.970 12.070 12.060   4.622 4.640 0.00000 0.00 434 0.00 0.00 0.4160 332.80 2.76 0.5200 346.500 7.102 13.941 8.553 5.387 14.192 8.580 5.614
WS7MET_125 2015-09-29 23:45:00 125 10426.0 11.990 12.130 12.230 12.310   61.880 61.020 4.916 5.019 0.00 0.00 14.810 14.690 14.720 14.140 12.870 12.060 12.170 12.280 12.410   5.171 5.298 0.00 0.00 0.4700 0.6000 11.890 12.070 12.170 12.230   4.655 4.889 0.00000 0.00 279 0.00 0.00 0.3540 336.30 1.63 0.4600 351.300 5.996 14.015 8.672 5.343 14.314 8.734 5.580
WS7MET_125 2015-09-29 23:40:00 125 10426.0 12.050 12.220 12.340 12.410   62.510 61.100 5.119 5.134 0.00 0.00 14.820 14.690 14.720 14.140 12.870 12.130 12.240 12.360 12.510   5.368 5.276 0.00 0.00 0.3720 0.6000 11.930 12.180 12.290 12.340   4.855 5.018 0.00000 0.00 394 0.00 0.00 0.2760 340.10 3.16 0.3550 356.700 7.299 14.071 8.795 5.275 14.408 8.805 5.605
WS7MET_125 2015-09-29 23:35:00 125 10426.0 12.110 12.270 12.380 12.440   62.650 61.270 5.212 5.197 0.00 0.00 14.830 14.680 14.720 14.150 12.870 12.200 12.280 12.390 12.510   5.380 5.402 0.00 0.00 0.3990 0.5000 12.030 12.240 12.370 12.340   4.936 4.970 0.00000 0.00 237 0.00 0.00 0.3170 327.70 1.91 0.4800 345.000 4.818 14.127 8.853 5.276 14.437 8.843 5.591
WS7MET_125 2015-09-29 23:30:00 125 10426.0 12.100 12.270 12.370 12.420   63.060 61.570 5.295 5.257 0.00 0.00 14.840 14.680 14.720 14.140 12.870 12.170 12.280 12.380 12.510   5.438 5.600 0.00 0.00 0.3850 0.5000 12.000 12.260 12.360 12.370   5.126 5.123 0.00000 0.00 240 0.00 0.00 0.3070 329.10 1.96 0.4650 340.800 6.721 14.117 8.904 5.215 14.418 8.880 5.541
WS7MET_125 2015-09-29 23:25:00 125 10426.0 12.080 12.240 12.350 12.390   61.410 60.690 4.898 5.018 0.00 0.00 14.840 14.680 14.720 14.140 12.880 12.170 12.260 12.360 12.540   5.140 5.291 0.00 0.00 0.4180 0.6000 12.030 12.230 12.330 12.300   4.728 4.833 0.00000 0.00 248 0.00 0.00 0.3280 329.90 4.16 0.4850 344.900 8.060 14.099 8.661 5.441 14.389 8.734 5.656
WS7MET_125 2015-09-29 23:20:00 125 10426.0 12.110 12.230 12.320 12.420   60.710 60.090 4.755 4.900 0.00 0.00 14.840 14.680 14.730 14.130 12.880 12.170 12.280 12.370 12.540   4.865 4.994 0.00 0.00 0.4440 0.6000 12.000 12.200 12.290 12.340   4.624 4.840 0.00000 0.00 275 0.00 0.00 0.3200 334.90 0.70 0.4700 346.600 9.140 14.127 8.575 5.550 14.418 8.662 5.754
WS7MET_125 2015-09-29 23:15:00 125 10426.0 12.200 12.320 12.420 12.520   61.440 60.610 5.015 5.127 0.00 0.00 14.850 14.670 14.730 14.140 12.880 12.300 12.370 12.460 12.610   5.233 5.372 0.00 0.00 0.3720 0.5000 12.130 12.280 12.380 12.440   4.769 4.944 0.00000 0.00 277 0.00 0.00 0.3230 334.70 0.61 0.4150 347.600 5.917 14.211 8.732 5.480 14.513 8.800 5.717
WS7MET_125 2015-09-29 23:10:00 125 10426.0 12.290 12.390 12.500 12.600   61.230 60.120 5.046 5.082 0.00 0.00 14.860 14.670 14.730 14.140 12.880 12.440 12.430 12.550 12.680   5.242 5.300 0.00 0.00 0.4050 0.6000 12.200 12.370 12.460 12.540   4.817 4.984 0.00000 0.00 357 0.00 0.00 0.3360 335.20 0.09 0.4500 345.500 4.245 14.295 8.751 5.542 14.589 8.773 5.818
WS7MET_125 2015-09-29 23:05:00 125 10426.0 12.340 12.470 12.590 12.690   61.910 61.100 5.256 5.402 0.00 0.00 14.860 14.660 14.730 14.140 12.880 12.470 12.490 12.630 12.750   5.440 5.589 0.00 0.00 0.4120 0.6000 12.230 12.440 12.560 12.640   5.075 5.219 0.00000 0.00 315 0.00 0.00 0.3370 334.70 1.48 0.4450 346.900 6.885 14.342 8.880 5.463 14.675 8.970 5.709
WS7MET_125 2015-09-29 23:00:00 125 10426.0 12.430 12.550 12.690 12.770   61.290 60.340 5.201 5.289 0.00 0.00 14.880 14.660 14.730 14.140 12.880 12.510 12.590 12.750 12.850   5.355 5.388 0.00 0.00 0.4440 0.6000 12.340 12.500 12.610 12.640   5.066 5.194 0.00000 0.00 244 0.00 0.00 0.3770 332.80 0.38 0.5150 348.200 4.327 14.427 8.846 5.585 14.753 8.900 5.851
WS7MET_125 2015-09-29 22:55:00 125 10426.0 12.530 12.640 12.760 12.860   60.430 59.860 5.086 5.267 0.00 0.00 14.880 14.660 14.730 14.140 12.880 12.640 12.690 12.810 13.020   5.300 5.418 0.00 0.00 0.5880 0.8000 12.410 12.590 12.740 12.750   4.921 5.082 0.00000 0.00 242 0.00 0.00 0.5000 332.90 0.64 0.6200 351.100 3.663 14.522 8.775 5.746 14.840 8.887 5.957
WS7MET_125 2015-09-29 22:50:00 125 10426.0 12.620 12.740 12.840 12.930   59.610 58.980 4.980 5.120 0.00 0.00 14.880 14.660 14.730 14.140 12.890 12.750 12.790 12.900 13.020   5.177 5.386 0.00 0.00 0.5950 0.7000 12.510 12.690 12.800 12.810   4.827 4.969 0.00000 0.00 284 0.00 0.00 0.4990 338.00 3.44 0.5950 351.100 4.450 14.608 8.710 5.900 14.908 8.796 6.115
WS7MET_125 2015-09-29 22:45:00 125 10426.0 12.700 12.840 12.940 13.000   59.060 58.280 4.923 5.015 0.00 0.00 14.880 14.660 14.730 14.140 12.890 12.810 12.900 12.980 13.090   5.202 5.286 0.00 0.00 0.5100 0.7000 12.610 12.790 12.900 12.920   4.758 4.778 0.00000 0.00 243 0.00 0.00 0.4470 335.20 1.53 0.5250 350.400 3.426 14.685 8.676 6.012 14.976 8.732 6.248
WS7MET_125 2015-09-29 22:40:00 125 10426.0 12.770 12.890 12.990 13.060   57.070 56.410 4.494 4.601 0.00 0.00 14.890 14.660 14.730 14.130 12.890 12.850 12.910 13.020 13.190   4.770 5.083 0.00 0.00 0.6270 0.8000 12.680 12.870 12.980 12.950   4.286 4.277 0.00000 0.00 438 0.00 0.00 0.5070 334.20 5.51 0.5950 347.200 4.669 14.753 8.419 6.333 15.035 8.483 6.554
WS7MET_125 2015-09-29 22:35:00 125 10426.0 12.840 12.950 13.070 13.130   55.890 55.440 4.258 4.418 0.00 0.00 14.890 14.650 14.730 14.140 12.890 12.920 13.000 13.100 13.190   4.431 4.542 0.00 0.00 0.6140 0.7000 12.780 12.910 13.020 13.020   4.147 4.287 0.00000 0.00 322 0.00 0.00 0.4890 339.10 0.98 0.5500 354.000 5.202 14.820 8.281 6.537 15.104 8.375 6.730
WS7MET_125 2015-09-29 22:30:00 125 10426.0 12.870 13.000 13.100 13.150   55.400 54.530 4.167 4.201 0.00 0.00 14.900 14.650 14.730 14.150 12.890 13.020 13.020 13.110 13.290   4.288 4.622 0.00 0.00 0.5950 0.7000 12.780 12.990 13.090 13.090   3.974 3.788 0.00000 0.00 371 0.00 0.00 0.5070 337.40 0.88 0.5550 350.700 3.447 14.850 8.228 6.623 15.124 8.248 6.877
WS7MET_125 2015-09-29 22:25:00 125 10426.0 12.950 13.050 13.160 13.270   56.530 55.500 4.525 4.561 0.00 0.00 14.900 14.650 14.730 14.140 12.900 13.020 13.080 13.210 13.360   4.893 4.756 0.00 0.00 0.7120 0.8000 12.850 13.030 13.120 13.190   4.164 4.288 0.00000 0.00 472 0.00 0.00 0.5830 336.00 1.65 0.6650 352.400 5.857 14.928 8.438 6.489 15.243 8.459 6.783
WS7MET_125 2015-09-29 22:20:00 125 10426.0 13.030 13.120 13.240 13.340   55.820 55.420 4.420 4.610 0.00 0.00 14.910 14.640 14.730 14.130 12.900 13.120 13.160 13.270 13.460   4.692 4.770 0.00 0.00 0.6080 0.7000 12.950 13.090 13.210 13.290   4.241 4.384 0.00000 0.00 238 0.00 0.00 0.5080 334.80 3.81 0.5800 347.600 6.855 15.006 8.376 6.630 15.313 8.488 6.826
WS7MET_125 2015-09-29 22:15:00 125 10426.0 13.130 13.210 13.300 13.370   53.830 52.540 3.997 3.869 0.00 0.00 14.920 14.640 14.730 14.140 12.900 13.260 13.240 13.330 13.430   4.375 4.425 0.00 0.00 0.5100 0.7000 13.050 13.170 13.270 13.290   3.668 3.449 0.00000 0.00 243 0.00 0.00 0.4270 335.00 3.36 0.5450 347.400 2.886 15.104 8.130 6.974 15.343 8.058 7.282
WS7MET_125 2015-09-29 22:10:00 125 10426.0 13.260 13.300 13.340 13.370   51.470 51.140 3.480 3.496 0.00 0.00 14.920 14.650 14.720 14.140 12.910 13.360 13.340 13.350 13.500   3.804 3.667 0.00 0.00 0.4700 0.6000 13.160 13.240 13.310 13.290   3.185 3.255 0.00000 0.00 277 0.00 0.00 0.4030 339.50 0.67 0.4700 351.400 4.981 15.233 7.839 7.393 15.343 7.848 7.496
WS7MET_125 2015-09-29 22:05:00 125 10426.0 13.340 13.390 13.420 13.490   50.150 49.760 3.181 3.217 0.00 0.00 14.920 14.640 14.730 14.140 12.910 13.390 13.430 13.470 13.630   3.326 3.343 0.00 0.00 0.5420 0.6000 13.290 13.340 13.350 13.390   3.069 3.083 0.00000 0.00 306 0.00 0.00 0.4550 345.50 0.98 0.5250 355.400 7.079 15.313 7.675 7.633 15.463 7.695 7.769
WS7MET_125 2015-09-29 22:00:00 125 10426.0 13.360 13.490 13.580 13.640   49.810 49.130 3.111 3.172 0.00 0.00 14.930 14.630 14.730 14.140 12.910 13.430 13.530 13.630 13.740   3.258 3.384 0.00 0.00 0.4970 0.6000 13.260 13.430 13.480 13.530   2.955 3.026 0.00000 0.00 242 0.00 0.00 0.3920 349.10 1.43 0.4850 353.900 5.445 15.333 7.637 7.696 15.615 7.670 7.943
WS7MET_125 2015-09-29 21:55:00 125 10426.0 13.460 13.570 13.670 13.750   49.570 48.750 3.130 3.167 0.00 0.00 14.940 14.630 14.730 14.140 12.910 13.570 13.630 13.750 13.870   3.244 3.253 0.00 0.00 0.6400 0.8000 13.360 13.530 13.630 13.670   2.969 3.080 0.00000 0.00 214 0.00 0.00 0.5020 348.00 20.72 0.5400 7.558 6.088 15.433 7.648 7.783 15.727 7.668 8.060
WS7MET_125 2015-09-29 21:50:00 125 10426.0 13.530 13.680 13.820 13.880   48.670 47.440 2.939 2.898 0.00 0.00 14.930 14.620 14.730 14.140 12.910 13.630 13.730 13.860 13.970   3.112 3.140 0.00 0.00 0.4700 0.7000 13.460 13.640 13.760 13.800   2.756 2.610 0.00000 0.00 209 0.00 0.00 0.3180 346.10 1.13 0.3950 359.300 6.973 15.504 7.545 7.958 15.861 7.523 8.336
WS7MET_125 2015-09-29 21:45:00 125 10426.0 13.540 13.720 13.850 13.850   47.120 45.500 2.491 2.280 0.00 0.00 14.930 14.620 14.730 14.140 12.910 13.600 13.740 13.860 13.970   2.943 2.796 0.00 0.00 0.6010 0.6000 13.460 13.690 13.840 13.740   2.133 1.866 0.00000 0.00 401 0.00 0.00 0.4870 343.80 2.55 0.5100 358.500 5.060 15.514 7.308 8.204 15.830 7.199 8.627
WS7MET_125 2015-09-29 21:40:00 125 10426.0 13.530 13.710 13.840 13.900   42.910 41.690 1.170 1.094 0.00 0.00 14.930 14.620 14.740 14.140 12.920 13.600 13.720 13.850 14.010   2.112 1.948 0.00 0.00 0.6470 0.7000 13.460 13.700 13.840 13.840   0.539 0.031 0.00000 0.00 207 0.00 0.00 0.4840 355.60 17.46 0.5350 8.720 20.460 15.504 6.648 8.851 15.881 6.612 9.260
WS7MET_125 2015-09-29 21:35:00 125 10426.0 13.650 13.810 13.930 14.010   40.320 37.610 0.421 -0.224 0.00 0.00 14.950 14.620 14.730 14.150 12.910 13.770 13.900 14.010 14.080   0.858 0.232 0.00 0.00 0.8560 1.0000 13.500 13.720 13.860 13.940   0.134 -0.454 0.00000 0.00 279 0.00 0.00 0.5720 337.50 6.97 0.5950 350.800 8.020 15.625 6.297 9.325 15.995 6.009 9.979
WS7MET_125 2015-09-29 21:30:00 125 10426.0 13.770 13.950 14.050 14.070   38.880 36.150 0.020 -0.712 0.00 0.00 14.950 14.620 14.740 14.140 12.920 13.870 13.970 14.070 14.150   0.950 -0.262 0.00 0.00 0.6400 0.7000 13.700 13.910 14.000 14.010   -0.435 -1.003 0.00000 0.00 208 0.00 0.00 0.5210 344.20 0.76 0.5300 351.900 4.471 15.748 6.117 9.625 16.057 5.798 10.253
WS7MET_125 2015-09-29 21:25:00 125 10426.0 13.850 13.990 14.060 14.080   39.030 36.420 0.143 -0.602 0.00 0.00 14.950 14.610 14.740 14.140 12.920 13.910 14.010 14.090 14.110   0.950 -0.044 0.00 0.00 0.6080 0.8000 13.770 13.970 14.030 14.010   -0.685 -1.185 0.00000 0.00 210 0.00 0.00 0.5220 345.40 2.62 0.5450 359.000 6.720 15.830 6.172 9.651 16.068 5.845 10.216
WS7MET_125 2015-09-29 21:20:00 125 10426.0 13.840 13.990 14.090 14.150   36.390 34.940 -0.821 -1.099 0.00 0.00 14.950 14.610 14.740 14.150 12.930 13.940 14.040 14.130 14.210   -0.214 -0.817 0.00 0.00 0.5100 0.6000 13.800 13.970 14.050 14.110   -1.128 -1.295 0.00000 0.00 313 0.00 0.00 0.4020 340.60 1.93 0.4800 351.600 4.246 15.819 5.752 10.063 16.141 5.636 10.501
WS7MET_125 2015-09-29 21:15:00 125 10426.0 13.860 14.060 14.200 14.290   37.070 34.150 -0.558 -1.294 0.00 0.00 14.950 14.600 14.740 14.140 12.930 13.910 14.070 14.240 14.380   0.230 -0.976 0.00 0.00 0.5420 0.6000 13.800 14.040 14.150 14.180   -1.142 -1.639 0.00000 0.00 235 0.00 0.00 0.4890 343.70 0.74 0.4900 353.700 4.081 15.840 5.864 9.968 16.288 5.556 10.726
WS7MET_125 2015-09-29 21:10:00 125 10426.0 13.890 14.100 14.270 14.360   36.000 32.380 -0.926 -1.953 0.00 0.00 14.950 14.600 14.740 14.150 12.930 14.010 14.120 14.280 14.420   -0.215 -1.537 0.00 0.00 0.5810 0.6000 13.840 14.080 14.240 14.280   -1.607 -2.396 0.00000 0.00 240 0.00 0.00 0.5060 344.80 1.39 0.5150 351.300 3.729 15.871 5.708 10.157 16.362 5.292 11.064
WS7MET_125 2015-09-29 21:05:00 125 10426.0 14.000 14.180 14.350 14.400   33.530 30.540 -1.802 -2.710 0.00 0.00 14.960 14.600 14.740 14.140 12.940 14.110 14.220 14.390 14.490   -1.497 -2.130 0.00 0.00 0.6860 0.7000 13.910 14.120 14.280 14.320   -2.390 -3.151 0.00000 0.00 280 0.00 0.00 0.5570 345.90 0.68 0.5650 357.300 4.730 15.985 5.352 10.625 16.404 5.003 11.394
WS7MET_125 2015-09-29 21:00:00 125 10426.0 14.060 14.220 14.410 14.470   31.160 28.940 -2.734 -3.374 0.00 0.00 14.960 14.600 14.750 14.140 12.940 14.150 14.230 14.430 14.520   -1.835 -2.770 0.00 0.00 0.5620 0.7000 13.970 14.210 14.390 14.420   -3.156 -3.577 0.00000 0.00 269 0.00 0.00 0.4930 345.70 0.96 0.4650 359.400 6.821 16.047 4.994 11.047 16.479 4.761 11.710
WS7MET_125 2015-09-29 20:55:00 125 10426.0 14.110 14.270 14.440 14.520   31.390 28.870 -2.591 -3.363 0.00 0.00 14.960 14.600 14.750 14.140 12.940 14.180 14.310 14.460 14.620   -2.444 -3.142 0.00 0.00 0.5620 0.7000 14.040 14.240 14.420 14.450   -2.856 -3.534 0.00000 0.00 281 0.00 0.00 0.5200 344.00 0.30 0.5450 352.800 6.395 16.099 5.048 11.046 16.532 4.765 11.759
WS7MET_125 2015-09-29 20:50:00 125 10426.0 14.290 14.440 14.560 14.670   31.730 28.770 -2.297 -3.278 0.00 0.00 14.960 14.580 14.750 14.150 12.950 14.450 14.550 14.650 14.760   -1.583 -2.777 0.00 0.00 0.5750 0.7000 14.150 14.320 14.470 14.520   -2.827 -3.560 0.00000 0.00 395 0.00 0.00 0.5050 342.50 1.50 0.5000 353.800 7.491 16.288 5.159 11.120 16.693 4.795 11.890
WS7MET_125 2015-09-29 20:45:00 125 10426.0 14.400 14.600 14.710 14.780   30.590 28.870 -2.691 -3.138 0.00 0.00 14.960 14.580 14.750 14.140 12.950 14.490 14.610 14.760 14.900   -1.988 -2.722 0.00 0.00 0.5880 0.8000 14.320 14.570 14.660 14.690   -3.334 -3.459 0.00000 0.00 283 0.00 0.00 0.4930 339.30 0.99 0.5950 351.800 5.031 16.404 5.010 11.386 16.812 4.846 11.958
WS7MET_125 2015-09-29 20:40:00 125 10426.0 14.400 14.620 14.790 14.870   34.070 30.600 -1.232 -2.276 0.00 0.00 14.960 14.580 14.750 14.150 12.950 14.490 14.650 14.810 14.960   -0.723 -1.818 0.00 0.00 0.6010 0.7000 14.320 14.610 14.770 14.760   -2.161 -2.702 0.00000 0.00 514 0.00 0.00 0.5590 338.80 1.27 0.6000 351.800 6.295 16.404 5.581 10.815 16.910 5.167 11.735
WS7MET_125 2015-09-29 20:35:00 125 10426.0 14.470 14.670 14.850 14.940   34.640 30.830 -0.943 -2.114 0.00 0.00 14.970 14.580 14.740 14.150 12.940 14.550 14.690 14.860 15.070   -0.293 -1.280 0.00 0.00 0.6530 0.8000 14.420 14.650 14.820 14.830   -1.407 -2.489 0.00000 0.00 274 0.00 0.00 0.5640 337.40 0.69 0.6800 352.200 4.787 16.479 5.701 10.770 16.986 5.230 11.749
WS7MET_125 2015-09-29 20:30:00 125 10426.0 14.550 14.730 14.890 14.970   35.060 30.570 -0.710 -2.204 0.00 0.00 14.970 14.570 14.750 14.150 12.960 14.690 14.780 14.940 15.070   0.085 -1.756 0.00 0.00 0.6790 0.8000 14.450 14.680 14.850 14.900   -1.679 -2.664 0.00000 0.00 275 0.00 0.00 0.6210 336.20 0.31 0.7350 349.500 5.002 16.564 5.799 10.757 17.019 5.195 11.816
WS7MET_125 2015-09-29 20:25:00 125 10426.0 14.650 14.830 14.980 15.020   32.380 29.520 -1.697 -2.624 0.00 0.00 14.970 14.570 14.750 14.150 12.970 14.730 14.870 15.000 15.070   -1.121 -2.372 0.00 0.00 0.6270 0.8000 14.550 14.780 14.950 14.960   -2.335 -2.868 0.00000 0.00 272 0.00 0.00 0.5820 336.20 3.33 0.6550 349.300 6.284 16.671 5.393 11.273 17.074 5.035 12.034
WS7MET_125 2015-09-29 20:20:00 125 10426.0 14.640 14.890 15.020 15.090   34.460 31.060 -0.872 -1.884 0.00 0.00 14.960 14.570 14.750 14.150 12.970 14.730 14.930 15.060 15.170   0.202 -1.149 0.00 0.00 0.6470 0.8000 14.550 14.850 14.990 15.000   -2.013 -2.466 0.00000 0.00 243 0.00 0.00 0.5790 338.30 0.86 0.6500 349.900 4.559 16.661 5.731 10.919 17.151 5.319 11.824
WS7MET_125 2015-09-29 20:15:00 125 10426.0 14.720 14.960 15.080 15.060   33.980 31.980 -0.985 -1.512 0.00 0.00 14.960 14.560 14.750 14.150 12.980 14.790 14.970 15.090 15.130   -0.220 -0.725 0.00 0.00 0.6730 0.8000 14.620 14.930 15.050 15.030   -1.589 -2.234 0.00000 0.00 360 0.00 0.00 0.6150 335.60 1.99 0.7300 349.600 4.958 16.747 5.684 11.056 17.118 5.468 11.644
WS7MET_125 2015-09-29 20:10:00 125 10426.0 14.620 14.870 15.000 15.050   33.410 31.160 -1.305 -1.874 0.00 0.00 14.960 14.560 14.750 14.150 12.980 14.690 14.930 15.050 15.170   -0.065 -1.149 0.00 0.00 0.8170 0.8000 14.520 14.800 14.970 14.960   -1.866 -2.681 0.00000 0.00 327 0.00 0.00 0.6240 345.40 1.88 0.6400 353.200 5.859 16.639 5.552 11.080 17.107 5.323 11.776
WS7MET_125 2015-09-29 20:05:00 125 10426.0 14.620 14.820 15.000 15.070   35.790 32.710 -0.364 -1.194 0.00 0.00 14.960 14.560 14.750 14.140 12.990 14.690 14.840 15.020 15.130   0.302 -0.698 0.00 0.00 0.8100 0.9000 14.550 14.790 14.970 15.000   -1.243 -1.814 0.00000 0.00 352 0.00 0.00 0.7210 339.00 2.61 0.7800 352.700 5.543 16.639 5.948 10.684 17.129 5.597 11.526
WS7MET_125 2015-09-29 20:00:00 125 10426.0 14.620 14.830 14.990 15.030   34.450 31.480 -0.891 -1.753 0.00 0.00 14.960 14.550 14.750 14.150 12.990 14.730 14.850 15.020 15.130   0.098 -0.852 0.00 0.00 0.7640 1.0000 14.520 14.780 14.940 14.900   -1.514 -2.262 0.00000 0.00 234 0.00 0.00 0.6710 336.30 2.63 0.7600 348.900 4.937 16.639 5.723 10.907 17.085 5.371 11.707
WS7MET_125 2015-09-29 19:55:00 125 10426.0 14.580 14.760 14.940 15.010   34.090 32.640 -1.066 -1.279 0.00 0.00 14.950 14.550 14.750 14.140 13.000 14.660 14.810 15.000 15.100   -0.124 -0.569 0.00 0.00 0.7250 0.8000 14.520 14.730 14.910 14.930   -1.483 -1.948 0.00000 0.00 240 0.00 0.00 0.6260 341.10 0.56 0.6750 354.700 4.724 16.596 5.650 10.939 17.063 5.562 11.494
WS7MET_125 2015-09-29 19:50:00 125 10426.0 14.630 14.870 15.040 15.110   35.220 32.140 -0.571 -1.398 0.00 0.00 14.950 14.540 14.750 14.150 13.000 14.790 14.900 15.080 15.200   0.415 -1.103 0.00 0.00 0.6990 0.7000 14.550 14.820 15.000 15.000   -1.275 -1.711 0.00000 0.00 499 0.00 0.00 0.5800 340.30 0.52 0.6150 350.600 4.617 16.650 5.859 10.786 17.173 5.514 11.654
WS7MET_125 2015-09-29 19:45:00 125 10426.0 14.690 14.890 15.070 15.120   35.430 31.150 -0.442 -1.811 0.00 0.00 14.950 14.530 14.750 14.150 13.010 14.760 14.910 15.080 15.200   0.268 -1.319 0.00 0.00 0.6210 0.8000 14.660 14.870 15.060 15.070   -1.507 -1.993 0.00000 0.00 213 0.00 0.00 0.5850 340.40 0.28 0.6850 352.700 5.271 16.715 5.914 10.793 17.184 5.348 11.831
WS7MET_125 2015-09-29 19:40:00 125 10426.0 14.710 14.900 15.080 15.130   34.840 30.390 -0.650 -2.137 0.00 0.00 14.950 14.530 14.750 14.150 13.010 14.790 14.930 15.100 15.240   -0.185 -1.607 0.00 0.00 0.6990 0.9000 14.620 14.870 15.060 15.070   -1.015 -2.406 0.00000 0.00 237 0.00 0.00 0.6500 337.80 1.11 0.7200 347.000 4.831 16.736 5.825 10.905 17.195 5.221 11.970
WS7MET_125 2015-09-29 19:35:00 125 10426.0 14.740 14.940 15.090 15.140   32.680 29.820 -1.499 -2.384 0.00 0.00 14.950 14.530 14.750 14.150 13.020 14.790 14.960 15.100 15.270   -0.932 -2.176 0.00 0.00 0.6790 0.8000 14.660 14.910 15.080 15.070   -1.979 -2.589 0.00000 0.00 238 0.00 0.00 0.6110 337.50 0.17 0.6700 350.400 6.435 16.769 5.473 11.289 17.206 5.126 12.075
WS7MET_125 2015-09-29 19:30:00 125 10426.0 14.760 14.960 15.100 15.110   32.130 29.410 -1.713 -2.605 0.00 0.00 14.940 14.520 14.750 14.150 13.030 14.790 14.970 15.100 15.200   -1.067 -2.009 0.00 0.00 0.6930 0.8000 14.690 14.940 15.080 15.030   -2.776 -3.080 0.00000 0.00 233 0.00 0.00 0.6000 341.60 2.13 0.6950 353.600 4.110 16.790 5.387 11.396 17.173 5.042 12.122
WS7MET_125 2015-09-29 19:25:00 125 10426.0 14.760 14.930 15.070 15.140   31.560 29.410 -1.953 -2.579 0.00 0.00 14.940 14.520 14.750 14.140 13.030 14.830 14.930 15.080 15.200   -1.107 -1.859 0.00 0.00 0.7710 0.9000 14.690 14.910 15.060 15.070   -2.564 -3.118 0.00000 0.00 246 0.00 0.00 0.6600 340.90 1.65 0.7000 355.700 4.541 16.790 5.292 11.491 17.206 5.052 12.146
WS7MET_125 2015-09-29 19:20:00 125 10426.0 14.850 15.020 15.160 15.220   33.340 29.690 -1.132 -2.377 0.00 0.00 14.930 14.520 14.750 14.140 13.040 14.960 15.100 15.230 15.310   0.097 -1.341 0.00 0.00 0.7640 0.9000 14.690 14.930 15.090 15.130   -1.746 -2.933 0.00000 0.00 434 0.00 0.00 0.6040 330.30 2.33 0.7200 342.000 6.386 16.888 5.623 11.257 17.295 5.129 12.160
WS7MET_125 2015-09-29 19:15:00 125 10426.0 14.970 15.170 15.290 15.310   31.780 28.950 -1.692 -2.641 0.00 0.00 14.930 14.510 14.750 14.150 13.050 15.070 15.220 15.330 15.410   0.084 -1.282 0.00 0.00 0.5810 0.7000 14.900 15.100 15.240 15.200   -2.507 -3.112 0.00000 0.00 235 0.00 0.00 0.4760 341.20 12.96 0.5400 352.800 7.426 17.019 5.395 11.610 17.395 5.029 12.359
WS7MET_125 2015-09-29 19:10:00 125 10426.0 14.990 15.200 15.320 15.360   31.890 29.470 -1.614 -2.359 0.00 0.00 14.930 14.510 14.760 14.150 13.050 15.070 15.210 15.340 15.440   -0.819 -1.938 0.00 0.00 0.8820 1.1000 14.930 15.170 15.320 15.300   -2.417 -2.939 0.00000 0.00 594 0.00 0.00 0.5450 345.70 13.03 0.6050 357.000 12.340 17.041 5.427 11.607 17.451 5.135 12.308
WS7MET_125 2015-09-29 19:05:00 125 10426.0 14.960 15.170 15.310 15.340   35.140 32.130 -0.307 -1.200 0.00 0.00 14.930 14.500 14.760 14.150 13.060 15.030 15.210 15.320 15.410   0.515 -0.924 0.00 0.00 0.7770 0.9000 14.890 15.150 15.300 15.270   -1.017 -1.577 0.00000 0.00 232 0.00 0.00 0.5950 340.80 3.75 0.6650 351.400 4.900 17.008 5.973 11.031 17.429 5.595 11.829
WS7MET_125 2015-09-29 19:00:00 125 10426.0 15.020 15.220 15.320 15.320   34.390 31.650 -0.560 -1.423 0.00 0.00 14.920 14.500 14.760 14.150 13.070 15.100 15.230 15.340 15.370   0.557 -0.894 0.00 0.00 0.9470 1.1000 14.930 15.210 15.320 15.230   -1.211 -1.877 0.00000 0.00 207 0.00 0.00 0.6090 336.60 11.68 0.6850 344.900 10.210 17.074 5.863 11.202 17.406 5.504 11.897
WS7MET_125 2015-09-29 18:55:00 125 10426.0 14.990 15.180 15.320 15.340   34.250 32.070 -0.634 -1.224 0.00 0.00 14.910 14.500 14.760 14.150 13.070 15.060 15.210 15.330 15.440   0.536 -0.682 0.00 0.00 0.6660 0.7000 14.890 15.170 15.310 15.240   -1.306 -1.593 0.00000 0.00 206 0.00 0.00 0.5840 344.90 2.31 0.6050 358.300 5.954 17.041 5.832 11.204 17.429 5.585 11.839
WS7MET_125 2015-09-29 18:50:00 125 10426.0 15.050 15.210 15.340 15.390   34.660 32.060 -0.426 -1.188 0.00 0.00 14.910 14.490 14.760 14.150 13.080 15.130 15.250 15.360 15.470   0.413 -0.909 0.00 0.00 0.5950 0.7000 14.960 15.190 15.320 15.340   -1.108 -1.580 0.00000 0.00 275 0.00 0.00 0.5200 339.60 1.19 0.6100 350.900 4.431 17.107 5.921 11.178 17.485 5.600 11.879
WS7MET_125 2015-09-29 18:45:00 125 10426.0 15.140 15.290 15.420 15.480   33.960 31.970 -0.628 -1.144 0.00 0.00 14.890 14.490 14.760 14.150 13.080 15.230 15.340 15.470 15.570   0.599 -0.590 0.00 0.00 0.6660 0.7000 15.030 15.250 15.370 15.370   -1.111 -1.670 0.00000 0.00 284 0.00 0.00 0.5330 344.80 1.34 0.5700 355.400 6.138 17.206 5.834 11.363 17.586 5.618 11.964
WS7MET_125 2015-09-29 18:40:00 125 10426.0 15.250 15.410 15.550 15.620   35.770 32.950 0.184 -0.607 0.00 0.00 14.890 14.480 14.760 14.150 13.090 15.330 15.470 15.610 15.670   1.362 -0.322 0.00 0.00 0.6400 0.7000 15.200 15.330 15.470 15.540   -1.060 -1.181 0.00000 0.00 239 0.00 0.00 0.5190 336.40 4.36 0.6050 349.800 4.371 17.328 6.190 11.130 17.745 5.843 11.898
WS7MET_125 2015-09-29 18:35:00 125 10426.0 15.330 15.500 15.630 15.690   37.030 34.310 0.740 0.011 0.00 0.00 14.890 14.480 14.760 14.160 13.090 15.400 15.530 15.660 15.780   1.201 0.341 0.00 0.00 0.7910 0.9000 15.260 15.470 15.580 15.610   0.323 -0.472 0.00000 0.00 238 0.00 0.00 0.5710 339.50 23.20 0.5850 1.742 10.700 17.418 6.445 10.968 17.824 6.113 11.709
WS7MET_125 2015-09-29 18:30:00 125 10426.0 15.390 15.540 15.660 15.680   38.720 35.720 1.414 0.559 0.00 0.00 14.880 14.480 14.760 14.160 13.110 15.540 15.570 15.690 15.780   2.209 1.097 0.00 0.00 0.7060 0.7000 15.300 15.520 15.650 15.600   0.410 0.054 0.00000 0.00 244 0.00 0.00 0.5410 346.40 7.05 0.6050 358.000 9.800 17.485 6.766 10.715 17.813 6.361 11.450
WS7MET_125 2015-09-29 18:25:00 125 10426.0 15.570 15.640 15.740 15.800   37.900 35.750 1.274 0.674 0.00 0.00 14.870 14.480 14.760 14.150 13.120 15.670 15.740 15.840 15.910   2.183 1.542 0.00 0.00 0.7510 0.9000 15.430 15.570 15.660 15.670   0.251 -0.011 0.00000 0.00 239 0.00 0.00 0.5210 328.90 19.53 0.5950 351.400 10.950 17.688 6.698 10.984 17.950 6.414 11.533
WS7MET_125 2015-09-29 18:20:00 125 10426.0 15.750 15.840 15.940 15.970   40.570 38.410 2.390 1.821 0.00 0.00 14.860 14.470 14.760 14.150 13.130 15.880 15.900 16.000 16.050   2.948 2.166 0.00 0.00 0.6400 0.9000 15.640 15.750 15.860 15.840   1.963 1.560 0.00000 0.00 271 0.00 0.00 0.4610 336.60 6.68 0.5700 348.900 8.650 17.893 7.255 10.634 18.146 6.966 11.176
WS7MET_125 2015-09-29 18:15:00 125 10426.0 15.870 15.950 16.040 16.110   41.070 39.330 2.671 2.277 0.00 0.00 14.850 14.470 14.760 14.150 13.140 15.940 16.010 16.100 16.250   3.105 2.805 0.00 0.00 0.6270 0.7000 15.770 15.900 16.000 16.010   2.098 1.802 0.00000 0.00 241 0.00 0.00 0.4910 340.20 6.05 0.5850 350.400 7.311 18.031 7.402 10.625 18.309 7.197 11.108
WS7MET_125 2015-09-29 18:10:00 125 10426.0 16.040 16.110 16.230 16.330   43.000 41.230 3.476 3.139 0.00 0.00 14.840 14.460 14.760 14.160 13.140 16.180 16.200 16.320 16.460   3.995 3.541 0.00 0.00 0.6990 0.9000 15.910 16.020 16.130 16.150   2.855 2.519 0.00000 0.00 432 0.00 0.00 0.5810 335.70 6.05 0.6950 349.800 7.270 18.228 7.837 10.390 18.568 7.652 10.912
WS7MET_125 2015-09-29 18:05:00 125 10426.0 16.210 16.300 16.410 16.500   43.390 41.060 3.754 3.236 0.00 0.00 14.830 14.460 14.760 14.150 13.150 16.320 16.370 16.490 16.630   4.530 3.625 0.00 0.00 0.7840 1.0000 16.080 16.220 16.340 16.390   3.275 2.927 0.00000 0.00 271 0.00 0.00 0.6110 339.70 7.88 0.6550 349.200 10.350 18.426 7.992 10.431 18.770 7.705 11.063
WS7MET_125 2015-09-29 18:00:00 125 10426.0 16.410 16.460 16.590 16.700   41.890 40.020 3.437 3.059 1.01 0.00 14.820 14.460 14.750 14.160 13.160 16.490 16.540 16.680 16.800   3.845 3.345 1.34 0.00 0.7120 0.8000 16.290 16.390 16.490 16.560   3.235 2.861 0.00000 0.00 390 0.00 0.00 0.6200 344.30 0.82 0.6750 358.200 4.050 18.663 7.816 10.845 19.010 7.609 11.402
WS7MET_125 2015-09-29 17:55:00 125 10426.0 16.580 16.630 16.750 16.850   43.070 40.830 3.991 3.474 1.95 0.00 14.820 14.450 14.750 14.160 13.170 16.690 16.700 16.830 17.000   4.331 3.929 2.68 0.00 0.6730 0.9000 16.350 16.540 16.680 16.730   3.636 3.214 0.00000 0.00 246 0.00 0.00 0.5550 347.20 2.93 0.6600 0.152 6.910 18.866 8.127 10.740 19.192 7.836 11.356
WS7MET_125 2015-09-29 17:50:00 125 10426.0 16.840 16.860 16.960 17.090   44.380 41.860 4.654 4.046 2.95 0.00 14.800 14.450 14.750 14.160 13.190 17.000 17.040 17.130 17.240   5.257 4.390 4.03 0.00 0.5290 0.7000 16.690 16.710 16.810 16.900   4.114 3.614 0.00000 0.00 241 0.00 0.00 0.4570 347.50 4.35 0.5550 0.552 6.803 19.180 8.514 10.668 19.486 8.159 11.329
WS7MET_125 2015-09-29 17:45:00 125 10426.0 17.070 17.140 17.230 17.350   45.580 43.280 5.242 4.755 4.03 0.00 14.790 14.440 14.760 14.160 13.200 17.210 17.220 17.300 17.440   5.958 5.479 4.03 0.00 0.7060 0.9000 16.930 17.040 17.130 17.270   4.332 4.119 0.00000 0.00 468 0.00 0.00 0.5010 340.80 11.36 0.5950 353.800 6.096 19.461 8.871 10.591 19.809 8.575 11.236
WS7MET_125 2015-09-29 17:40:00 125 10426.0 17.240 17.290 17.400 17.540   45.430 43.070 5.336 4.847 4.03 0.00 14.770 14.430 14.760 14.160 13.210 17.380 17.360 17.490 17.720   6.825 6.133 4.03 0.00 0.6990 0.9000 17.100 17.210 17.300 17.310   4.702 4.212 0.00000 0.00 243 0.00 0.00 0.4510 352.40 11.79 0.5400 5.497 13.960 19.672 8.929 10.735 20.048 8.630 11.414
WS7MET_125 2015-09-29 17:35:00 125 10426.0 17.470 17.470 17.600 17.850   47.560 44.220 6.216 5.521 4.97 0.00 14.760 14.430 14.760 14.160 13.220 17.650 17.640 17.770 18.130   6.760 6.091 5.37 0.00 0.6340 0.7000 17.310 17.360 17.500 17.550   5.351 5.120 0.00000 0.00 285 0.00 0.00 0.5040 347.30 7.88 0.5900 1.563 10.060 19.960 9.491 10.467 20.444 9.045 11.404
WS7MET_125 2015-09-29 17:30:00 125 10426.0 17.700 17.750 17.910 18.180   48.540 44.550 6.730 5.927 5.97 0.00 14.750 14.430 14.760 14.160 13.240 17.890 17.870 18.040 18.370   7.278 6.428 6.71 0.00 0.9470 0.9000 17.580 17.650 17.800 18.060   5.902 5.399 0.00000 0.00 270 0.00 0.00 0.3850 352.50 30.65 0.5100 4.296 28.070 20.252 9.834 10.422 20.872 9.303 11.574
WS7MET_125 2015-09-29 17:25:00 125 10426.0 17.990 18.010 18.190 18.540   48.640 43.130 7.022 5.774 7.92 0.27 14.740 14.420 14.760 14.170 13.260 18.160 18.170 18.360 18.780   7.553 6.665 9.39 1.34 0.5420 1.0000 17.820 17.900 18.070 18.300   6.013 4.427 0.00000 0.00 548 0.00 0.00 0.2680 349.10 20.41 0.4300 1.017 34.520 20.625 10.033 10.593 21.349 9.205 12.141
WS7MET_125 2015-09-29 17:20:00 125 10426.0 18.260 18.340 18.540 18.910   46.360 38.800 6.541 4.527 10.87 1.34 14.730 14.420 14.760 14.140 13.270 18.400 18.420 18.630 19.010   7.624 6.539 12.07 1.34 0.5030 0.6000 18.130 18.190 18.380 18.780   3.961 1.870 0.00000 0.00 281 0.00 0.00 0.1060 322.00 51.93 0.3200 355.000 51.140 20.978 9.707 11.252 21.849 8.439 13.371
WS7MET_125 2015-09-29 17:15:00 125 10426.0 18.620 18.670 18.920 19.390   47.590 42.140 7.286 6.193 14.56 2.55 14.710 14.420 14.760 14.150 13.290 18.810 18.990 19.260 19.660   7.584 6.933 16.10 2.68 0.5230 0.6000 18.400 18.370 18.590 19.050   6.751 3.316 0.00000 0.00 212 0.00 0.00 0.2330 353.20 38.99 0.3700 9.230 59.580 21.456 10.216 11.245 22.512 9.476 13.025
WS7MET_125 2015-09-29 17:10:00 125 10426.0 19.010 19.090 19.350 19.690   43.930 36.080 6.418 4.152 17.37 3.15 14.700 14.420 14.760 14.150 13.300 19.320 19.360 19.540 19.940   8.090 7.079 18.78 4.03 0.8040 1.3000 18.810 18.990 19.270 19.590   2.457 1.762 0.00000 0.00 473 0.00 0.00 0.4440 215.10 84.00 0.6300 232.200 76.780 21.985 9.625 12.327 22.935 8.220 14.660
WS7MET_125 2015-09-29 17:05:00 125 10426.0 19.310 19.550 19.750 19.960   37.770 33.210 4.444 3.232 19.52 4.03 14.690 14.410 14.750 14.160 13.310 19.460 19.670 19.860 20.070   7.279 5.899 20.12 4.03 0.9150 1.3000 19.180 19.410 19.610 19.830   1.714 1.534 0.00000 0.00 279 0.00 0.00 0.2640 125.30 72.47 0.4500 108.000 60.880 22.400 8.390 13.940 23.322 7.703 15.577
WS7MET_125 2015-09-29 17:00:00 125 10426.0 19.320 19.350 19.590 20.010   42.100 36.400 6.048 4.590 21.73 4.03 14.670 14.420 14.750 14.160 13.320 19.560 19.490 19.720 20.340   8.140 6.379 22.81 4.03 1.4110 1.7000 19.150 19.160 19.410 19.760   2.477 2.128 0.00000 0.00 462 0.00 0.00 0.5450 28.03 70.78 0.7200 45.500 30.530 22.414 9.382 12.978 23.395 8.476 14.879
WS7MET_125 2015-09-29 16:55:00 125 10426.0 19.840 19.990 20.240 20.600   42.230 35.530 6.556 4.744 23.55 4.03 14.660 14.410 14.760 14.160 13.330 20.000 20.250 20.460 20.750   8.280 6.984 24.15 4.03 0.5750 0.9000 19.530 19.520 19.770 20.280   3.118 2.603 0.00000 0.00 400 0.00 0.00 0.1960 303.90 60.86 0.3700 343.100 63.510 23.150 9.717 13.374 24.263 8.568 15.642
WS7MET_125 2015-09-29 16:50:00 125 10426.0 19.990 20.270 20.480 20.690   37.860 32.830 5.104 3.732 25.29 4.29 14.650 14.390 14.760 14.160 13.340 20.110 20.390 20.580 20.750   7.539 6.288 26.83 5.37 1.1170 1.2000 19.870 20.180 20.390 20.620   2.674 2.473 0.00000 0.00 204 0.00 0.00 0.1850 147.40 59.09 0.4450 235.400 60.720 23.366 8.786 14.519 24.398 7.980 16.388
WS7MET_125 2015-09-29 16:45:00 125 10426.0 19.920 20.240 20.460 20.630   34.990 31.640 3.969 3.200 27.30 5.37 14.640 14.400 14.760 14.160 13.360 20.110 20.420 20.620 20.790   6.926 5.318 28.17 5.37 1.1110 1.9000 19.730 20.020 20.270 20.450   2.780 2.682 0.00000 0.00 233 0.00 0.00 0.4440 221.60 75.36 0.6500 257.700 62.550 23.265 8.114 15.124 24.308 7.686 16.617
WS7MET_125 2015-09-29 16:40:00 125 10426.0 19.850 20.070 20.300 20.600   40.320 37.110 5.922 5.384 28.85 5.50 14.610 14.400 14.760 14.160 13.360 20.070 20.310 20.550 20.750   7.387 7.337 29.52 6.71 1.0980 1.2000 19.700 19.850 20.100 20.450   3.504 3.150 0.00000 0.00 477 0.00 0.00 0.2660 60.99 59.43 0.4400 260.400 47.450 23.164 9.300 13.824 24.263 8.959 15.259
WS7MET_125 2015-09-29 16:35:00 125 10426.0 20.020 20.120 20.370 20.710   39.860 34.840 5.899 4.611 30.52 6.71 14.590 14.400 14.770 14.160 13.370 20.170 20.300 20.530 20.820   8.270 7.227 30.86 6.71 1.0780 1.6000 19.830 19.950 20.200 20.620   3.523 3.099 0.00000 0.00 288 0.00 0.00 0.4370 181.30 61.68 0.7450 194.800 70.210 23.409 9.285 14.078 24.428 8.489 15.917
WS7MET_125 2015-09-29 16:30:00 125 10426.0 20.510 20.430 20.670 21.150   43.480 38.290 7.649 6.366 32.53 7.51 14.580 14.390 14.770 14.160 13.380 20.790 20.820 21.030 21.440   8.560 8.220 33.54 8.05 0.7710 0.9000 20.210 20.050 20.310 20.790   5.099 4.316 0.00000 0.00 361 0.00 0.00 0.2270 169.40 70.12 0.4600 243.400 88.200 24.129 10.473 13.637 25.097 9.590 15.488
WS7MET_125 2015-09-29 16:25:00 125 10426.0 20.840 20.840 21.040 21.610   36.100 32.730 5.223 4.511 33.07 8.65 14.570 14.390 14.770 14.160 13.400 21.060 20.950 21.180 21.880   8.410 7.698 33.54 9.39 2.6850 2.8000 20.690 20.700 20.860 21.400   3.585 3.324 0.00000 0.00 239 0.00 0.00 1.1500 202.00 36.79 1.3350 214.800 26.350 24.624 8.859 15.735 25.814 8.429 17.365
WS7MET_125 2015-09-29 16:20:00 125 10426.0 21.290 21.160 21.330 22.310   40.320 35.720 7.244 6.370 35.49 10.06 14.560 14.390 14.770 14.160 13.410 21.500 21.430 21.620 22.700   8.420 8.120 44.27 10.73 1.3330 1.5000 21.090 20.900 21.080 21.910   4.730 4.676 0.00000 0.00 461 0.00 0.00 0.2040 181.60 35.52 0.4100 165.200 56.190 25.314 10.187 15.107 26.940 9.593 17.317
WS7MET_125 2015-09-29 16:15:00 125 10426.0 21.760 21.770 22.050 22.930   38.540 32.510 7.008 5.581 53.33 11.47 14.540 14.390 14.770 14.170 13.420 21.910 21.970 22.360 23.110   8.610 7.289 61.71 12.07 1.1300 1.4000 21.540 21.400 21.590 22.730   3.777 3.662 0.00000 0.00 204 0.00 0.00 0.3120 150.20 69.03 0.4350 185.400 49.340 26.052 10.023 16.012 27.972 9.083 18.878
WS7MET_125 2015-09-29 16:10:00 125 10426.0 21.620 21.800 22.320 22.860   33.510 29.780 4.848 4.275 52.86 13.42 14.530 14.390 14.770 14.170 13.440 21.910 21.950 22.440 22.970   7.990 6.266 93.90 14.76 1.4900 1.7000 21.400 21.580 22.120 22.730   3.998 3.713 0.00000 0.00 241 0.00 0.00 0.7930 205.30 43.90 1.0800 220.700 35.990 25.830 8.631 17.174 27.854 8.291 19.559
WS7MET_125 2015-09-29 16:05:00 125 10426.0 21.080 21.530 22.110 22.710   37.400 31.740 5.964 5.051 141.70 15.76 14.510 14.390 14.770 14.160 13.450 21.470 21.660 22.210 22.940   7.895 6.338 218.70 17.44 1.0260 1.5000 20.750 21.290 21.910 22.390   4.047 4.006 0.00000 0.00 282 0.00 0.00 0.3570 151.40 41.93 0.6150 164.200 61.410 24.990 9.327 15.644 27.602 8.754 18.841
WS7MET_125 2015-09-29 16:00:00 125 10426.0 20.790 21.240 21.830 22.310   42.080 33.160 7.438 5.344 287.60 18.45 14.500 14.390 14.780 14.160 13.470 20.960 21.410 21.910 22.460   8.860 6.614 335.40 20.12 1.7970 1.9000 20.650 21.150 21.740 22.220   5.496 4.448 0.00000 0.00 355 0.00 0.00 0.8910 163.20 31.46 1.0200 178.200 30.110 24.548 10.323 14.218 26.940 8.934 18.007
WS7MET_125 2015-09-29 15:55:00 125 10426.0 21.200 21.680 22.080 22.540   44.120 41.280 8.520 8.740 343.70 20.53 14.470 14.390 14.780 14.170 13.480 21.370 21.770 22.210 22.630   9.430 9.770 350.20 21.47 0.7060 1.7000 20.920 21.480 21.950 22.390   7.714 7.466 0.00000 0.00 205 0.00 0.00 0.2270 225.10 53.01 0.4850 238.400 39.170 25.174 11.113 14.067 27.319 11.280 16.042
WS7MET_125 2015-09-29 15:50:00 125 10426.0 21.470 21.640 22.120 22.540   43.940 39.580 8.680 8.090 357.80 22.41 14.460 14.380 14.780 14.170 13.500 21.710 21.740 22.230 22.630   10.100 9.510 363.60 22.81 1.0580 1.6000 21.230 21.540 22.010 22.430   6.875 6.119 0.00000 0.00 388 0.00 0.00 0.2500 300.00 79.95 0.4850 226.000 75.420 25.594 11.234 14.348 27.319 10.793 16.506
WS7MET_125 2015-09-29 15:45:00 125 10426.0 21.790 21.790 22.240 22.720   44.030 40.800 9.010 8.730 372.20 23.95 14.440 14.380 14.780 14.170 13.520 21.950 21.870 22.310 22.830   10.960 9.850 378.30 25.49 0.7710 1.4000 21.570 21.650 22.110 22.630   7.928 7.036 0.00000 0.00 210 0.00 0.00 0.1820 307.90 36.08 0.3450 303.600 34.090 26.100 11.488 14.608 27.619 11.272 16.350
WS7MET_125 2015-09-29 15:40:00 125 10426.0 22.270 22.170 22.510 23.110   44.930 41.770 9.730 9.410 314.90 26.03 14.430 14.380 14.780 14.170 13.540 22.490 22.450 22.830 23.410   11.090 10.660 381.00 26.83 0.5810 1.0000 21.950 21.900 22.280 22.830   8.320 7.731 0.00000 0.00 355 0.00 0.00 0.2750 192.70 66.32 0.4950 233.300 78.210 26.874 12.058 14.800 28.278 11.802 16.467
WS7MET_125 2015-09-29 15:35:00 125 10426.0 22.570 22.620 22.990 23.530   39.360 34.220 8.000 6.854 268.00 27.57 14.410 14.380 14.780 14.180 13.570 22.730 22.860 23.210 23.690   10.930 8.910 362.20 28.17 1.5420 2.2000 22.430 22.520 22.880 23.350   6.413 6.150 0.00000 0.00 240 0.00 0.00 0.5010 171.80 51.08 0.7400 175.200 48.950 27.369 10.727 16.596 29.004 9.918 19.079
WS7MET_125 2015-09-29 15:30:00 125 10426.0 23.030 23.280 23.670 24.050   39.790 35.680 8.590 7.909 138.50 29.38 14.390 14.380 14.780 14.170 13.620 23.210 23.530 23.910 24.340   10.440 9.880 183.80 30.86 1.0060 1.6000 22.730 22.920 23.340 23.620   7.072 6.957 0.00000 0.00 246 0.00 0.00 0.4240 153.60 62.90 0.7250 162.600 54.350 28.142 11.166 16.944 29.925 10.661 19.248
WS7MET_125 2015-09-29 15:25:00 125 10426.0 23.120 23.340 23.700 24.220   35.140 32.620 6.895 6.775 177.50 31.39 14.370 14.380 14.780 14.170 13.730 23.240 23.520 23.910 24.440   9.110 9.390 228.10 32.20 1.1500 2.1000 23.040 23.260 23.580 24.030   6.195 6.260 0.00000 0.00 468 0.00 0.00 0.5870 126.60 64.64 0.8050 117.500 65.030 28.295 9.946 18.352 30.232 9.864 20.370
WS7MET_125 2015-09-29 15:20:00 125 10426.0 23.340 23.600 23.910 24.390   40.670 36.750 9.240 8.670 201.90 33.54 14.360 14.380 14.780 14.170 13.850 23.480 23.730 24.030 24.570   9.990 9.910 257.60 34.88 0.7640 1.1000 23.110 23.450 23.770 24.270   7.888 7.596 0.00000 0.00 279 0.00 0.00 0.3110 123.70 44.39 0.5250 148.500 70.180 28.674 11.667 17.012 30.541 11.226 19.317
WS7MET_125 2015-09-29 15:15:00 125 10426.0 23.680 23.850 24.140 24.600   39.760 34.330 9.210 7.862 396.10 36.56 14.340 14.380 14.780 14.170 13.860 23.890 24.150 24.460 24.880   10.160 8.910 461.50 37.57 0.9340 1.1000 23.450 23.550 23.800 24.300   8.430 7.330 0.00000 0.00 275 0.00 0.00 0.4320 108.70 20.48 0.5600 117.500 29.280 29.267 11.644 17.631 30.927 10.627 20.310
WS7MET_125 2015-09-29 15:10:00 125 10426.0 23.890 24.260 24.540 25.020   35.720 32.080 7.799 7.230 468.60 39.24 14.320 14.380 14.780 14.170 13.750 24.100 24.360 24.670 25.190   9.590 8.290 474.90 40.25 1.2540 1.5000 23.790 24.110 24.390 24.850   6.584 6.547 0.00000 0.00 239 0.00 0.00 0.4570 82.80 58.67 0.5750 106.200 73.320 29.639 10.581 19.052 31.711 10.177 21.538
WS7MET_125 2015-09-29 15:05:00 125 10426.0 24.120 24.560 24.660 25.100   34.750 32.260 7.607 7.378 481.60 42.46 14.300 14.380 14.780 14.180 13.650 24.270 24.720 24.870 25.320   8.820 8.510 487.00 44.27 1.3260 2.0000 23.990 24.410 24.450 24.920   6.898 6.774 0.00000 0.00 282 0.00 0.00 0.5420 91.30 52.39 0.8150 104.700 51.720 30.051 10.443 19.608 31.863 10.281 21.584
WS7MET_125 2015-09-29 15:00:00 125 10426.0 24.370 24.630 24.680 25.200   35.850 32.620 8.280 7.626 495.10 46.02 14.280 14.380 14.780 14.170 13.700 24.570 24.910 24.870 25.390   9.620 8.380 501.80 48.30 1.4240 1.8000 24.100 24.360 24.450 24.950   6.633 6.412 0.00000 0.00 250 0.00 0.00 0.5640 67.79 50.26 0.7900 86.400 37.180 30.504 10.933 19.569 32.053 10.457 21.597
WS7MET_125 2015-09-29 14:55:00 125 10426.0 24.720 24.940 24.910 25.290   35.500 32.310 8.450 7.575 507.30 50.18 14.270 14.380 14.780 14.170 13.730 24.850 25.030 25.030 25.390   9.940 8.320 513.80 52.32 1.3650 1.6000 24.570 24.780 24.740 25.220   7.238 6.911 0.00000 0.00 277 0.00 0.00 0.6980 88.60 56.99 0.8750 108.800 45.300 31.149 11.060 20.091 32.225 10.420 21.813
WS7MET_125 2015-09-29 14:50:00 125 10426.0 24.440 24.630 24.900 25.060   36.750 33.400 8.700 7.844 519.10 54.54 14.250 14.380 14.780 14.180 13.760 24.750 24.990 25.030 25.390   10.180 9.280 524.60 56.35 1.0580 1.4000 24.200 24.280 24.810 24.850   7.406 6.794 0.00000 0.00 211 0.00 0.00 0.3640 120.00 40.79 0.5650 134.300 52.840 30.632 11.249 19.375 31.787 10.614 21.170
WS7MET_125 2015-09-29 14:45:00 125 10426.0 24.240 24.330 24.860 25.050   36.550 32.590 8.430 7.471 531.00 58.90 14.230 14.380 14.780 14.180 13.910 24.340 24.410 25.030 25.150   10.570 9.100 536.70 60.37 1.1960 1.6000 23.990 24.200 24.710 24.880   6.853 6.461 0.00000 0.00 205 0.00 0.00 0.4930 141.60 51.71 0.7450 159.000 47.280 30.268 11.045 19.205 31.768 10.347 21.415
WS7MET_125 2015-09-29 14:40:00 125 10426.0 24.320 24.550 24.850 25.070   33.180 30.420 7.105 6.499 544.20 63.06 14.220 14.380 14.780 14.180 14.070 24.470 24.750 25.040 25.260   8.150 7.263 550.10 65.74 1.3460 2.5000 24.030 24.220 24.550 24.810   6.124 5.976 0.00000 0.00 317 0.00 0.00 0.6740 90.70 46.04 1.0450 117.300 46.710 30.413 10.090 20.322 31.806 9.679 22.131
WS7MET_125 2015-09-29 14:35:00 125 10426.0 24.460 24.720 24.990 25.280   35.440 31.140 8.170 7.019 555.40 66.95 14.200 14.380 14.780 14.180 14.130 24.540 24.950 25.120 25.430   10.330 8.620 560.80 68.42 1.1300 2.2000 24.340 24.640 24.910 25.150   6.587 6.065 0.00000 0.00 238 0.00 0.00 0.5020 149.40 71.41 0.8000 168.800 63.440 30.669 10.852 19.800 32.206 10.031 22.177
WS7MET_125 2015-09-29 14:30:00 125 10426.0 24.180 24.500 24.710 24.940   35.190 31.430 7.817 6.861 565.80 69.97 14.180 14.380 14.780 14.180 14.140 24.440 24.930 25.120 25.290   10.160 7.941 571.50 71.11 1.3520 1.8000 24.060 24.220 24.380 24.750   6.428 6.261 0.00000 0.00 240 0.00 0.00 0.5120 78.24 88.70 0.7400 73.550 73.480 30.159 10.594 19.546 31.561 9.923 21.641
WS7MET_125 2015-09-29 14:25:00 125 10426.0 24.050 24.150 24.420 24.850   35.480 31.100 7.852 6.634 576.90 72.31 14.160 14.380 14.780 14.180 14.140 24.200 24.460 24.700 25.120   9.030 7.447 582.30 73.79 1.1430 1.5000 23.890 23.910 24.220 24.710   6.579 6.247 0.00000 0.00 236 0.00 0.00 0.5380 180.10 43.27 0.7000 200.400 42.260 29.925 10.619 19.308 31.392 9.769 21.629
WS7MET_125 2015-09-29 14:20:00 125 10426.0 24.550 24.490 24.710 25.170   34.080 29.950 7.680 6.365 588.10 74.86 14.150 14.380 14.780 14.180 14.110 24.850 25.010 25.210 25.600   8.990 7.078 593.00 76.47 1.3330 1.9000 24.130 23.990 24.300 24.850   5.896 5.931 0.00000 0.00 238 0.00 0.00 0.7490 134.30 27.88 0.9800 151.700 24.360 30.835 10.495 20.326 31.996 9.589 22.413
WS7MET_125 2015-09-29 14:15:00 125 10426.0 25.070 25.000 25.150 25.460   31.570 28.990 7.021 6.129 559.70 77.48 14.130 14.380 14.780 14.180 14.100 25.360 25.270 25.470 25.700   8.720 8.120 597.00 79.16 1.2870 1.7000 24.810 24.880 25.010 25.290   5.725 5.359 0.00000 0.00 231 0.00 0.00 0.7610 156.00 49.21 1.0150 158.600 33.450 31.806 10.032 21.765 32.552 9.434 23.115
WS7MET_125 2015-09-29 14:10:00 125 10426.0 25.660 25.390 25.560 25.800   29.470 26.780 6.546 5.287 457.10 80.00 14.110 14.380 14.780 14.180 14.090 26.180 25.940 26.010 26.010   7.944 5.972 605.10 80.50 1.8230 2.3000 25.220 25.120 25.310 25.670   5.394 4.673 0.00000 0.00 210 0.00 0.00 1.0260 155.90 57.23 1.2800 166.800 51.120 32.940 9.710 23.233 33.215 8.899 24.320
WS7MET_125 2015-09-29 14:05:00 125 10426.0 25.880 26.050 26.210 26.130   29.390 27.240 6.688 5.807 395.10 82.20 14.100 14.380 14.780 14.160 14.090 26.250 26.320 26.450 26.420   7.815 6.738 535.30 83.20 1.2280 1.7000 25.560 25.760 25.930 25.870   5.496 5.182 0.00000 0.00 207 0.00 0.00 0.3810 154.20 38.64 0.5550 173.400 47.710 33.372 9.805 23.564 33.869 9.226 24.643
WS7MET_125 2015-09-29 14:00:00 125 10426.0 25.230 25.340 25.490 25.660   30.900 28.790 6.861 6.198 209.20 83.90 14.080 14.380 14.780 14.170 14.070 25.530 25.710 25.870 25.900   8.090 7.117 403.80 84.50 0.6010 1.2000 25.090 25.130 25.310 25.500   5.260 4.869 0.00000 0.00 207 0.00 0.00 0.2430 141.50 53.54 0.4850 152.500 61.410 32.110 9.923 22.188 32.940 9.480 23.457
WS7MET_125 2015-09-29 13:55:00 125 10426.0 25.450 25.280 25.460 25.620   28.950 27.050 6.082 5.264 202.70 86.20 14.070 14.380 14.790 14.170 14.070 25.670 25.520 25.640 25.770   8.040 6.477 378.30 87.20 1.5420 2.1000 25.150 25.160 25.310 25.500   4.598 4.291 0.00000 0.00 480 0.00 0.00 0.7390 178.40 55.93 0.9700 180.200 44.980 32.533 9.404 23.114 32.862 8.885 23.973
WS7MET_125 2015-09-29 13:50:00 125 10426.0 25.640 25.590 25.750 25.900   27.970 26.730 5.777 5.336 321.50 89.10 14.050 14.380 14.790 14.170 14.070 25.770 25.720 25.950 26.040   7.384 6.489 635.90 89.90 2.6920 3.2000 25.530 25.410 25.590 25.700   4.927 4.647 0.00000 0.00 238 0.00 0.00 0.8980 199.60 60.16 1.1350 202.000 55.390 32.901 9.207 23.699 33.412 8.929 24.481
WS7MET_125 2015-09-29 13:45:00 125 10426.0 25.510 25.230 25.580 25.680   30.170 27.230 6.747 5.419 650.60 92.00 14.030 14.380 14.780 14.170 13.850 25.670 25.550 25.810 25.900   8.350 7.012 654.70 93.90 1.2410 2.1000 25.430 24.960 25.400 25.530   5.389 4.813 0.00000 0.00 211 0.00 0.00 0.5680 175.90 36.63 0.7950 174.700 38.740 32.649 9.845 22.799 32.979 8.981 23.999
WS7MET_125 2015-09-29 13:40:00 125 10426.0 26.030 25.520 25.890 25.960   31.230 28.110 7.695 6.116 658.00 95.00 14.020 14.380 14.780 14.170 13.750 26.350 25.950 26.240 26.210   9.480 8.190 662.80 96.60 1.1560 1.5000 25.600 25.090 25.510 25.630   5.827 5.493 0.00000 0.00 244 0.00 0.00 0.7580 133.80 58.48 0.8650 144.900 54.990 33.670 10.506 23.155 33.531 9.426 24.105
WS7MET_125 2015-09-29 13:35:00 125 10426.0 26.180 26.240 26.490 26.390   29.810 27.820 7.141 6.325 664.60 97.90 14.010 14.380 14.780 14.170 13.750 26.380 26.390 26.630 26.520   9.060 7.941 668.10 99.30 1.0910 1.4000 26.040 26.010 26.320 26.180   5.681 4.955 0.00000 0.00 234 0.00 0.00 0.3940 182.00 37.57 0.5600 208.600 41.990 33.969 10.115 23.843 34.393 9.563 24.825
WS7MET_125 2015-09-29 13:30:00 125 10426.0 25.980 26.150 26.320 26.250   29.870 27.590 7.015 6.102 670.90 100.50 13.990 14.380 14.780 14.170 13.770 26.110 26.270 26.520 26.480   8.240 6.752 674.80 102.00 1.2350 2.1000 25.870 25.870 25.970 25.900   5.652 5.368 0.00000 0.00 208 0.00 0.00 0.6500 197.40 47.42 0.8800 205.900 42.080 33.570 10.028 23.543 34.110 9.417 24.699
WS7MET_125 2015-09-29 13:25:00 125 10426.0 25.990 26.000 26.130 26.000   30.730 27.920 7.432 6.051 677.00 103.30 13.970 14.380 14.780 14.170 13.860 26.210 26.200 26.300 26.210   8.970 7.403 680.20 104.60 1.2350 1.4000 25.770 25.820 25.970 25.770   6.142 5.136 0.00000 0.00 250 0.00 0.00 0.5860 153.50 65.16 0.7350 163.200 36.870 33.590 10.319 23.268 33.610 9.384 24.226
WS7MET_125 2015-09-29 13:20:00 125 10426.0 25.870 25.740 25.810 25.790   29.520 27.470 6.748 5.649 682.80 105.90 13.960 14.380 14.780 14.180 14.020 25.970 25.900 25.910 25.870   7.953 6.683 685.60 107.30 1.1240 1.5000 25.700 25.590 25.670 25.630   5.832 5.157 0.00000 0.00 327 0.00 0.00 0.7960 111.50 24.27 1.0800 130.600 35.780 33.353 9.846 23.507 33.195 9.126 24.076
WS7MET_125 2015-09-29 13:15:00 125 10426.0 25.790 25.850 25.960 25.920   31.410 28.060 7.583 6.053 687.10 108.50 13.950 14.380 14.780 14.180 14.110 25.970 26.060 26.210 26.110   8.660 7.861 690.90 110.00 1.1300 1.4000 25.560 25.710 25.780 25.800   6.708 5.141 0.00000 0.00 571 0.00 0.00 0.5420 129.80 35.34 0.7000 141.500 34.990 33.195 10.426 22.768 33.451 9.385 24.065
WS7MET_125 2015-09-29 13:10:00 125 10426.0 25.710 25.770 25.980 25.970   29.240 26.520 6.467 5.287 693.50 111.60 13.940 14.390 14.780 14.180 14.120 25.840 25.900 26.130 26.080   8.100 6.652 699.00 112.70 1.2280 1.5000 25.600 25.600 25.750 25.730   5.745 4.667 0.00000 0.00 208 0.00 0.00 0.7130 100.30 27.36 0.8250 110.200 31.050 33.038 9.657 23.378 33.550 8.899 24.653
WS7MET_125 2015-09-29 13:05:00 125 10426.0 25.800 25.570 25.670 25.670   29.730 27.000 6.783 5.292 698.50 115.10 13.920 14.390 14.780 14.170 14.140 25.900 25.710 25.790 25.730   8.140 7.042 701.70 116.70 1.0850 1.9000 25.630 25.480 25.590 25.560   5.284 4.693 0.00000 0.00 288 0.00 0.00 0.5950 126.50 30.02 0.8550 131.300 42.030 33.215 9.870 23.340 32.960 8.902 24.061
WS7MET_125 2015-09-29 13:00:00 125 10426.0 25.810 25.650 25.760 25.740   30.040 26.560 6.924 5.118 702.70 118.10 13.910 14.390 14.790 14.170 14.140 25.940 25.830 25.940 25.970   9.650 5.950 707.00 119.40 1.0390 1.6000 25.670 25.490 25.590 25.560   5.091 4.330 0.00000 0.00 206 0.00 0.00 0.5780 149.30 38.70 0.7350 163.000 32.860 33.234 9.966 23.251 33.097 8.795 24.306
WS7MET_125 2015-09-29 12:55:00 125 10426.0 25.420 25.570 25.850 25.890   29.520 26.140 6.304 4.997 707.00 121.40 13.900 14.400 14.790 14.170 14.150 25.600 25.740 26.130 26.110   9.010 6.539 711.10 123.40 1.6530 1.8000 25.190 25.410 25.640 25.630   4.233 3.959 0.00000 0.00 230 0.00 0.00 0.8330 178.10 36.73 0.9650 191.900 18.140 32.475 9.549 22.888 33.392 8.721 24.663
WS7MET_125 2015-09-29 12:50:00 125 10426.0 25.310 25.640 25.970 25.810   30.510 26.430 6.725 5.099 712.10 125.20 13.890 14.400 14.790 14.170 14.160 25.390 25.750 26.170 26.080   8.140 6.616 715.10 127.50 1.6590 1.7000 25.190 25.520 25.810 25.700   4.906 4.133 0.00000 0.00 207 0.00 0.00 0.7380 171.10 42.74 0.9600 187.700 20.080 32.263 9.830 22.420 33.234 8.783 24.451
WS7MET_125 2015-09-29 12:45:00 125 10426.0 25.150 25.630 26.100 25.760   30.070 26.270 6.390 4.976 717.20 128.70 13.880 14.400 14.790 14.170 14.160 25.260 25.820 26.300 25.940   7.793 5.586 719.10 130.10 1.1240 1.9000 25.050 25.350 25.780 25.500   5.033 4.338 0.00000 0.00 209 0.00 0.00 0.7440 119.80 32.12 1.0050 139.300 31.130 31.958 9.606 22.348 33.136 8.708 24.431
WS7MET_125 2015-09-29 12:40:00 125 10426.0 25.370 25.450 25.770 25.540   26.360 25.440 4.688 4.330 717.40 130.10 13.870 14.400 14.790 14.170 14.160 25.940 25.890 26.120 25.630   5.981 4.835 719.10 130.10 1.2610 2.1000 25.020 25.160 25.430 25.260   3.824 3.605 0.00000 0.00 239 0.00 0.00 0.6920 201.80 34.27 0.9150 207.100 26.780 32.378 8.534 23.844 32.707 8.323 24.386
WS7MET_125 2015-09-29 12:35:00 125 10426.0 25.790 25.760 25.920 25.320   30.430 27.330 7.110 5.158 718.80 131.30 13.860 14.400 14.790 14.170 14.160 25.900 25.900 26.120 25.460   8.140 6.822 721.80 131.50 1.0910 1.4000 25.670 25.630 25.760 25.190   5.215 4.079 0.00000 0.00 202 0.00 0.00 0.4140 191.70 28.49 0.5950 200.100 22.460 33.195 10.094 23.094 32.282 8.819 23.460
WS7MET_125 2015-09-29 12:30:00 125 10426.0 25.800 25.740 25.890 25.650   28.780 26.640 6.293 5.069 721.10 132.40 13.850 14.400 14.790 14.180 14.160 26.010 25.970 26.160 25.900   8.630 7.347 723.10 132.80 1.5610 1.5000 25.600 25.520 25.600 25.320   4.570 4.348 0.00000 0.00 240 0.00 0.00 0.6940 178.90 39.09 0.8550 196.300 38.660 33.215 9.542 23.655 32.921 8.765 24.151
WS7MET_125 2015-09-29 12:25:00 125 10426.0 25.750 25.830 25.890 25.560   31.080 28.650 7.399 6.042 722.10 131.10 13.850 14.400 14.780 14.180 14.170 26.080 26.160 26.210 25.900   8.450 7.584 724.50 131.50 0.8560 1.3000 25.460 25.470 25.490 25.190   6.536 4.624 0.00000 0.00 206 0.00 0.00 0.5020 153.10 38.48 0.7200 172.500 39.010 33.116 10.296 22.824 32.746 9.378 23.364
WS7MET_125 2015-09-29 12:20:00 125 10426.0 25.430 25.480 25.560 25.390   29.240 27.070 6.222 5.092 723.00 130.10 13.830 14.400 14.780 14.180 14.190 25.560 25.680 25.750 25.560   7.566 6.026 724.50 130.10 1.1500 1.4000 25.320 25.330 25.410 25.290   4.814 4.460 0.00000 0.00 247 0.00 0.00 0.7540 118.00 22.71 0.8700 126.700 25.840 32.494 9.495 22.993 32.417 8.779 23.642
WS7MET_125 2015-09-29 12:15:00 125 10426.0 25.190 24.990 25.220 25.040   29.510 27.440 6.146 4.977 723.90 129.90 13.830 14.410 14.780 14.170 14.190 25.290 25.320 25.490 25.360   7.730 6.246 725.80 130.10 2.4960 3.2000 25.090 24.830 24.890 24.780   4.362 3.877 0.00000 0.00 210 0.00 0.00 0.5970 182.50 47.77 0.8100 184.500 50.610 32.034 9.445 22.581 31.749 8.709 23.037
WS7MET_125 2015-09-29 12:10:00 125 10426.0 25.540 25.110 25.110 25.040   29.850 27.270 6.620 4.897 723.90 129.70 13.820 14.410 14.780 14.180 14.180 25.900 25.590 25.490 25.290   7.743 5.500 727.20 130.10 1.2020 1.4000 25.150 24.760 24.840 24.850   5.492 4.380 0.00000 0.00 229 0.00 0.00 0.8920 126.50 13.37 1.0300 142.600 16.050 32.707 9.760 22.944 31.749 8.660 23.091
WS7MET_125 2015-09-29 12:05:00 125 10426.0 25.750 25.520 25.360 25.110   31.100 28.820 7.398 5.743 723.90 130.10 13.810 14.410 14.780 14.180 14.180 26.010 25.720 25.550 25.290   8.940 7.898 725.80 130.10 1.1300 1.4000 25.560 25.280 25.090 24.850   5.651 4.513 0.00000 0.00 239 0.00 0.00 0.5720 158.10 35.33 0.7900 163.700 30.690 33.116 10.295 22.817 31.882 9.185 22.693
WS7MET_125 2015-09-29 12:00:00 125 10426.0 25.480 25.280 25.240 24.980   32.280 29.330 7.701 5.895 724.00 131.10 13.810 14.410 14.780 14.170 14.200 25.870 25.540 25.490 25.220   9.820 6.609 727.20 131.50 1.1110 1.7000 25.120 24.950 25.010 24.780   6.022 5.148 0.00000 0.00 240 0.00 0.00 0.5650 139.60 17.59 0.8200 150.800 23.890 32.591 10.511 22.070 31.636 9.283 22.357
WS7MET_125 2015-09-29 11:55:00 125 10426.0 25.090 24.970 25.170 24.950   31.280 27.900 6.905 5.149 723.50 132.70 13.810 14.410 14.790 14.160 14.210 25.220 25.130 25.440 25.120   8.310 5.847 725.80 132.80 0.8820 1.2000 25.020 24.810 24.960 24.810   4.405 4.274 0.00000 0.00 317 0.00 0.00 0.5140 141.80 14.50 0.6500 158.700 19.220 31.844 9.953 21.883 31.580 8.814 22.769
WS7MET_125 2015-09-29 11:50:00 125 10426.0 25.180 25.200 25.540 25.050   28.680 26.660 5.731 4.575 721.80 134.40 13.810 14.420 14.780 14.170 14.200 25.290 25.350 25.740 25.150   7.077 6.094 724.50 135.50 1.3720 2.3000 25.050 25.030 25.410 24.950   4.468 3.999 0.00000 0.00 279 0.00 0.00 0.7210 151.00 44.91 0.9400 171.800 39.710 32.015 9.178 22.833 31.768 8.467 23.299
WS7MET_125 2015-09-29 11:45:00 125 10426.0 25.140 25.110 25.400 25.010   28.980 27.070 5.843 4.762 719.40 136.40 13.800 14.420 14.770 14.170 14.210 25.360 25.210 25.520 25.150   7.503 5.836 721.80 136.80 1.1170 1.3000 25.050 25.000 25.230 24.880   4.295 3.675 0.00000 0.00 271 0.00 0.00 0.5920 155.80 40.77 0.7650 179.200 53.860 31.939 9.249 22.683 31.693 8.579 23.113
WS7MET_125 2015-09-29 11:40:00 125 10426.0 25.180 24.940 25.130 24.800   31.380 28.320 7.041 5.225 716.60 137.70 13.800 14.430 14.770 14.170 14.220 25.390 25.080 25.390 24.950   8.050 7.159 719.10 138.20 0.8690 1.5000 25.020 24.740 24.760 24.510   5.528 3.960 0.00000 0.00 252 0.00 0.00 0.4560 181.30 27.97 0.6700 196.100 36.000 32.015 10.046 21.969 31.298 8.861 22.435
WS7MET_125 2015-09-29 11:35:00 125 10426.0 25.400 24.790 24.780 24.620   30.930 30.090 7.003 5.948 713.40 139.00 13.800 14.420 14.780 14.170 14.210 25.560 25.030 25.050 24.850   8.400 7.117 716.40 139.50 1.1040 1.2000 25.150 24.590 24.570 24.470   5.127 4.989 0.00000 0.00 208 0.00 0.00 0.5200 161.90 42.43 0.7250 164.700 52.240 32.436 10.020 22.404 30.964 9.317 21.647
WS7MET_125 2015-09-29 11:30:00 125 10426.0 25.330 24.650 24.670 24.540   31.380 27.790 7.147 4.740 710.50 139.60 13.800 14.420 14.780 14.170 14.220 25.530 24.790 24.910 24.680   8.900 5.493 712.40 140.90 0.9150 1.1000 25.190 24.570 24.550 24.440   4.651 3.891 0.00000 0.00 250 0.00 0.00 0.6860 116.50 19.40 0.7700 135.500 20.250 32.302 10.120 22.165 30.816 8.566 22.252
WS7MET_125 2015-09-29 11:25:00 125 10426.0 24.970 24.560 24.770 24.520   30.610 28.280 6.489 4.972 706.20 140.70 13.800 14.430 14.780 14.170 14.230 25.190 24.740 24.900 24.740   8.730 6.091 708.40 140.90 0.9280 1.1000 24.780 24.380 24.590 24.300   4.973 4.315 0.00000 0.00 278 0.00 0.00 0.5210 130.10 32.48 0.7100 144.600 25.110 31.617 9.672 21.939 30.779 8.706 22.075
WS7MET_125 2015-09-29 11:20:00 125 10426.0 24.890 24.520 24.710 24.350   29.700 27.560 5.984 4.457 702.30 140.90 13.780 14.430 14.780 14.170 14.230 25.190 24.630 24.860 24.540   7.295 5.682 704.40 140.90 0.9730 1.3000 24.780 24.450 24.530 24.230   4.564 3.855 0.00000 0.00 231 0.00 0.00 0.5700 156.40 31.12 0.8250 171.600 26.510 31.467 9.340 22.121 30.468 8.398 22.071
WS7MET_125 2015-09-29 11:15:00 125 10426.0 24.890 24.460 24.450 24.160   28.870 27.890 5.582 4.470 698.30 140.90 13.790 14.430 14.780 14.160 14.240 25.050 24.580 24.620 24.370   6.441 5.393 700.30 140.90 1.0780 1.3000 24.680 24.310 24.280 23.930   4.099 3.724 0.00000 0.00 201 0.00 0.00 0.6290 119.70 26.21 0.8450 138.900 20.180 31.467 9.083 22.382 30.123 8.405 21.722
WS7MET_125 2015-09-29 11:10:00 125 10426.0 24.480 24.150 24.130 23.860   30.050 27.090 5.809 3.795 693.20 140.30 13.790 14.430 14.780 14.160 14.240 24.710 24.270 24.240 23.960   7.493 4.456 696.30 140.90 0.9870 1.0000 24.270 24.030 24.050 23.720   4.792 2.674 0.00000 0.00 233 0.00 0.00 0.5030 135.70 26.71 0.6200 155.900 26.010 30.706 9.228 21.479 29.586 8.016 21.571
WS7MET_125 2015-09-29 11:05:00 125 10426.0 24.310 24.200 24.220 23.900   29.260 27.360 5.269 3.969 688.80 138.70 13.800 14.440 14.780 14.160 14.240 24.440 24.350 24.410 24.030   6.895 4.822 692.30 139.50 1.0780 1.3000 24.200 24.040 24.020 23.720   3.692 2.950 0.00000 0.00 203 0.00 0.00 0.6390 112.80 32.40 0.8700 125.600 25.000 30.395 8.888 21.501 29.657 8.114 21.543
WS7MET_125 2015-09-29 11:00:00 125 10426.0 24.060 23.920 23.970 23.680   32.280 28.700 6.444 4.457 682.70 136.70 13.800 14.440 14.780 14.160 14.250 24.200 24.140 24.210 23.860   8.640 6.101 685.60 138.20 0.9930 1.2000 23.960 23.670 23.610 23.480   4.532 3.528 0.00000 0.00 273 0.00 0.00 0.6280 126.30 24.82 0.7600 149.500 22.780 29.943 9.642 20.277 29.267 8.398 20.868
WS7MET_125 2015-09-29 10:55:00 125 10426.0 23.930 23.700 23.810 23.600   38.120 34.250 8.790 6.902 676.20 134.10 13.810 14.440 14.780 14.170 14.250 24.130 23.910 24.020 23.720   10.340 9.840 680.30 135.50 1.1110 1.3000 23.760 23.530 23.620 23.450   7.001 4.641 0.00000 0.00 278 0.00 0.00 0.4630 133.00 28.58 0.6250 151.500 23.660 29.710 11.318 18.385 29.127 9.951 19.151
WS7MET_125 2015-09-29 10:50:00 125 10426.0 23.690 23.840 24.100 23.600   34.960 30.890 7.268 5.420 670.20 131.40 13.810 14.450 14.780 14.170 14.260 23.960 23.940 24.410 23.790   9.650 7.286 672.20 132.80 0.8230 1.1000 23.380 23.720 23.880 23.410   4.742 3.499 0.00000 0.00 235 0.00 0.00 0.5260 161.80 41.74 0.7450 174.000 32.980 29.285 10.204 19.047 29.127 8.982 20.129
WS7MET_125 2015-09-29 10:45:00 125 10426.0 23.300 23.680 24.120 23.790   34.920 31.020 6.939 5.643 663.20 128.40 13.810 14.450 14.780 14.170 14.270 23.450 23.830 24.350 23.930   9.440 7.913 666.90 130.20 0.7450 1.0000 23.070 23.470 23.830 23.620   5.784 3.777 0.00000 0.00 238 0.00 0.00 0.4770 166.30 30.81 0.6800 181.500 17.210 28.605 9.976 18.616 29.461 9.122 20.323
WS7MET_125 2015-09-29 10:40:00 125 10426.0 23.100 23.440 23.810 23.550   38.550 33.980 8.150 6.760 656.30 125.20 13.820 14.450 14.780 14.170 14.270 23.180 23.510 23.930 23.690   11.100 8.650 660.30 126.10 1.3200 1.7000 23.010 23.330 23.680 23.380   5.731 5.167 0.00000 0.00 242 0.00 0.00 0.5680 126.50 26.98 0.7250 142.800 40.350 28.261 10.837 17.367 29.039 9.854 19.172
WS7MET_125 2015-09-29 10:35:00 125 10426.0 23.270 23.510 23.730 23.630   36.410 33.390 7.523 6.586 648.70 122.50 13.820 14.460 14.780 14.170 14.300 23.410 23.730 23.950 23.860   9.490 8.110 653.60 123.50 1.5090 1.8000 23.110 23.320 23.540 23.380   6.000 4.797 0.00000 0.00 272 0.00 0.00 0.4040 187.40 30.32 0.6000 194.300 35.110 28.553 10.383 18.157 29.179 9.737 19.436
WS7MET_125 2015-09-29 10:30:00 125 10426.0 23.300 23.460 23.720 23.490   40.270 36.280 9.030 7.668 640.20 119.40 13.830 14.460 14.780 14.170 14.320 23.410 23.640 23.900 23.720   10.570 8.890 642.80 120.80 0.7380 1.1000 23.070 23.330 23.470 23.140   6.725 6.285 0.00000 0.00 234 0.00 0.00 0.2320 145.30 48.97 0.4650 146.800 42.920 28.605 11.503 17.086 28.934 10.487 18.437
WS7MET_125 2015-09-29 10:25:00 125 10426.0 22.650 23.020 23.150 22.870   39.230 34.890 8.030 6.561 631.60 116.20 13.830 14.460 14.780 14.170 14.230 23.040 23.400 23.490 23.140   10.600 8.100 637.50 118.10 0.9210 1.3000 22.260 22.580 22.800 22.560   5.658 5.219 0.00000 0.00 239 0.00 0.00 0.4260 145.40 16.24 0.6050 163.000 34.020 27.502 10.749 16.713 27.871 9.720 18.147
WS7MET_125 2015-09-29 10:20:00 125 10426.0 21.980 22.260 22.560 22.610   40.800 35.810 8.040 6.711 622.60 111.90 13.830 14.460 14.780 14.170 14.020 22.190 22.530 22.780 22.700   9.790 8.000 626.70 114.10 0.9150 0.9000 21.780 22.140 22.430 22.490   6.473 5.805 0.00000 0.00 239 0.00 0.00 0.3140 131.40 34.51 0.5000 142.900 32.240 26.404 10.756 15.631 27.435 9.821 17.611
WS7MET_125 2015-09-29 10:15:00 125 10426.0 21.580 22.160 22.620 22.710   41.560 35.500 7.951 6.669 613.90 107.80 13.840 14.460 14.780 14.170 13.990 21.850 22.260 22.730 22.800   10.220 8.550 617.30 110.00 1.0650 1.5000 21.270 22.080 22.500 22.630   5.915 5.466 0.00000 0.00 237 0.00 0.00 0.3950 136.20 56.08 0.6000 147.600 57.890 25.767 10.691 15.058 27.602 9.793 17.803
WS7MET_125 2015-09-29 10:10:00 125 10426.0 20.870 21.810 22.400 22.480   44.480 38.470 8.310 7.634 604.70 104.10 13.840 14.470 14.780 14.170 14.000 21.230 22.050 22.650 22.670   9.920 8.660 609.30 106.00 0.9470 1.0000 20.310 21.390 21.960 22.260   6.742 6.247 0.00000 0.00 239 0.00 0.00 0.2420 153.10 27.85 0.3950 168.300 40.260 24.669 10.956 13.696 27.220 10.463 16.748
WS7MET_125 2015-09-29 10:05:00 125 10426.0 20.120 20.940 21.480 21.970   47.100 40.800 8.500 8.050 594.60 100.70 13.840 14.470 14.780 14.170 13.940 20.310 21.320 21.890 22.190   9.790 9.730 598.60 102.00 0.8490 0.9000 20.040 20.740 21.270 21.820   7.069 6.916 0.00000 0.00 240 0.00 0.00 0.2980 93.90 18.06 0.4150 134.000 36.220 23.554 11.098 12.460 26.388 10.764 15.622
WS7MET_125 2015-09-29 10:00:00 125 10426.0 20.050 20.930 21.420 21.920   45.370 40.200 7.887 7.793 584.70 97.40 13.850 14.470 14.780 14.170 13.740 20.150 21.130 21.560 22.020   8.490 8.520 589.20 99.30 0.7710 1.0000 19.770 20.810 21.300 21.820   7.377 6.578 0.00000 0.00 237 0.00 0.00 0.3760 108.80 59.47 0.5500 131.800 55.730 23.453 10.645 12.812 26.308 10.577 15.732
WS7MET_125 2015-09-29 09:55:00 125 10426.0 19.410 20.420 21.130 21.820   46.870 40.410 7.781 7.786 574.50 94.00 13.860 14.470 14.780 14.170 13.490 19.740 20.860 21.510 21.960   8.320 8.380 579.80 95.30 0.6860 1.0000 19.230 20.050 20.760 21.650   7.385 7.015 0.00000 0.00 211 0.00 0.00 0.3190 187.00 39.74 0.5150 207.500 45.140 22.540 10.568 11.975 26.148 10.572 15.581
WS7MET_125 2015-09-29 09:50:00 125 10426.0 18.960 19.820 20.540 21.430   48.320 41.820 7.819 7.940 563.90 90.60 13.860 14.470 14.780 14.170 13.280 19.230 20.050 20.740 21.580   8.470 8.580 569.00 92.60 0.7510 1.2000 18.820 19.690 20.410 21.240   7.267 7.200 0.00000 0.00 209 0.00 0.00 0.1190 127.50 37.84 0.3300 169.100 54.350 21.917 10.595 11.327 25.532 10.683 14.854
WS7MET_125 2015-09-29 09:45:00 125 10426.0 18.600 19.430 20.090 20.890   50.220 43.390 8.050 7.993 553.40 88.00 13.860 14.470 14.780 14.170 13.170 18.850 19.800 20.510 21.280   8.520 8.430 558.30 89.90 0.6400 0.9000 18.380 19.000 19.570 20.560   7.226 7.119 0.00000 0.00 243 0.00 0.00 0.1560 89.60 49.47 0.3500 161.000 70.450 21.429 10.764 10.667 24.700 10.722 13.983
WS7MET_125 2015-09-29 09:40:00 125 10426.0 18.020 18.500 19.170 20.210   51.740 44.300 7.952 7.685 542.20 85.60 13.870 14.470 14.780 14.170 13.120 18.380 18.940 19.500 20.590   8.600 7.891 547.60 87.20 1.1500 1.1000 17.660 18.060 18.800 19.810   7.558 7.446 0.00000 0.00 243 0.00 0.00 0.5820 103.40 37.85 0.5950 124.800 31.600 20.664 10.692 9.972 23.686 10.499 13.193
WS7MET_125 2015-09-29 09:35:00 125 10426.0 17.510 17.890 18.680 19.540   54.750 48.040 8.320 8.260 530.50 83.70 13.870 14.480 14.780 14.170 13.080 17.690 17.990 18.770 19.810   8.820 8.670 535.50 84.60 0.6530 1.3000 17.320 17.700 18.470 19.090   7.710 7.219 0.00000 0.00 254 0.00 0.00 0.1160 66.71 65.63 0.4500 86.400 47.670 20.010 10.963 9.055 22.723 10.918 11.807
WS7MET_125 2015-09-29 09:30:00 125 10426.0 17.020 17.520 18.170 18.700   57.210 50.090 8.510 8.110 518.40 82.10 13.880 14.470 14.780 14.170 13.050 17.280 17.710 18.450 19.130   8.990 8.560 524.80 83.20 0.9870 1.3000 16.770 17.180 17.760 18.310   7.597 7.419 0.00000 0.00 208 0.00 0.00 0.3740 108.10 11.00 0.5200 145.800 40.600 19.400 11.105 8.301 21.564 10.808 10.762
WS7MET_125 2015-09-29 09:25:00 125 10426.0 16.710 17.160 17.670 18.180   53.690 51.310 7.271 7.974 506.40 80.50 13.880 14.480 14.780 14.160 13.020 16.810 17.210 17.760 18.310   8.210 8.420 512.70 81.90 0.5620 0.7000 16.600 17.140 17.620 18.100   5.889 6.614 0.00000 0.00 234 0.00 0.00 0.0680 57.73 25.76 0.3250 69.760 62.580 19.022 10.206 8.809 20.872 10.708 10.163
WS7MET_125 2015-09-29 09:20:00 125 10426.0 16.440 17.100 17.520 18.020   52.060 49.600 6.588 7.339 493.80 78.38 13.890 14.480 14.780 14.160 13.000 16.700 17.320 17.730 18.240   7.380 8.020 500.60 79.18 0.3850 1.0000 16.260 16.860 17.260 17.860   5.992 6.624 0.00000 0.00 276 0.00 0.00 0.0500 208.40 17.48 0.3000 212.000 56.250 18.698 9.738 8.964 20.664 10.254 10.415
WS7MET_125 2015-09-29 09:15:00 125 10426.0 16.180 16.800 17.260 17.920   52.390 49.780 6.435 7.286 481.20 75.43 13.900 14.490 14.780 14.160 12.970 16.290 16.920 17.350 18.030   7.117 8.100 487.20 76.50 0.7910 1.1000 16.020 16.670 17.190 17.830   6.080 6.140 0.00000 0.00 462 0.00 0.00 0.1820 3.44 68.02 0.4100 105.700 67.670 18.391 9.636 8.756 20.534 10.216 10.312
WS7MET_125 2015-09-29 09:10:00 125 10426.0 15.970 16.590 17.130 17.790   53.010 50.180 6.409 7.292 468.00 71.73 13.900 14.490 14.780 14.160 12.950 16.160 16.740 17.260 17.900   7.402 8.050 473.80 73.81 0.4380 0.6000 15.850 16.450 16.970 17.660   5.837 6.471 0.00000 0.00 281 0.00 0.00 0.0880 78.30 37.83 0.2800 134.900 42.540 18.146 9.619 8.527 20.367 10.221 10.147
WS7MET_125 2015-09-29 09:05:00 125 10426.0 15.690 16.370 16.900 17.410   53.260 49.760 6.216 6.826 453.90 66.70 13.910 14.490 14.780 14.160 12.930 15.990 16.660 17.240 17.660   7.148 7.374 460.30 69.79 0.4970 1.0000 15.510 16.180 16.670 17.250   5.839 6.271 0.00000 0.00 289 0.00 0.00 0.1630 123.30 21.99 0.4000 151.300 36.650 17.824 9.491 8.331 19.885 9.899 9.990
WS7MET_125 2015-09-29 09:00:00 125 10426.0 15.450 16.140 16.600 17.270   54.680 49.900 6.381 6.731 440.00 61.40 13.910 14.490 14.780 14.160 12.910 15.610 16.250 16.740 17.350   6.819 7.457 445.60 64.42 0.2940 0.7000 15.310 16.070 16.500 17.180   5.630 5.971 0.00000 0.00 231 0.00 0.00 0.0340 47.01 44.93 0.2950 116.200 73.090 17.552 9.600 7.955 19.709 9.834 9.874
WS7MET_125 2015-09-29 08:55:00 125 10426.0 15.290 15.910 16.390 17.170   58.560 52.820 7.226 7.472 271.50 55.90 13.920 14.490 14.780 14.160 12.900 15.410 16.100 16.600 17.350   7.657 7.952 428.10 59.05 0.4180 0.7000 15.130 15.870 16.310 16.940   6.828 6.885 0.00000 0.00 280 0.00 0.00 0.0710 68.84 11.54 0.2100 118.600 45.850 17.373 10.174 7.199 19.585 10.347 9.240
WS7MET_125 2015-09-29 08:50:00 125 10426.0 15.100 15.640 16.060 16.680   61.720 55.860 7.816 7.836 106.60 49.52 13.920 14.490 14.780 14.160 12.890 15.200 15.830 16.280 16.840   8.090 8.370 128.80 52.34 0.2610 0.7000 14.960 15.580 15.970 16.570   7.035 7.037 0.00000 0.00 224 0.00 0.00 0.0700 117.40 39.09 0.3000 118.900 39.420 17.162 10.593 6.570 18.986 10.608 8.380
WS7MET_125 2015-09-29 08:45:00 125 10426.0 14.940 15.630 16.120 16.750   61.730 55.580 7.676 7.829 70.19 42.95 13.930 14.490 14.780 14.150 12.880 15.070 15.720 16.240 16.840   8.130 8.460 98.00 45.63 0.4250 0.8000 14.790 15.510 16.010 16.670   7.433 7.239 0.00000 0.00 393 0.00 0.00 0.1370 255.40 51.53 0.3750 217.700 67.600 16.986 10.493 6.501 19.071 10.603 8.471
WS7MET_125 2015-09-29 08:40:00 125 10426.0 14.740 15.460 15.890 16.530   62.020 55.150 7.555 7.510 49.79 36.44 13.940 14.490 14.780 14.160 12.870 14.790 15.570 16.090 16.700   7.884 8.150 55.03 38.92 0.3590 0.6000 14.660 15.370 15.800 16.430   7.257 7.148 0.00000 0.00 307 0.00 0.00 0.0690 258.20 7.64 0.2250 266.300 19.960 16.769 10.406 6.369 18.806 10.374 8.434
WS7MET_125 2015-09-29 08:35:00 125 10426.0 14.550 15.230 15.650 16.210   60.740 54.400 7.066 7.012 57.58 30.47 13.940 14.500 14.770 14.160 12.850 14.730 15.490 15.890 16.330   7.492 7.423 63.08 33.55 0.4440 0.8000 14.380 15.000 15.440 16.060   6.790 6.471 0.00000 0.00 385 0.00 0.00 0.0450 241.40 29.62 0.2550 222.500 50.110 16.564 10.063 6.503 18.426 10.026 8.402
WS7MET_125 2015-09-29 08:30:00 125 10426.0 14.410 14.900 15.350 16.040   59.260 55.030 6.574 7.019 57.04 25.23 13.950 14.500 14.770 14.160 12.840 14.490 14.990 15.420 16.260   6.924 7.492 61.74 28.18 0.5030 0.8000 14.320 14.810 15.290 15.850   6.260 6.529 0.00000 0.00 251 0.00 0.00 0.1850 71.54 19.76 0.3500 71.970 35.450 16.415 9.729 6.687 18.228 10.031 8.197
WS7MET_125 2015-09-29 08:25:00 125 10426.0 14.300 14.770 15.360 15.700   58.370 54.430 6.257 6.550 55.90 21.00 13.960 14.500 14.770 14.160 12.840 14.380 14.800 15.450 15.920   6.565 6.961 60.39 22.82 0.1500 0.5000 14.250 14.740 15.290 15.540   5.985 6.217 0.00000 0.00 385 0.00 0.00 0.0100 38.02 2.00 0.1850 37.150 39.340 16.298 9.518 6.785 17.836 9.713 8.128
WS7MET_125 2015-09-29 08:20:00 125 10426.0 14.210 14.760 15.300 15.670   60.020 53.670 6.573 6.313 63.41 17.78 13.960 14.500 14.770 14.160 12.820 14.350 14.780 15.460 15.780   6.960 6.559 92.60 18.79 0.2030 0.6000 14.110 14.730 15.070 15.480   5.934 6.118 0.00000 0.00 344 0.00 0.00 0.0500 317.60 31.47 0.2850 334.800 44.030 16.204 9.728 6.478 17.801 9.555 8.247
WS7MET_125 2015-09-29 08:15:00 125 10426.0 14.040 14.500 14.620 14.900   59.210 54.910 6.210 5.928 240.00 15.43 13.970 14.510 14.770 14.160 12.810 14.150 14.780 15.050 15.340   6.554 6.832 308.70 16.11 0.2610 0.6000 13.910 14.240 14.320 14.550   5.903 5.636 0.00000 0.00 302 0.00 0.00 0.0390 213.40 4.66 0.2700 257.700 45.100 16.026 9.487 6.537 16.942 9.304 7.639
WS7MET_125 2015-09-29 08:10:00 125 10426.0 13.890 14.130 14.230 14.380   57.860 56.160 5.743 5.774 137.30 13.35 13.980 14.510 14.770 14.160 12.800 14.010 14.230 14.300 14.590   5.891 5.974 302.00 14.76 0.0000 0.4000 13.770 14.060 14.150 14.280   5.624 5.634 0.00000 0.00 272 0.00 0.00 0.0000 0.00 0.00 0.1100 82.100 17.810 15.871 9.185 6.688 16.383 9.205 7.182
WS7MET_125 2015-09-29 08:05:00 125 10426.0 13.700 13.970 14.070 14.170   58.980 57.380 5.843 5.883 177.50 11.61 13.980 14.510 14.770 14.160 12.790 13.800 14.050 14.150 14.320   6.077 5.966 269.80 12.08 0.1240 0.7000 13.600 13.880 13.970 14.010   5.652 5.803 0.00000 0.00 234 0.00 0.00 0.0090 286.10 3.06 0.2200 298.500 37.910 15.676 9.249 6.430 16.162 9.275 6.888
WS7MET_125 2015-09-29 08:00:00 125 10426.0 13.580 13.810 13.890 13.960   59.580 58.200 5.874 5.895 189.50 10.07 13.980 14.520 14.770 14.160 12.780 13.670 13.870 13.960 14.080   6.029 6.150 273.80 10.74 0.0000 0.2000 13.530 13.730 13.820 13.840   5.601 5.635 0.00000 0.00 427 0.00 0.00 0.0000 0.00 0.00 0.1450 300.000 26.540 15.554 9.269 6.287 15.943 9.283 6.664
WS7MET_125 2015-09-29 07:55:00 125 10426.0 13.420 13.670 13.750 13.750   57.910 56.860 5.314 5.355 43.01 8.79 13.990 14.510 14.770 14.170 12.770 13.500 13.730 13.790 13.910   5.527 5.613 53.68 9.39 0.0130 0.4000 13.290 13.620 13.690 13.630   5.044 4.897 0.00000 0.00 269 0.00 0.00 0.0010 310.20 0.00 0.1750 303.900 65.450 15.393 8.916 6.479 15.727 8.941 6.785
WS7MET_125 2015-09-29 07:50:00 125 10426.0 13.320 13.530 13.600 13.610   56.910 55.900 4.965 4.988 32.95 7.58 14.000 14.520 14.770 14.160 12.770 13.430 13.610 13.680 13.740   5.387 5.494 37.58 8.05 0.0000 0.2000 13.220 13.450 13.520 13.500   4.724 4.690 0.00000 0.00 389 0.00 0.00 0.0000 0.00 0.00 0.1000 304.900 31.150 15.293 8.701 6.590 15.585 8.715 6.873
WS7MET_125 2015-09-29 07:45:00 125 10426.0 13.220 13.390 13.460 13.500   57.150 56.080 4.932 4.927 32.68 6.58 14.010 14.520 14.770 14.160 12.760 13.290 13.450 13.520 13.600   5.255 5.234 37.58 6.71 0.3590 0.3000 13.120 13.340 13.420 13.430   4.524 4.720 0.00000 0.00 386 0.00 0.00 0.0360 342.00 0.37 0.1900 308.200 40.530 15.193 8.681 6.510 15.473 8.678 6.796
WS7MET_125 2015-09-29 07:40:00 125 10426.0 13.170 13.330 13.420 13.430   56.140 54.920 4.630 4.566 28.79 5.37 14.020 14.520 14.770 14.160 12.760 13.260 13.340 13.440 13.570   4.955 4.855 30.87 5.37 0.2810 0.4000 13.120 13.300 13.400 13.360   4.357 4.376 0.00000 0.00 471 0.00 0.00 0.0350 342.80 0.01 0.1300 326.000 35.210 15.144 8.500 6.642 15.403 8.462 6.944
WS7MET_125 2015-09-29 07:35:00 125 10426.0 13.100 13.260 13.330 13.400   55.930 54.750 4.517 4.495 25.84 4.50 14.020 14.520 14.770 14.160 12.740 13.160 13.300 13.400 13.460   4.846 4.790 26.84 5.37 0.2220 0.3000 12.990 13.220 13.250 13.290   4.209 4.308 0.00000 0.00 240 0.00 0.00 0.0450 11.05 0.26 0.1550 23.310 25.500 15.075 8.433 6.643 15.373 8.420 6.956
WS7MET_125 2015-09-29 07:30:00 125 10426.0 13.030 13.200 13.260 13.350   55.210 54.930 4.264 4.486 22.88 4.03 14.030 14.520 14.770 14.160 12.750 13.090 13.220 13.270 13.500   4.352 4.624 24.16 4.03 0.4510 0.6000 12.950 13.190 13.250 13.290   4.172 4.312 0.00000 0.00 285 0.00 0.00 0.3280 10.07 5.34 0.3950 25.030 13.270 15.006 8.285 6.721 15.323 8.415 6.906
WS7MET_125 2015-09-29 07:25:00 125 10426.0 12.980 13.210 13.270 13.310   55.300 54.240 4.237 4.276 20.20 4.03 14.040 14.520 14.770 14.160 12.750 13.050 13.230 13.290 13.430   4.466 4.395 21.47 4.03 0.5100 0.6000 12.880 13.190 13.260 13.220   4.052 4.186 0.00000 0.00 454 0.00 0.00 0.3670 7.53 6.13 0.4150 19.110 15.130 14.957 8.269 6.686 15.283 8.292 6.993
WS7MET_125 2015-09-29 07:20:00 125 10426.0 12.870 13.130 13.190 13.180   55.390 53.710 4.159 4.010 17.25 2.82 14.050 14.520 14.770 14.170 12.740 12.990 13.180 13.250 13.290   4.353 4.241 18.79 4.03 0.6340 0.7000 12.810 13.090 13.160 13.020   3.947 3.779 0.00000 0.00 390 0.00 0.00 0.3080 9.49 10.38 0.3400 28.710 15.620 14.850 8.224 6.624 15.154 8.138 7.015
WS7MET_125 2015-09-29 07:15:00 125 10426.0 12.770 13.040 13.110 13.120   56.810 54.280 4.429 4.108 14.70 2.42 14.050 14.520 14.770 14.160 12.740 12.850 13.090 13.150 13.190   4.718 4.324 16.11 2.68 0.6660 0.8000 12.710 12.950 13.070 13.020   4.139 3.924 0.00000 0.00 319 0.00 0.00 0.5800 341.90 1.10 0.5600 357.500 6.688 14.753 8.381 6.372 15.094 8.194 6.901
WS7MET_125 2015-09-29 07:10:00 125 10426.0 12.690 12.880 13.030 13.090   57.560 54.960 4.537 4.259 12.15 1.34 14.050 14.520 14.770 14.160 12.740 12.780 12.960 13.080 13.190   4.895 4.539 13.42 1.34 0.6860 0.8000 12.540 12.830 13.000 13.020   4.118 3.973 0.00000 0.00 322 0.00 0.00 0.6400 341.10 0.38 0.7150 357.000 3.709 14.675 8.445 6.228 15.065 8.282 6.785
WS7MET_125 2015-09-29 07:05:00 125 10426.0 12.640 12.820 12.980 13.070   57.080 55.040 4.375 4.256 8.92 0.47 14.070 14.530 14.770 14.160 12.740 12.750 12.830 13.010 13.190   4.543 4.456 10.74 1.34 0.6340 0.8000 12.540 12.790 12.970 12.990   4.193 4.053 0.00000 0.00 241 0.00 0.00 0.6060 341.30 0.49 0.6450 357.100 4.305 14.627 8.349 6.278 15.045 8.280 6.764
WS7MET_125 2015-09-29 07:00:00 125 10426.0 12.630 12.800 12.970 13.040   56.540 54.340 4.230 4.050 8.05 0.00 14.070 14.530 14.770 14.160 12.740 12.750 12.810 12.990 13.160   4.462 4.283 8.05 0.00 0.6270 0.8000 12.540 12.780 12.960 12.950   3.982 3.883 0.00000 0.00 315 0.00 0.00 0.5970 340.90 0.19 0.6650 355.600 4.790 14.618 8.265 6.353 15.016 8.161 6.856
WS7MET_125 2015-09-29 06:55:00 125 10426.0 12.590 12.800 12.960 13.040   56.600 53.730 4.209 3.885 8.05 0.00 14.080 14.540 14.770 14.180 12.740 12.680 12.810 12.990 13.120   4.432 4.027 8.05 0.00 0.6340 0.8000 12.540 12.770 12.940 12.990   4.002 3.761 0.00000 0.00 252 0.00 0.00 0.5800 341.30 0.14 0.6550 356.900 4.053 14.579 8.253 6.328 15.016 8.067 6.948
WS7MET_125 2015-09-29 06:50:00 125 10426.0 12.570 12.750 12.930 13.030   56.510 54.340 4.164 4.042 6.98 0.00 14.080 14.540 14.770 14.160 12.740 12.640 12.760 12.940 13.120   4.426 4.273 8.05 0.00 0.6340 0.8000 12.510 12.740 12.920 12.990   3.930 3.747 0.00000 0.00 274 0.00 0.00 0.6030 340.90 0.58 0.6900 357.900 3.530 14.560 8.227 6.332 15.006 8.156 6.852
WS7MET_125 2015-09-29 06:45:00 125 10426.0 12.540 12.720 12.910 12.980   56.260 53.370 4.078 3.738 6.71 0.00 14.090 14.540 14.780 14.160 12.740 12.610 12.740 12.930 13.050   4.260 4.049 6.71 0.00 0.6400 0.8000 12.440 12.720 12.900 12.920   3.842 3.647 0.00000 0.00 326 0.00 0.00 0.5980 340.30 0.10 0.7050 354.900 4.952 14.532 8.177 6.356 14.957 7.983 6.974
WS7MET_125 2015-09-29 06:40:00 125 10426.0 12.540 12.710 12.880 12.950   56.030 53.500 4.015 3.739 6.17 0.00 14.100 14.540 14.780 14.160 12.740 12.640 12.740 12.900 13.050   4.258 3.954 6.71 0.00 0.6340 0.8000 12.470 12.680 12.850 12.880   3.846 3.579 0.00000 0.00 257 0.00 0.00 0.5840 340.70 0.60 0.6800 356.400 4.775 14.532 8.141 6.390 14.928 7.984 6.941
WS7MET_125 2015-09-29 06:35:00 125 10426.0 12.510 12.670 12.850 12.950   56.490 54.250 4.106 3.940 5.37 0.00 14.110 14.540 14.760 14.160 12.740 12.580 12.680 12.850 13.020   4.343 4.209 5.37 0.00 0.5880 0.7000 12.440 12.660 12.830 12.880   3.752 3.620 0.00000 0.00 468 0.00 0.00 0.5480 341.30 0.03 0.6450 0.000 3.475 14.503 8.193 6.310 14.928 8.098 6.829
WS7MET_125 2015-09-29 06:30:00 125 10426.0 12.520 12.660 12.840 12.930   55.370 53.730 3.827 3.783 4.70 0.00 14.110 14.540 14.770 14.160 12.740 12.580 12.680 12.850 13.020   3.994 3.986 5.37 0.00 0.5880 0.7000 12.440 12.660 12.830 12.850   3.608 3.615 0.00000 0.00 245 0.00 0.00 0.5300 340.10 0.47 0.6150 355.700 2.144 14.513 8.034 6.477 14.908 8.009 6.898
WS7MET_125 2015-09-29 06:25:00 125 10426.0 12.510 12.660 12.850 12.930   54.950 53.120 3.707 3.625 4.03 0.00 14.110 14.530 14.770 14.160 12.740 12.580 12.680 12.850 13.020   4.051 3.838 4.03 0.00 0.5880 0.7000 12.440 12.660 12.830 12.880   3.456 3.446 0.00000 0.00 244 0.00 0.00 0.5540 339.60 0.27 0.6700 357.300 3.710 14.503 7.966 6.534 14.908 7.920 6.989
WS7MET_125 2015-09-29 06:20:00 125 10426.0 12.510 12.680 12.850 12.950   54.790 53.010 3.666 3.609 4.03 0.00 14.130 14.530 14.770 14.160 12.740 12.580 12.700 12.850 13.020   3.921 3.793 4.03 0.00 0.5880 0.7000 12.440 12.660 12.840 12.850   3.492 3.395 0.00000 0.00 252 0.00 0.00 0.5520 339.00 0.19 0.6450 354.700 5.019 14.503 7.943 6.557 14.928 7.911 7.014
WS7MET_125 2015-09-29 06:15:00 125 10426.0 12.550 12.670 12.850 12.950   54.710 52.500 3.686 3.473 3.69 0.00 14.130 14.530 14.770 14.160 12.750 12.680 12.700 12.850 13.020   4.040 3.651 4.03 0.00 0.5290 0.7000 12.440 12.660 12.830 12.880   3.362 3.358 0.00000 0.00 541 0.00 0.00 0.4960 340.70 0.48 0.5950 354.600 4.568 14.541 7.954 6.586 14.928 7.835 7.091
WS7MET_125 2015-09-29 06:10:00 125 10426.0 12.550 12.740 12.900 12.980   54.290 51.790 3.578 3.311 2.68 0.00 14.130 14.540 14.770 14.160 12.750 12.610 12.780 12.940 13.050   3.932 3.564 2.68 0.00 0.5680 0.7000 12.440 12.700 12.860 12.880   3.135 3.121 0.00000 0.00 336 0.00 0.00 0.5170 340.20 0.35 0.5950 356.500 6.622 14.541 7.894 6.647 14.957 7.746 7.211
WS7MET_125 2015-09-29 06:05:00 125 10426.0 12.580 12.810 12.970 13.040   54.190 51.050 3.582 3.159 1.48 0.00 14.140 14.540 14.770 14.160 12.750 12.640 12.830 12.980 13.090   3.830 3.322 2.68 0.00 0.6210 0.7000 12.510 12.780 12.940 12.950   3.153 2.810 0.00000 0.00 247 0.00 0.00 0.5140 339.20 0.14 0.6150 351.900 4.547 14.570 7.896 6.674 15.016 7.663 7.350
WS7MET_125 2015-09-29 06:00:00 125 10426.0 12.560 12.820 12.970 13.040   54.500 50.820 3.638 3.096 0.81 0.00 14.150 14.550 14.770 14.160 12.750 12.640 12.820 13.000 13.120   4.034 3.480 1.34 0.00 0.6270 0.8000 12.510 12.810 12.960 12.990   3.216 2.928 0.00000 0.00 416 0.00 0.00 0.5370 340.70 2.06 0.6050 354.200 4.655 14.551 7.927 6.621 15.016 7.629 7.385
WS7MET_125 2015-09-29 05:55:00 125 10426.0 12.520 12.800 12.920 12.990   52.860 50.430 3.176 2.943 0.00 0.00 14.160 14.550 14.770 14.160 12.760 12.610 12.810 12.950 13.050   3.608 3.124 0.00 0.00 0.7190 0.9000 12.440 12.780 12.920 12.920   2.729 2.634 0.00000 0.00 230 0.00 0.00 0.6000 337.50 3.10 0.6950 352.400 6.832 14.513 7.672 6.841 14.967 7.547 7.419
WS7MET_125 2015-09-29 05:50:00 125 10426.0 12.510 12.760 12.900 12.950   51.950 50.120 2.919 2.820 0.00 0.00 14.170 14.560 14.770 14.160 12.760 12.580 12.780 12.920 13.050   3.199 2.988 0.00 0.00 0.6400 0.9000 12.470 12.740 12.880 12.850   2.719 2.718 0.00000 0.00 273 0.00 0.00 0.5680 336.50 1.84 0.6600 353.000 5.476 14.503 7.534 6.969 14.928 7.481 7.446
WS7MET_125 2015-09-29 05:45:00 125 10426.0 12.470 12.710 12.850 12.890   53.740 51.730 3.356 3.214 0.00 0.00 14.170 14.560 14.770 14.160 12.760 12.540 12.740 12.870 12.990   3.661 3.371 0.00 0.00 0.7770 0.9000 12.410 12.680 12.830 12.850   3.008 2.951 0.00000 0.00 245 0.00 0.00 0.6400 335.20 2.74 0.7300 350.300 6.656 14.465 7.771 6.692 14.869 7.693 7.177
WS7MET_125 2015-09-29 05:40:00 125 10426.0 12.510 12.690 12.840 12.910   54.890 52.300 3.695 3.387 0.00 0.00 14.180 14.560 14.770 14.160 12.760 12.580 12.720 12.870 13.020   3.953 3.624 0.00 0.00 0.6660 0.8000 12.440 12.680 12.830 12.850   3.442 3.142 0.00000 0.00 433 0.00 0.00 0.5800 337.90 1.94 0.6600 352.200 5.778 14.503 7.959 6.542 14.889 7.788 7.102
WS7MET_125 2015-09-29 05:35:00 125 10426.0 12.570 12.750 12.900 12.960   54.880 52.100 3.753 3.378 0.00 0.00 14.190 14.560 14.780 14.160 12.760 12.640 12.760 12.920 13.090   3.889 3.660 0.00 0.00 0.5880 0.7000 12.470 12.720 12.870 12.880   3.590 3.190 0.00000 0.00 458 0.00 0.00 0.5510 341.70 2.40 0.6200 351.900 4.085 14.560 7.992 6.570 14.937 7.783 7.155
WS7MET_125 2015-09-29 05:30:00 125 10426.0 12.560 12.770 12.910 13.020   53.440 51.450 3.366 3.250 0.00 0.00 14.200 14.560 14.770 14.160 12.760 12.640 12.790 12.940 13.090   3.767 3.490 0.00 0.00 0.6080 0.7000 12.470 12.760 12.900 12.920   2.915 3.045 0.00000 0.00 291 0.00 0.00 0.5630 345.80 0.69 0.5750 2.749 5.216 14.551 7.776 6.775 14.996 7.713 7.281
WS7MET_125 2015-09-29 05:25:00 125 10426.0 12.600 12.790 12.940 13.020   53.180 51.370 3.332 3.234 0.00 0.00 14.200 14.560 14.780 14.160 12.770 12.640 12.800 12.940 13.120   3.587 3.419 0.00 0.00 0.5950 0.8000 12.540 12.780 12.930 12.920   3.130 3.124 0.00000 0.00 245 0.00 0.00 0.5560 344.30 0.50 0.6100 355.700 4.718 14.589 7.758 6.831 14.996 7.704 7.293
WS7MET_125 2015-09-29 05:20:00 125 10426.0 12.650 12.810 12.970 13.060   52.540 51.060 3.209 3.179 0.00 0.00 14.210 14.560 14.780 14.160 12.770 12.750 12.840 13.010 13.120   3.407 3.316 0.00 0.00 0.5290 0.6000 12.610 12.780 12.940 12.950   3.069 3.052 0.00000 0.00 348 0.00 0.00 0.4820 345.30 0.37 0.5250 355.200 7.880 14.637 7.690 6.947 15.035 7.674 7.358
WS7MET_125 2015-09-29 05:15:00 125 10426.0 12.690 12.890 13.050 13.110   53.080 50.820 3.384 3.167 0.00 0.00 14.210 14.560 14.780 14.160 12.770 12.750 12.910 13.070 13.220   3.629 3.272 0.00 0.00 0.5100 0.6000 12.580 12.840 13.020 12.990   3.108 2.953 0.00000 0.00 245 0.00 0.00 0.4650 347.00 0.18 0.5000 6.224 7.333 14.675 7.786 6.886 15.085 7.668 7.419
WS7MET_125 2015-09-29 05:10:00 125 10426.0 12.710 12.900 13.060 13.120   52.530 50.290 3.262 3.020 0.00 0.00 14.220 14.560 14.780 14.160 12.770 12.780 12.910 13.080 13.190   3.480 3.152 0.00 0.00 0.5950 0.7000 12.640 12.880 13.020 13.020   3.012 2.892 0.00000 0.00 490 0.00 0.00 0.5250 342.80 1.55 0.5750 355.600 4.646 14.695 7.719 6.976 15.094 7.588 7.503
WS7MET_125 2015-09-29 05:05:00 125 10426.0 12.730 12.900 13.040 13.160   53.130 50.460 3.442 3.104 0.00 0.00 14.230 14.560 14.780 14.160 12.780 12.810 12.930 13.060 13.220   3.760 3.404 0.00 0.00 0.6730 0.8000 12.680 12.860 13.020 13.090   2.918 2.869 0.00000 0.00 464 0.00 0.00 0.5800 339.50 2.82 0.6550 356.900 5.796 14.714 7.818 6.896 15.134 7.633 7.497
WS7MET_125 2015-09-29 05:00:00 125 10426.0 12.680 12.890 13.030 13.090   51.980 49.620 3.078 2.804 0.00 0.00 14.240 14.560 14.780 14.160 12.780 12.750 12.950 13.060 13.160   3.792 3.048 0.00 0.00 0.6600 0.8000 12.610 12.840 12.980 13.020   2.764 2.631 0.00000 0.00 551 0.00 0.00 0.5360 334.70 1.24 0.6350 350.200 5.167 14.666 7.619 7.043 15.065 7.473 7.590
WS7MET_125 2015-09-29 04:55:00 125 10426.0 12.650 12.830 12.980 13.030   53.240 51.380 3.393 3.242 0.00 0.00 14.240 14.560 14.780 14.160 12.780 12.750 12.850 12.980 13.090   3.928 3.564 0.00 0.00 0.6470 0.8000 12.580 12.820 12.970 12.920   3.115 2.982 0.00000 0.00 426 0.00 0.00 0.5270 332.00 1.54 0.6200 347.300 1.723 14.637 7.791 6.844 15.006 7.708 7.296
WS7MET_125 2015-09-29 04:50:00 125 10426.0 12.700 12.870 12.990 13.070   52.910 50.810 3.354 3.123 0.00 0.00 14.250 14.560 14.780 14.160 12.780 12.780 12.900 13.020 13.120   3.673 3.225 0.00 0.00 0.5750 0.7000 12.640 12.840 12.980 12.990   3.081 3.039 0.00000 0.00 241 0.00 0.00 0.5290 339.00 1.95 0.6350 352.600 5.958 14.685 7.770 6.915 15.045 7.644 7.401
WS7MET_125 2015-09-29 04:45:00 125 10426.0 12.740 12.920 13.060 13.130   52.720 50.130 3.335 2.989 0.00 0.00 14.250 14.560 14.780 14.160 12.790 12.780 12.940 13.080 13.190   3.793 3.171 0.00 0.00 0.5420 0.7000 12.680 12.880 13.030 13.050   2.944 2.784 0.00000 0.00 276 0.00 0.00 0.5110 343.40 0.59 0.5900 353.200 4.267 14.724 7.759 6.961 15.104 7.571 7.532
WS7MET_125 2015-09-29 04:40:00 125 10426.0 12.770 12.950 13.100 13.170   52.270 49.480 3.246 2.841 0.00 0.00 14.260 14.560 14.780 14.160 12.790 12.850 12.970 13.100 13.260   3.420 3.011 0.00 0.00 0.5550 0.7000 12.710 12.950 13.080 13.090   3.015 2.718 0.00000 0.00 521 0.00 0.00 0.4960 344.80 0.51 0.5650 358.000 4.322 14.753 7.711 7.041 15.144 7.492 7.651
WS7MET_125 2015-09-29 04:35:00 125 10426.0 12.770 12.970 13.120 13.230   52.800 49.870 3.388 3.002 0.00 0.00 14.260 14.560 14.780 14.160 12.780 12.880 12.980 13.120 13.290   3.823 3.326 0.00 0.00 0.5680 0.7000 12.680 12.970 13.100 13.160   2.900 2.718 0.00000 0.00 277 0.00 0.00 0.4990 340.70 0.49 0.5850 357.400 5.733 14.753 7.789 6.963 15.203 7.578 7.621
WS7MET_125 2015-09-29 04:30:00 125 10426.0 12.780 13.000 13.150 13.240   53.010 50.860 3.450 3.297 0.00 0.00 14.280 14.560 14.780 14.160 12.790 12.850 13.040 13.190 13.330   3.988 3.753 0.00 0.00 0.4570 0.6000 12.710 12.990 13.110 13.160   2.717 2.956 0.00000 0.00 238 0.00 0.00 0.4110 340.10 0.50 0.4850 349.500 3.797 14.762 7.823 6.937 15.213 7.739 7.476
WS7MET_125 2015-09-29 04:25:00 125 10426.0 12.810 13.040 13.190 13.240   51.580 51.000 3.092 3.329 0.00 0.00 14.280 14.560 14.790 14.160 12.790 12.880 13.050 13.210 13.290   3.795 3.859 0.00 0.00 0.4570 0.6000 12.750 13.030 13.180 13.120   2.726 2.842 0.00000 0.00 248 0.00 0.00 0.4010 340.20 0.91 0.5100 352.700 4.753 14.791 7.627 7.162 15.213 7.756 7.454
WS7MET_125 2015-09-29 04:20:00 125 10426.0 12.810 13.000 13.160 13.230   53.800 50.810 3.686 3.270 0.00 0.00 14.280 14.560 14.790 14.160 12.800 12.920 13.030 13.190 13.330   4.044 3.743 0.00 0.00 0.5880 0.7000 12.750 12.990 13.150 13.190   3.016 2.975 0.00000 0.00 278 0.00 0.00 0.5140 342.20 0.95 0.5750 353.200 4.047 14.791 7.954 6.834 15.203 7.724 7.478
WS7MET_125 2015-09-29 04:15:00 125 10426.0 12.840 12.980 13.130 13.210   53.610 50.980 3.664 3.294 0.00 0.00 14.290 14.560 14.790 14.160 12.800 12.920 12.990 13.150 13.290   4.009 3.624 0.00 0.00 0.5810 0.7000 12.750 12.970 13.120 13.160   3.392 3.152 0.00000 0.00 245 0.00 0.00 0.5460 343.00 0.39 0.5850 357.600 5.944 14.820 7.942 6.875 15.183 7.737 7.443
WS7MET_125 2015-09-29 04:10:00 125 10426.0 12.850 13.030 13.170 13.250   54.140 51.610 3.820 3.510 0.00 0.00 14.300 14.560 14.790 14.160 12.800 12.920 13.070 13.220 13.290   4.150 3.983 0.00 0.00 0.6340 0.7000 12.780 12.990 13.130 13.160   3.447 3.113 0.00000 0.00 280 0.00 0.00 0.5280 337.70 4.16 0.5900 355.000 4.201 14.830 8.030 6.801 15.223 7.856 7.366
WS7MET_125 2015-09-29 04:05:00 125 10426.0 12.900 13.080 13.200 13.250   51.560 50.480 3.171 3.201 0.00 0.00 14.300 14.560 14.790 14.160 12.800 13.020 13.090 13.220 13.330   3.501 3.345 0.00 0.00 0.6470 0.8000 12.810 13.070 13.200 13.220   3.001 3.072 0.00000 0.00 351 0.00 0.00 0.5310 337.50 3.37 0.6200 353.000 4.608 14.879 7.670 7.207 15.223 7.686 7.538
WS7MET_125 2015-09-29 04:00:00 125 10426.0 12.870 13.070 13.220 13.280   53.400 51.480 3.641 3.500 0.00 0.00 14.320 14.560 14.790 14.160 12.800 12.990 13.090 13.240 13.390   4.379 4.069 0.00 0.00 0.5420 0.7000 12.780 13.050 13.220 13.190   3.160 3.215 0.00000 0.00 282 0.00 0.00 0.4780 339.50 0.56 0.5700 355.900 5.050 14.850 7.929 6.920 15.253 7.850 7.401
WS7MET_125 2015-09-29 03:55:00 125 10426.0 12.870 13.060 13.230 13.300   54.490 52.290 3.924 3.739 0.00 0.00 14.320 14.560 14.790 14.160 12.810 12.950 13.060 13.240 13.330   4.179 4.223 0.00 0.00 0.5880 0.7000 12.780 13.050 13.220 13.220   3.511 3.440 0.00000 0.00 249 0.00 0.00 0.4950 338.40 0.23 0.5950 354.700 4.736 14.850 8.089 6.758 15.273 7.984 7.287
WS7MET_125 2015-09-29 03:50:00 125 10426.0 12.910 13.080 13.250 13.330   54.980 52.860 4.088 3.922 0.00 0.00 14.320 14.560 14.790 14.160 12.810 12.990 13.100 13.270 13.390   4.189 4.282 0.00 0.00 0.5810 0.7000 12.850 13.060 13.240 13.260   3.863 3.511 0.00000 0.00 245 0.00 0.00 0.5220 338.60 0.38 0.5950 354.800 5.821 14.889 8.183 6.703 15.303 8.088 7.214
WS7MET_125 2015-09-29 03:45:00 125 10426.0 12.950 13.100 13.280 13.380   54.160 51.960 3.916 3.725 0.00 0.00 14.330 14.560 14.790 14.150 12.810 13.020 13.150 13.320 13.430   4.262 4.037 0.00 0.00 0.6140 0.7000 12.920 13.080 13.260 13.290   3.647 3.487 0.00000 0.00 232 0.00 0.00 0.4990 338.60 0.14 0.5750 352.200 5.084 14.928 8.084 6.843 15.353 7.976 7.375
WS7MET_125 2015-09-29 03:40:00 125 10426.0 12.960 13.190 13.360 13.410   54.850 52.030 4.105 3.769 0.00 0.00 14.340 14.560 14.790 14.160 12.810 13.050 13.210 13.390 13.460   4.359 3.991 0.00 0.00 0.5360 0.7000 12.880 13.150 13.320 13.330   3.733 3.468 0.00000 0.00 242 0.00 0.00 0.4770 337.60 0.53 0.5650 350.200 6.056 14.937 8.193 6.744 15.383 8.001 7.379
WS7MET_125 2015-09-29 03:35:00 125 10426.0 12.940 13.180 13.360 13.400   54.900 51.500 4.095 3.616 0.00 0.00 14.340 14.560 14.790 14.170 12.810 12.990 13.210 13.390 13.460   4.466 3.819 0.00 0.00 0.5750 0.7000 12.880 13.160 13.320 13.290   3.625 3.401 0.00000 0.00 294 0.00 0.00 0.5010 338.10 0.91 0.5600 350.100 3.861 14.918 8.187 6.728 15.373 7.915 7.456
WS7MET_125 2015-09-29 03:30:00 125 10426.0 12.890 13.090 13.260 13.310   54.500 51.860 3.947 3.636 0.00 0.00 14.350 14.570 14.790 14.170 12.810 12.990 13.150 13.320 13.390   4.256 3.904 0.00 0.00 0.5490 0.7000 12.810 13.060 13.210 13.190   3.634 3.499 0.00000 0.00 237 0.00 0.00 0.5190 337.10 0.63 0.6150 352.000 4.392 14.869 8.102 6.765 15.283 7.926 7.357
WS7MET_125 2015-09-29 03:25:00 125 10426.0 12.800 13.010 13.160 13.230   55.350 52.690 4.090 3.786 0.00 0.00 14.360 14.570 14.780 14.170 12.820 12.880 13.060 13.210 13.360   4.240 4.069 0.00 0.00 0.6270 0.8000 12.750 12.980 13.120 13.120   3.629 3.519 0.00000 0.00 246 0.00 0.00 0.5580 339.70 2.58 0.6300 350.500 5.519 14.782 8.184 6.600 15.203 8.011 7.193
WS7MET_125 2015-09-29 03:20:00 125 10426.0 12.770 12.990 13.130 13.190   54.390 51.930 3.809 3.545 0.00 0.00 14.370 14.560 14.780 14.170 12.820 12.880 13.000 13.150 13.220   4.214 3.690 0.00 0.00 0.5950 0.8000 12.680 12.980 13.120 13.120   3.471 3.413 0.00000 0.00 285 0.00 0.00 0.5160 338.50 0.61 0.6000 353.600 4.541 14.753 8.024 6.729 15.164 7.875 7.289
WS7MET_125 2015-09-29 03:15:00 125 10426.0 12.800 12.980 13.110 13.200   54.070 52.110 3.751 3.599 0.00 0.00 14.370 14.560 14.780 14.170 12.820 12.850 12.990 13.120 13.260   4.194 3.837 0.00 0.00 0.5490 0.7000 12.750 12.970 13.100 13.120   3.448 3.413 0.00000 0.00 470 0.00 0.00 0.4830 338.40 0.51 0.5700 352.200 4.898 14.782 7.991 6.789 15.173 7.906 7.267
WS7MET_125 2015-09-29 03:10:00 125 10426.0 12.860 12.990 13.140 13.250   54.760 52.340 3.984 3.714 0.00 0.00 14.370 14.560 14.780 14.160 12.820 12.920 13.010 13.170 13.330   4.336 3.969 0.00 0.00 0.5290 0.6000 12.780 12.970 13.110 13.190   3.728 3.545 0.00000 0.00 274 0.00 0.00 0.4300 338.80 0.04 0.5150 349.600 2.568 14.840 8.123 6.714 15.223 7.970 7.255
WS7MET_125 2015-09-29 03:05:00 125 10426.0 12.880 13.040 13.180 13.280   54.450 51.740 3.926 3.572 0.00 0.00 14.390 14.560 14.780 14.160 12.820 12.990 13.080 13.210 13.360   4.128 3.726 0.00 0.00 0.5750 0.7000 12.780 13.010 13.170 13.190   3.666 3.442 0.00000 0.00 279 0.00 0.00 0.5290 339.60 0.45 0.6200 354.000 3.824 14.859 8.090 6.768 15.253 7.890 7.361
WS7MET_125 2015-09-29 03:00:00 125 10426.0 13.010 13.170 13.300 13.440   53.020 51.110 3.666 3.544 0.00 0.00 14.390 14.560 14.780 14.170 12.820 13.090 13.260 13.400 13.600   3.937 3.645 0.00 0.00 0.5290 0.7000 12.920 13.090 13.230 13.290   3.496 3.448 0.00000 0.00 243 0.00 0.00 0.4470 338.50 0.23 0.5550 353.700 4.070 14.986 7.943 7.041 15.413 7.875 7.535
WS7MET_125 2015-09-29 02:55:00 125 10426.0 13.170 13.350 13.490 13.590   53.920 50.580 4.059 3.540 0.00 0.00 14.390 14.560 14.780 14.170 12.830 13.260 13.410 13.540 13.700   4.316 3.780 0.00 0.00 0.4380 0.6000 13.050 13.280 13.410 13.500   3.796 3.382 0.00000 0.00 240 0.00 0.00 0.4000 338.20 1.16 0.4900 350.600 4.065 15.144 8.166 6.978 15.564 7.873 7.692
WS7MET_125 2015-09-29 02:50:00 125 10426.0 13.300 13.480 13.600 13.690   52.570 49.860 3.814 3.426 0.00 0.00 14.400 14.560 14.790 14.160 12.830 13.460 13.520 13.650 13.740   4.258 3.654 0.00 0.00 0.4510 0.6000 13.220 13.420 13.550 13.630   3.446 3.069 0.00000 0.00 278 0.00 0.00 0.3660 338.30 2.44 0.4750 348.600 4.973 15.273 8.026 7.244 15.666 7.809 7.855
WS7MET_125 2015-09-29 02:45:00 125 10426.0 13.370 13.540 13.680 13.770   52.220 49.690 3.790 3.455 0.00 0.00 14.410 14.560 14.790 14.160 12.830 13.430 13.550 13.700 13.870   4.137 3.995 0.00 0.00 0.4510 0.6000 13.330 13.520 13.650 13.700   3.587 3.192 0.00000 0.00 466 0.00 0.00 0.3830 338.10 1.58 0.4850 353.200 8.140 15.343 8.013 7.331 15.748 7.826 7.923
WS7MET_125 2015-09-29 02:40:00 125 10426.0 13.430 13.610 13.740 13.810   51.640 49.460 3.686 3.423 0.00 0.00 14.410 14.560 14.790 14.160 12.830 13.500 13.640 13.760 13.910   3.953 3.580 0.00 0.00 0.6080 0.7000 13.390 13.550 13.710 13.740   3.464 3.322 0.00000 0.00 238 0.00 0.00 0.4860 337.20 1.30 0.5500 350.200 6.234 15.403 7.954 7.449 15.789 7.808 7.980
WS7MET_125 2015-09-29 02:35:00 125 10426.0 13.460 13.610 13.750 13.820   51.100 49.290 3.562 3.382 0.00 0.00 14.420 14.560 14.790 14.160 12.830 13.530 13.620 13.750 13.940   3.823 3.585 0.00 0.00 0.5620 0.8000 13.360 13.600 13.740 13.700   3.332 3.210 0.00000 0.00 242 0.00 0.00 0.4720 337.00 1.29 0.5650 349.000 2.036 15.433 7.885 7.547 15.799 7.785 8.012
WS7MET_125 2015-09-29 02:30:00 125 10426.0 13.390 13.560 13.720 13.790   51.860 50.300 3.712 3.640 0.00 0.00 14.430 14.560 14.790 14.160 12.830 13.460 13.620 13.750 13.910   4.141 3.836 0.00 0.00 0.7190 0.9000 13.330 13.530 13.690 13.700   3.439 3.490 0.00000 0.00 362 0.00 0.00 0.6130 340.80 2.19 0.6950 353.300 5.277 15.363 7.969 7.396 15.768 7.928 7.837
WS7MET_125 2015-09-29 02:25:00 125 10426.0 13.380 13.530 13.690 13.760   51.060 49.720 3.477 3.457 0.00 0.00 14.430 14.560 14.790 14.160 12.840 13.460 13.530 13.710 13.800   3.860 3.587 0.00 0.00 0.7510 0.8000 13.330 13.510 13.670 13.700   3.224 3.328 0.00000 0.00 240 0.00 0.00 0.5290 336.30 5.76 0.6450 348.700 8.110 15.353 7.838 7.514 15.737 7.827 7.913
WS7MET_125 2015-09-29 02:20:00 125 10426.0 13.320 13.520 13.690 13.760   52.360 50.600 3.783 3.697 0.00 0.00 14.440 14.560 14.790 14.160 12.840 13.390 13.530 13.710 13.800   4.051 4.073 0.00 0.00 0.5490 0.7000 13.260 13.500 13.670 13.670   3.552 3.469 0.00000 0.00 438 0.00 0.00 0.4550 334.60 0.12 0.5600 347.200 2.695 15.293 8.009 7.285 15.737 7.960 7.774
WS7MET_125 2015-09-29 02:15:00 125 10426.0 13.320 13.530 13.670 13.760   52.660 50.590 3.855 3.699 0.00 0.00 14.450 14.560 14.790 14.160 12.840 13.390 13.540 13.690 13.840   4.272 4.026 0.00 0.00 0.5420 0.7000 13.190 13.510 13.660 13.670   3.399 3.447 0.00000 0.00 282 0.00 0.00 0.4820 334.90 0.46 0.5750 349.600 1.986 15.293 8.050 7.240 15.737 7.962 7.776
WS7MET_125 2015-09-29 02:10:00 125 10426.0 13.300 13.540 13.680 13.740   52.140 50.640 3.705 3.690 0.00 0.00 14.450 14.560 14.790 14.160 12.840 13.390 13.550 13.690 13.840   3.960 3.894 0.00 0.00 0.5550 0.8000 13.220 13.520 13.660 13.630   3.320 3.539 0.00000 0.00 245 0.00 0.00 0.4530 334.90 0.95 0.5850 345.100 4.617 15.273 7.965 7.310 15.717 7.956 7.758
WS7MET_125 2015-09-29 02:05:00 125 10426.0 13.280 13.450 13.610 13.640   53.450 50.700 4.032 3.617 0.00 0.00 14.450 14.560 14.790 14.160 12.840 13.390 13.520 13.670 13.700   4.318 3.899 0.00 0.00 0.5810 0.8000 13.220 13.390 13.540 13.570   3.814 3.454 0.00000 0.00 240 0.00 0.00 0.5040 336.00 2.55 0.6250 350.500 5.561 15.253 8.151 7.100 15.615 7.916 7.698
WS7MET_125 2015-09-29 02:00:00 125 10426.0 13.250 13.400 13.560 13.650   52.640 50.200 3.792 3.491 0.00 0.00 14.460 14.560 14.790 14.170 12.840 13.330 13.410 13.560 13.740   4.033 3.621 0.00 0.00 0.5880 0.7000 13.190 13.390 13.550 13.600   3.564 3.365 0.00000 0.00 237 0.00 0.00 0.5410 341.90 0.36 0.6050 353.800 7.213 15.223 8.014 7.210 15.625 7.845 7.781
WS7MET_125 2015-09-29 01:55:00 125 10426.0 13.280 13.400 13.570 13.660   53.160 51.330 3.953 3.811 0.00 0.00 14.470 14.560 14.790 14.170 12.840 13.390 13.430 13.610 13.740   4.282 4.050 0.00 0.00 0.5420 0.7000 13.190 13.390 13.550 13.600   3.607 3.485 0.00000 0.00 377 0.00 0.00 0.5150 343.80 0.55 0.6250 355.300 5.380 15.253 8.105 7.144 15.635 8.025 7.610
WS7MET_125 2015-09-29 01:50:00 125 10426.0 13.300 13.480 13.630 13.680   52.920 50.530 3.912 3.612 0.00 0.00 14.470 14.560 14.800 14.160 12.850 13.390 13.520 13.650 13.770   4.259 3.843 0.00 0.00 0.5490 0.7000 13.220 13.440 13.610 13.570   3.564 3.357 0.00000 0.00 242 0.00 0.00 0.5200 344.10 0.10 0.6050 357.500 5.394 15.273 8.082 7.190 15.656 7.913 7.745
WS7MET_125 2015-09-29 01:45:00 125 10426.0 13.300 13.530 13.650 13.670   51.680 49.720 3.578 3.368 0.00 0.00 14.470 14.560 14.800 14.160 12.850 13.390 13.530 13.650 13.740   3.827 3.529 0.00 0.00 0.5420 0.7000 13.220 13.520 13.650 13.600   3.323 3.197 0.00000 0.00 420 0.00 0.00 0.5080 344.20 0.34 0.5850 359.000 5.679 15.273 7.894 7.380 15.646 7.778 7.867
WS7MET_125 2015-09-29 01:40:00 125 10426.0 13.340 13.540 13.650 13.700   51.570 49.690 3.579 3.392 0.00 0.00 14.490 14.560 14.800 14.160 12.850 13.390 13.550 13.670 13.800   3.972 3.783 0.00 0.00 0.5420 0.7000 13.290 13.530 13.650 13.630   3.345 3.208 0.00000 0.00 319 0.00 0.00 0.4940 343.80 0.02 0.5550 354.800 6.285 15.313 7.894 7.416 15.676 7.791 7.887
WS7MET_125 2015-09-29 01:35:00 125 10426.0 13.360 13.530 13.660 13.740   51.960 49.820 3.711 3.465 0.00 0.00 14.490 14.560 14.790 14.160 12.840 13.460 13.550 13.670 13.840   4.123 3.652 0.00 0.00 0.5810 0.7000 13.290 13.510 13.650 13.670   3.281 3.208 0.00000 0.00 374 0.00 0.00 0.5210 343.80 0.01 0.6100 356.800 4.801 15.333 7.968 7.366 15.717 7.831 7.887
WS7MET_125 2015-09-29 01:30:00 125 10426.0 13.370 13.510 13.680 13.790   53.310 50.860 4.087 3.798 0.00 0.00 14.490 14.560 14.790 14.160 12.850 13.500 13.530 13.710 13.870   4.318 4.211 0.00 0.00 0.5420 0.7000 13.260 13.490 13.670 13.700   3.876 3.454 0.00000 0.00 276 0.00 0.00 0.5050 344.50 0.10 0.5300 353.900 6.268 15.343 8.182 7.164 15.768 8.017 7.748
WS7MET_125 2015-09-29 01:25:00 125 10426.0 13.420 13.580 13.740 13.840   52.700 50.490 3.966 3.741 0.00 0.00 14.500 14.550 14.790 14.160 12.850 13.500 13.610 13.770 13.910   4.114 4.020 0.00 0.00 0.6140 0.7000 13.360 13.530 13.700 13.740   3.679 3.575 0.00000 0.00 335 0.00 0.00 0.5220 344.20 0.28 0.5050 353.100 6.188 15.393 8.113 7.281 15.819 7.985 7.832
WS7MET_125 2015-09-29 01:20:00 125 10426.0 13.450 13.590 13.760 13.860   52.240 49.680 3.864 3.527 0.00 0.00 14.510 14.550 14.790 14.160 12.850 13.530 13.620 13.770 13.940   4.245 3.752 0.00 0.00 0.6010 0.7000 13.390 13.570 13.750 13.800   3.499 3.365 0.00000 0.00 238 0.00 0.00 0.5600 343.70 0.26 0.6200 355.500 5.615 15.423 8.055 7.366 15.840 7.865 7.971
WS7MET_125 2015-09-29 01:15:00 125 10426.0 13.430 13.580 13.760 13.860   51.390 50.000 3.616 3.622 0.00 0.00 14.520 14.560 14.790 14.160 12.850 13.500 13.610 13.770 13.940   3.865 3.788 0.00 0.00 0.6530 0.7000 13.360 13.570 13.740 13.770   3.455 3.449 0.00000 0.00 248 0.00 0.00 0.6200 343.10 0.21 0.6650 354.900 5.812 15.403 7.915 7.487 15.840 7.918 7.920
WS7MET_125 2015-09-29 01:10:00 125 10426.0 13.470 13.610 13.790 13.890   52.210 49.330 3.876 3.457 0.00 0.00 14.510 14.560 14.790 14.160 12.850 13.570 13.630 13.790 13.940   4.118 3.691 0.00 0.00 0.5230 0.7000 13.390 13.600 13.770 13.800   3.660 3.196 0.00000 0.00 273 0.00 0.00 0.4860 343.70 0.25 0.5250 350.100 3.393 15.443 8.062 7.380 15.871 7.827 8.042
WS7MET_125 2015-09-29 01:05:00 125 10426.0 13.510 13.660 13.820 13.940   52.340 49.040 3.946 3.421 0.00 0.00 14.510 14.560 14.790 14.160 12.850 13.570 13.680 13.840 14.010   4.250 3.599 0.00 0.00 0.5620 0.6000 13.430 13.630 13.790 13.870   3.591 3.339 0.00000 0.00 389 0.00 0.00 0.5230 343.20 0.14 0.5400 350.200 2.271 15.483 8.101 7.379 15.923 7.807 8.114
WS7MET_125 2015-09-29 01:00:00 125 10426.0 13.570 13.710 13.860 13.970   52.500 50.040 4.049 3.741 0.00 0.00 14.530 14.560 14.800 14.160 12.860 13.670 13.740 13.900 14.080   4.282 3.952 0.00 0.00 0.5950 0.8000 13.460 13.680 13.840 13.910   3.795 3.518 0.00000 0.00 288 0.00 0.00 0.5530 344.20 0.82 0.6300 355.000 2.010 15.544 8.160 7.383 15.954 7.985 7.970
WS7MET_125 2015-09-29 00:55:00 125 10426.0 13.630 13.770 13.930 14.080   52.050 48.890 3.985 3.512 0.00 0.00 14.530 14.550 14.800 14.170 12.860 13.700 13.780 13.960 14.150   4.174 3.781 0.00 0.00 0.5290 0.7000 13.530 13.740 13.900 13.970   3.833 3.175 0.00000 0.00 278 0.00 0.00 0.5070 345.10 0.18 0.5400 352.900 5.171 15.605 8.124 7.483 16.068 7.857 8.212
WS7MET_125 2015-09-29 00:50:00 125 10426.0 13.690 13.840 14.010 14.130   51.790 48.910 3.964 3.562 0.00 0.00 14.540 14.550 14.800 14.170 12.860 13.770 13.890 14.070 14.210   4.144 3.789 0.00 0.00 0.5490 0.7000 13.600 13.790 13.960 14.040   3.650 3.309 0.00000 0.00 415 0.00 0.00 0.5080 345.10 0.44 0.5600 356.800 5.632 15.666 8.112 7.553 16.120 7.885 8.236
WS7MET_125 2015-09-29 00:45:00 125 10426.0 13.690 13.900 14.080 14.170   52.550 48.040 4.177 3.339 0.00 0.00 14.540 14.540 14.800 14.170 12.860 13.770 13.920 14.090 14.210   4.403 3.711 0.00 0.00 0.5680 0.7000 13.630 13.890 14.070 14.080   4.009 3.146 0.00000 0.00 280 0.00 0.00 0.5220 345.20 1.11 0.6050 356.500 5.827 15.666 8.234 7.433 16.162 7.762 8.398
WS7MET_125 2015-09-29 00:40:00 125 10426.0 13.740 13.950 14.090 14.190   51.380 48.290 3.896 3.435 0.00 0.00 14.550 14.540 14.800 14.170 12.860 13.840 13.970 14.130 14.320   4.435 3.775 0.00 0.00 0.5680 0.7000 13.670 13.930 14.070 14.080   3.365 3.127 0.00000 0.00 291 0.00 0.00 0.5220 339.40 3.84 0.5900 351.800 8.190 15.717 8.073 7.642 16.183 7.814 8.368
WS7MET_125 2015-09-29 00:35:00 125 10426.0 13.770 13.980 14.150 14.230   50.200 47.680 3.598 3.293 0.00 0.00 14.550 14.540 14.800 14.170 12.850 13.840 14.000 14.150 14.320   4.293 3.722 0.00 0.00 0.6140 0.7000 13.700 13.950 14.130 14.150   3.359 3.056 0.00000 0.00 242 0.00 0.00 0.5030 339.40 1.45 0.5550 347.100 4.224 15.748 7.905 7.842 16.225 7.736 8.489
WS7MET_125 2015-09-29 00:30:00 125 10426.0 13.790 13.960 14.120 14.220   50.120 47.690 3.590 3.282 0.00 0.00 14.560 14.540 14.800 14.170 12.860 13.870 13.980 14.130 14.320   3.998 3.679 0.00 0.00 0.6140 0.7000 13.700 13.940 14.110 14.150   3.293 3.025 0.00000 0.00 544 0.00 0.00 0.5470 340.40 0.46 0.5900 353.900 5.772 15.768 7.901 7.865 16.214 7.730 8.482
WS7MET_125 2015-09-29 00:25:00 125 10426.0 13.880 14.000 14.140 14.220   50.400 48.300 3.753 3.458 0.00 0.00 14.560 14.540 14.800 14.170 12.870 13.940 14.040 14.150 14.280   3.960 3.783 0.00 0.00 0.6270 0.9000 13.800 13.980 14.130 14.110   3.570 3.147 0.00000 0.00 314 0.00 0.00 0.5630 340.20 0.17 0.6750 353.800 4.940 15.861 7.992 7.867 16.214 7.827 8.383
WS7MET_125 2015-09-29 00:20:00 125 10426.0 13.920 14.070 14.170 14.200   50.150 47.800 3.721 3.301 0.00 0.00 14.570 14.540 14.810 14.170 12.870 14.010 14.100 14.180 14.250   4.301 3.687 0.00 0.00 0.4970 0.6000 13.840 14.040 14.150 14.150   3.219 3.015 0.00000 0.00 300 0.00 0.00 0.4440 340.20 0.42 0.5050 351.000 3.916 15.902 7.974 7.927 16.193 7.741 8.453
WS7MET_125 2015-09-29 00:15:00 125 10426.0 13.890 14.070 14.150 14.200   48.190 47.080 3.134 3.087 0.00 0.00 14.570 14.540 14.800 14.170 12.870 13.970 14.100 14.160 14.280   3.450 3.161 0.00 0.00 0.5100 0.6000 13.800 14.050 14.140 14.150   2.976 3.026 0.00000 0.00 323 0.00 0.00 0.4530 340.00 0.44 0.5250 351.100 3.965 15.871 7.650 8.223 16.193 7.624 8.569
WS7MET_125 2015-09-29 00:10:00 125 10426.0 13.880 14.060 14.200 14.260   49.900 48.410 3.610 3.528 0.00 0.00 14.580 14.530 14.800 14.170 12.870 13.940 14.080 14.220 14.350   3.960 4.163 0.00 0.00 0.5680 0.7000 13.770 14.040 14.180 14.150   3.038 3.078 0.00000 0.00 238 0.00 0.00 0.5040 339.30 0.98 0.5700 350.200 3.738 15.861 7.912 7.946 16.256 7.866 8.387
WS7MET_125 2015-09-29 00:05:00 125 10426.0 13.960 14.110 14.240 14.290   49.520 47.740 3.576 3.364 0.00 0.00 14.580 14.530 14.810 14.170 12.870 14.040 14.120 14.260 14.350   3.841 3.982 0.00 0.00 0.5680 0.7000 13.870 14.090 14.220 14.210   3.338 3.149 0.00000 0.00 240 0.00 0.00 0.5110 337.60 0.44 0.5850 352.200 3.963 15.943 7.893 8.048 16.288 7.775 8.512
WS7MET_125 2015-09-29 00:00:00 125 10426.0 13.990 14.180 14.290 14.330   49.250 47.420 3.532 3.309 0.00 0.00 14.580 14.530 14.810 14.170 12.870 14.080 14.210 14.340 14.450   3.899 3.478 0.00 0.00 0.6210 0.8000 13.940 14.140 14.260 14.210   3.232 3.089 0.00000 0.00 287 0.00 0.00 0.5440 336.40 0.78 0.6000 350.600 3.938 15.974 7.868 8.107 16.330 7.745 8.586
WS7MET_125 2015-09-28 23:55:00 125 10426.0 13.990 14.200 14.330 14.400   48.900 46.700 3.430 3.157 0.00 0.00 14.590 14.530 14.810 14.170 12.870 14.080 14.210 14.370 14.490   3.636 3.316 0.00 0.00 0.6210 0.7000 13.940 14.190 14.320 14.350   3.203 3.017 0.00000 0.00 370 0.00 0.00 0.5020 329.50 2.19 0.6000 346.700 3.280 15.974 7.812 8.163 16.404 7.662 8.743
WS7MET_125 2015-09-28 23:50:00 125 10426.0 14.080 14.260 14.400 14.460   49.320 46.570 3.635 3.164 0.00 0.00 14.590 14.530 14.810 14.170 12.880 14.150 14.290 14.420 14.520   4.184 3.276 0.00 0.00 0.5550 0.7000 14.010 14.210 14.370 14.420   3.364 3.037 0.00000 0.00 235 0.00 0.00 0.4310 327.70 3.55 0.5400 340.500 6.372 16.068 7.926 8.143 16.468 7.666 8.799
WS7MET_125 2015-09-28 23:45:00 125 10426.0 14.160 14.300 14.420 14.490   49.600 47.900 3.787 3.591 0.00 0.00 14.590 14.530 14.810 14.170 12.880 14.250 14.330 14.440 14.550   4.540 4.197 0.00 0.00 0.4180 0.5000 14.080 14.270 14.400 14.450   3.301 3.183 0.00000 0.00 241 0.00 0.00 0.3590 333.50 0.17 0.4450 345.800 5.426 16.151 8.011 8.140 16.500 7.901 8.597
WS7MET_125 2015-09-28 23:40:00 125 10426.0 14.190 14.350 14.470 14.550   47.970 47.180 3.342 3.432 0.00 0.00 14.600 14.520 14.810 14.180 12.880 14.280 14.360 14.490 14.660   3.522 3.653 0.00 0.00 0.4440 0.6000 14.110 14.330 14.440 14.450   3.198 3.297 0.00000 0.00 306 0.00 0.00 0.3930 333.60 0.89 0.5100 345.100 6.093 16.183 7.763 8.420 16.564 7.813 8.749
WS7MET_125 2015-09-28 23:35:00 125 10426.0 14.210 14.330 14.480 14.620   50.160 48.440 3.992 3.869 0.00 0.00 14.600 14.520 14.810 14.180 12.870 14.280 14.380 14.520 14.690   4.408 4.184 0.00 0.00 0.6080 0.8000 14.150 14.310 14.460 14.520   3.370 3.575 0.00000 0.00 209 0.00 0.00 0.5100 336.80 0.37 0.5950 351.400 4.053 16.204 8.128 8.076 16.639 8.058 8.579
WS7MET_125 2015-09-28 23:30:00 125 10426.0 14.270 14.430 14.580 14.650   49.880 47.180 3.971 3.521 0.00 0.00 14.610 14.520 14.810 14.180 12.880 14.350 14.470 14.610 14.730   4.351 3.857 0.00 0.00 0.6400 0.7000 14.150 14.380 14.520 14.550   3.665 3.277 0.00000 0.00 328 0.00 0.00 0.5530 335.70 1.29 0.6100 347.300 4.770 16.267 8.116 8.153 16.671 7.862 8.806
WS7MET_125 2015-09-28 23:25:00 125 10426.0 14.330 14.510 14.610 14.670   48.140 46.640 3.517 3.376 0.00 0.00 14.610 14.520 14.810 14.170 12.890 14.420 14.540 14.630 14.760   3.828 3.608 0.00 0.00 0.5420 0.7000 14.210 14.470 14.610 14.590   3.099 2.993 0.00000 0.00 374 0.00 0.00 0.4900 341.10 1.43 0.5650 349.700 4.154 16.330 7.860 8.469 16.693 7.782 8.907
WS7MET_125 2015-09-28 23:20:00 125 10426.0 14.440 14.570 14.660 14.710   46.790 45.200 3.212 2.975 0.00 0.00 14.610 14.520 14.810 14.160 12.890 14.490 14.600 14.700 14.790   3.540 3.224 0.00 0.00 0.6400 0.7000 14.320 14.540 14.620 14.660   3.027 2.895 0.00000 0.00 387 0.00 0.00 0.5500 342.10 0.12 0.5850 355.800 5.173 16.447 7.692 8.751 16.736 7.564 9.171
WS7MET_125 2015-09-28 23:15:00 125 10426.0 14.470 14.620 14.710 14.780   46.220 45.080 3.074 3.003 0.00 0.00 14.620 14.520 14.810 14.170 12.890 14.550 14.620 14.740 14.830   3.214 3.159 0.00 0.00 0.5420 0.7000 14.380 14.600 14.700 14.690   2.954 2.860 0.00000 0.00 473 0.00 0.00 0.4980 342.00 0.06 0.5950 355.000 5.041 16.479 7.617 8.862 16.812 7.579 9.233
WS7MET_125 2015-09-28 23:10:00 125 10426.0 14.480 14.620 14.780 14.870   47.210 45.170 3.376 3.113 0.00 0.00 14.620 14.510 14.820 14.180 12.890 14.520 14.640 14.800 14.930   3.802 3.547 0.00 0.00 0.5360 0.6000 14.420 14.610 14.740 14.830   3.048 2.857 0.00000 0.00 207 0.00 0.00 0.4980 341.90 0.17 0.5200 353.300 6.447 16.489 7.782 8.705 16.910 7.638 9.272
WS7MET_125 2015-09-28 23:05:00 125 10426.0 14.550 14.680 14.840 14.940   47.220 44.730 3.448 3.036 0.00 0.00 14.620 14.510 14.820 14.170 12.900 14.620 14.710 14.890 15.030   3.867 3.314 0.00 0.00 0.5680 0.6000 14.490 14.640 14.810 14.860   3.183 2.865 0.00000 0.00 567 0.00 0.00 0.5310 341.60 0.09 0.5800 351.000 2.102 16.564 7.822 8.743 16.986 7.597 9.388
WS7MET_125 2015-09-28 23:00:00 125 10426.0 14.580 14.740 14.920 15.030   47.780 45.050 3.643 3.217 0.00 0.00 14.630 14.500 14.810 14.170 12.900 14.660 14.760 14.930 15.100   3.998 3.420 0.00 0.00 0.6210 0.8000 14.520 14.720 14.890 14.930   3.400 3.046 0.00000 0.00 238 0.00 0.00 0.5600 341.20 0.51 0.5950 350.400 1.681 16.596 7.930 8.667 17.085 7.695 9.388
WS7MET_125 2015-09-28 22:55:00 125 10426.0 14.630 14.790 14.960 15.050   48.880 45.110 4.013 3.257 0.00 0.00 14.630 14.490 14.820 14.180 12.900 14.690 14.820 14.970 15.100   4.216 3.786 0.00 0.00 0.6010 0.7000 14.590 14.760 14.930 14.960   3.717 2.945 0.00000 0.00 267 0.00 0.00 0.5250 341.30 0.09 0.6050 351.800 2.580 16.650 8.140 8.511 17.107 7.717 9.390
WS7MET_125 2015-09-28 22:50:00 125 10426.0 14.690 14.870 15.020 15.070   48.340 45.440 3.907 3.378 0.00 0.00 14.630 14.490 14.820 14.170 12.900 14.790 14.890 15.040 15.130   4.298 3.971 0.00 0.00 0.6530 0.8000 14.590 14.840 14.990 15.000   3.432 2.953 0.00000 0.00 247 0.00 0.00 0.5900 341.50 0.32 0.6650 353.700 4.929 16.715 8.079 8.635 17.129 7.783 9.346
WS7MET_125 2015-09-28 22:45:00 125 10426.0 14.740 14.890 15.020 15.060   46.900 44.060 3.517 2.936 0.00 0.00 14.630 14.490 14.820 14.180 12.900 14.790 14.910 15.040 15.130   4.075 3.418 0.00 0.00 0.6790 0.8000 14.660 14.890 15.010 15.000   3.012 2.695 0.00000 0.00 247 0.00 0.00 0.6010 341.50 0.39 0.6600 354.700 5.090 16.769 7.860 8.904 17.118 7.543 9.576
WS7MET_125 2015-09-28 22:40:00 125 10426.0 14.820 14.970 15.080 15.070   47.030 44.640 3.636 3.123 0.00 0.00 14.640 14.490 14.820 14.170 12.900 14.900 15.020 15.090 15.130   4.109 3.524 0.00 0.00 0.5880 0.7000 14.760 14.890 15.040 14.960   2.956 2.794 0.00000 0.00 274 0.00 0.00 0.5430 341.20 0.26 0.6000 351.700 3.801 16.855 7.926 8.928 17.129 7.644 9.483
WS7MET_125 2015-09-28 22:35:00 125 10426.0 14.820 15.000 15.060 15.050   44.620 43.590 2.898 2.769 0.00 0.00 14.640 14.490 14.820 14.190 12.900 14.900 15.020 15.080 15.170   3.007 2.929 0.00 0.00 0.6600 0.8000 14.760 14.990 15.040 14.930   2.764 2.679 0.00000 0.00 321 0.00 0.00 0.5900 340.90 0.18 0.6750 352.000 6.031 16.855 7.523 9.334 17.107 7.454 9.650
WS7MET_125 2015-09-28 22:30:00 125 10426.0 14.770 14.990 15.120 15.140   46.430 44.110 3.406 3.027 0.00 0.00 14.640 14.490 14.820 14.180 12.900 14.860 15.000 15.140 15.200   3.967 3.322 0.00 0.00 0.6660 0.8000 14.690 14.970 15.090 15.070   2.842 2.776 0.00000 0.00 352 0.00 0.00 0.6140 341.20 0.62 0.6600 352.500 5.229 16.801 7.798 9.000 17.206 7.592 9.617
WS7MET_125 2015-09-28 22:25:00 125 10426.0 14.780 15.000 15.130 15.140   46.160 43.370 3.336 2.784 0.00 0.00 14.640 14.480 14.820 14.170 12.910 14.860 15.010 15.150 15.240   3.557 2.878 0.00 0.00 0.6730 0.8000 14.690 14.990 15.130 15.070   3.076 2.659 0.00000 0.00 245 0.00 0.00 0.6200 343.90 2.50 0.6700 354.400 3.790 16.812 7.760 9.052 17.206 7.462 9.744
WS7MET_125 2015-09-28 22:20:00 125 10426.0 14.850 15.010 15.140 15.150   47.070 44.770 3.674 3.239 0.00 0.00 14.650 14.470 14.820 14.170 12.910 14.900 15.040 15.150 15.240   4.029 3.532 0.00 0.00 0.6080 0.7000 14.790 14.990 15.140 15.100   3.443 2.889 0.00000 0.00 320 0.00 0.00 0.5200 344.90 3.14 0.5900 356.000 4.247 16.888 7.948 8.939 17.217 7.707 9.509
WS7MET_125 2015-09-28 22:15:00 125 10426.0 14.890 15.060 15.160 15.210   47.010 45.240 3.693 3.440 0.00 0.00 14.650 14.470 14.820 14.170 12.910 15.000 15.080 15.190 15.340   3.888 3.689 0.00 0.00 0.6530 0.7000 14.790 15.040 15.140 15.100   3.433 3.278 0.00000 0.00 273 0.00 0.00 0.5230 341.70 0.44 0.5850 355.000 4.950 16.932 7.958 8.972 17.284 7.817 9.465
WS7MET_125 2015-09-28 22:10:00 125 10426.0 14.970 15.140 15.240 15.300   46.710 45.370 3.679 3.570 0.00 0.00 14.650 14.470 14.820 14.170 12.910 15.100 15.190 15.280 15.370   3.889 3.668 0.00 0.00 0.6400 0.8000 14.860 15.100 15.200 15.240   3.495 3.499 0.00000 0.00 410 0.00 0.00 0.5680 341.20 0.94 0.6650 354.900 5.479 17.019 7.950 9.069 17.384 7.889 9.497
WS7MET_125 2015-09-28 22:05:00 125 10426.0 15.030 15.220 15.340 15.400   47.420 45.240 3.942 3.613 0.00 0.00 14.650 14.470 14.820 14.170 12.920 15.100 15.250 15.370 15.440   4.527 3.867 0.00 0.00 0.6530 0.7000 14.960 15.190 15.290 15.310   3.526 3.507 0.00000 0.00 392 0.00 0.00 0.4430 342.10 0.87 0.5000 354.800 5.354 17.085 8.099 8.983 17.496 7.913 9.581
WS7MET_125 2015-09-28 22:00:00 125 10426.0 15.060 15.270 15.400 15.410   48.270 45.100 4.223 3.577 0.00 0.00 14.660 14.470 14.830 14.170 12.920 15.170 15.280 15.420 15.480   4.659 4.046 0.00 0.00 0.6270 0.8000 14.960 15.250 15.370 15.340   3.734 3.409 0.00000 0.00 424 0.00 0.00 0.5860 340.00 0.53 0.6400 352.500 3.765 17.118 8.261 8.855 17.507 7.893 9.611
WS7MET_125 2015-09-28 21:55:00 125 10426.0 15.040 15.230 15.390 15.430   48.230 45.680 4.199 3.781 0.00 0.00 14.660 14.470 14.820 14.180 12.920 15.170 15.250 15.420 15.540   4.746 4.077 0.00 0.00 0.6660 0.9000 14.960 15.210 15.370 15.370   3.826 3.517 0.00000 0.00 549 0.00 0.00 0.6290 338.40 1.35 0.7400 353.900 5.160 17.096 8.247 8.851 17.530 8.008 9.522
WS7MET_125 2015-09-28 21:50:00 125 10426.0 15.050 15.230 15.370 15.450   48.240 45.880 4.206 3.864 0.00 0.00 14.660 14.460 14.830 14.180 12.920 15.100 15.230 15.390 15.540   4.356 3.982 0.00 0.00 0.7060 0.8000 14.960 15.210 15.350 15.370   4.031 3.687 0.00000 0.00 242 0.00 0.00 0.6440 336.70 0.12 0.7200 346.000 4.089 17.107 8.251 8.855 17.552 8.055 9.499
WS7MET_125 2015-09-28 21:45:00 125 10426.0 15.060 15.240 15.380 15.460   48.690 45.240 4.350 3.669 0.00 0.00 14.660 14.460 14.830 14.180 12.930 15.170 15.270 15.390 15.610   4.742 3.835 0.00 0.00 0.6860 0.8000 14.960 15.230 15.360 15.370   3.859 3.528 0.00000 0.00 312 0.00 0.00 0.6490 338.60 1.09 0.7450 351.300 5.038 17.118 8.335 8.783 17.563 7.945 9.618
WS7MET_125 2015-09-28 21:40:00 125 10426.0 15.200 15.320 15.440 15.520   46.550 44.510 3.840 3.497 0.00 0.00 14.660 14.450 14.830 14.180 12.930 15.310 15.370 15.470 15.610   4.443 4.055 0.00 0.00 0.6660 0.8000 15.130 15.270 15.390 15.440   3.522 3.294 0.00000 0.00 388 0.00 0.00 0.5860 340.50 2.88 0.6700 352.700 5.063 17.273 8.041 9.232 17.631 7.849 9.784
WS7MET_125 2015-09-28 21:35:00 125 10426.0 15.250 15.400 15.510 15.620   45.190 43.830 3.463 3.365 0.00 0.00 14.660 14.450 14.830 14.180 12.930 15.340 15.450 15.550 16.060   3.817 3.976 0.00 0.00 0.5620 0.7000 15.130 15.370 15.480 15.510   3.257 3.194 0.00000 0.00 233 0.00 0.00 0.4970 342.50 0.24 0.5500 354.800 5.144 17.328 7.830 9.498 17.745 7.776 9.967
WS7MET_125 2015-09-28 21:30:00 125 10426.0 15.230 15.430 15.570 15.650   46.140 43.410 3.736 3.259 0.00 0.00 14.660 14.450 14.830 14.190 12.930 15.340 15.450 15.590 15.750   4.475 3.527 0.00 0.00 0.6660 0.7000 15.130 15.410 15.550 15.540   3.188 3.176 0.00000 0.00 277 0.00 0.00 0.5360 342.20 0.29 0.5950 353.300 5.692 17.306 7.982 9.321 17.779 7.718 10.061
WS7MET_125 2015-09-28 21:25:00 125 10426.0 15.200 15.420 15.580 15.650   46.980 43.730 3.964 3.361 0.00 0.00 14.660 14.440 14.830 14.180 12.940 15.310 15.450 15.590 15.750   4.420 3.805 0.00 0.00 0.6660 0.8000 15.100 15.390 15.570 15.540   3.543 3.154 0.00000 0.00 426 0.00 0.00 0.6330 338.30 1.39 0.6950 350.400 6.954 17.273 8.112 9.158 17.779 7.774 10.004
WS7MET_125 2015-09-28 21:20:00 125 10426.0 15.240 15.500 15.630 15.690   45.970 43.040 3.693 3.175 0.00 0.00 14.660 14.440 14.840 14.180 12.940 15.340 15.510 15.640 15.750   4.015 3.377 0.00 0.00 0.6860 0.9000 15.130 15.470 15.610 15.610   3.469 3.036 0.00000 0.00 235 0.00 0.00 0.6200 334.40 0.17 0.6950 347.100 3.988 17.317 7.958 9.356 17.824 7.672 10.153
WS7MET_125 2015-09-28 21:15:00 125 10426.0 15.350 15.530 15.660 15.740   47.000 43.450 4.109 3.353 0.00 0.00 14.660 14.440 14.840 14.170 12.950 15.440 15.540 15.680 15.820   4.446 3.664 0.00 0.00 0.6660 1.0000 15.270 15.510 15.640 15.650   3.627 3.168 0.00000 0.00 213 0.00 0.00 0.5830 336.30 3.53 0.6700 347.300 4.024 17.440 8.195 9.243 17.881 7.769 10.112
WS7MET_125 2015-09-28 21:10:00 125 10426.0 15.420 15.580 15.710 15.810   46.090 43.150 3.901 3.313 0.00 0.00 14.660 14.430 14.840 14.180 12.950 15.540 15.600 15.730 15.950   4.314 3.823 0.00 0.00 0.5680 0.7000 15.340 15.540 15.680 15.710   3.440 3.063 0.00000 0.00 370 0.00 0.00 0.5280 339.30 0.57 0.5750 351.600 4.635 17.518 8.076 9.444 17.962 7.747 10.211
WS7MET_125 2015-09-28 21:05:00 125 10426.0 15.570 15.680 15.790 15.900   45.480 43.050 3.844 3.370 0.00 0.00 14.660 14.440 14.830 14.180 12.950 15.710 15.770 15.870 15.950   4.471 3.904 0.00 0.00 0.5620 0.7000 15.410 15.600 15.740 15.780   3.410 2.969 0.00000 0.00 314 0.00 0.00 0.4650 340.10 0.43 0.5400 349.900 2.267 17.688 8.043 9.643 18.065 7.779 10.288
WS7MET_125 2015-09-28 21:00:00 125 10426.0 15.790 15.860 15.920 15.950   44.280 42.410 3.655 3.200 0.00 0.00 14.660 14.450 14.830 14.180 12.960 15.880 15.930 15.960 16.020   4.398 3.728 0.00 0.00 0.5620 0.7000 15.710 15.800 15.870 15.890   2.961 2.846 0.00000 0.00 378 0.00 0.00 0.4510 337.50 4.36 0.5700 345.900 5.887 17.939 7.937 9.995 18.123 7.686 10.437
WS7MET_125 2015-09-28 20:55:00 125 10426.0 15.770 15.960 16.030 16.060   42.840 41.370 3.179 2.946 0.00 0.00 14.660 14.420 14.840 14.180 12.960 15.850 15.990 16.070 16.160   3.736 3.043 0.00 0.00 0.6730 0.8000 15.680 15.930 15.980 15.990   2.910 2.863 0.00000 0.00 521 0.00 0.00 0.5990 345.90 13.97 0.6750 4.743 6.098 17.916 7.674 10.241 18.251 7.548 10.701
WS7MET_125 2015-09-28 20:50:00 125 10426.0 15.720 15.950 16.080 16.110   43.790 41.500 3.442 3.035 0.00 0.00 14.660 14.420 14.840 14.180 12.960 15.820 15.970 16.090 16.190   4.190 3.269 0.00 0.00 0.6600 0.9000 15.610 15.930 16.070 16.050   3.051 2.797 0.00000 0.00 240 0.00 0.00 0.5780 339.40 1.01 0.6900 353.400 3.053 17.859 7.818 10.038 18.309 7.596 10.711
WS7MET_125 2015-09-28 20:45:00 125 10426.0 15.780 15.930 16.070 16.160   44.960 41.430 3.876 3.054 0.00 0.00 14.660 14.420 14.840 14.180 12.960 15.880 15.980 16.110 16.260   4.231 3.735 0.00 0.00 0.5620 0.7000 15.710 15.900 16.050 16.020   3.357 2.809 0.00000 0.00 249 0.00 0.00 0.4940 339.30 3.44 0.6000 353.600 4.347 17.927 8.062 9.867 18.368 7.606 10.758
WS7MET_125 2015-09-28 20:40:00 125 10426.0 15.870 16.050 16.200 16.360   42.920 40.640 3.288 2.965 0.00 0.00 14.640 14.410 14.840 14.180 12.970 15.950 16.140 16.310 16.500   4.098 3.205 0.00 0.00 0.5750 0.7000 15.780 15.990 16.110 16.160   2.769 2.652 0.00000 0.00 455 0.00 0.00 0.4020 331.80 2.12 0.5300 346.700 8.700 18.031 7.734 10.292 18.603 7.559 11.043
WS7MET_125 2015-09-28 20:35:00 125 10426.0 16.070 16.280 16.460 16.560   44.370 40.710 3.941 3.166 0.00 0.00 14.650 14.410 14.840 14.180 12.970 16.190 16.430 16.620 16.630   4.497 3.836 0.00 0.00 0.6400 1.1000 15.920 16.160 16.320 16.460   3.181 2.347 0.00000 0.00 246 0.00 0.00 0.3620 358.60 49.14 0.5100 1.104 50.530 18.263 8.099 10.159 18.842 7.667 11.171
WS7MET_125 2015-09-28 20:30:00 125 10426.0 16.240 16.310 16.440 16.600   44.010 41.250 3.984 3.395 0.00 0.00 14.650 14.410 14.840 14.180 12.980 16.360 16.410 16.530 16.740   4.463 3.873 0.00 0.00 0.6010 0.7000 16.090 16.210 16.330 16.400   3.137 3.077 0.00000 0.00 273 0.00 0.00 0.3980 344.30 16.43 0.4750 354.800 12.090 18.462 8.123 10.337 18.890 7.792 11.098
WS7MET_125 2015-09-28 20:25:00 125 10426.0 16.470 16.520 16.640 16.810   42.830 40.340 3.804 3.265 0.00 0.00 14.650 14.400 14.850 14.180 12.980 16.600 16.630 16.750 16.940   4.185 3.474 0.00 0.00 0.5950 0.7000 16.260 16.410 16.540 16.700   3.229 3.112 0.00000 0.00 312 0.00 0.00 0.4450 342.70 0.84 0.5250 353.400 5.986 18.734 8.021 10.710 19.143 7.721 11.421
WS7MET_125 2015-09-28 20:20:00 125 10426.0 16.740 16.770 16.880 17.020   41.540 40.170 3.619 3.392 0.00 0.00 14.640 14.400 14.850 14.180 12.990 16.900 16.920 17.020 17.140   4.373 3.554 0.00 0.00 0.6010 0.6000 16.560 16.640 16.750 16.800   3.153 3.143 0.00000 0.00 235 0.00 0.00 0.3780 336.70 6.99 0.4450 349.700 8.230 19.058 7.917 11.142 19.400 7.791 11.607
WS7MET_125 2015-09-28 20:15:00 125 10426.0 16.880 17.010 17.120 17.230   40.660 39.080 3.439 3.194 0.00 0.00 14.630 14.400 14.850 14.180 12.990 16.940 17.080 17.220 17.350   4.062 3.527 0.00 0.00 0.6930 1.0000 16.840 16.940 17.040 17.070   3.117 2.830 0.00000 0.00 279 0.00 0.00 0.5080 321.70 12.83 0.6100 328.200 18.280 19.229 7.817 11.410 19.660 7.682 11.977
WS7MET_125 2015-09-28 20:10:00 125 10426.0 16.980 17.150 17.300 17.390   40.160 37.850 3.341 2.882 0.00 0.00 14.630 14.390 14.850 14.180 13.000 17.040 17.180 17.350 17.480   4.829 3.551 0.00 0.00 0.4770 0.7000 16.900 17.090 17.220 17.310   2.660 2.342 0.00000 0.00 205 0.00 0.00 0.3790 333.00 0.66 0.5100 344.100 6.513 19.351 7.763 11.580 19.859 7.514 12.343
WS7MET_125 2015-09-28 20:05:00 125 10426.0 17.080 17.230 17.400 17.520   40.580 36.340 3.591 2.429 0.00 0.00 14.630 14.390 14.850 14.180 13.000 17.210 17.330 17.460 17.590   4.118 2.729 0.00 0.00 0.6340 0.7000 16.970 17.180 17.350 17.410   2.901 2.231 0.00000 0.00 237 0.00 0.00 0.5500 341.30 3.34 0.6000 352.200 5.748 19.474 7.901 11.571 20.023 7.276 12.747
WS7MET_125 2015-09-28 20:00:00 125 10426.0 17.270 17.430 17.580 17.710   40.230 36.220 3.635 2.553 0.00 0.00 14.630 14.380 14.850 14.180 13.000 17.380 17.540 17.660 17.820   4.852 3.252 0.00 0.00 0.6340 0.6000 17.140 17.340 17.480 17.590   2.733 2.206 0.00000 0.00 237 0.00 0.00 0.3520 337.00 10.93 0.4450 348.400 23.380 19.709 7.926 11.780 20.264 7.340 12.925
WS7MET_125 2015-09-28 19:55:00 125 10426.0 17.460 17.640 17.780 17.920   39.640 35.130 3.600 2.309 0.00 0.00 14.630 14.380 14.850 14.180 13.010 17.550 17.780 17.910 18.030   4.441 2.571 0.00 0.00 0.7190 1.1000 17.310 17.550 17.690 17.760   2.768 2.084 0.00000 0.00 209 0.00 0.00 0.5390 339.00 21.72 0.6500 355.900 16.870 19.947 7.906 12.040 20.534 7.214 13.321
WS7MET_125 2015-09-28 19:50:00 125 10426.0 17.570 17.830 17.980 18.090   37.720 34.610 2.996 2.246 0.00 0.00 14.620 14.380 14.850 14.180 13.010 17.650 17.880 18.050 18.230   3.673 2.717 0.00 0.00 0.6600 0.8000 17.480 17.790 17.930 17.990   2.417 1.958 0.00000 0.00 279 0.00 0.00 0.5050 337.00 7.70 0.5900 345.900 12.420 20.086 7.575 12.510 20.755 7.181 13.572
WS7MET_125 2015-09-28 19:45:00 125 10426.0 17.660 17.940 18.110 18.230   41.250 36.000 4.331 2.901 0.00 0.00 14.610 14.370 14.850 14.180 13.020 17.790 18.040 18.210 18.300   5.814 4.400 0.00 0.00 0.4700 0.6000 17.520 17.880 18.050 18.160   3.146 1.917 0.00000 0.00 238 0.00 0.00 0.3530 348.00 4.31 0.4450 359.800 11.670 20.201 8.324 11.868 20.938 7.524 13.400
WS7MET_125 2015-09-28 19:40:00 125 10426.0 17.750 18.070 18.230 18.250   42.100 36.890 4.700 3.276 0.00 0.00 14.610 14.370 14.850 14.180 13.020 17.820 18.080 18.250 18.340   5.737 4.626 0.00 0.00 0.7840 0.8000 17.620 18.060 18.210 18.200   2.667 2.088 0.00000 0.00 212 0.00 0.00 0.5420 332.10 7.44 0.6350 347.800 11.490 20.316 8.542 11.763 20.964 7.727 13.231
WS7MET_125 2015-09-28 19:35:00 125 10426.0 17.650 17.940 18.100 18.120   39.300 34.680 3.643 2.305 0.00 0.00 14.610 14.360 14.850 14.180 13.030 17.760 18.050 18.180 18.230   4.022 2.723 0.00 0.00 0.8690 1.0000 17.550 17.850 18.000 18.030   2.727 1.942 0.00000 0.00 244 0.00 0.00 0.5660 333.20 18.03 0.6800 345.900 18.150 20.188 7.930 12.254 20.794 7.212 13.583
WS7MET_125 2015-09-28 19:30:00 125 10426.0 17.610 17.850 18.010 18.050   40.600 36.820 4.067 3.077 0.00 0.00 14.600 14.350 14.850 14.180 13.040 17.690 17.880 18.020 18.130   5.176 3.792 0.00 0.00 0.8560 1.1000 17.550 17.810 17.980 17.960   3.035 2.326 0.00000 0.00 244 0.00 0.00 0.6180 336.50 14.61 0.7050 350.900 11.980 20.137 8.171 11.961 20.703 7.619 13.080
WS7MET_125 2015-09-28 19:25:00 125 10426.0 17.650 17.880 18.020 18.060   42.600 37.790 4.794 3.458 0.00 0.00 14.590 14.350 14.850 14.180 13.050 17.790 17.910 18.050 18.130   5.307 3.865 0.00 0.00 0.7190 1.0000 17.550 17.840 18.000 17.960   3.673 3.197 0.00000 0.00 282 0.00 0.00 0.6380 345.50 7.93 0.7350 358.700 9.980 20.188 8.598 11.588 20.716 7.827 12.887
WS7MET_125 2015-09-28 19:20:00 125 10426.0 17.700 17.910 18.050 18.070   40.590 37.750 4.156 3.452 0.00 0.00 14.590 14.350 14.850 14.180 13.050 17.790 17.930 18.070 18.130   4.790 3.869 0.00 0.00 0.7770 1.0000 17.580 17.900 18.030 17.990   3.818 3.358 0.00000 0.00 396 0.00 0.00 0.6620 342.90 3.78 0.7750 0.192 13.110 20.252 8.222 12.032 20.729 7.824 12.904
WS7MET_125 2015-09-28 19:15:00 125 10426.0 17.790 18.010 18.110 18.110   40.360 37.720 4.156 3.478 0.00 0.00 14.590 14.350 14.850 14.180 13.060 17.890 18.050 18.140 18.270   4.588 3.788 0.00 0.00 0.6340 0.8000 17.720 17.940 18.070 18.060   3.818 3.169 0.00000 0.00 234 0.00 0.00 0.5860 342.90 2.36 0.7050 357.200 3.741 20.367 8.222 12.147 20.781 7.838 12.942
WS7MET_125 2015-09-28 19:10:00 125 10426.0 17.810 18.040 18.140 18.130   39.750 36.800 3.950 3.150 0.00 0.00 14.580 14.350 14.850 14.180 13.070 17.890 18.060 18.150 18.200   4.445 3.243 0.00 0.00 0.8430 0.9000 17.750 18.020 18.130 18.060   3.658 3.015 0.00000 0.00 239 0.00 0.00 0.6840 346.10 1.55 0.7650 0.000 1.799 20.393 8.104 12.286 20.807 7.658 13.150
WS7MET_125 2015-09-28 19:05:00 125 10426.0 17.860 18.100 18.200 18.220   40.030 36.260 4.099 3.020 0.00 0.00 14.570 14.340 14.860 14.180 13.070 17.920 18.150 18.240 18.300   4.447 3.106 0.00 0.00 0.7060 0.7000 17.790 18.060 18.150 18.160   3.786 2.853 0.00000 0.00 246 0.00 0.00 0.6090 348.20 2.48 0.6200 2.647 5.243 20.457 8.189 12.268 20.925 7.588 13.338
WS7MET_125 2015-09-28 19:00:00 125 10426.0 17.930 18.180 18.260 18.270   40.900 35.800 4.469 2.880 0.00 0.00 14.570 14.340 14.860 14.180 13.080 18.030 18.210 18.270 18.330   4.767 3.135 0.00 0.00 0.7450 0.8000 17.860 18.150 18.240 18.160   4.129 2.723 0.00000 0.00 238 0.00 0.00 0.5960 339.90 12.89 0.6900 358.500 6.435 20.547 8.405 12.143 20.991 7.513 13.476
WS7MET_125 2015-09-28 18:55:00 125 10426.0 17.910 18.210 18.310 18.350   41.080 35.280 4.510 2.750 0.00 0.00 14.560 14.330 14.860 14.180 13.090 18.030 18.230 18.370 18.440   4.958 2.820 0.00 0.00 0.6080 0.7000 17.820 18.190 18.270 18.260   4.067 2.631 0.00000 0.00 276 0.00 0.00 0.4920 349.60 15.06 0.5850 8.950 7.562 20.521 8.429 12.091 21.096 7.444 13.654
WS7MET_125 2015-09-28 18:50:00 125 10426.0 17.940 18.220 18.370 18.420   40.890 35.620 4.471 2.946 0.00 0.00 14.550 14.330 14.860 14.180 13.090 18.030 18.230 18.380 18.500   5.313 3.536 0.00 0.00 0.5950 0.7000 17.890 18.210 18.360 18.370   3.714 2.751 0.00000 0.00 210 0.00 0.00 0.4740 340.70 22.98 0.5800 5.720 8.410 20.560 8.406 12.153 21.189 7.548 13.642
WS7MET_125 2015-09-28 18:45:00 125 10426.0 18.040 18.260 18.420 18.460   40.010 35.230 4.258 2.827 0.00 0.00 14.540 14.330 14.860 14.180 13.100 18.130 18.330 18.470 18.570   4.583 2.911 0.00 0.00 0.7190 0.9000 17.920 18.230 18.380 18.370   3.882 2.751 0.00000 0.00 309 0.00 0.00 0.5590 347.70 15.60 0.6250 6.560 6.050 20.690 8.281 12.412 21.242 7.485 13.759
WS7MET_125 2015-09-28 18:40:00 125 10426.0 18.110 18.350 18.490 18.510   38.280 34.910 3.685 2.739 0.00 0.00 14.530 14.320 14.860 14.180 13.110 18.160 18.360 18.500 18.570   4.010 2.816 0.00 0.00 0.6600 0.8000 18.020 18.320 18.470 18.430   3.235 2.643 0.00000 0.00 390 0.00 0.00 0.5370 343.60 3.66 0.6300 358.600 6.047 20.781 7.954 12.826 21.309 7.438 13.870
WS7MET_125 2015-09-28 18:35:00 125 10426.0 18.130 18.360 18.500 18.560   37.640 34.650 3.463 2.676 0.00 0.00 14.520 14.320 14.860 14.180 13.110 18.200 18.370 18.530 18.640   4.003 2.830 0.00 0.00 0.7640 0.9000 18.060 18.340 18.490 18.470   3.092 2.581 0.00000 0.00 397 0.00 0.00 0.5790 351.60 9.77 0.6450 0.419 24.990 20.807 7.830 12.975 21.376 7.405 13.969
WS7MET_125 2015-09-28 18:30:00 125 10426.0 18.150 18.400 18.540 18.590   39.740 34.810 4.250 2.773 0.00 0.00 14.510 14.310 14.860 14.180 13.120 18.230 18.420 18.560 18.670   5.024 2.997 0.00 0.00 0.7710 0.9000 18.060 18.370 18.530 18.470   3.682 2.613 0.00000 0.00 251 0.00 0.00 0.5940 352.90 8.31 0.7000 7.201 9.850 20.833 8.276 12.554 21.416 7.456 13.961
WS7MET_125 2015-09-28 18:25:00 125 10426.0 18.150 18.390 18.530 18.570   39.340 34.940 4.106 2.809 0.00 0.00 14.500 14.310 14.860 14.180 13.130 18.230 18.430 18.540 18.640   4.814 2.934 0.00 0.00 0.7840 1.0000 18.060 18.370 18.520 18.500   3.300 2.648 0.00000 0.00 330 0.00 0.00 0.6390 344.40 20.16 0.7300 4.868 10.190 20.833 8.193 12.637 21.389 7.475 13.916
WS7MET_125 2015-09-28 18:20:00 125 10426.0 18.190 18.440 18.560 18.590   38.630 34.850 3.880 2.786 0.00 0.00 14.500 14.310 14.860 14.180 13.140 18.260 18.460 18.580 18.710   4.667 3.397 0.00 0.00 0.7640 0.9000 18.130 18.380 18.540 18.540   3.121 2.592 0.00000 0.00 363 0.00 0.00 0.5780 344.30 2.72 0.6650 359.000 4.988 20.886 8.064 12.817 21.416 7.463 13.952
WS7MET_125 2015-09-28 18:15:00 125 10426.0 18.220 18.430 18.540 18.530   38.580 34.700 3.891 2.676 0.00 0.00 14.480 14.300 14.860 14.180 13.150 18.330 18.460 18.570 18.670   5.062 2.920 0.00 0.00 0.8100 0.9000 18.090 18.410 18.520 18.470   3.038 2.507 0.00000 0.00 384 0.00 0.00 0.6360 353.00 7.34 0.7100 6.571 9.100 20.925 8.070 12.852 21.336 7.405 13.932
WS7MET_125 2015-09-28 18:10:00 125 10426.0 18.380 18.480 18.520 18.550   36.880 34.950 3.394 2.793 0.00 0.00 14.470 14.300 14.860 14.170 13.160 18.430 18.540 18.570 18.640   3.980 2.945 0.00 0.00 0.7910 0.9000 18.260 18.440 18.500 18.430   3.076 2.558 0.00000 0.00 424 0.00 0.00 0.6710 355.70 7.20 0.7250 10.230 8.400 21.136 7.792 13.341 21.362 7.467 13.896
WS7MET_125 2015-09-28 18:05:00 125 10426.0 18.520 18.620 18.720 18.850   37.800 34.710 3.870 2.962 0.00 0.00 14.450 14.290 14.860 14.180 13.170 18.600 18.730 18.830 18.980   4.641 3.170 0.00 0.00 0.7320 0.9000 18.370 18.550 18.580 18.710   3.410 2.849 0.00000 0.00 242 0.00 0.00 0.5610 341.80 6.12 0.6800 358.100 6.539 21.322 8.058 13.262 21.767 7.557 14.212
WS7MET_125 2015-09-28 18:00:00 125 10426.0 18.610 18.800 18.960 19.100   37.190 34.090 3.718 2.930 0.81 0.00 14.450 14.280 14.860 14.180 13.180 18.710 18.890 19.050 19.220   4.307 3.066 1.34 0.00 0.7320 0.8000 18.540 18.730 18.850 18.980   3.358 2.696 0.00000 0.00 465 0.00 0.00 0.5890 342.80 12.76 0.6650 0.303 5.610 21.443 7.972 13.468 22.109 7.540 14.572
WS7MET_125 2015-09-28 17:55:00 125 10426.0 18.730 18.930 19.140 19.280   36.500 33.040 3.561 2.640 1.54 0.00 14.430 14.280 14.870 14.180 13.190 18.880 18.960 19.190 19.390   3.881 2.812 2.68 0.00 0.7970 0.8000 18.640 18.890 19.060 19.220   3.166 2.509 0.00000 0.00 277 0.00 0.00 0.6700 343.70 13.31 0.7400 2.236 5.018 21.604 7.884 13.719 22.358 7.386 14.971
WS7MET_125 2015-09-28 17:50:00 125 10426.0 18.800 19.010 19.240 19.350   35.950 32.030 3.406 2.271 2.68 0.00 14.420 14.280 14.860 14.180 13.210 18.950 19.080 19.280 19.420   3.768 2.612 2.68 0.00 0.6990 0.9000 18.710 18.960 19.190 19.290   2.842 1.941 0.00000 0.00 244 0.00 0.00 0.6350 342.50 1.77 0.7100 356.900 5.242 21.699 7.798 13.898 22.456 7.194 15.263
WS7MET_125 2015-09-28 17:45:00 125 10426.0 18.850 19.070 19.300 19.440   35.390 31.370 3.228 2.057 4.03 0.00 14.410 14.280 14.860 14.180 13.220 18.910 19.100 19.330 19.560   3.723 2.211 4.03 0.00 0.7710 1.0000 18.780 19.040 19.280 19.360   2.665 1.894 0.00000 0.00 276 0.00 0.00 0.6510 339.30 9.78 0.7250 355.700 7.853 21.767 7.701 14.064 22.582 7.085 15.498
WS7MET_125 2015-09-28 17:40:00 125 10426.0 18.950 19.140 19.410 19.570   37.930 30.970 4.298 1.985 4.03 0.00 14.390 14.270 14.860 14.180 13.230 19.080 19.250 19.490 19.660   5.428 2.194 4.03 0.00 0.8100 1.0000 18.880 19.060 19.340 19.490   3.350 1.618 0.00000 0.00 249 0.00 0.00 0.6960 337.30 3.64 0.7750 351.200 5.688 21.903 8.304 13.595 22.765 7.049 15.715
WS7MET_125 2015-09-28 17:35:00 125 10426.0 19.070 19.300 19.550 19.740   36.920 31.200 4.012 2.241 4.70 0.00 14.380 14.270 14.860 14.180 13.240 19.180 19.400 19.630 19.870   4.914 2.735 5.37 0.00 0.7380 0.9000 19.010 19.260 19.500 19.630   2.831 1.821 0.00000 0.00 328 0.00 0.00 0.6040 336.10 7.58 0.6800 355.000 7.272 22.068 8.139 13.920 23.007 7.179 15.829
WS7MET_125 2015-09-28 17:30:00 125 10426.0 19.180 19.410 19.680 19.920   37.050 31.170 4.169 2.382 5.70 0.00 14.360 14.260 14.870 14.180 13.260 19.290 19.500 19.750 20.070   5.179 2.809 6.71 0.00 0.6930 1.6000 19.080 19.380 19.630 19.760   3.224 2.097 0.00000 0.00 237 0.00 0.00 0.5470 321.40 26.33 0.7050 331.700 21.820 22.220 8.229 13.987 23.265 7.251 16.013
WS7MET_125 2015-09-28 17:25:00 125 10426.0 19.320 19.600 19.860 20.110   37.070 31.240 4.305 2.584 7.85 0.47 14.360 14.260 14.870 14.180 13.280 19.420 19.670 19.940 20.240   5.485 3.018 9.39 1.34 0.6470 1.0000 19.220 19.510 19.770 19.970   3.499 2.321 0.00000 0.00 384 0.00 0.00 0.5200 324.60 15.82 0.6400 339.600 14.250 22.414 8.308 14.105 23.540 7.357 16.186
WS7MET_125 2015-09-28 17:20:00 125 10426.0 19.460 19.750 20.070 20.420   37.470 30.970 4.584 2.724 11.40 1.48 14.340 14.260 14.870 14.190 13.290 19.590 19.880 20.240 20.650   5.049 3.197 13.42 2.68 0.5950 0.7000 19.290 19.670 19.960 20.210   3.880 2.498 0.00000 0.00 277 0.00 0.00 0.4790 333.00 10.08 0.5750 344.000 9.770 22.610 8.473 14.138 23.995 7.430 16.564
WS7MET_125 2015-09-28 17:15:00 125 10426.0 19.610 19.960 20.360 20.730   36.420 29.730 4.304 2.415 15.16 2.68 14.330 14.250 14.870 14.180 13.310 19.700 20.050 20.430 20.860   5.033 3.053 16.10 2.68 0.8230 0.8000 19.490 19.880 20.270 20.580   3.130 0.558 0.00000 0.00 273 0.00 0.00 0.2700 295.10 32.49 0.5250 306.400 35.120 22.822 8.308 14.510 24.458 7.268 17.186
WS7MET_125 2015-09-28 17:10:00 125 10426.0 19.710 20.170 20.550 20.960   34.880 28.430 3.781 1.987 17.84 3.56 14.320 14.250 14.870 14.190 13.320 19.800 20.250 20.650 21.090   4.644 2.445 18.78 4.03 0.5750 0.7000 19.660 20.090 20.460 20.860   2.838 0.895 0.00000 0.00 288 0.00 0.00 0.2280 321.20 17.34 0.4250 333.000 37.480 22.964 8.008 14.954 24.806 7.050 17.754
WS7MET_125 2015-09-28 17:05:00 125 10426.0 19.850 20.340 20.710 20.980   33.420 27.490 3.298 1.533 20.06 4.03 14.300 14.250 14.870 14.190 13.330 19.900 20.420 20.790 21.090   4.154 2.169 21.47 4.03 1.1560 1.5000 19.730 20.270 20.670 20.860   2.341 0.176 0.00000 0.00 246 0.00 0.00 0.4340 285.10 48.83 0.6700 295.000 37.820 23.164 7.739 15.423 24.837 6.824 18.009
WS7MET_125 2015-09-28 17:00:00 125 10426.0 19.860 20.210 20.580 20.870   33.400 27.400 3.286 1.392 22.07 4.03 14.290 14.250 14.880 14.190 13.340 19.940 20.350 20.710 20.960   4.536 2.205 22.81 4.03 0.4770 0.7000 19.730 20.090 20.470 20.750   0.968 -0.023 0.00000 0.00 207 0.00 0.00 0.1040 307.70 34.35 0.3700 327.700 80.900 23.178 7.732 15.437 24.669 6.755 17.910
WS7MET_125 2015-09-28 16:55:00 125 10426.0 20.050 20.330 20.560 20.820   32.460 27.650 3.060 1.480 23.81 4.03 14.270 14.250 14.880 14.190 13.350 20.140 20.370 20.580 20.890   3.983 1.688 24.15 4.03 0.3590 0.6000 19.970 20.240 20.550 20.750   2.334 0.525 0.00000 0.00 468 0.00 0.00 0.0660 316.60 16.25 0.2650 322.200 42.820 23.453 7.610 15.840 24.594 6.798 17.793
WS7MET_125 2015-09-28 16:50:00 125 10426.0 20.150 20.380 20.610 20.940   33.930 28.850 3.774 2.174 25.29 4.90 14.260 14.250 14.880 14.190 13.360 20.240 20.420 20.660 21.060   4.822 2.899 25.49 5.37 0.6730 0.8000 20.070 20.360 20.550 20.820   2.472 0.967 0.00000 0.00 281 0.00 0.00 0.3420 331.60 33.65 0.5200 351.300 25.260 23.598 8.004 15.591 24.776 7.144 17.628
WS7MET_125 2015-09-28 16:45:00 125 10426.0 20.380 20.540 20.840 21.290   36.520 29.550 5.024 2.819 13.08 1.41 14.250 14.250 14.880 14.190 13.360 20.580 20.730 21.040 21.610   6.019 3.215 25.49 5.37 0.8170 0.9000 20.210 20.410 20.660 21.030   3.153 2.144 0.00000 0.00 371 0.00 0.00 0.5150 334.80 18.42 0.5950 346.600 21.050 23.936 8.737 15.194 25.314 7.481 17.833
WS7MET_125 2015-09-28 16:40:00 125 10426.0 20.870 20.980 21.330 21.950   35.440 28.220 5.034 2.732 10.73 0.00 14.230 14.240 14.880 14.190 13.380 21.160 21.230 21.600 22.250   5.830 3.601 10.73 0.00 0.5620 0.8000 20.650 20.760 21.080 21.570   4.090 2.130 0.00000 0.00 207 0.00 0.00 0.2010 331.60 17.59 0.4500 338.700 24.860 24.669 8.743 15.927 26.356 7.434 18.918
WS7MET_125 2015-09-28 16:35:00 125 10426.0 21.480 21.600 21.930 22.620   34.480 27.060 5.157 2.684 15.36 1.88 14.210 14.250 14.880 14.190 13.400 21.850 21.980 22.270 22.940   6.989 4.800 32.20 5.37 0.5420 0.8000 21.230 21.260 21.650 22.290   2.994 0.278 0.00000 0.00 355 0.00 0.00 0.1550 354.10 56.35 0.3650 353.800 67.470 25.610 8.819 16.780 27.452 7.409 20.023
WS7MET_125 2015-09-28 16:30:00 125 10426.0 22.040 22.330 22.550 23.120   32.640 25.850 4.862 2.477 32.47 7.85 14.200 14.240 14.880 14.190 13.420 22.120 22.450 22.680 23.310   6.425 3.655 33.54 9.39 0.8490 1.1000 21.810 22.030 22.320 22.970   3.467 0.357 0.00000 0.00 237 0.00 0.00 0.1190 97.30 42.41 0.3350 119.700 46.540 26.501 8.639 17.851 28.295 7.301 20.981
WS7MET_125 2015-09-28 16:25:00 125 10426.0 22.190 22.470 22.700 23.420   28.910 23.840 3.195 1.588 33.27 9.46 14.180 14.240 14.880 14.190 13.430 22.360 22.700 22.880 23.590   5.986 3.597 33.54 10.73 0.6930 0.7000 21.980 22.280 22.580 23.210   0.951 -0.096 0.00000 0.00 336 0.00 0.00 0.1740 225.40 64.82 0.3650 180.000 72.000 26.744 7.683 19.012 28.812 6.851 21.944
WS7MET_125 2015-09-28 16:20:00 125 10426.0 22.530 22.840 22.980 23.830   30.680 24.880 4.353 2.518 36.69 10.93 14.160 14.240 14.880 14.190 13.450 22.660 22.970 23.110 23.990   6.587 5.908 46.96 12.07 1.0320 1.2000 22.360 22.620 22.770 23.550   1.317 0.976 0.00000 0.00 233 0.00 0.00 0.3500 163.20 51.90 0.6450 176.500 48.610 27.302 8.336 18.926 29.532 7.322 22.185
WS7MET_125 2015-09-28 16:15:00 125 10426.0 22.640 22.800 23.100 24.340   31.500 24.990 4.812 3.022 43.94 12.48 14.150 14.240 14.880 14.190 13.460 22.970 23.100 23.440 24.640   6.550 4.564 49.64 13.42 1.1240 1.4000 22.390 22.530 22.780 23.930   1.133 0.717 0.00000 0.00 206 0.00 0.00 0.3340 125.30 75.20 0.5750 161.400 58.560 27.485 8.609 18.827 30.450 7.589 22.840
WS7MET_125 2015-09-28 16:10:00 125 10426.0 22.990 23.170 23.680 24.560   29.510 24.540 4.168 2.889 51.38 14.29 14.130 14.240 14.880 14.200 13.480 23.140 23.300 23.850 24.710   7.513 6.110 108.70 14.76 1.1170 1.4000 22.800 23.020 23.490 24.370   2.033 0.912 0.00000 0.00 276 0.00 0.00 0.3020 73.00 41.45 0.5050 104.300 61.460 28.074 8.229 19.789 30.853 7.518 23.282
WS7MET_125 2015-09-28 16:05:00 125 10426.0 22.710 22.820 23.310 24.360   32.740 27.460 5.439 4.321 136.80 16.64 14.110 14.240 14.880 14.200 13.490 22.870 23.010 23.630 24.570   7.464 6.600 245.50 17.44 1.1960 1.6000 22.600 22.720 23.180 24.230   1.907 1.217 0.00000 0.00 241 0.00 0.00 0.3210 202.30 34.28 0.6400 196.200 68.760 27.602 8.994 18.565 30.486 8.318 22.115
WS7MET_125 2015-09-28 16:00:00 125 10426.0 23.210 23.440 23.830 24.850   34.470 29.200 6.688 5.658 332.70 19.39 14.090 14.240 14.890 14.180 13.510 23.480 23.840 24.210 25.020   8.090 7.898 350.20 20.12 0.5230 0.8000 22.900 22.920 23.320 24.610   5.186 2.304 0.00000 0.00 231 0.00 0.00 0.1660 41.70 31.63 0.4100 43.910 60.610 28.450 9.805 18.643 31.392 9.131 22.225
WS7MET_125 2015-09-28 15:55:00 125 10426.0 23.480 24.080 24.390 25.050   30.740 26.540 5.256 4.483 350.40 21.40 14.070 14.240 14.900 14.190 13.530 23.550 24.210 24.550 25.360   6.861 6.621 359.60 22.81 0.4180 0.6000 23.380 23.890 24.260 24.920   3.175 2.977 0.00000 0.00 271 0.00 0.00 0.0610 106.10 8.21 0.3200 134.100 38.430 28.917 8.880 20.028 31.768 8.413 23.337
WS7MET_125 2015-09-28 15:50:00 125 10426.0 23.620 24.090 24.520 25.100   30.720 25.130 5.375 3.775 370.20 23.48 14.060 14.240 14.880 14.200 13.550 23.760 24.150 24.590 25.320   6.793 5.102 379.70 24.15 0.1630 0.5000 23.410 24.040 24.450 24.880   4.239 2.803 0.00000 0.00 238 0.00 0.00 0.0200 88.80 4.29 0.2550 133.700 68.790 29.162 8.954 20.203 31.863 8.004 23.856
WS7MET_125 2015-09-28 15:45:00 125 10426.0 23.570 23.990 24.440 24.980   27.070 23.380 3.499 2.638 388.00 25.89 14.040 14.250 14.880 14.200 13.580 23.820 24.110 24.470 25.090   6.880 4.978 397.10 26.83 0.9150 1.1000 23.410 23.820 24.370 24.810   1.979 1.550 0.00000 0.00 245 0.00 0.00 0.2590 210.00 20.59 0.4750 218.200 43.360 29.074 7.850 21.204 31.636 7.385 24.240
WS7MET_125 2015-09-28 15:40:00 125 10426.0 23.640 23.930 24.460 25.350   31.590 25.620 5.785 4.258 322.30 27.84 14.030 14.230 14.890 14.200 13.610 23.890 24.130 24.630 25.730   7.545 5.622 399.80 28.17 0.7710 1.0000 23.410 23.760 24.290 24.980   4.036 2.771 0.00000 0.00 275 0.00 0.00 0.3430 220.40 25.16 0.4700 213.400 42.200 29.197 9.212 19.974 32.340 8.281 24.055
WS7MET_125 2015-09-28 15:35:00 125 10426.0 23.930 24.180 24.760 25.840   28.160 23.690 4.296 3.483 266.20 30.19 14.010 14.220 14.890 14.200 13.650 24.130 24.390 25.000 26.040   7.254 6.605 362.20 32.20 0.7190 1.2000 23.790 24.080 24.670 25.600   2.037 1.629 0.00000 0.00 206 0.00 0.00 0.1370 213.40 41.59 0.4850 215.400 62.180 29.710 8.303 21.344 33.293 7.841 25.406
WS7MET_125 2015-09-28 15:30:00 125 10426.0 24.430 24.530 25.070 25.880   29.800 25.510 5.624 4.613 204.10 34.41 13.990 14.230 14.890 14.200 13.760 24.680 24.750 25.400 26.110   7.060 6.913 328.70 36.22 0.5950 0.8000 24.130 24.390 24.920 25.730   3.614 2.606 0.00000 0.00 277 0.00 0.00 0.1760 103.50 29.15 0.3450 158.000 41.830 30.614 9.110 21.491 33.372 8.490 24.859
WS7MET_125 2015-09-28 15:25:00 125 10426.0 24.790 24.910 25.530 26.160   26.200 22.770 4.084 3.263 233.40 37.77 13.960 14.230 14.890 14.200 13.920 25.020 25.160 25.740 26.350   6.764 4.955 379.70 40.25 0.8890 2.5000 24.610 24.750 25.350 26.010   2.488 2.186 0.00000 0.00 237 0.00 0.00 0.3430 202.30 47.46 0.6200 214.100 46.720 31.280 8.180 23.084 33.929 7.720 26.203
WS7MET_125 2015-09-28 15:20:00 125 10426.0 24.980 25.170 25.500 25.970   28.230 24.470 5.332 4.118 188.40 40.65 13.950 14.230 14.890 14.200 14.030 25.090 25.250 25.720 26.110   6.357 5.703 277.70 41.59 0.8820 1.1000 24.850 25.090 25.350 25.870   3.656 2.605 0.00000 0.00 231 0.00 0.00 0.4340 197.90 46.91 0.5550 203.700 43.610 31.636 8.927 22.705 33.550 8.200 25.341
WS7MET_125 2015-09-28 15:15:00 125 10426.0 24.980 25.240 25.450 25.930   27.060 24.210 4.695 3.932 386.30 42.87 13.930 14.230 14.890 14.200 14.100 25.090 25.330 25.560 26.080   6.880 5.806 495.10 44.27 0.8750 1.9000 24.780 25.070 25.270 25.730   2.859 2.878 0.00000 0.00 241 0.00 0.00 0.3020 98.60 50.14 0.6700 131.300 47.090 31.636 8.539 23.075 33.471 8.093 25.368
WS7MET_125 2015-09-28 15:10:00 125 10426.0 24.670 24.930 25.190 25.700   29.210 25.370 5.547 4.409 500.50 44.61 13.910 14.230 14.890 14.200 13.940 24.810 25.050 25.290 25.840   7.718 6.147 504.50 45.62 0.7840 1.0000 24.540 24.760 25.000 25.500   4.022 3.413 0.00000 0.00 410 0.00 0.00 0.4030 104.10 43.80 0.5250 121.600 57.990 31.056 9.061 21.985 33.019 8.369 24.642
WS7MET_125 2015-09-28 15:05:00 125 10426.0 24.730 24.960 25.150 25.710   28.720 25.090 5.361 4.272 510.50 47.16 13.900 14.230 14.900 14.200 13.830 24.810 25.090 25.310 25.940   6.632 5.820 516.50 49.64 1.1890 1.5000 24.540 24.720 24.950 25.560   3.386 2.963 0.00000 0.00 204 0.00 0.00 0.4760 107.80 42.17 0.6450 121.500 40.960 31.168 8.945 22.216 33.038 8.289 24.749
WS7MET_125 2015-09-28 15:00:00 125 10426.0 24.930 25.100 25.190 25.710   28.900 24.390 5.623 3.872 530.10 51.99 13.870 14.230 14.890 14.200 13.920 25.090 25.410 25.430 25.870   6.981 4.909 540.70 55.01 0.9800 1.2000 24.750 24.910 25.030 25.600   4.003 2.814 0.00000 0.00 238 0.00 0.00 0.5780 114.10 28.69 0.6950 132.300 31.390 31.542 9.109 22.426 33.038 8.059 24.980
WS7MET_125 2015-09-28 14:55:00 125 10426.0 25.080 25.380 25.440 25.970   26.360 23.850 4.425 3.764 545.30 56.89 13.860 14.230 14.900 14.200 13.920 25.120 25.470 25.510 26.080   7.051 5.086 558.10 59.03 0.9730 1.6000 25.020 25.310 25.400 25.840   3.401 2.842 0.00000 0.00 237 0.00 0.00 0.4940 122.50 55.45 0.7100 131.300 47.220 31.825 8.379 23.436 33.550 7.998 25.549
WS7MET_125 2015-09-28 14:50:00 125 10426.0 25.030 25.200 25.370 25.770   26.730 23.430 4.583 3.347 550.50 60.71 13.840 14.230 14.900 14.200 13.950 25.120 25.250 25.450 25.900   5.943 4.204 564.80 64.40 1.1560 1.8000 24.920 25.150 25.320 25.600   3.489 2.218 0.00000 0.00 267 0.00 0.00 0.5310 119.10 73.53 0.9450 129.500 68.540 31.730 8.472 23.249 33.156 7.766 25.387
WS7MET_125 2015-09-28 14:45:00 125 10426.0 24.810 24.980 25.290 25.610   28.810 24.420 5.485 3.802 574.80 67.15 13.820 14.230 14.900 14.200 14.070 24.880 25.130 25.400 25.770   6.969 4.915 590.30 69.76 1.8230 2.4000 24.750 24.830 25.240 25.500   3.835 2.672 0.00000 0.00 242 0.00 0.00 0.6940 117.20 46.00 0.8800 121.700 53.140 31.317 9.022 22.295 32.843 8.020 24.823
WS7MET_125 2015-09-28 14:40:00 125 10426.0 24.790 25.140 25.410 25.680   27.700 23.750 4.855 3.453 577.70 70.30 13.800 14.230 14.900 14.200 14.120 24.880 25.250 25.560 25.840   7.129 5.456 601.10 73.79 1.4050 1.7000 24.710 24.990 25.270 25.530   2.418 2.382 0.00000 0.00 232 0.00 0.00 0.6770 108.70 33.23 0.7750 128.800 41.530 31.280 8.635 22.615 32.979 7.824 25.147
WS7MET_125 2015-09-28 14:35:00 125 10426.0 24.780 25.150 25.460 25.780   26.210 23.160 4.077 3.188 487.60 60.37 13.790 14.230 14.900 14.200 14.140 24.880 25.240 25.550 25.900   5.666 4.445 609.10 75.13 0.9280 1.3000 24.640 25.030 25.360 25.560   2.037 1.590 0.00000 0.00 206 0.00 0.00 0.3340 117.70 55.52 0.6150 123.600 54.600 31.261 8.176 23.068 33.175 7.679 25.492
WS7MET_125 2015-09-28 14:30:00 125 10426.0 24.840 25.100 25.370 25.630   25.260 22.630 3.626 2.736 596.10 75.40 13.770 14.240 14.900 14.200 14.150 24.950 25.150 25.430 25.940   5.120 3.677 601.10 76.47 0.7840 1.1000 24.780 25.040 25.270 25.460   2.079 1.762 0.00000 0.00 539 0.00 0.00 0.3670 134.30 48.36 0.5400 168.900 56.660 31.373 7.921 23.448 32.882 7.437 25.441
WS7MET_125 2015-09-28 14:25:00 125 10426.0 24.990 25.220 25.510 25.720   27.500 24.370 4.962 3.865 597.00 76.61 13.750 14.240 14.910 14.200 14.150 25.090 25.390 25.670 25.840   7.444 4.875 599.70 77.81 1.6200 1.3000 24.880 25.110 25.390 25.600   3.905 2.572 0.00000 0.00 243 0.00 0.00 0.7050 146.40 53.66 0.8400 148.100 40.770 31.655 8.700 22.950 33.058 8.055 25.002
WS7MET_125 2015-09-28 14:20:00 125 10426.0 25.060 25.250 25.630 25.850   28.320 25.060 5.439 4.365 602.40 78.35 13.730 14.240 14.910 14.200 14.140 25.150 25.330 25.750 25.940   6.766 6.859 606.40 79.16 1.9080 1.6000 24.880 25.170 25.480 25.700   4.125 3.588 0.00000 0.00 211 0.00 0.00 0.5180 141.10 59.43 0.7350 155.400 54.200 31.787 8.994 22.785 33.313 8.343 24.965
WS7MET_125 2015-09-28 14:15:00 125 10426.0 25.320 25.270 25.490 25.810   26.170 23.430 4.521 3.384 610.00 81.00 13.720 14.240 14.910 14.200 14.140 25.600 25.390 25.590 25.870   6.906 4.013 614.50 81.80 1.5810 2.2000 25.120 25.170 25.430 25.700   3.269 2.563 0.00000 0.00 399 0.00 0.00 0.7510 111.80 56.03 0.8550 134.000 57.520 32.282 8.435 23.834 33.234 7.786 25.448
WS7MET_125 2015-09-28 14:10:00 125 10426.0 26.100 25.940 26.020 26.160   28.080 24.810 6.170 4.482 487.70 82.80 13.700 14.240 14.910 14.200 14.120 26.420 26.280 26.350 26.450   9.170 6.014 617.10 83.20 1.3920 1.8000 25.670 25.390 25.560 25.770   4.269 3.693 0.00000 0.00 230 0.00 0.00 0.7060 131.00 24.30 0.8700 149.900 28.290 33.809 9.461 24.316 33.929 8.412 25.511
WS7MET_125 2015-09-28 14:05:00 125 10426.0 26.220 26.200 26.110 26.040   26.650 24.570 5.564 4.251 460.50 84.40 13.690 14.240 14.910 14.200 14.110 26.350 26.370 26.270 26.250   6.644 4.951 627.90 85.90 1.4180 1.7000 26.110 26.000 25.890 25.800   4.508 3.337 0.00000 0.00 275 0.00 0.00 0.4440 134.40 26.48 0.6800 147.500 38.990 34.050 9.072 24.975 33.690 8.277 25.412
WS7MET_125 2015-09-28 14:00:00 125 10426.0 26.220 26.190 26.250 26.270   25.730 23.620 5.038 3.880 265.80 86.40 13.670 14.240 14.910 14.200 14.120 26.450 26.340 26.380 26.480   7.949 4.888 469.60 87.20 0.7770 1.3000 26.080 26.060 26.100 26.110   3.724 3.091 0.00000 0.00 230 0.00 0.00 0.5220 117.60 27.22 0.7100 134.700 31.750 34.050 8.746 25.289 34.150 8.064 26.084
WS7MET_125 2015-09-28 13:55:00 125 10426.0 26.490 26.530 26.570 26.350   26.870 24.530 5.906 4.490 203.30 88.70 13.650 14.240 14.910 14.200 14.120 26.690 26.750 26.740 26.520   7.578 5.714 285.80 89.90 1.2090 1.3000 26.280 26.170 26.210 26.110   3.789 3.419 0.00000 0.00 206 0.00 0.00 0.6160 139.60 50.57 0.8050 160.400 35.510 34.596 9.290 25.300 34.312 8.417 25.895
WS7MET_125 2015-09-28 13:50:00 125 10426.0 26.020 25.990 26.210 25.970   29.060 25.970 6.589 4.945 300.90 91.20 13.630 14.250 14.910 14.200 14.110 26.280 26.450 26.570 26.280   8.250 6.872 555.40 92.60 1.0910 2.0000 25.770 25.600 25.870 25.670   3.789 3.283 0.00000 0.00 211 0.00 0.00 0.5080 190.90 37.73 0.7800 204.300 30.360 33.650 9.739 23.871 33.550 8.689 24.837
WS7MET_125 2015-09-28 13:45:00 125 10426.0 25.690 25.600 26.010 25.970   27.560 24.930 5.586 4.391 641.60 94.10 13.620 14.250 14.910 14.200 13.930 25.800 25.850 26.240 26.280   7.202 6.346 660.10 95.30 0.8750 1.1000 25.600 25.330 25.830 25.630   3.919 3.357 0.00000 0.00 241 0.00 0.00 0.3480 138.30 34.28 0.5300 144.100 59.950 32.999 9.086 23.904 33.550 8.359 25.186
WS7MET_125 2015-09-28 13:40:00 125 10426.0 25.810 25.490 25.910 25.830   26.580 24.600 5.158 4.085 664.40 96.80 13.600 14.250 14.910 14.200 13.870 26.010 25.810 26.210 26.080   6.662 5.739 666.80 97.90 1.4570 2.0000 25.630 25.280 25.760 25.560   3.544 3.282 0.00000 0.00 406 0.00 0.00 0.5520 123.10 42.66 0.7800 142.900 49.120 33.234 8.819 24.401 33.274 8.181 25.088
WS7MET_125 2015-09-28 13:35:00 125 10426.0 25.990 26.070 26.270 26.010   26.410 24.130 5.191 3.965 670.90 99.70 13.590 14.250 14.910 14.200 13.850 26.110 26.370 26.520 26.180   8.010 5.964 673.50 100.60 0.9540 2.2000 25.770 25.720 26.020 25.900   3.092 2.893 0.00000 0.00 201 0.00 0.00 0.3900 219.20 64.79 0.6600 219.900 57.760 33.590 8.840 24.719 33.630 8.112 25.515
WS7MET_125 2015-09-28 13:30:00 125 10426.0 25.630 25.790 25.800 25.810   25.210 24.380 4.249 3.929 676.90 102.60 13.570 14.250 14.910 14.200 13.840 25.800 26.050 26.100 26.040   6.708 5.670 680.20 104.60 2.0650 2.7000 25.500 25.640 25.620 25.630   3.069 2.800 0.00000 0.00 204 0.00 0.00 0.8710 267.90 39.16 1.0400 282.800 41.470 32.882 8.276 24.592 33.234 8.092 25.132
WS7MET_125 2015-09-28 13:25:00 125 10426.0 25.630 25.760 25.880 25.670   25.130 23.690 4.207 3.423 683.30 105.80 13.560 14.250 14.910 14.200 13.940 25.700 25.950 26.050 25.840   5.567 5.014 686.90 107.30 1.6400 1.9000 25.500 25.630 25.670 25.500   3.009 2.572 0.00000 0.00 205 0.00 0.00 0.4870 224.50 89.70 0.8300 173.300 74.500 32.882 8.251 24.619 32.960 7.808 25.152
WS7MET_125 2015-09-28 13:20:00 125 10426.0 25.590 25.530 25.670 25.580   23.510 22.810 3.250 2.813 688.00 108.20 13.550 14.250 14.910 14.190 14.090 25.770 25.740 25.910 25.670   4.057 3.654 690.90 110.00 2.2610 3.2000 25.460 25.400 25.470 25.460   2.608 2.312 0.00000 0.00 226 0.00 0.00 0.9490 267.10 34.52 1.1650 284.600 52.520 32.804 7.713 25.092 32.785 7.477 25.306
WS7MET_125 2015-09-28 13:15:00 125 10426.0 25.940 25.870 25.960 25.780   24.060 23.060 3.860 3.135 693.40 111.00 13.530 14.250 14.910 14.190 14.160 26.080 25.980 26.100 25.900   5.753 4.241 695.00 112.70 1.8160 2.4000 25.840 25.520 25.720 25.560   2.663 2.180 0.00000 0.00 205 0.00 0.00 0.7680 202.70 65.45 1.0400 235.000 60.050 33.491 8.052 25.433 33.175 7.650 25.525
WS7MET_125 2015-09-28 13:10:00 125 10426.0 26.030 26.060 26.130 25.840   25.240 23.470 4.612 3.426 697.50 113.70 13.520 14.250 14.910 14.190 14.160 26.180 26.160 26.270 25.940   6.219 4.618 700.30 115.40 1.8550 2.4000 25.870 25.870 26.020 25.770   3.099 2.707 0.00000 0.00 234 0.00 0.00 0.8520 218.60 40.73 1.1200 238.700 29.130 33.670 8.489 25.171 33.293 7.809 25.479
WS7MET_125 2015-09-28 13:05:00 125 10426.0 25.820 25.860 25.970 25.750   24.270 23.010 3.889 3.079 702.10 116.70 13.510 14.260 14.910 14.190 14.180 25.900 25.940 26.100 25.900   4.996 3.709 705.70 118.10 1.3390 1.9000 25.670 25.740 25.860 25.630   3.055 2.534 0.00000 0.00 245 0.00 0.00 0.7710 192.30 34.21 0.9500 203.300 29.790 33.254 8.069 25.183 33.116 7.620 25.496
WS7MET_125 2015-09-28 13:00:00 125 10426.0 25.940 26.280 26.430 26.160   28.380 25.730 6.205 5.003 706.40 119.60 13.490 14.270 14.910 14.190 14.190 26.140 26.530 26.710 26.310   9.060 6.429 708.40 120.70 1.5290 1.8000 25.730 26.000 26.160 25.940   4.637 3.482 0.00000 0.00 238 0.00 0.00 0.7860 203.20 36.14 0.9650 222.900 40.490 33.491 9.484 23.986 33.929 8.724 25.199
WS7MET_125 2015-09-28 12:55:00 125 10426.0 25.660 25.970 26.130 25.730   27.640 26.990 5.616 5.319 709.90 122.80 13.490 14.270 14.910 14.180 14.200 25.840 26.130 26.350 26.010   6.560 6.980 712.40 124.80 1.0390 1.7000 25.500 25.760 25.890 25.360   4.661 3.934 0.00000 0.00 199 0.00 0.00 0.3360 116.40 68.62 0.5750 163.400 58.840 32.940 9.105 23.836 33.077 8.919 24.150
WS7MET_125 2015-09-28 12:50:00 125 10426.0 25.210 25.770 25.970 25.530   29.850 26.950 6.317 5.133 713.00 126.00 13.470 14.270 14.910 14.190 14.210 25.670 26.130 26.350 25.670   8.300 7.193 716.40 127.50 1.3390 1.2000 24.780 25.410 25.630 25.290   4.501 4.029 0.00000 0.00 235 0.00 0.00 0.5200 184.70 63.38 0.6350 182.300 52.870 32.072 9.558 22.499 32.687 8.804 23.878
WS7MET_125 2015-09-28 12:45:00 125 10426.0 24.560 24.940 25.280 25.010   29.250 27.210 5.468 4.814 722.70 130.90 13.460 14.270 14.910 14.190 14.210 24.810 25.430 25.700 25.390   6.940 7.036 728.50 132.80 0.7840 0.9000 24.400 24.660 25.050 24.740   3.805 3.549 0.00000 0.00 241 0.00 0.00 0.2990 348.70 93.20 0.5250 283.100 74.950 30.853 9.012 21.829 31.693 8.610 23.069
WS7MET_125 2015-09-28 12:40:00 125 10426.0 25.180 25.210 25.560 25.270   26.360 25.140 4.529 3.933 730.20 133.70 13.450 14.280 14.910 14.190 14.230 25.770 25.970 26.210 25.800   5.737 4.934 735.20 135.50 1.9270 2.2000 24.680 24.800 25.190 24.980   3.904 3.518 0.00000 0.00 283 0.00 0.00 0.7030 224.90 45.45 0.9450 245.000 53.660 32.015 8.440 23.576 32.187 8.094 24.095
WS7MET_125 2015-09-28 12:35:00 125 10426.0 25.370 25.700 25.880 25.440   27.590 26.280 5.350 4.703 734.40 135.40 13.450 14.280 14.910 14.190 14.220 25.770 26.190 26.410 25.940   6.349 6.145 736.60 135.50 0.7060 1.1000 25.050 25.280 25.540 25.050   4.615 4.069 0.00000 0.00 235 0.00 0.00 0.1670 315.60 42.86 0.3500 298.600 56.270 32.378 8.938 23.445 32.513 8.543 23.969
WS7MET_125 2015-09-28 12:30:00 125 10426.0 24.860 25.170 25.350 24.940   27.940 26.770 5.085 4.548 728.60 134.40 13.430 14.280 14.910 14.200 14.240 25.050 25.350 25.520 25.150   6.618 5.533 731.20 135.50 1.2940 1.7000 24.640 24.910 25.080 24.680   4.350 3.829 0.00000 0.00 210 0.00 0.00 0.4600 245.40 25.32 0.6400 247.000 40.410 31.411 8.775 22.634 31.561 8.451 23.112
WS7MET_125 2015-09-28 12:25:00 125 10426.0 24.580 24.780 24.950 24.590   28.780 27.980 5.244 4.854 725.80 132.90 13.430 14.280 14.910 14.190 14.240 24.780 25.110 25.170 25.090   7.703 6.946 727.20 134.20 0.9280 1.3000 24.470 24.550 24.720 24.400   4.022 3.717 0.00000 0.00 206 0.00 0.00 0.3910 210.20 52.66 0.6550 218.500 38.960 30.890 8.872 22.000 30.908 8.634 22.260
WS7MET_125 2015-09-28 12:20:00 125 10426.0 24.670 24.940 25.140 24.690   27.780 26.750 4.838 4.322 728.80 132.80 13.420 14.290 14.910 14.190 14.250 24.880 25.210 25.360 24.880   6.078 5.218 732.50 132.80 1.4440 2.1000 24.470 24.600 24.850 24.440   4.123 3.705 0.00000 0.00 239 0.00 0.00 0.6640 212.10 41.38 1.0000 233.900 43.410 31.056 8.625 22.429 31.094 8.318 22.776
WS7MET_125 2015-09-28 12:15:00 125 10426.0 24.460 24.820 25.060 24.630   28.180 26.980 4.873 4.393 735.80 132.80 13.410 14.290 14.910 14.190 14.250 24.710 25.040 25.250 25.120   5.802 5.088 737.90 132.80 1.2280 2.0000 24.100 24.530 24.700 24.270   4.324 3.937 0.00000 0.00 212 0.00 0.00 0.4200 218.40 44.31 0.8500 251.700 48.870 30.669 8.646 22.027 30.982 8.360 22.623
WS7MET_125 2015-09-28 12:10:00 125 10426.0 23.870 24.130 24.380 23.930   29.720 28.420 5.122 4.536 733.20 132.80 13.410 14.290 14.910 14.190 14.260 24.100 24.450 24.640 24.270   6.658 5.178 743.30 134.20 1.5810 1.9000 23.620 23.820 24.080 23.620   4.509 3.884 0.00000 0.00 245 0.00 0.00 0.5860 204.50 58.00 0.9050 213.400 56.640 29.603 8.797 20.805 29.710 8.444 21.267
WS7MET_125 2015-09-28 12:05:00 125 10426.0 23.340 23.420 23.720 23.360   29.270 28.400 4.452 4.043 733.30 132.60 13.400 14.300 14.910 14.200 14.260 23.620 23.780 24.040 23.620   5.285 4.736 747.30 135.50 1.3850 1.8000 23.170 23.160 23.480 23.210   3.772 3.398 0.00000 0.00 282 0.00 0.00 0.5570 220.40 67.77 0.7200 232.600 51.870 28.674 8.395 20.281 28.708 8.157 20.555
WS7MET_125 2015-09-28 12:00:00 125 10426.0 23.410 23.510 23.730 23.360   29.910 28.630 4.819 4.146 738.00 134.80 13.400 14.300 14.910 14.190 14.280 23.520 23.710 23.910 23.620   5.966 5.659 741.90 136.80 1.7640 1.7000 23.280 23.230 23.450 23.110   3.945 3.450 0.00000 0.00 227 0.00 0.00 0.8320 238.90 26.18 0.9050 256.100 33.160 28.795 8.613 20.183 28.708 8.216 20.489
WS7MET_125 2015-09-28 11:55:00 125 10426.0 23.390 23.330 23.490 23.260   28.920 28.240 4.328 3.874 751.30 139.50 13.390 14.300 14.910 14.190 14.280 23.580 23.530 23.680 23.480   5.032 4.329 766.10 143.60 1.8100 2.2000 23.210 23.210 23.400 23.110   3.886 3.387 0.00000 0.00 278 0.00 0.00 0.8660 224.10 51.47 1.1250 238.500 49.170 28.760 8.322 20.443 28.536 8.060 20.477
WS7MET_125 2015-09-28 11:50:00 125 10426.0 23.970 24.210 24.130 23.830   30.080 28.840 5.375 4.656 650.20 121.80 13.390 14.310 14.900 14.190 14.280 24.300 24.550 24.580 24.060   7.196 6.627 776.80 146.20 1.5420 2.2000 23.650 23.590 23.660 23.450   4.077 3.721 0.00000 0.00 233 0.00 0.00 0.8260 232.40 42.20 0.9950 238.600 50.290 29.782 8.954 20.823 29.532 8.515 21.015
WS7MET_125 2015-09-28 11:45:00 125 10426.0 23.750 24.050 23.990 23.720   32.130 30.720 6.141 5.471 733.30 139.70 13.380 14.310 14.910 14.190 14.290 23.960 24.380 24.360 23.960   7.040 6.494 750.00 142.20 1.1240 1.4000 23.480 23.860 23.800 23.410   5.038 4.711 0.00000 0.00 233 0.00 0.00 0.5000 230.30 31.15 0.6500 238.300 41.780 29.391 9.442 19.947 29.338 9.014 20.325
WS7MET_125 2015-09-28 11:40:00 125 10426.0 23.020 23.190 23.360 23.050   32.450 30.070 5.625 4.581 722.00 139.50 13.380 14.310 14.910 14.190 14.280 23.450 23.810 23.760 23.310   7.097 5.986 725.80 139.50 0.8230 1.0000 22.700 22.720 22.970 22.700   3.848 3.591 0.00000 0.00 243 0.00 0.00 0.3940 199.80 18.86 0.5750 209.800 20.510 28.125 9.111 18.998 28.176 8.471 19.703
WS7MET_125 2015-09-28 11:35:00 125 10426.0 22.810 22.920 23.180 22.850   30.350 29.120 4.501 3.949 716.50 140.20 13.380 14.310 14.910 14.190 14.290 23.010 23.260 23.480 23.110   6.058 5.418 720.50 140.90 1.4570 2.2000 22.700 22.740 22.990 22.630   3.496 3.161 0.00000 0.00 235 0.00 0.00 0.7400 249.10 25.18 0.9000 259.700 41.620 27.770 8.423 19.342 27.837 8.103 19.731
WS7MET_125 2015-09-28 11:30:00 125 10426.0 22.490 22.670 22.900 22.650   31.250 30.240 4.644 4.309 710.10 140.40 13.380 14.310 14.910 14.190 14.290 22.800 23.070 23.300 22.940   6.283 5.480 715.10 142.20 1.6460 2.2000 22.250 22.390 22.670 22.490   3.348 2.904 0.00000 0.00 232 0.00 0.00 0.5700 265.60 36.35 0.7800 282.200 21.450 27.236 8.508 18.725 27.502 8.311 19.185
WS7MET_125 2015-09-28 11:25:00 125 10426.0 22.340 22.650 23.060 22.650   30.860 29.430 4.334 3.928 704.10 140.70 13.380 14.310 14.910 14.190 14.290 22.530 22.860 23.290 22.870   5.789 4.676 712.40 142.20 0.8230 1.3000 22.020 22.410 22.820 22.430   3.553 3.460 0.00000 0.00 239 0.00 0.00 0.3660 168.30 51.01 0.6450 191.600 49.700 26.989 8.325 18.660 27.502 8.091 19.408
WS7MET_125 2015-09-28 11:20:00 125 10426.0 21.750 22.100 22.480 22.150   31.080 29.640 3.933 3.599 704.80 142.20 13.380 14.320 14.910 14.190 14.300 22.120 22.380 22.810 22.390   5.297 4.384 709.70 142.20 1.2810 1.5000 21.570 21.850 22.160 21.880   3.474 3.247 0.00000 0.00 211 0.00 0.00 0.5050 212.50 66.16 0.6800 214.200 56.630 26.036 8.094 17.944 26.679 7.906 18.771
WS7MET_125 2015-09-28 11:15:00 125 10426.0 21.520 21.600 21.900 21.670   30.710 29.810 3.559 3.266 700.40 142.20 13.380 14.320 14.920 14.190 14.300 21.710 21.860 22.150 22.020   4.151 4.435 701.70 142.20 1.5550 1.9000 21.400 21.380 21.710 21.470   3.027 2.896 0.00000 0.00 313 0.00 0.00 0.6540 248.60 32.12 0.8450 262.900 36.190 25.673 7.883 17.789 25.909 7.722 18.186
WS7MET_125 2015-09-28 11:10:00 125 10426.0 21.640 21.670 21.950 21.730   30.180 29.150 3.412 3.011 699.20 142.20 13.390 14.330 14.920 14.190 14.300 21.780 21.810 22.150 21.910   4.569 3.509 700.40 142.20 1.9930 2.2000 21.470 21.560 21.820 21.610   2.942 2.613 0.00000 0.00 204 0.00 0.00 0.8450 238.00 35.54 1.0350 251.400 28.250 25.862 7.802 18.057 26.004 7.583 18.424
WS7MET_125 2015-09-28 11:05:00 125 10426.0 21.780 21.890 22.130 21.790   30.550 29.100 3.694 3.027 685.90 139.10 13.390 14.340 14.920 14.200 14.300 21.880 22.010 22.240 21.950   6.128 3.886 760.80 154.30 1.4310 1.8000 21.670 21.710 21.970 21.640   2.702 2.629 0.00000 0.00 207 0.00 0.00 0.7370 215.10 33.54 0.8850 240.000 47.080 26.084 7.959 18.115 26.100 7.592 18.505
WS7MET_125 2015-09-28 11:00:00 125 10426.0 21.880 22.560 22.770 22.300   32.240 29.490 4.524 3.653 697.40 140.70 13.390 14.340 14.930 14.190 14.330 22.120 22.860 23.060 22.600   6.744 4.749 707.10 143.60 1.7120 2.0000 21.540 22.080 22.290 21.910   2.724 2.401 0.00000 0.00 206 0.00 0.00 0.5810 229.80 33.79 0.8150 239.900 25.900 26.243 8.437 17.783 26.923 7.936 18.984
WS7MET_125 2015-09-28 10:55:00 125 10426.0 20.860 21.620 22.100 21.960   38.850 32.280 6.333 4.636 682.20 136.10 13.390 14.340 14.930 14.200 14.320 21.500 22.310 22.620 22.120   7.365 5.536 688.40 138.20 1.0710 1.6000 20.410 20.930 21.510 21.780   4.869 3.362 0.00000 0.00 275 0.00 0.00 0.5930 173.90 54.79 0.8950 196.600 46.830 24.654 9.568 15.076 26.372 8.503 17.859
WS7MET_125 2015-09-28 10:50:00 125 10426.0 20.100 20.670 21.380 21.580   41.880 34.580 6.737 5.294 673.20 132.60 13.400 14.340 14.930 14.200 14.330 20.380 20.960 21.610 21.850   8.960 6.276 679.10 134.20 0.6470 0.8000 19.800 20.230 21.010 21.330   4.869 4.237 0.00000 0.00 208 0.00 0.00 0.1490 72.68 38.51 0.3650 86.800 55.040 23.525 9.838 13.673 25.767 8.903 16.857
WS7MET_125 2015-09-28 10:45:00 125 10426.0 19.980 20.200 20.960 21.470   40.520 35.600 6.149 5.629 669.00 130.40 13.400 14.350 14.930 14.190 14.340 20.240 20.320 21.030 21.710   7.673 5.888 671.00 131.50 0.6400 0.9000 19.760 20.060 20.840 21.300   4.989 5.419 0.00000 0.00 239 0.00 0.00 0.2170 57.78 35.81 0.4150 92.400 63.640 23.351 9.447 13.889 25.594 9.113 16.483
WS7MET_125 2015-09-28 10:40:00 125 10426.0 20.470 20.310 20.930 21.560   40.430 35.680 6.578 5.739 663.50 127.60 13.400 14.350 14.930 14.200 14.340 20.820 20.810 21.320 21.910   7.460 6.430 667.00 128.80 0.9800 1.1000 20.170 20.160 20.740 21.370   4.873 4.898 0.00000 0.00 206 0.00 0.00 0.3210 91.50 9.99 0.4700 120.000 56.390 24.069 9.731 14.338 25.736 9.183 16.553
WS7MET_125 2015-09-28 10:35:00 125 10426.0 20.640 20.990 21.470 21.580   40.060 35.030 6.582 5.483 654.80 124.60 13.400 14.350 14.920 14.200 14.370 20.820 21.260 21.760 22.050   8.880 6.579 659.00 126.20 0.8620 1.0000 20.450 20.720 21.190 21.270   4.533 3.941 0.00000 0.00 204 0.00 0.00 0.3110 156.30 47.90 0.5150 149.500 50.240 24.323 9.734 14.579 25.767 9.021 16.741
WS7MET_125 2015-09-28 10:30:00 125 10426.0 20.260 20.390 20.900 21.300   40.010 35.460 6.231 5.417 646.00 121.50 13.410 14.370 14.930 14.200 14.400 20.450 20.750 21.270 21.440   7.751 6.485 649.60 123.50 0.4640 0.8000 20.140 20.160 20.720 21.130   4.891 4.565 0.00000 0.00 394 0.00 0.00 0.1090 233.60 49.90 0.3150 205.400 59.990 23.759 9.501 14.253 25.329 8.980 16.347
WS7MET_125 2015-09-28 10:25:00 125 10426.0 20.600 20.590 20.860 20.880   38.980 35.660 6.147 5.112 636.50 118.20 13.420 14.360 14.930 14.190 14.360 20.820 20.820 21.080 21.230   8.450 6.634 640.20 119.40 0.6470 0.8000 20.280 20.190 20.640 20.450   4.816 4.153 0.00000 0.00 203 0.00 0.00 0.1690 108.30 37.20 0.3250 143.900 57.650 24.263 9.446 14.805 24.685 8.791 15.882
WS7MET_125 2015-09-28 10:20:00 125 10426.0 20.100 20.220 20.380 20.210   37.570 35.120 5.167 4.314 625.00 113.50 13.420 14.350 14.930 14.190 14.160 20.280 20.330 20.570 20.350   6.668 5.622 632.10 115.40 1.3330 1.6000 19.870 20.130 20.280 20.070   3.274 3.081 0.00000 0.00 210 0.00 0.00 0.5890 148.40 23.47 0.7550 172.300 31.260 23.525 8.825 14.687 23.686 8.314 15.367
WS7MET_125 2015-09-28 10:15:00 125 10426.0 19.750 20.160 20.330 20.320   33.220 31.600 3.109 2.900 620.20 110.60 13.430 14.360 14.930 14.190 14.150 19.940 20.250 20.430 20.490   4.931 5.042 624.10 112.70 1.0980 1.0000 19.600 20.060 20.240 20.180   2.002 1.453 0.00000 0.00 286 0.00 0.00 0.3860 215.00 33.19 0.5750 223.800 37.980 23.021 7.636 15.373 23.847 7.524 16.312
WS7MET_125 2015-09-28 10:10:00 125 10426.0 19.420 20.130 20.320 20.200   36.790 32.540 4.229 3.203 615.60 107.80 13.420 14.370 14.920 14.190 14.120 19.630 20.240 20.430 20.450   6.317 5.634 618.70 108.70 0.8040 1.3000 19.160 20.000 20.240 20.040   1.873 1.978 0.00000 0.00 229 0.00 0.00 0.3770 191.90 67.73 0.6600 206.600 50.060 22.554 8.264 14.256 23.671 7.687 15.969
WS7MET_125 2015-09-28 10:05:00 125 10426.0 18.540 19.590 19.950 19.930   38.300 33.650 4.048 3.468 607.90 105.00 13.420 14.380 14.920 14.180 14.100 19.120 19.940 20.200 20.110   5.556 4.008 612.00 106.00 0.6930 1.5000 17.860 19.080 19.530 19.670   2.727 2.668 0.00000 0.00 231 0.00 0.00 0.3440 181.80 54.73 0.6450 202.000 42.030 21.349 8.160 13.172 23.279 7.833 15.446
WS7MET_125 2015-09-28 10:00:00 125 10426.0 17.290 18.400 19.010 19.560   41.330 35.330 4.007 3.807 598.80 101.90 13.440 14.370 14.930 14.190 13.960 17.860 19.030 19.490 19.670   5.667 5.152 605.30 103.30 0.8170 1.2000 17.010 17.960 18.630 19.470   1.704 1.779 0.00000 0.00 236 0.00 0.00 0.3960 201.30 55.48 0.6300 214.800 59.120 19.734 8.136 11.578 22.751 8.022 14.713
WS7MET_125 2015-09-28 09:55:00 125 10426.0 17.190 18.090 18.800 19.690   44.190 36.850 4.904 4.548 588.20 98.10 13.440 14.380 14.930 14.180 13.770 17.320 18.370 19.020 19.880   5.981 5.067 594.50 99.30 0.4310 0.6000 17.110 17.910 18.680 19.570   4.067 3.646 0.00000 0.00 239 0.00 0.00 0.1290 69.56 43.77 0.3100 105.200 66.700 19.610 8.664 10.944 22.935 8.451 14.484
WS7MET_125 2015-09-28 09:50:00 125 10426.0 17.320 18.540 19.260 19.880   45.960 38.060 5.584 5.179 575.20 94.30 13.440 14.380 14.930 14.180 13.570 17.450 18.730 19.530 20.180   6.689 5.698 581.10 96.60 0.6010 0.9000 17.080 18.330 18.980 19.640   4.845 4.584 0.00000 0.00 283 0.00 0.00 0.1190 218.70 29.05 0.3000 211.000 42.930 19.772 9.085 10.685 23.207 8.832 14.374
WS7MET_125 2015-09-28 09:45:00 125 10426.0 16.620 17.660 18.500 19.430   48.110 38.610 5.601 4.980 562.00 91.00 13.440 14.380 14.920 14.170 13.470 17.010 18.240 18.910 19.670   6.411 5.778 567.70 92.60 0.6140 1.0000 16.400 17.230 18.290 19.130   4.351 3.596 0.00000 0.00 209 0.00 0.00 0.2160 148.80 35.87 0.4900 172.300 32.210 18.914 9.095 9.814 22.568 8.710 13.854
WS7MET_125 2015-09-28 09:40:00 125 10426.0 16.180 16.910 18.120 18.820   46.370 38.830 4.657 4.500 550.50 88.40 13.450 14.390 14.920 14.180 13.420 16.470 17.190 18.290 19.060   5.519 6.022 555.60 89.90 0.7060 1.1000 15.890 16.510 17.850 18.510   3.643 2.879 0.00000 0.00 229 0.00 0.00 0.1970 176.60 31.87 0.3650 171.600 45.820 18.391 8.516 9.863 21.726 8.423 13.290
WS7MET_125 2015-09-28 09:35:00 125 10426.0 15.720 16.440 17.590 18.150   45.400 38.970 3.946 3.971 538.30 86.40 13.460 14.390 14.920 14.180 13.390 15.850 16.510 17.800 18.480   5.256 4.809 547.60 87.20 0.3270 0.9000 15.480 16.280 17.220 17.760   3.034 3.117 0.00000 0.00 283 0.00 0.00 0.1030 89.60 52.77 0.3800 102.900 52.650 17.859 8.101 9.751 20.833 8.116 12.715
WS7MET_125 2015-09-28 09:30:00 125 10426.0 15.180 15.820 16.570 17.260   47.980 42.150 4.247 4.291 527.10 85.00 13.460 14.390 14.920 14.180 13.360 15.440 16.220 17.140 17.690   4.924 4.884 532.80 85.90 0.2940 0.5000 15.000 15.600 16.170 16.940   3.311 3.682 0.00000 0.00 237 0.00 0.00 0.0270 262.00 13.85 0.2050 268.000 46.200 17.250 8.275 8.974 19.697 8.300 11.395
WS7MET_125 2015-09-28 09:25:00 125 10426.0 14.870 15.600 16.150 16.670   49.270 44.940 4.338 4.666 513.80 82.90 13.460 14.390 14.920 14.180 13.330 15.070 15.750 16.300 17.010   5.175 5.263 520.70 84.60 0.5950 0.9000 14.620 15.270 15.880 16.360   3.687 3.502 0.00000 0.00 235 0.00 0.00 0.1560 103.00 26.42 0.3800 120.400 51.500 16.910 8.328 8.578 18.974 8.521 10.447
WS7MET_125 2015-09-28 09:20:00 125 10426.0 14.600 15.330 15.830 16.200   50.310 46.050 4.388 4.592 500.50 80.30 13.480 14.390 14.920 14.180 13.310 14.690 15.440 15.880 16.360   4.950 5.635 507.30 81.90 0.4050 0.6000 14.450 15.250 15.730 15.920   3.644 3.603 0.00000 0.00 238 0.00 0.00 0.0990 82.80 33.50 0.2500 104.200 39.250 16.618 8.357 8.257 18.415 8.477 9.935
WS7MET_125 2015-09-28 09:15:00 125 10426.0 14.120 14.800 15.240 15.640   54.610 49.570 5.122 5.134 486.40 77.37 13.480 14.390 14.920 14.180 13.290 14.450 15.320 15.670 15.890   5.562 6.075 492.50 79.18 0.7580 1.2000 13.910 14.490 14.990 15.510   4.683 4.347 0.00000 0.00 404 0.00 0.00 0.3450 234.70 28.79 0.5450 253.200 55.020 16.110 8.797 7.312 17.767 8.805 8.960
WS7MET_125 2015-09-28 09:10:00 125 10426.0 13.860 14.500 14.970 15.340   53.590 49.230 4.605 4.755 483.90 75.16 13.480 14.400 14.920 14.180 13.260 13.970 14.590 15.100 15.510   5.521 5.471 489.90 75.16 0.4900 0.5000 13.740 14.400 14.770 15.100   3.672 3.668 0.00000 0.00 353 0.00 0.00 0.0370 274.20 16.23 0.2450 114.500 71.210 15.840 8.485 7.351 17.429 8.575 8.849
WS7MET_125 2015-09-28 09:05:00 125 10426.0 13.620 14.270 14.620 14.950   50.650 50.290 3.582 4.704 487.00 74.82 13.490 14.410 14.920 14.180 13.240 13.800 14.400 14.760 15.170   4.208 5.185 501.90 76.50 0.3400 0.7000 13.390 14.030 14.360 14.760   3.205 4.053 0.00000 0.00 516 0.00 0.00 0.0210 236.10 30.89 0.2300 265.700 67.290 15.595 7.896 7.696 16.997 8.544 8.449
WS7MET_125 2015-09-28 09:00:00 125 10426.0 13.390 13.970 14.420 14.820   52.080 46.570 3.764 3.497 336.40 52.54 13.490 14.410 14.920 14.180 13.210 13.460 14.030 14.540 14.930   4.304 4.309 467.00 71.13 0.0780 0.7000 13.290 13.930 14.330 14.730   3.461 3.106 0.00000 0.00 246 0.00 0.00 0.0110 217.10 43.98 0.2350 94.800 59.250 15.363 7.998 7.362 16.855 7.849 9.006
WS7MET_125 2015-09-28 08:55:00 125 10426.0 13.250 13.810 14.280 14.670   51.680 48.280 3.521 3.870 133.00 32.88 13.500 14.410 14.920 14.180 13.170 13.430 14.040 14.550 14.830   4.272 4.461 185.20 59.05 0.2420 0.5000 13.120 13.660 14.060 14.450   3.088 2.994 0.00000 0.00 242 0.00 0.00 0.0630 294.10 44.12 0.2300 271.500 36.740 15.223 7.862 7.356 16.693 8.058 8.634
WS7MET_125 2015-09-28 08:50:00 125 10426.0 13.080 13.620 14.040 14.380   52.510 45.730 3.599 2.834 135.90 39.52 13.500 14.410 14.920 14.180 13.130 13.190 13.660 14.070 14.520   4.162 3.285 195.90 64.42 0.1960 0.5000 13.020 13.600 14.020 14.250   2.777 2.520 0.00000 0.00 277 0.00 0.00 0.0210 328.90 3.26 0.2350 276.000 61.150 15.055 7.906 7.150 16.383 7.489 8.891
WS7MET_125 2015-09-28 08:45:00 125 10426.0 12.930 13.550 14.140 14.480   53.620 47.060 3.746 3.332 80.90 44.89 13.520 14.410 14.920 14.180 13.110 13.050 13.620 14.270 14.550   4.359 4.433 114.10 51.00 0.7380 0.7000 12.810 13.510 14.060 14.350   2.909 2.644 0.00000 0.00 279 0.00 0.00 0.1940 260.50 37.53 0.3400 279.700 67.680 14.908 7.988 6.914 16.489 7.758 8.729
WS7MET_125 2015-09-28 08:40:00 125 10426.0 12.740 13.370 13.880 14.330   53.280 47.830 3.489 3.415 59.99 37.71 13.520 14.410 14.920 14.180 13.090 12.850 13.510 14.200 14.450   4.013 4.363 76.50 41.61 0.5290 0.9000 12.640 13.320 13.780 14.250   3.125 2.683 0.00000 0.00 207 0.00 0.00 0.1200 270.80 39.76 0.3150 277.500 57.620 14.724 7.844 6.879 16.330 7.803 8.519
WS7MET_125 2015-09-28 08:35:00 125 10426.0 12.690 13.420 13.850 14.400   54.510 47.040 3.758 3.253 73.08 28.45 13.530 14.420 14.920 14.180 13.070 12.810 13.520 13.930 14.490   4.420 3.891 98.00 33.55 0.5160 0.9000 12.470 13.250 13.740 14.320   3.177 2.401 0.00000 0.00 250 0.00 0.00 0.0860 183.80 22.34 0.2600 247.300 36.330 14.675 7.995 6.676 16.404 7.714 8.688
WS7MET_125 2015-09-28 08:30:00 125 10426.0 12.510 13.210 13.750 14.390   55.150 46.770 3.757 3.159 81.40 25.97 13.530 14.420 14.920 14.180 13.060 12.640 13.280 13.850 14.620   4.472 3.838 96.60 28.18 0.6340 0.8000 12.300 13.010 13.470 14.080   2.922 2.379 0.00000 0.00 429 0.00 0.00 0.1350 60.91 57.50 0.3300 24.170 56.180 14.503 7.994 6.505 16.394 7.663 8.726
WS7MET_125 2015-09-28 08:25:00 125 10426.0 12.290 12.930 13.480 13.840   53.150 45.120 3.035 2.153 82.90 21.34 13.540 14.430 14.920 14.180 13.050 12.410 12.990 13.510 14.080   3.521 3.417 104.70 24.16 0.5950 1.0000 12.170 12.860 13.450 13.630   2.521 1.752 0.00000 0.00 243 0.00 0.00 0.1010 331.40 43.21 0.3050 336.600 62.180 14.295 7.596 6.697 15.819 7.134 8.682
WS7MET_125 2015-09-28 08:20:00 125 10426.0 12.260 12.820 13.230 13.680   55.590 47.230 3.643 2.640 137.30 20.27 13.550 14.430 14.920 14.180 13.030 12.370 12.890 13.460 13.870   3.951 3.751 166.40 22.82 0.5290 0.9000 12.170 12.680 12.860 13.360   3.360 1.877 0.00000 0.00 501 0.00 0.00 0.3230 300.60 24.30 0.5100 311.100 24.810 14.267 7.930 6.336 15.656 7.386 8.262
WS7MET_125 2015-09-28 08:15:00 125 10426.0 12.190 12.630 12.790 13.070   57.100 51.450 3.959 3.288 253.70 23.02 13.560 14.430 14.930 14.180 13.010 12.300 12.700 12.850 13.430   4.325 3.977 351.60 24.16 0.5100 0.6000 12.060 12.530 12.690 12.750   3.379 2.530 0.00000 0.00 428 0.00 0.00 0.1650 303.90 21.58 0.3350 320.900 42.100 14.201 8.109 6.092 15.045 7.734 7.304
WS7MET_125 2015-09-28 08:10:00 125 10426.0 12.060 12.430 12.590 12.680   58.160 52.980 4.096 3.351 172.60 19.73 13.570 14.440 14.930 14.180 12.980 12.130 12.520 12.680 12.810   4.438 3.765 350.30 24.16 0.6340 0.7000 11.960 12.330 12.490 12.540   3.628 2.989 0.00000 0.00 213 0.00 0.00 0.3010 325.90 21.15 0.4000 337.900 24.480 14.080 8.187 5.891 14.666 7.768 6.896
WS7MET_125 2015-09-28 08:05:00 125 10426.0 11.900 12.190 12.330 12.420   59.410 56.190 4.252 3.942 227.60 21.61 13.570 14.440 14.930 14.180 12.960 12.030 12.330 12.480 12.580   4.414 4.232 315.40 24.16 0.5030 0.7000 11.760 12.050 12.200 12.230   4.066 3.654 0.00000 0.00 309 0.00 0.00 0.2980 334.30 9.80 0.4050 344.200 12.460 13.932 8.278 5.655 14.418 8.099 6.316
WS7MET_125 2015-09-28 08:00:00 125 10426.0 11.830 12.040 12.170 12.310   60.960 58.010 4.554 4.293 124.60 15.70 13.580 14.440 14.930 14.180 12.920 11.930 12.090 12.200 12.410   4.922 4.637 263.10 22.82 0.4050 0.6000 11.760 12.000 12.160 12.230   4.252 3.854 0.00000 0.00 389 0.00 0.00 0.1040 6.91 35.99 0.3450 30.210 39.070 13.868 8.455 5.414 14.314 8.301 6.010
WS7MET_125 2015-09-28 07:55:00 125 10426.0 11.790 12.090 12.210 12.280   59.720 57.050 4.224 4.026 63.49 10.67 13.580 14.450 14.930 14.180 12.890 11.860 12.110 12.240 12.370   4.743 4.571 69.80 12.08 0.5100 0.6000 11.720 12.060 12.180 12.200   3.580 3.576 0.00000 0.00 275 0.00 0.00 0.2030 311.70 16.34 0.3700 3.403 43.400 13.831 8.261 5.571 14.286 8.147 6.136
WS7MET_125 2015-09-28 07:50:00 125 10426.0 11.730 12.040 12.160 12.280   59.810 57.170 4.183 4.059 49.87 8.32 13.590 14.460 14.930 14.180 12.870 11.830 12.080 12.180 12.370   4.663 4.303 52.35 9.40 0.4510 0.6000 11.620 11.990 12.140 12.230   3.795 3.813 0.00000 0.00 248 0.00 0.00 0.3720 327.00 27.33 0.4400 1.010 9.810 13.777 8.238 5.537 14.286 8.166 6.118
WS7MET_125 2015-09-28 07:45:00 125 10426.0 11.650 11.950 12.110 12.200   59.660 57.360 4.078 4.035 49.53 8.05 13.600 14.460 14.930 14.180 12.850 11.760 11.990 12.140 12.270   4.278 4.356 55.03 9.40 0.4120 0.5000 11.590 11.920 12.100 12.130   3.790 3.836 0.00000 0.00 325 0.00 0.00 0.1320 311.60 23.68 0.3000 24.700 27.740 13.704 8.177 5.528 14.211 8.152 6.059
WS7MET_125 2015-09-28 07:40:00 125 10426.0 11.560 11.890 12.030 12.060   58.960 54.720 3.824 3.225 38.05 5.50 13.610 14.460 14.930 14.180 12.840 11.620 11.930 12.100 12.170   4.389 3.864 44.30 6.71 0.5620 0.6000 11.450 11.810 11.930 11.960   2.973 2.782 0.00000 0.00 277 0.00 0.00 0.4490 341.30 4.58 0.5300 353.300 9.390 13.623 8.032 5.591 14.080 7.699 6.375
WS7MET_125 2015-09-28 07:35:00 125 10426.0 11.470 11.740 11.860 11.930   56.730 53.700 3.185 2.841 44.77 7.65 13.620 14.460 14.930 14.170 12.830 11.590 11.790 11.920 12.000   3.649 3.422 46.98 8.05 0.5160 0.6000 11.420 11.720 11.830 11.860   2.797 2.565 0.00000 0.00 246 0.00 0.00 0.2790 347.30 35.88 0.4100 22.700 14.840 13.542 7.677 5.860 13.960 7.492 6.463
WS7MET_125 2015-09-28 07:30:00 125 10426.0 11.360 11.640 11.760 11.800   55.870 53.240 2.871 2.608 40.40 6.44 13.620 14.460 14.930 14.180 12.820 11.450 11.720 11.830 11.960   3.240 3.134 45.64 8.05 0.5750 0.7000 11.280 11.580 11.710 11.650   2.612 2.220 0.00000 0.00 313 0.00 0.00 0.3930 336.60 7.10 0.4900 350.900 8.210 13.444 7.508 5.933 13.841 7.369 6.472
WS7MET_125 2015-09-28 07:25:00 125 10426.0 11.340 11.560 11.680 11.780   55.250 52.540 2.693 2.401 37.65 5.57 13.630 14.470 14.930 14.180 12.820 11.420 11.580 11.710 11.830   3.401 2.650 38.93 6.71 0.4250 0.7000 11.280 11.550 11.670 11.720   2.264 2.149 0.00000 0.00 472 0.00 0.00 0.1640 11.19 4.15 0.3250 40.410 30.210 13.426 7.414 6.008 13.822 7.261 6.560
WS7MET_125 2015-09-28 07:20:00 125 10426.0 11.290 11.570 11.710 11.770   55.520 53.030 2.719 2.518 35.57 5.24 13.640 14.470 14.930 14.180 12.810 11.380 11.590 11.720 11.860   3.166 2.677 37.58 5.37 0.7120 1.0000 11.210 11.550 11.690 11.720   2.383 2.329 0.00000 0.00 351 0.00 0.00 0.5190 342.40 11.53 0.6100 358.900 12.970 13.381 7.428 5.952 13.813 7.322 6.488
WS7MET_125 2015-09-28 07:15:00 125 10426.0 11.220 11.510 11.660 11.670   55.880 52.540 2.747 2.301 35.50 5.17 13.650 14.480 14.930 14.180 12.800 11.280 11.560 11.690 11.760   3.105 2.533 37.58 5.37 0.7320 0.9000 11.140 11.470 11.610 11.550   2.420 1.996 0.00000 0.00 422 0.00 0.00 0.6000 342.60 5.95 0.7350 357.900 6.131 13.319 7.442 5.876 13.722 7.210 6.513
WS7MET_125 2015-09-28 07:10:00 125 10426.0 11.160 11.440 11.560 11.570   55.390 51.950 2.567 2.045 35.44 5.37 13.660 14.480 14.930 14.180 12.790 11.280 11.470 11.600 11.650   3.063 2.433 36.24 5.37 0.5880 0.7000 11.070 11.380 11.480 11.480   2.191 1.592 0.00000 0.00 317 0.00 0.00 0.4530 335.80 8.55 0.5700 351.400 9.350 13.266 7.348 5.918 13.632 7.079 6.550
WS7MET_125 2015-09-28 07:05:00 125 10426.0 11.060 11.320 11.430 11.470   54.430 51.440 2.223 1.811 29.66 4.30 13.660 14.480 14.930 14.180 12.780 11.180 11.370 11.460 11.550   2.794 2.076 33.56 5.37 0.5950 0.7000 10.940 11.280 11.400 11.380   1.750 1.653 0.00000 0.00 360 0.00 0.00 0.4610 337.40 10.42 0.5450 350.300 14.810 13.179 7.170 6.005 13.542 6.961 6.576
WS7MET_125 2015-09-28 07:00:00 125 10426.0 10.940 11.220 11.360 11.420   54.950 50.990 2.246 1.651 21.48 3.49 13.660 14.480 14.930 14.180 12.770 11.040 11.270 11.400 11.480   2.628 1.907 25.50 4.03 0.6270 0.7000 10.870 11.190 11.340 11.350   1.870 1.447 0.00000 0.00 206 0.00 0.00 0.3410 324.50 10.26 0.5100 344.100 19.940 13.074 7.181 5.890 13.497 6.882 6.615
WS7MET_125 2015-09-28 06:55:00 125 10426.0 10.910 11.170 11.310 11.390   54.870 51.480 2.200 1.754 15.64 2.42 13.670 14.480 14.930 14.180 12.770 10.970 11.190 11.340 11.450   2.664 2.216 17.45 2.68 0.8100 1.0000 10.800 11.150 11.300 11.310   1.668 1.475 0.00000 0.00 243 0.00 0.00 0.4620 333.90 3.94 0.6250 344.400 8.130 13.048 7.158 5.888 13.470 6.933 6.536
WS7MET_125 2015-09-28 06:50:00 125 10426.0 10.970 11.190 11.350 11.510   53.900 49.830 1.998 1.412 12.82 1.34 13.680 14.480 14.930 14.190 12.760 11.110 11.270 11.450 11.620   2.679 1.792 13.42 1.34 0.4570 0.6000 10.870 11.150 11.300 11.420   1.391 1.183 0.00000 0.00 462 0.00 0.00 0.3180 331.20 20.50 0.4150 349.800 14.640 13.100 7.055 6.039 13.578 6.765 6.812
WS7MET_125 2015-09-28 06:45:00 125 10426.0 11.060 11.370 11.550 11.600   53.130 49.320 1.875 1.350 13.49 2.01 13.690 14.490 14.930 14.180 12.760 11.110 11.430 11.580 11.690   2.728 2.069 14.77 2.68 0.4970 0.6000 10.970 11.280 11.460 11.520   1.172 1.095 0.00000 0.00 207 0.00 0.00 0.1320 338.20 4.30 0.2900 359.600 19.260 13.179 6.993 6.177 13.659 6.735 6.922
WS7MET_125 2015-09-28 06:40:00 125 10426.0 11.110 11.380 11.520 11.530   53.310 48.170 1.979 0.951 15.37 2.68 13.700 14.500 14.930 14.180 12.770 11.210 11.430 11.580 11.620   2.619 1.453 16.11 2.68 0.5950 0.8000 11.010 11.350 11.500 11.380   1.521 0.527 0.00000 0.00 207 0.00 0.00 0.3470 333.20 12.91 0.4650 352.200 9.300 13.222 7.046 6.174 13.596 6.544 7.047
WS7MET_125 2015-09-28 06:35:00 125 10426.0 11.090 11.310 11.430 11.450   50.940 47.270 1.319 0.622 16.78 2.68 13.700 14.500 14.930 14.180 12.760 11.180 11.350 11.480 11.520   2.092 0.974 17.45 2.68 0.6210 0.9000 11.010 11.260 11.390 11.350   0.663 0.322 0.00000 0.00 460 0.00 0.00 0.4950 329.80 17.94 0.5950 345.700 14.480 13.205 6.720 6.478 13.524 6.390 7.131
WS7MET_125 2015-09-28 06:30:00 125 10426.0 11.080 11.280 11.400 11.460   50.370 47.680 1.162 0.751 16.44 2.68 13.720 14.500 14.940 14.180 12.760 11.180 11.300 11.420 11.550   1.764 0.901 17.45 2.68 0.7190 0.8000 11.040 11.270 11.380 11.380   0.636 0.545 0.00000 0.00 316 0.00 0.00 0.4290 330.00 7.71 0.5550 351.000 13.690 13.196 6.644 6.549 13.533 6.450 7.080
WS7MET_125 2015-09-28 06:25:00 125 10426.0 11.100 11.340 11.460 11.540   49.970 47.010 1.062 0.627 15.17 2.68 13.720 14.500 14.940 14.180 12.760 11.140 11.370 11.490 11.620   1.913 1.328 16.11 2.68 0.6270 0.7000 11.010 11.310 11.420 11.380   0.402 0.232 0.00000 0.00 209 0.00 0.00 0.3980 324.90 6.94 0.5400 344.100 16.080 13.214 6.596 6.611 13.605 6.392 7.209
WS7MET_125 2015-09-28 06:20:00 125 10426.0 11.040 11.340 11.490 11.570   51.730 46.960 1.493 0.643 10.60 2.01 13.720 14.500 14.940 14.180 12.760 11.110 11.370 11.510 11.650   2.002 1.058 13.42 2.68 0.6860 0.8000 10.970 11.310 11.480 11.520   0.378 0.274 0.00000 0.00 417 0.00 0.00 0.3730 347.10 25.85 0.5000 3.177 23.540 13.161 6.804 6.353 13.632 6.400 7.230
WS7MET_125 2015-09-28 06:15:00 125 10426.0 11.060 11.360 11.520 11.590   50.430 46.130 1.159 0.413 5.17 0.67 13.740 14.500 14.940 14.180 12.760 11.140 11.400 11.560 11.690   1.673 0.723 6.71 1.34 0.6080 0.7000 10.970 11.340 11.490 11.520   0.627 0.129 0.00000 0.00 245 0.00 0.00 0.3660 324.40 14.88 0.4800 342.900 14.360 13.179 6.643 6.533 13.650 6.294 7.353
WS7MET_125 2015-09-28 06:10:00 125 10426.0 11.050 11.350 11.480 11.520   50.820 45.810 1.247 0.248 3.22 0.00 13.740 14.510 14.940 14.180 12.760 11.140 11.390 11.530 11.650   1.930 0.546 4.03 0.00 0.6340 0.8000 10.940 11.320 11.450 11.380   0.236 0.077 0.00000 0.00 203 0.00 0.00 0.3030 338.10 17.57 0.4450 0.135 23.190 13.170 6.685 6.477 13.587 6.219 7.363
WS7MET_125 2015-09-28 06:05:00 125 10426.0 11.030 11.290 11.400 11.400   51.030 46.820 1.293 0.442 1.34 0.00 13.750 14.510 14.940 14.180 12.760 11.140 11.350 11.470 11.520   2.038 0.893 1.34 0.00 0.7910 0.9000 10.940 11.270 11.360 11.310   0.690 -0.162 0.00000 0.00 204 0.00 0.00 0.5620 305.20 30.63 0.6200 330.700 34.660 13.152 6.707 6.441 13.479 6.307 7.168
WS7MET_125 2015-09-28 06:00:00 125 10426.0 10.960 11.240 11.350 11.360   49.800 46.860 0.892 0.416 1.34 0.00 13.750 14.520 14.940 14.180 12.760 11.040 11.280 11.370 11.520   1.491 1.036 1.34 0.00 0.7910 1.3000 10.900 11.210 11.340 11.280   0.307 0.035 0.00000 0.00 209 0.00 0.00 0.4660 339.40 23.01 0.5900 354.600 38.810 13.091 6.516 6.572 13.444 6.295 7.144
WS7MET_125 2015-09-28 05:55:00 125 10426.0 10.940 11.190 11.330 11.350   50.370 46.710 1.027 0.364 0.87 0.00 13.760 14.520 14.940 14.180 12.770 11.010 11.210 11.350 11.450   1.377 0.832 1.34 0.00 0.7060 1.0000 10.870 11.180 11.320 11.250   0.489 0.138 0.00000 0.00 539 0.00 0.00 0.5000 338.70 6.66 0.5950 355.100 7.957 13.074 6.580 6.489 13.435 6.271 7.159
WS7MET_125 2015-09-28 05:50:00 125 10426.0 10.900 11.150 11.280 11.330   50.260 47.500 0.960 0.577 0.00 0.00 13.770 14.520 14.940 14.190 12.770 11.040 11.190 11.310 11.450   1.569 0.856 0.00 0.00 0.8300 0.9000 10.800 11.130 11.270 11.250   0.268 0.249 0.00000 0.00 314 0.00 0.00 0.5700 334.90 12.20 0.6500 352.600 11.700 13.039 6.548 6.486 13.417 6.369 7.044
WS7MET_125 2015-09-28 05:45:00 125 10426.0 10.820 11.090 11.240 11.250   51.250 48.100 1.165 0.673 0.00 0.00 13.780 14.520 14.950 14.180 12.770 10.900 11.140 11.300 11.350   1.841 0.939 0.00 0.00 0.6860 0.9000 10.730 11.060 11.210 11.180   0.826 0.386 0.00000 0.00 239 0.00 0.00 0.5870 338.40 3.25 0.6900 354.200 5.258 12.970 6.645 6.323 13.346 6.413 6.926
WS7MET_125 2015-09-28 05:40:00 125 10426.0 10.780 11.020 11.150 11.160   51.060 47.580 1.069 0.447 0.00 0.00 13.790 14.520 14.950 14.170 12.770 10.840 11.080 11.210 11.250   1.694 0.748 0.00 0.00 0.7060 1.0000 10.700 10.980 11.120 11.070   0.571 0.093 0.00000 0.00 275 0.00 0.00 0.5490 338.60 18.34 0.6750 354.600 15.670 12.935 6.600 6.331 13.266 6.309 6.954
WS7MET_125 2015-09-28 05:35:00 125 10426.0 10.760 10.970 11.110 11.150   50.710 47.390 0.960 0.383 0.00 0.00 13.790 14.520 14.950 14.170 12.770 10.840 10.990 11.130 11.250   1.818 0.769 0.00 0.00 0.5420 0.8000 10.700 10.940 11.100 11.040   0.325 0.101 0.00000 0.00 203 0.00 0.00 0.3330 333.90 13.92 0.5400 352.400 23.780 12.918 6.548 6.367 13.258 6.280 6.975
WS7MET_125 2015-09-28 05:30:00 125 10426.0 10.800 11.020 11.150 11.200   50.890 46.540 1.045 0.179 0.00 0.00 13.800 14.530 14.940 14.180 12.780 10.870 11.060 11.190 11.280   1.722 0.458 0.00 0.00 0.8560 1.2000 10.730 10.980 11.130 11.110   0.286 -0.038 0.00000 0.00 228 0.00 0.00 0.3880 344.60 30.59 0.4950 5.452 32.980 12.953 6.588 6.361 13.302 6.188 7.111
WS7MET_125 2015-09-28 05:25:00 125 10426.0 10.780 11.020 11.160 11.190   50.090 47.450 0.808 0.432 0.00 0.00 13.810 14.540 14.930 14.180 12.780 10.840 11.050 11.200 11.310   1.155 1.080 0.00 0.00 0.6080 1.0000 10.730 10.980 11.120 11.070   0.297 0.094 0.00000 0.00 203 0.00 0.00 0.4090 334.50 23.15 0.5700 344.800 29.970 12.935 6.476 6.456 13.293 6.303 6.985
WS7MET_125 2015-09-28 05:20:00 125 10426.0 10.790 11.000 11.110 11.120   48.740 45.980 0.428 -0.066 0.00 0.00 13.820 14.540 14.950 14.180 12.790 10.870 11.020 11.130 11.140   1.277 0.499 0.00 0.00 0.7120 0.9000 10.730 10.960 11.100 11.070   -0.120 -0.276 0.00000 0.00 462 0.00 0.00 0.4770 333.10 12.84 0.5250 344.400 21.790 12.944 6.301 6.635 13.231 6.079 7.147
WS7MET_125 2015-09-28 05:15:00 125 10426.0 10.800 10.990 11.110 11.170   49.090 45.400 0.543 -0.193 0.00 0.00 13.830 14.530 14.950 14.180 12.790 10.870 11.020 11.150 11.210   1.103 0.022 0.00 0.00 0.8890 1.3000 10.730 10.940 11.070 11.070   -0.140 -0.716 0.00000 0.00 234 0.00 0.00 0.5400 329.10 33.26 0.7150 342.800 24.150 12.953 6.353 6.594 13.275 6.023 7.248
WS7MET_125 2015-09-28 05:10:00 125 10426.0 10.810 11.040 11.160 11.200   48.540 46.050 0.399 0.030 0.00 0.00 13.840 14.540 14.950 14.180 12.790 10.870 11.060 11.180 11.280   1.151 0.358 0.00 0.00 0.7450 0.9000 10.730 11.020 11.140 11.110   0.000 -0.132 0.00000 0.00 204 0.00 0.00 0.4400 331.00 11.55 0.5700 349.500 24.470 12.961 6.287 6.670 13.302 6.121 7.176
WS7MET_125 2015-09-28 05:05:00 125 10426.0 10.750 10.970